<?xml version="1.0" encoding="UTF-8" standalone="no" ?>
<gpx xmlns="http://www.topografix.com/GPX/1/1" xmlns:xsi="http://www.w3.org/2001/XMLSchema-instance" xsi:schemaLocation="http://www.topografix.com/GPX/1/1 http://www.topografix.com/GPX/1/1/gpx.xsd" version="1.1" creator="VisuGPX - https://www.visugpx.com">
  <metadata>
    <name>GR 400, étape 03</name>
    <desc><![CDATA[Du Col de Cabre au sommet des Cascades du Biaguin.]]></desc>
  </metadata>
  <trk>
    <name><![CDATA[GR 400 étape 03_1]]></name>
    <extensions>
      <line xmlns="http://www.topografix.com/GPX/gpx_style/0/2">
        <color>0000FF</color>
        <width>4</width>
      </line>
    </extensions>
    <trkseg>
      <trkpt lat="45.1034" lon="2.7167">
        <ele>1537.3</ele>
        <time>2021-09-10T06:28:16.000Z</time>
      </trkpt>
      <trkpt lat="45.1034" lon="2.71664">
        <ele>1536</ele>
        <time>2021-09-10T06:28:19.000Z</time>
      </trkpt>
      <trkpt lat="45.1034" lon="2.71674">
        <ele>1537.8</ele>
        <time>2021-09-10T06:28:25.000Z</time>
      </trkpt>
      <trkpt lat="45.10333" lon="2.71677">
        <ele>1539.7</ele>
        <time>2021-09-10T06:28:49.000Z</time>
      </trkpt>
      <trkpt lat="45.10329" lon="2.7167">
        <ele>1538.6</ele>
        <time>2021-09-10T06:28:58.000Z</time>
      </trkpt>
      <trkpt lat="45.10321" lon="2.71666">
        <ele>1537.9</ele>
        <time>2021-09-10T06:29:03.000Z</time>
      </trkpt>
      <trkpt lat="45.10314" lon="2.71659">
        <ele>1535.6</ele>
        <time>2021-09-10T06:29:09.000Z</time>
      </trkpt>
      <trkpt lat="45.10314" lon="2.7165">
        <ele>1532.5</ele>
        <time>2021-09-10T06:29:16.000Z</time>
      </trkpt>
      <trkpt lat="45.10315" lon="2.7164">
        <ele>1529</ele>
        <time>2021-09-10T06:29:39.000Z</time>
      </trkpt>
      <trkpt lat="45.10321" lon="2.71635">
        <ele>1527.4</ele>
        <time>2021-09-10T06:29:48.000Z</time>
      </trkpt>
      <trkpt lat="45.10328" lon="2.71631">
        <ele>1526.3</ele>
        <time>2021-09-10T06:29:54.000Z</time>
      </trkpt>
      <trkpt lat="45.10333" lon="2.71626">
        <ele>1524.8</ele>
        <time>2021-09-10T06:30:04.000Z</time>
      </trkpt>
      <trkpt lat="45.10341" lon="2.71625">
        <ele>1524.3</ele>
        <time>2021-09-10T06:30:12.000Z</time>
      </trkpt>
      <trkpt lat="45.10347" lon="2.71625">
        <ele>1524.1</ele>
        <time>2021-09-10T06:30:17.000Z</time>
      </trkpt>
      <trkpt lat="45.10353" lon="2.71621">
        <ele>1522.9</ele>
        <time>2021-09-10T06:30:23.000Z</time>
      </trkpt>
      <trkpt lat="45.1036" lon="2.71618">
        <ele>1522.1</ele>
        <time>2021-09-10T06:30:28.000Z</time>
      </trkpt>
      <trkpt lat="45.10367" lon="2.71615">
        <ele>1521.5</ele>
        <time>2021-09-10T06:30:33.000Z</time>
      </trkpt>
      <trkpt lat="45.10374" lon="2.71611">
        <ele>1520.8</ele>
        <time>2021-09-10T06:30:40.000Z</time>
      </trkpt>
      <trkpt lat="45.10381" lon="2.71607">
        <ele>1520.3</ele>
        <time>2021-09-10T06:30:48.000Z</time>
      </trkpt>
      <trkpt lat="45.10388" lon="2.71606">
        <ele>1520.4</ele>
        <time>2021-09-10T06:30:52.000Z</time>
      </trkpt>
      <trkpt lat="45.10394" lon="2.71601">
        <ele>1520.1</ele>
        <time>2021-09-10T06:30:59.000Z</time>
      </trkpt>
      <trkpt lat="45.10398" lon="2.71592">
        <ele>1519.6</ele>
        <time>2021-09-10T06:31:06.000Z</time>
      </trkpt>
      <trkpt lat="45.10403" lon="2.71585">
        <ele>1519.5</ele>
        <time>2021-09-10T06:31:11.000Z</time>
      </trkpt>
      <trkpt lat="45.10407" lon="2.71577">
        <ele>1518.4</ele>
        <time>2021-09-10T06:31:16.000Z</time>
      </trkpt>
      <trkpt lat="45.10411" lon="2.71568">
        <ele>1516.9</ele>
        <time>2021-09-10T06:31:22.000Z</time>
      </trkpt>
      <trkpt lat="45.10413" lon="2.71557">
        <ele>1514.7</ele>
        <time>2021-09-10T06:31:29.000Z</time>
      </trkpt>
      <trkpt lat="45.10417" lon="2.71549">
        <ele>1513.6</ele>
        <time>2021-09-10T06:31:35.000Z</time>
      </trkpt>
      <trkpt lat="45.10422" lon="2.7154">
        <ele>1512.8</ele>
        <time>2021-09-10T06:31:41.000Z</time>
      </trkpt>
      <trkpt lat="45.10425" lon="2.71531">
        <ele>1511.7</ele>
        <time>2021-09-10T06:31:47.000Z</time>
      </trkpt>
      <trkpt lat="45.10427" lon="2.71521">
        <ele>1510.4</ele>
        <time>2021-09-10T06:31:55.000Z</time>
      </trkpt>
      <trkpt lat="45.10429" lon="2.7151">
        <ele>1509</ele>
        <time>2021-09-10T06:32:01.000Z</time>
      </trkpt>
      <trkpt lat="45.10431" lon="2.715">
        <ele>1508</ele>
        <time>2021-09-10T06:32:07.000Z</time>
      </trkpt>
      <trkpt lat="45.10434" lon="2.71491">
        <ele>1507.8</ele>
        <time>2021-09-10T06:32:13.000Z</time>
      </trkpt>
      <trkpt lat="45.10434" lon="2.71481">
        <ele>1506.5</ele>
        <time>2021-09-10T06:32:20.000Z</time>
      </trkpt>
      <trkpt lat="45.10435" lon="2.71472">
        <ele>1505.7</ele>
        <time>2021-09-10T06:32:26.000Z</time>
      </trkpt>
      <trkpt lat="45.10441" lon="2.71465">
        <ele>1507.3</ele>
        <time>2021-09-10T06:32:32.000Z</time>
      </trkpt>
      <trkpt lat="45.10443" lon="2.71455">
        <ele>1507</ele>
        <time>2021-09-10T06:32:41.000Z</time>
      </trkpt>
      <trkpt lat="45.10445" lon="2.71446">
        <ele>1506.9</ele>
        <time>2021-09-10T06:32:52.000Z</time>
      </trkpt>
      <trkpt lat="45.10442" lon="2.71438">
        <ele>1504.6</ele>
        <time>2021-09-10T06:33:02.000Z</time>
      </trkpt>
      <trkpt lat="45.10444" lon="2.71427">
        <ele>1504.3</ele>
        <time>2021-09-10T06:33:11.000Z</time>
      </trkpt>
      <trkpt lat="45.10443" lon="2.71417">
        <ele>1502.6</ele>
        <time>2021-09-10T06:33:17.000Z</time>
      </trkpt>
      <trkpt lat="45.1044" lon="2.71408">
        <ele>1500.4</ele>
        <time>2021-09-10T06:33:23.000Z</time>
      </trkpt>
      <trkpt lat="45.10438" lon="2.714">
        <ele>1498.8</ele>
        <time>2021-09-10T06:33:44.000Z</time>
      </trkpt>
      <trkpt lat="45.10439" lon="2.71391">
        <ele>1498.7</ele>
        <time>2021-09-10T06:33:49.000Z</time>
      </trkpt>
      <trkpt lat="45.10439" lon="2.7138">
        <ele>1497.9</ele>
        <time>2021-09-10T06:33:55.000Z</time>
      </trkpt>
      <trkpt lat="45.10439" lon="2.7137">
        <ele>1497.2</ele>
        <time>2021-09-10T06:34:00.000Z</time>
      </trkpt>
      <trkpt lat="45.1044" lon="2.7136">
        <ele>1497</ele>
        <time>2021-09-10T06:34:07.000Z</time>
      </trkpt>
      <trkpt lat="45.10439" lon="2.71349">
        <ele>1495.7</ele>
        <time>2021-09-10T06:34:13.000Z</time>
      </trkpt>
      <trkpt lat="45.10442" lon="2.71341">
        <ele>1496.6</ele>
        <time>2021-09-10T06:34:22.000Z</time>
      </trkpt>
      <trkpt lat="45.10447" lon="2.71335">
        <ele>1498.8</ele>
        <time>2021-09-10T06:34:29.000Z</time>
      </trkpt>
      <trkpt lat="45.10453" lon="2.71328">
        <ele>1500.8</ele>
        <time>2021-09-10T06:34:38.000Z</time>
      </trkpt>
      <trkpt lat="45.1046" lon="2.71324">
        <ele>1503.7</ele>
        <time>2021-09-10T06:34:44.000Z</time>
      </trkpt>
      <trkpt lat="45.10466" lon="2.71322">
        <ele>1506.4</ele>
        <time>2021-09-10T06:34:50.000Z</time>
      </trkpt>
      <trkpt lat="45.10472" lon="2.71317">
        <ele>1508.5</ele>
        <time>2021-09-10T06:34:57.000Z</time>
      </trkpt>
      <trkpt lat="45.10479" lon="2.71314">
        <ele>1511.4</ele>
        <time>2021-09-10T06:35:04.000Z</time>
      </trkpt>
      <trkpt lat="45.10487" lon="2.71311">
        <ele>1514.8</ele>
        <time>2021-09-10T06:35:10.000Z</time>
      </trkpt>
      <trkpt lat="45.10493" lon="2.71307">
        <ele>1516.9</ele>
        <time>2021-09-10T06:35:17.000Z</time>
      </trkpt>
      <trkpt lat="45.105" lon="2.71306">
        <ele>1520.1</ele>
        <time>2021-09-10T06:35:23.000Z</time>
      </trkpt>
      <trkpt lat="45.10506" lon="2.71302">
        <ele>1522</ele>
        <time>2021-09-10T06:35:29.000Z</time>
      </trkpt>
      <trkpt lat="45.10513" lon="2.71297">
        <ele>1524.1</ele>
        <time>2021-09-10T06:35:35.000Z</time>
      </trkpt>
      <trkpt lat="45.10518" lon="2.71289">
        <ele>1524.6</ele>
        <time>2021-09-10T06:35:43.000Z</time>
      </trkpt>
      <trkpt lat="45.10523" lon="2.71283">
        <ele>1525.4</ele>
        <time>2021-09-10T06:35:51.000Z</time>
      </trkpt>
      <trkpt lat="45.10528" lon="2.71277">
        <ele>1526.2</ele>
        <time>2021-09-10T06:35:58.000Z</time>
      </trkpt>
      <trkpt lat="45.10534" lon="2.7127">
        <ele>1527.2</ele>
        <time>2021-09-10T06:36:05.000Z</time>
      </trkpt>
      <trkpt lat="45.10538" lon="2.71262">
        <ele>1526.9</ele>
        <time>2021-09-10T06:36:13.000Z</time>
      </trkpt>
      <trkpt lat="45.10542" lon="2.71254">
        <ele>1526.6</ele>
        <time>2021-09-10T06:36:21.000Z</time>
      </trkpt>
      <trkpt lat="45.10545" lon="2.71246">
        <ele>1526</ele>
        <time>2021-09-10T06:36:28.000Z</time>
      </trkpt>
      <trkpt lat="45.1055" lon="2.7124">
        <ele>1526.7</ele>
        <time>2021-09-10T06:36:35.000Z</time>
      </trkpt>
      <trkpt lat="45.10556" lon="2.71234">
        <ele>1527.9</ele>
        <time>2021-09-10T06:36:46.000Z</time>
      </trkpt>
      <trkpt lat="45.10559" lon="2.71224">
        <ele>1527.1</ele>
        <time>2021-09-10T06:36:52.000Z</time>
      </trkpt>
      <trkpt lat="45.10559" lon="2.71215">
        <ele>1525.1</ele>
        <time>2021-09-10T06:36:57.000Z</time>
      </trkpt>
      <trkpt lat="45.10564" lon="2.71208">
        <ele>1525.9</ele>
        <time>2021-09-10T06:37:07.000Z</time>
      </trkpt>
      <trkpt lat="45.10571" lon="2.71203">
        <ele>1528.1</ele>
        <time>2021-09-10T06:37:14.000Z</time>
      </trkpt>
      <trkpt lat="45.10573" lon="2.71194">
        <ele>1527.2</ele>
        <time>2021-09-10T06:37:23.000Z</time>
      </trkpt>
      <trkpt lat="45.1058" lon="2.71191">
        <ele>1530</ele>
        <time>2021-09-10T06:37:31.000Z</time>
      </trkpt>
      <trkpt lat="45.10585" lon="2.71179">
        <ele>1530.3</ele>
        <time>2021-09-10T06:39:39.000Z</time>
      </trkpt>
      <trkpt lat="45.10589" lon="2.71171">
        <ele>1531.1</ele>
        <time>2021-09-10T06:39:48.000Z</time>
      </trkpt>
      <trkpt lat="45.1059" lon="2.71162">
        <ele>1530.1</ele>
        <time>2021-09-10T06:39:55.000Z</time>
      </trkpt>
      <trkpt lat="45.10592" lon="2.71152">
        <ele>1529.5</ele>
        <time>2021-09-10T06:40:02.000Z</time>
      </trkpt>
      <trkpt lat="45.10596" lon="2.71145">
        <ele>1530.5</ele>
        <time>2021-09-10T06:40:09.000Z</time>
      </trkpt>
      <trkpt lat="45.10602" lon="2.71138">
        <ele>1532.4</ele>
        <time>2021-09-10T06:40:15.000Z</time>
      </trkpt>
      <trkpt lat="45.10606" lon="2.7113">
        <ele>1533</ele>
        <time>2021-09-10T06:40:21.000Z</time>
      </trkpt>
      <trkpt lat="45.10613" lon="2.71126">
        <ele>1535.8</ele>
        <time>2021-09-10T06:40:27.000Z</time>
      </trkpt>
      <trkpt lat="45.10618" lon="2.7112">
        <ele>1537.1</ele>
        <time>2021-09-10T06:40:33.000Z</time>
      </trkpt>
      <trkpt lat="45.10624" lon="2.71115">
        <ele>1539</ele>
        <time>2021-09-10T06:40:38.000Z</time>
      </trkpt>
      <trkpt lat="45.10633" lon="2.71111">
        <ele>1542.5</ele>
        <time>2021-09-10T06:40:44.000Z</time>
      </trkpt>
      <trkpt lat="45.10641" lon="2.71105">
        <ele>1545</ele>
        <time>2021-09-10T06:40:50.000Z</time>
      </trkpt>
      <trkpt lat="45.10647" lon="2.71098">
        <ele>1546</ele>
        <time>2021-09-10T06:40:56.000Z</time>
      </trkpt>
      <trkpt lat="45.10652" lon="2.71092">
        <ele>1546.8</ele>
        <time>2021-09-10T06:41:02.000Z</time>
      </trkpt>
      <trkpt lat="45.10658" lon="2.71085">
        <ele>1547.6</ele>
        <time>2021-09-10T06:41:08.000Z</time>
      </trkpt>
      <trkpt lat="45.10663" lon="2.71078">
        <ele>1548.1</ele>
        <time>2021-09-10T06:41:14.000Z</time>
      </trkpt>
      <trkpt lat="45.10668" lon="2.7107">
        <ele>1548.6</ele>
        <time>2021-09-10T06:41:20.000Z</time>
      </trkpt>
      <trkpt lat="45.10674" lon="2.71065">
        <ele>1550.3</ele>
        <time>2021-09-10T06:41:26.000Z</time>
      </trkpt>
      <trkpt lat="45.10679" lon="2.71057">
        <ele>1551</ele>
        <time>2021-09-10T06:41:32.000Z</time>
      </trkpt>
      <trkpt lat="45.10683" lon="2.7105">
        <ele>1551.5</ele>
        <time>2021-09-10T06:41:39.000Z</time>
      </trkpt>
      <trkpt lat="45.10686" lon="2.71041">
        <ele>1551.1</ele>
        <time>2021-09-10T06:41:47.000Z</time>
      </trkpt>
      <trkpt lat="45.10688" lon="2.71032">
        <ele>1550.3</ele>
        <time>2021-09-10T06:41:55.000Z</time>
      </trkpt>
      <trkpt lat="45.10692" lon="2.71024">
        <ele>1550.8</ele>
        <time>2021-09-10T06:42:02.000Z</time>
      </trkpt>
      <trkpt lat="45.1069" lon="2.71015">
        <ele>1547.9</ele>
        <time>2021-09-10T06:42:14.000Z</time>
      </trkpt>
      <trkpt lat="45.10692" lon="2.71006">
        <ele>1547.2</ele>
        <time>2021-09-10T06:42:24.000Z</time>
      </trkpt>
      <trkpt lat="45.10694" lon="2.70996">
        <ele>1547.2</ele>
        <time>2021-09-10T06:42:32.000Z</time>
      </trkpt>
      <trkpt lat="45.10691" lon="2.70987">
        <ele>1545.6</ele>
        <time>2021-09-10T06:42:42.000Z</time>
      </trkpt>
      <trkpt lat="45.10689" lon="2.70978">
        <ele>1544.7</ele>
        <time>2021-09-10T06:42:49.000Z</time>
      </trkpt>
      <trkpt lat="45.10688" lon="2.70969">
        <ele>1544.2</ele>
        <time>2021-09-10T06:42:56.000Z</time>
      </trkpt>
      <trkpt lat="45.10685" lon="2.70959">
        <ele>1542.7</ele>
        <time>2021-09-10T06:43:04.000Z</time>
      </trkpt>
      <trkpt lat="45.10681" lon="2.70951">
        <ele>1540.6</ele>
        <time>2021-09-10T06:43:14.000Z</time>
      </trkpt>
      <trkpt lat="45.10675" lon="2.70945">
        <ele>1537.3</ele>
        <time>2021-09-10T06:43:21.000Z</time>
      </trkpt>
      <trkpt lat="45.10672" lon="2.70937">
        <ele>1535.7</ele>
        <time>2021-09-10T06:43:30.000Z</time>
      </trkpt>
      <trkpt lat="45.10672" lon="2.70927">
        <ele>1535.9</ele>
        <time>2021-09-10T06:43:40.000Z</time>
      </trkpt>
      <trkpt lat="45.10677" lon="2.7092">
        <ele>1538.8</ele>
        <time>2021-09-10T06:43:47.000Z</time>
      </trkpt>
      <trkpt lat="45.10682" lon="2.70912">
        <ele>1541.8</ele>
        <time>2021-09-10T06:43:54.000Z</time>
      </trkpt>
      <trkpt lat="45.10686" lon="2.70903">
        <ele>1544.2</ele>
        <time>2021-09-10T06:44:00.000Z</time>
      </trkpt>
      <trkpt lat="45.10689" lon="2.70895">
        <ele>1546.1</ele>
        <time>2021-09-10T06:44:06.000Z</time>
      </trkpt>
      <trkpt lat="45.10694" lon="2.70887">
        <ele>1549</ele>
        <time>2021-09-10T06:44:12.000Z</time>
      </trkpt>
      <trkpt lat="45.10698" lon="2.7088">
        <ele>1551.3</ele>
        <time>2021-09-10T06:44:18.000Z</time>
      </trkpt>
      <trkpt lat="45.10701" lon="2.70871">
        <ele>1553.1</ele>
        <time>2021-09-10T06:44:25.000Z</time>
      </trkpt>
      <trkpt lat="45.10702" lon="2.70862">
        <ele>1553.8</ele>
        <time>2021-09-10T06:44:31.000Z</time>
      </trkpt>
      <trkpt lat="45.10705" lon="2.70854">
        <ele>1555.5</ele>
        <time>2021-09-10T06:44:39.000Z</time>
      </trkpt>
      <trkpt lat="45.10702" lon="2.70844">
        <ele>1554.1</ele>
        <time>2021-09-10T06:44:45.000Z</time>
      </trkpt>
      <trkpt lat="45.10698" lon="2.70835">
        <ele>1552.1</ele>
        <time>2021-09-10T06:44:51.000Z</time>
      </trkpt>
      <trkpt lat="45.10694" lon="2.70826">
        <ele>1551</ele>
        <time>2021-09-10T06:44:56.000Z</time>
      </trkpt>
      <trkpt lat="45.10695" lon="2.70817">
        <ele>1552.7</ele>
        <time>2021-09-10T06:45:02.000Z</time>
      </trkpt>
      <trkpt lat="45.10699" lon="2.70808">
        <ele>1555.9</ele>
        <time>2021-09-10T06:45:08.000Z</time>
      </trkpt>
      <trkpt lat="45.10698" lon="2.70799">
        <ele>1556.5</ele>
        <time>2021-09-10T06:45:15.000Z</time>
      </trkpt>
      <trkpt lat="45.10696" lon="2.70789">
        <ele>1556.8</ele>
        <time>2021-09-10T06:45:22.000Z</time>
      </trkpt>
      <trkpt lat="45.10695" lon="2.70778">
        <ele>1557.7</ele>
        <time>2021-09-10T06:45:28.000Z</time>
      </trkpt>
      <trkpt lat="45.10693" lon="2.70768">
        <ele>1558</ele>
        <time>2021-09-10T06:45:35.000Z</time>
      </trkpt>
      <trkpt lat="45.10692" lon="2.70758">
        <ele>1558.8</ele>
        <time>2021-09-10T06:45:42.000Z</time>
      </trkpt>
      <trkpt lat="45.10691" lon="2.70748">
        <ele>1559.9</ele>
        <time>2021-09-10T06:45:48.000Z</time>
      </trkpt>
      <trkpt lat="45.10689" lon="2.70737">
        <ele>1561.8</ele>
        <time>2021-09-10T06:45:54.000Z</time>
      </trkpt>
      <trkpt lat="45.10686" lon="2.70729">
        <ele>1562.4</ele>
        <time>2021-09-10T06:46:00.000Z</time>
      </trkpt>
      <trkpt lat="45.10683" lon="2.70721">
        <ele>1563.1</ele>
        <time>2021-09-10T06:46:05.000Z</time>
      </trkpt>
      <trkpt lat="45.10679" lon="2.70712">
        <ele>1563.6</ele>
        <time>2021-09-10T06:46:10.000Z</time>
      </trkpt>
      <trkpt lat="45.10676" lon="2.70704">
        <ele>1564.3</ele>
        <time>2021-09-10T06:46:15.000Z</time>
      </trkpt>
      <trkpt lat="45.10672" lon="2.70696">
        <ele>1564.6</ele>
        <time>2021-09-10T06:46:20.000Z</time>
      </trkpt>
      <trkpt lat="45.10668" lon="2.70688">
        <ele>1565</ele>
        <time>2021-09-10T06:46:26.000Z</time>
      </trkpt>
      <trkpt lat="45.10662" lon="2.70683">
        <ele>1563.6</ele>
        <time>2021-09-10T06:46:31.000Z</time>
      </trkpt>
      <trkpt lat="45.10658" lon="2.70675">
        <ele>1564</ele>
        <time>2021-09-10T06:46:37.000Z</time>
      </trkpt>
      <trkpt lat="45.10652" lon="2.70667">
        <ele>1563.4</ele>
        <time>2021-09-10T06:46:42.000Z</time>
      </trkpt>
      <trkpt lat="45.10646" lon="2.7066">
        <ele>1562.8</ele>
        <time>2021-09-10T06:46:47.000Z</time>
      </trkpt>
      <trkpt lat="45.1064" lon="2.70651">
        <ele>1562.6</ele>
        <time>2021-09-10T06:46:53.000Z</time>
      </trkpt>
      <trkpt lat="45.10635" lon="2.70644">
        <ele>1562.1</ele>
        <time>2021-09-10T06:47:00.000Z</time>
      </trkpt>
      <trkpt lat="45.10629" lon="2.70638">
        <ele>1560.7</ele>
        <time>2021-09-10T06:47:09.000Z</time>
      </trkpt>
      <trkpt lat="45.10622" lon="2.70634">
        <ele>1558.2</ele>
        <time>2021-09-10T06:47:15.000Z</time>
      </trkpt>
      <trkpt lat="45.10617" lon="2.70629">
        <ele>1556.8</ele>
        <time>2021-09-10T06:47:20.000Z</time>
      </trkpt>
      <trkpt lat="45.10612" lon="2.70621">
        <ele>1556</ele>
        <time>2021-09-10T06:47:31.000Z</time>
      </trkpt>
      <trkpt lat="45.10609" lon="2.70612">
        <ele>1556.4</ele>
        <time>2021-09-10T06:47:38.000Z</time>
      </trkpt>
      <trkpt lat="45.10605" lon="2.70604">
        <ele>1555.9</ele>
        <time>2021-09-10T06:47:44.000Z</time>
      </trkpt>
      <trkpt lat="45.10601" lon="2.70596">
        <ele>1555.2</ele>
        <time>2021-09-10T06:47:57.000Z</time>
      </trkpt>
      <trkpt lat="45.10595" lon="2.7059">
        <ele>1552.9</ele>
        <time>2021-09-10T06:48:07.000Z</time>
      </trkpt>
      <trkpt lat="45.10591" lon="2.70583">
        <ele>1551.7</ele>
        <time>2021-09-10T06:48:19.000Z</time>
      </trkpt>
      <trkpt lat="45.10587" lon="2.70574">
        <ele>1550.8</ele>
        <time>2021-09-10T06:48:26.000Z</time>
      </trkpt>
      <trkpt lat="45.10587" lon="2.70564">
        <ele>1552.5</ele>
        <time>2021-09-10T06:48:33.000Z</time>
      </trkpt>
      <trkpt lat="45.10587" lon="2.70553">
        <ele>1554.4</ele>
        <time>2021-09-10T06:48:42.000Z</time>
      </trkpt>
      <trkpt lat="45.10589" lon="2.70544">
        <ele>1557.2</ele>
        <time>2021-09-10T06:48:48.000Z</time>
      </trkpt>
      <trkpt lat="45.1059" lon="2.70534">
        <ele>1559.5</ele>
        <time>2021-09-10T06:48:58.000Z</time>
      </trkpt>
      <trkpt lat="45.10591" lon="2.70524">
        <ele>1561.9</ele>
        <time>2021-09-10T06:49:07.000Z</time>
      </trkpt>
      <trkpt lat="45.10594" lon="2.70516">
        <ele>1565.2</ele>
        <time>2021-09-10T06:49:18.000Z</time>
      </trkpt>
      <trkpt lat="45.10594" lon="2.70506">
        <ele>1566.9</ele>
        <time>2021-09-10T06:49:28.000Z</time>
      </trkpt>
      <trkpt lat="45.10594" lon="2.70497">
        <ele>1568.7</ele>
        <time>2021-09-10T06:49:40.000Z</time>
      </trkpt>
      <trkpt lat="45.10591" lon="2.70487">
        <ele>1569.3</ele>
        <time>2021-09-10T06:49:47.000Z</time>
      </trkpt>
      <trkpt lat="45.10592" lon="2.70476">
        <ele>1572.7</ele>
        <time>2021-09-10T06:49:54.000Z</time>
      </trkpt>
      <trkpt lat="45.10591" lon="2.70467">
        <ele>1574.4</ele>
        <time>2021-09-10T06:50:02.000Z</time>
      </trkpt>
      <trkpt lat="45.10592" lon="2.70457">
        <ele>1577.5</ele>
        <time>2021-09-10T06:50:10.000Z</time>
      </trkpt>
      <trkpt lat="45.10591" lon="2.70448">
        <ele>1579.2</ele>
        <time>2021-09-10T06:50:16.000Z</time>
      </trkpt>
      <trkpt lat="45.10588" lon="2.70439">
        <ele>1579.8</ele>
        <time>2021-09-10T06:50:24.000Z</time>
      </trkpt>
      <trkpt lat="45.10586" lon="2.7043">
        <ele>1581</ele>
        <time>2021-09-10T06:50:33.000Z</time>
      </trkpt>
      <trkpt lat="45.10584" lon="2.7042">
        <ele>1582.5</ele>
        <time>2021-09-10T06:50:41.000Z</time>
      </trkpt>
      <trkpt lat="45.10582" lon="2.7041">
        <ele>1582.8</ele>
        <time>2021-09-10T06:50:51.000Z</time>
      </trkpt>
      <trkpt lat="45.10579" lon="2.70401">
        <ele>1581.8</ele>
        <time>2021-09-10T06:50:57.000Z</time>
      </trkpt>
      <trkpt lat="45.10575" lon="2.70393">
        <ele>1580.1</ele>
        <time>2021-09-10T06:51:03.000Z</time>
      </trkpt>
      <trkpt lat="45.10571" lon="2.70385">
        <ele>1578.3</ele>
        <time>2021-09-10T06:51:09.000Z</time>
      </trkpt>
      <trkpt lat="45.10565" lon="2.70379">
        <ele>1575</ele>
        <time>2021-09-10T06:51:15.000Z</time>
      </trkpt>
      <trkpt lat="45.1056" lon="2.70372">
        <ele>1572.4</ele>
        <time>2021-09-10T06:51:22.000Z</time>
      </trkpt>
      <trkpt lat="45.10555" lon="2.70364">
        <ele>1570</ele>
        <time>2021-09-10T06:51:28.000Z</time>
      </trkpt>
      <trkpt lat="45.1055" lon="2.70358">
        <ele>1567.3</ele>
        <time>2021-09-10T06:51:33.000Z</time>
      </trkpt>
      <trkpt lat="45.10546" lon="2.70349">
        <ele>1565.7</ele>
        <time>2021-09-10T06:51:40.000Z</time>
      </trkpt>
      <trkpt lat="45.10542" lon="2.70341">
        <ele>1563.9</ele>
        <time>2021-09-10T06:51:46.000Z</time>
      </trkpt>
      <trkpt lat="45.10541" lon="2.70331">
        <ele>1564.1</ele>
        <time>2021-09-10T06:51:51.000Z</time>
      </trkpt>
      <trkpt lat="45.10542" lon="2.7032">
        <ele>1565</ele>
        <time>2021-09-10T06:52:00.000Z</time>
      </trkpt>
      <trkpt lat="45.10544" lon="2.70311">
        <ele>1566.5</ele>
        <time>2021-09-10T06:52:06.000Z</time>
      </trkpt>
      <trkpt lat="45.10544" lon="2.70301">
        <ele>1566.7</ele>
        <time>2021-09-10T06:52:15.000Z</time>
      </trkpt>
      <trkpt lat="45.10548" lon="2.70291">
        <ele>1569.6</ele>
        <time>2021-09-10T06:52:22.000Z</time>
      </trkpt>
      <trkpt lat="45.10551" lon="2.70282">
        <ele>1571.9</ele>
        <time>2021-09-10T06:52:28.000Z</time>
      </trkpt>
      <trkpt lat="45.10554" lon="2.70273">
        <ele>1574.3</ele>
        <time>2021-09-10T06:52:36.000Z</time>
      </trkpt>
      <trkpt lat="45.10553" lon="2.70262">
        <ele>1573.8</ele>
        <time>2021-09-10T06:52:43.000Z</time>
      </trkpt>
      <trkpt lat="45.10552" lon="2.70253">
        <ele>1573.4</ele>
        <time>2021-09-10T06:52:51.000Z</time>
      </trkpt>
      <trkpt lat="45.10552" lon="2.70243">
        <ele>1574</ele>
        <time>2021-09-10T06:52:57.000Z</time>
      </trkpt>
      <trkpt lat="45.10552" lon="2.70234">
        <ele>1574.7</ele>
        <time>2021-09-10T06:53:03.000Z</time>
      </trkpt>
      <trkpt lat="45.10555" lon="2.70225">
        <ele>1577.4</ele>
        <time>2021-09-10T06:53:10.000Z</time>
      </trkpt>
      <trkpt lat="45.10559" lon="2.70216">
        <ele>1580.6</ele>
        <time>2021-09-10T06:53:17.000Z</time>
      </trkpt>
      <trkpt lat="45.10559" lon="2.70206">
        <ele>1581.3</ele>
        <time>2021-09-10T06:53:23.000Z</time>
      </trkpt>
      <trkpt lat="45.1056" lon="2.70197">
        <ele>1582.4</ele>
        <time>2021-09-10T06:53:29.000Z</time>
      </trkpt>
      <trkpt lat="45.1056" lon="2.70187">
        <ele>1583</ele>
        <time>2021-09-10T06:53:36.000Z</time>
      </trkpt>
      <trkpt lat="45.10558" lon="2.70176">
        <ele>1582.6</ele>
        <time>2021-09-10T06:53:43.000Z</time>
      </trkpt>
      <trkpt lat="45.10558" lon="2.70166">
        <ele>1583.4</ele>
        <time>2021-09-10T06:53:50.000Z</time>
      </trkpt>
      <trkpt lat="45.1056" lon="2.70155">
        <ele>1586.6</ele>
        <time>2021-09-10T06:53:56.000Z</time>
      </trkpt>
      <trkpt lat="45.10559" lon="2.70146">
        <ele>1588</ele>
        <time>2021-09-10T06:54:02.000Z</time>
      </trkpt>
      <trkpt lat="45.10558" lon="2.70136">
        <ele>1589.6</ele>
        <time>2021-09-10T06:54:08.000Z</time>
      </trkpt>
      <trkpt lat="45.10556" lon="2.70127">
        <ele>1590.6</ele>
        <time>2021-09-10T06:54:14.000Z</time>
      </trkpt>
      <trkpt lat="45.10554" lon="2.70117">
        <ele>1591.9</ele>
        <time>2021-09-10T06:54:22.000Z</time>
      </trkpt>
      <trkpt lat="45.1055" lon="2.70107">
        <ele>1592.4</ele>
        <time>2021-09-10T06:54:28.000Z</time>
      </trkpt>
      <trkpt lat="45.10549" lon="2.70097">
        <ele>1594.2</ele>
        <time>2021-09-10T06:54:36.000Z</time>
      </trkpt>
      <trkpt lat="45.10548" lon="2.70088">
        <ele>1595.8</ele>
        <time>2021-09-10T06:54:45.000Z</time>
      </trkpt>
      <trkpt lat="45.10544" lon="2.7008">
        <ele>1596.4</ele>
        <time>2021-09-10T06:54:54.000Z</time>
      </trkpt>
      <trkpt lat="45.10542" lon="2.7007">
        <ele>1598.9</ele>
        <time>2021-09-10T06:55:07.000Z</time>
      </trkpt>
      <trkpt lat="45.10541" lon="2.7006">
        <ele>1601.8</ele>
        <time>2021-09-10T06:55:16.000Z</time>
      </trkpt>
      <trkpt lat="45.1054" lon="2.7005">
        <ele>1604.8</ele>
        <time>2021-09-10T06:55:24.000Z</time>
      </trkpt>
      <trkpt lat="45.10538" lon="2.70041">
        <ele>1607.2</ele>
        <time>2021-09-10T06:55:32.000Z</time>
      </trkpt>
      <trkpt lat="45.10534" lon="2.70032">
        <ele>1609.2</ele>
        <time>2021-09-10T06:56:07.000Z</time>
      </trkpt>
      <trkpt lat="45.1053" lon="2.70024">
        <ele>1611</ele>
        <time>2021-09-10T06:56:12.000Z</time>
      </trkpt>
      <trkpt lat="45.10525" lon="2.70015">
        <ele>1613.1</ele>
        <time>2021-09-10T06:56:17.000Z</time>
      </trkpt>
      <trkpt lat="45.1052" lon="2.7001">
        <ele>1613.9</ele>
        <time>2021-09-10T06:56:22.000Z</time>
      </trkpt>
      <trkpt lat="45.10515" lon="2.70003">
        <ele>1615.5</ele>
        <time>2021-09-10T06:56:29.000Z</time>
      </trkpt>
      <trkpt lat="45.10511" lon="2.69995">
        <ele>1616.9</ele>
        <time>2021-09-10T06:56:37.000Z</time>
      </trkpt>
      <trkpt lat="45.10506" lon="2.69988">
        <ele>1617.6</ele>
        <time>2021-09-10T06:56:44.000Z</time>
      </trkpt>
      <trkpt lat="45.105" lon="2.69982">
        <ele>1618.1</ele>
        <time>2021-09-10T06:56:51.000Z</time>
      </trkpt>
      <trkpt lat="45.10494" lon="2.69975">
        <ele>1617.3</ele>
        <time>2021-09-10T06:57:34.000Z</time>
      </trkpt>
      <trkpt lat="45.10489" lon="2.69969">
        <ele>1616.5</ele>
        <time>2021-09-10T06:57:41.000Z</time>
      </trkpt>
      <trkpt lat="45.10483" lon="2.69965">
        <ele>1614.8</ele>
        <time>2021-09-10T06:57:47.000Z</time>
      </trkpt>
      <trkpt lat="45.10477" lon="2.69958">
        <ele>1613.6</ele>
        <time>2021-09-10T06:57:54.000Z</time>
      </trkpt>
      <trkpt lat="45.10472" lon="2.69951">
        <ele>1612.8</ele>
        <time>2021-09-10T06:57:59.000Z</time>
      </trkpt>
      <trkpt lat="45.10467" lon="2.69945">
        <ele>1611.7</ele>
        <time>2021-09-10T06:58:04.000Z</time>
      </trkpt>
      <trkpt lat="45.10462" lon="2.69938">
        <ele>1610.6</ele>
        <time>2021-09-10T06:58:10.000Z</time>
      </trkpt>
      <trkpt lat="45.10457" lon="2.69933">
        <ele>1609.1</ele>
        <time>2021-09-10T06:58:16.000Z</time>
      </trkpt>
      <trkpt lat="45.10452" lon="2.69926">
        <ele>1607.9</ele>
        <time>2021-09-10T06:58:21.000Z</time>
      </trkpt>
      <trkpt lat="45.10445" lon="2.69921">
        <ele>1605.3</ele>
        <time>2021-09-10T06:58:27.000Z</time>
      </trkpt>
      <trkpt lat="45.10439" lon="2.69917">
        <ele>1602.9</ele>
        <time>2021-09-10T06:58:40.000Z</time>
      </trkpt>
      <trkpt lat="45.10435" lon="2.69909">
        <ele>1601.4</ele>
        <time>2021-09-10T06:58:46.000Z</time>
      </trkpt>
      <trkpt lat="45.1043" lon="2.69902">
        <ele>1599.4</ele>
        <time>2021-09-10T06:58:51.000Z</time>
      </trkpt>
      <trkpt lat="45.10425" lon="2.69892">
        <ele>1597.6</ele>
        <time>2021-09-10T06:58:57.000Z</time>
      </trkpt>
      <trkpt lat="45.10422" lon="2.6988">
        <ele>1597</ele>
        <time>2021-09-10T06:59:03.000Z</time>
      </trkpt>
      <trkpt lat="45.10419" lon="2.69868">
        <ele>1596.5</ele>
        <time>2021-09-10T06:59:09.000Z</time>
      </trkpt>
      <trkpt lat="45.10417" lon="2.69858">
        <ele>1596.4</ele>
        <time>2021-09-10T06:59:16.000Z</time>
      </trkpt>
      <trkpt lat="45.10414" lon="2.69849">
        <ele>1595.2</ele>
        <time>2021-09-10T06:59:22.000Z</time>
      </trkpt>
      <trkpt lat="45.1041" lon="2.6984">
        <ele>1593.3</ele>
        <time>2021-09-10T06:59:29.000Z</time>
      </trkpt>
      <trkpt lat="45.10407" lon="2.69831">
        <ele>1592.2</ele>
        <time>2021-09-10T06:59:39.000Z</time>
      </trkpt>
      <trkpt lat="45.10405" lon="2.69822">
        <ele>1591.9</ele>
        <time>2021-09-10T06:59:45.000Z</time>
      </trkpt>
      <trkpt lat="45.10401" lon="2.69813">
        <ele>1590.5</ele>
        <time>2021-09-10T06:59:51.000Z</time>
      </trkpt>
      <trkpt lat="45.104" lon="2.69804">
        <ele>1590.8</ele>
        <time>2021-09-10T06:59:58.000Z</time>
      </trkpt>
      <trkpt lat="45.10399" lon="2.69794">
        <ele>1591.4</ele>
        <time>2021-09-10T07:00:14.000Z</time>
      </trkpt>
      <trkpt lat="45.10394" lon="2.69785">
        <ele>1589.4</ele>
        <time>2021-09-10T07:00:20.000Z</time>
      </trkpt>
      <trkpt lat="45.10391" lon="2.69776">
        <ele>1588.8</ele>
        <time>2021-09-10T07:00:26.000Z</time>
      </trkpt>
      <trkpt lat="45.10388" lon="2.69768">
        <ele>1588</ele>
        <time>2021-09-10T07:00:31.000Z</time>
      </trkpt>
      <trkpt lat="45.10386" lon="2.69757">
        <ele>1588.2</ele>
        <time>2021-09-10T07:00:37.000Z</time>
      </trkpt>
      <trkpt lat="45.10384" lon="2.69749">
        <ele>1588.2</ele>
        <time>2021-09-10T07:00:43.000Z</time>
      </trkpt>
      <trkpt lat="45.10381" lon="2.6974">
        <ele>1588.3</ele>
        <time>2021-09-10T07:00:51.000Z</time>
      </trkpt>
      <trkpt lat="45.1038" lon="2.69731">
        <ele>1589.5</ele>
        <time>2021-09-10T07:01:00.000Z</time>
      </trkpt>
      <trkpt lat="45.10378" lon="2.69721">
        <ele>1590.3</ele>
        <time>2021-09-10T07:01:29.000Z</time>
      </trkpt>
      <trkpt lat="45.10376" lon="2.69711">
        <ele>1591.1</ele>
        <time>2021-09-10T07:01:35.000Z</time>
      </trkpt>
      <trkpt lat="45.10374" lon="2.69701">
        <ele>1591.8</ele>
        <time>2021-09-10T07:01:40.000Z</time>
      </trkpt>
      <trkpt lat="45.10371" lon="2.6969">
        <ele>1592.2</ele>
        <time>2021-09-10T07:01:46.000Z</time>
      </trkpt>
      <trkpt lat="45.10368" lon="2.69682">
        <ele>1591.9</ele>
        <time>2021-09-10T07:01:51.000Z</time>
      </trkpt>
      <trkpt lat="45.10364" lon="2.69671">
        <ele>1591.6</ele>
        <time>2021-09-10T07:01:57.000Z</time>
      </trkpt>
      <trkpt lat="45.10362" lon="2.69662">
        <ele>1591.8</ele>
        <time>2021-09-10T07:02:03.000Z</time>
      </trkpt>
      <trkpt lat="45.10359" lon="2.69652">
        <ele>1591.5</ele>
        <time>2021-09-10T07:02:09.000Z</time>
      </trkpt>
      <trkpt lat="45.10357" lon="2.69643">
        <ele>1591.8</ele>
        <time>2021-09-10T07:02:15.000Z</time>
      </trkpt>
      <trkpt lat="45.10353" lon="2.69632">
        <ele>1591.4</ele>
        <time>2021-09-10T07:02:21.000Z</time>
      </trkpt>
      <trkpt lat="45.10352" lon="2.69622">
        <ele>1592.6</ele>
        <time>2021-09-10T07:02:27.000Z</time>
      </trkpt>
      <trkpt lat="45.10349" lon="2.69611">
        <ele>1593</ele>
        <time>2021-09-10T07:02:33.000Z</time>
      </trkpt>
      <trkpt lat="45.10349" lon="2.69601">
        <ele>1594.8</ele>
        <time>2021-09-10T07:02:39.000Z</time>
      </trkpt>
      <trkpt lat="45.10347" lon="2.69591">
        <ele>1595.7</ele>
        <time>2021-09-10T07:02:45.000Z</time>
      </trkpt>
      <trkpt lat="45.10345" lon="2.69581">
        <ele>1597.3</ele>
        <time>2021-09-10T07:02:51.000Z</time>
      </trkpt>
      <trkpt lat="45.10343" lon="2.69572">
        <ele>1600.5</ele>
        <time>2021-09-10T07:02:58.000Z</time>
      </trkpt>
      <trkpt lat="45.10343" lon="2.69562">
        <ele>1604.9</ele>
        <time>2021-09-10T07:03:06.000Z</time>
      </trkpt>
      <trkpt lat="45.1034" lon="2.69552">
        <ele>1608.6</ele>
        <time>2021-09-10T07:03:12.000Z</time>
      </trkpt>
      <trkpt lat="45.1034" lon="2.69542">
        <ele>1613.1</ele>
        <time>2021-09-10T07:03:22.000Z</time>
      </trkpt>
      <trkpt lat="45.10347" lon="2.69542">
        <ele>1614.4</ele>
        <time>2021-09-10T07:04:33.000Z</time>
      </trkpt>
      <trkpt lat="45.10354" lon="2.69536">
        <ele>1618</ele>
        <time>2021-09-10T07:04:39.000Z</time>
      </trkpt>
      <trkpt lat="45.10359" lon="2.6953">
        <ele>1621</ele>
        <time>2021-09-10T07:04:45.000Z</time>
      </trkpt>
      <trkpt lat="45.10362" lon="2.69521">
        <ele>1624.6</ele>
        <time>2021-09-10T07:04:53.000Z</time>
      </trkpt>
      <trkpt lat="45.10364" lon="2.69512">
        <ele>1627.9</ele>
        <time>2021-09-10T07:05:09.000Z</time>
      </trkpt>
      <trkpt lat="45.10366" lon="2.69503">
        <ele>1631</ele>
        <time>2021-09-10T07:05:40.000Z</time>
      </trkpt>
      <trkpt lat="45.10365" lon="2.69492">
        <ele>1633.3</ele>
        <time>2021-09-10T07:05:49.000Z</time>
      </trkpt>
      <trkpt lat="45.10372" lon="2.69489">
        <ele>1633.7</ele>
        <time>2021-09-10T07:06:05.000Z</time>
      </trkpt>
      <trkpt lat="45.10378" lon="2.69492">
        <ele>1633.1</ele>
        <time>2021-09-10T07:06:13.000Z</time>
      </trkpt>
      <trkpt lat="45.10383" lon="2.69498">
        <ele>1632.3</ele>
        <time>2021-09-10T07:06:23.000Z</time>
      </trkpt>
      <trkpt lat="45.10386" lon="2.69506">
        <ele>1630.5</ele>
        <time>2021-09-10T07:06:32.000Z</time>
      </trkpt>
      <trkpt lat="45.10392" lon="2.69502">
        <ele>1631.6</ele>
        <time>2021-09-10T07:06:51.000Z</time>
      </trkpt>
      <trkpt lat="45.10392" lon="2.69492">
        <ele>1632.9</ele>
        <time>2021-09-10T07:06:59.000Z</time>
      </trkpt>
      <trkpt lat="45.10392" lon="2.69482">
        <ele>1634</ele>
        <time>2021-09-10T07:07:10.000Z</time>
      </trkpt>
      <trkpt lat="45.10396" lon="2.69475">
        <ele>1634.5</ele>
        <time>2021-09-10T07:07:27.000Z</time>
      </trkpt>
      <trkpt lat="45.10398" lon="2.69466">
        <ele>1635.3</ele>
        <time>2021-09-10T07:07:49.000Z</time>
      </trkpt>
      <trkpt lat="45.10397" lon="2.69456">
        <ele>1636.4</ele>
        <time>2021-09-10T07:07:55.000Z</time>
      </trkpt>
      <trkpt lat="45.10397" lon="2.69447">
        <ele>1637.3</ele>
        <time>2021-09-10T07:08:01.000Z</time>
      </trkpt>
      <trkpt lat="45.10397" lon="2.69438">
        <ele>1638.2</ele>
        <time>2021-09-10T07:08:10.000Z</time>
      </trkpt>
      <trkpt lat="45.10396" lon="2.69428">
        <ele>1639.3</ele>
        <time>2021-09-10T07:08:18.000Z</time>
      </trkpt>
      <trkpt lat="45.10398" lon="2.69418">
        <ele>1640</ele>
        <time>2021-09-10T07:08:27.000Z</time>
      </trkpt>
      <trkpt lat="45.10398" lon="2.69407">
        <ele>1640.3</ele>
        <time>2021-09-10T07:08:34.000Z</time>
      </trkpt>
      <trkpt lat="45.10399" lon="2.69398">
        <ele>1640.2</ele>
        <time>2021-09-10T07:08:40.000Z</time>
      </trkpt>
      <trkpt lat="45.10399" lon="2.69388">
        <ele>1640.4</ele>
        <time>2021-09-10T07:08:47.000Z</time>
      </trkpt>
      <trkpt lat="45.10401" lon="2.69379">
        <ele>1640.2</ele>
        <time>2021-09-10T07:08:54.000Z</time>
      </trkpt>
      <trkpt lat="45.10404" lon="2.6937">
        <ele>1639.9</ele>
        <time>2021-09-10T07:09:03.000Z</time>
      </trkpt>
      <trkpt lat="45.10407" lon="2.69361">
        <ele>1639.7</ele>
        <time>2021-09-10T07:09:14.000Z</time>
      </trkpt>
      <trkpt lat="45.10411" lon="2.69354">
        <ele>1639.3</ele>
        <time>2021-09-10T07:09:28.000Z</time>
      </trkpt>
      <trkpt lat="45.10413" lon="2.69345">
        <ele>1639.2</ele>
        <time>2021-09-10T07:09:38.000Z</time>
      </trkpt>
      <trkpt lat="45.10417" lon="2.69337">
        <ele>1638.8</ele>
        <time>2021-09-10T07:09:48.000Z</time>
      </trkpt>
      <trkpt lat="45.10421" lon="2.69328">
        <ele>1636.2</ele>
        <time>2021-09-10T07:10:00.000Z</time>
      </trkpt>
      <trkpt lat="45.10425" lon="2.69321">
        <ele>1633.4</ele>
        <time>2021-09-10T07:10:10.000Z</time>
      </trkpt>
      <trkpt lat="45.10429" lon="2.69312">
        <ele>1630.4</ele>
        <time>2021-09-10T07:10:17.000Z</time>
      </trkpt>
      <trkpt lat="45.10433" lon="2.69304">
        <ele>1627.6</ele>
        <time>2021-09-10T07:10:23.000Z</time>
      </trkpt>
      <trkpt lat="45.10437" lon="2.69296">
        <ele>1624.9</ele>
        <time>2021-09-10T07:10:29.000Z</time>
      </trkpt>
      <trkpt lat="45.10438" lon="2.69286">
        <ele>1623.2</ele>
        <time>2021-09-10T07:10:38.000Z</time>
      </trkpt>
      <trkpt lat="45.1044" lon="2.69277">
        <ele>1621.3</ele>
        <time>2021-09-10T07:10:47.000Z</time>
      </trkpt>
      <trkpt lat="45.1044" lon="2.69267">
        <ele>1620.1</ele>
        <time>2021-09-10T07:10:54.000Z</time>
      </trkpt>
      <trkpt lat="45.10446" lon="2.69262">
        <ele>1617.1</ele>
        <time>2021-09-10T07:11:01.000Z</time>
      </trkpt>
      <trkpt lat="45.10453" lon="2.69262">
        <ele>1614.3</ele>
        <time>2021-09-10T07:11:07.000Z</time>
      </trkpt>
      <trkpt lat="45.10457" lon="2.69255">
        <ele>1612</ele>
        <time>2021-09-10T07:11:34.000Z</time>
      </trkpt>
      <trkpt lat="45.10462" lon="2.69248">
        <ele>1609.7</ele>
        <time>2021-09-10T07:11:43.000Z</time>
      </trkpt>
      <trkpt lat="45.10465" lon="2.69239">
        <ele>1608.8</ele>
        <time>2021-09-10T07:11:50.000Z</time>
      </trkpt>
      <trkpt lat="45.10467" lon="2.6923">
        <ele>1608.3</ele>
        <time>2021-09-10T07:11:57.000Z</time>
      </trkpt>
      <trkpt lat="45.10471" lon="2.69221">
        <ele>1607</ele>
        <time>2021-09-10T07:12:05.000Z</time>
      </trkpt>
      <trkpt lat="45.10474" lon="2.69212">
        <ele>1606</ele>
        <time>2021-09-10T07:12:15.000Z</time>
      </trkpt>
      <trkpt lat="45.10479" lon="2.69204">
        <ele>1604</ele>
        <time>2021-09-10T07:12:26.000Z</time>
      </trkpt>
      <trkpt lat="45.10483" lon="2.69196">
        <ele>1602.5</ele>
        <time>2021-09-10T07:12:32.000Z</time>
      </trkpt>
      <trkpt lat="45.10487" lon="2.69189">
        <ele>1600.8</ele>
        <time>2021-09-10T07:12:37.000Z</time>
      </trkpt>
      <trkpt lat="45.10492" lon="2.69182">
        <ele>1598.6</ele>
        <time>2021-09-10T07:12:43.000Z</time>
      </trkpt>
      <trkpt lat="45.10499" lon="2.69177">
        <ele>1595.5</ele>
        <time>2021-09-10T07:12:48.000Z</time>
      </trkpt>
      <trkpt lat="45.10506" lon="2.69175">
        <ele>1592.3</ele>
        <time>2021-09-10T07:12:54.000Z</time>
      </trkpt>
      <trkpt lat="45.10512" lon="2.6917">
        <ele>1589.8</ele>
        <time>2021-09-10T07:13:02.000Z</time>
      </trkpt>
      <trkpt lat="45.10518" lon="2.69164">
        <ele>1587.1</ele>
        <time>2021-09-10T07:13:10.000Z</time>
      </trkpt>
      <trkpt lat="45.10525" lon="2.69162">
        <ele>1584</ele>
        <time>2021-09-10T07:13:15.000Z</time>
      </trkpt>
      <trkpt lat="45.10532" lon="2.6916">
        <ele>1581</ele>
        <time>2021-09-10T07:13:24.000Z</time>
      </trkpt>
      <trkpt lat="45.10535" lon="2.69151">
        <ele>1579.5</ele>
        <time>2021-09-10T07:13:36.000Z</time>
      </trkpt>
      <trkpt lat="45.10538" lon="2.69142">
        <ele>1578</ele>
        <time>2021-09-10T07:13:46.000Z</time>
      </trkpt>
      <trkpt lat="45.10541" lon="2.69132">
        <ele>1576.6</ele>
        <time>2021-09-10T07:13:57.000Z</time>
      </trkpt>
      <trkpt lat="45.10537" lon="2.69124">
        <ele>1578</ele>
        <time>2021-09-10T07:14:17.000Z</time>
      </trkpt>
      <trkpt lat="45.10536" lon="2.69114">
        <ele>1578.2</ele>
        <time>2021-09-10T07:14:25.000Z</time>
      </trkpt>
      <trkpt lat="45.10538" lon="2.69105">
        <ele>1577.2</ele>
        <time>2021-09-10T07:14:34.000Z</time>
      </trkpt>
      <trkpt lat="45.10533" lon="2.69098">
        <ele>1578.9</ele>
        <time>2021-09-10T07:14:45.000Z</time>
      </trkpt>
      <trkpt lat="45.10533" lon="2.69087">
        <ele>1578.6</ele>
        <time>2021-09-10T07:14:56.000Z</time>
      </trkpt>
      <trkpt lat="45.1053" lon="2.69078">
        <ele>1580.2</ele>
        <time>2021-09-10T07:15:03.000Z</time>
      </trkpt>
      <trkpt lat="45.10528" lon="2.69068">
        <ele>1582.2</ele>
        <time>2021-09-10T07:15:10.000Z</time>
      </trkpt>
      <trkpt lat="45.10526" lon="2.69059">
        <ele>1584.2</ele>
        <time>2021-09-10T07:15:18.000Z</time>
      </trkpt>
      <trkpt lat="45.10525" lon="2.69049">
        <ele>1585.9</ele>
        <time>2021-09-10T07:15:27.000Z</time>
      </trkpt>
      <trkpt lat="45.10525" lon="2.6904">
        <ele>1587.1</ele>
        <time>2021-09-10T07:15:35.000Z</time>
      </trkpt>
      <trkpt lat="45.10523" lon="2.6903">
        <ele>1589.4</ele>
        <time>2021-09-10T07:15:46.000Z</time>
      </trkpt>
      <trkpt lat="45.10519" lon="2.69022">
        <ele>1592.5</ele>
        <time>2021-09-10T07:16:00.000Z</time>
      </trkpt>
      <trkpt lat="45.10517" lon="2.69012">
        <ele>1595</ele>
        <time>2021-09-10T07:16:07.000Z</time>
      </trkpt>
      <trkpt lat="45.10516" lon="2.69003">
        <ele>1596.9</ele>
        <time>2021-09-10T07:16:14.000Z</time>
      </trkpt>
      <trkpt lat="45.10513" lon="2.68994">
        <ele>1599.9</ele>
        <time>2021-09-10T07:16:23.000Z</time>
      </trkpt>
      <trkpt lat="45.10509" lon="2.68984">
        <ele>1604</ele>
        <time>2021-09-10T07:16:30.000Z</time>
      </trkpt>
      <trkpt lat="45.10507" lon="2.68975">
        <ele>1607</ele>
        <time>2021-09-10T07:16:37.000Z</time>
      </trkpt>
      <trkpt lat="45.10504" lon="2.68966">
        <ele>1610.9</ele>
        <time>2021-09-10T07:16:43.000Z</time>
      </trkpt>
      <trkpt lat="45.10502" lon="2.68957">
        <ele>1614.3</ele>
        <time>2021-09-10T07:16:49.000Z</time>
      </trkpt>
      <trkpt lat="45.10498" lon="2.68949">
        <ele>1618.4</ele>
        <time>2021-09-10T07:16:59.000Z</time>
      </trkpt>
      <trkpt lat="45.10493" lon="2.68942">
        <ele>1621.7</ele>
        <time>2021-09-10T07:17:09.000Z</time>
      </trkpt>
      <trkpt lat="45.10492" lon="2.68932">
        <ele>1624</ele>
        <time>2021-09-10T07:17:20.000Z</time>
      </trkpt>
      <trkpt lat="45.10488" lon="2.68924">
        <ele>1626.8</ele>
        <time>2021-09-10T07:17:29.000Z</time>
      </trkpt>
      <trkpt lat="45.10486" lon="2.68915">
        <ele>1629</ele>
        <time>2021-09-10T07:17:36.000Z</time>
      </trkpt>
      <trkpt lat="45.10484" lon="2.68905">
        <ele>1631.2</ele>
        <time>2021-09-10T07:17:46.000Z</time>
      </trkpt>
      <trkpt lat="45.10482" lon="2.68897">
        <ele>1632.8</ele>
        <time>2021-09-10T07:18:11.000Z</time>
      </trkpt>
      <trkpt lat="45.10473" lon="2.68884">
        <ele>1635.9</ele>
        <time>2021-09-10T07:18:37.000Z</time>
      </trkpt>
      <trkpt lat="45.10468" lon="2.68877">
        <ele>1637.1</ele>
        <time>2021-09-10T07:18:47.000Z</time>
      </trkpt>
      <trkpt lat="45.10469" lon="2.68867">
        <ele>1638</ele>
        <time>2021-09-10T07:18:53.000Z</time>
      </trkpt>
      <trkpt lat="45.10468" lon="2.68857">
        <ele>1639</ele>
        <time>2021-09-10T07:18:58.000Z</time>
      </trkpt>
      <trkpt lat="45.10468" lon="2.68848">
        <ele>1639.8</ele>
        <time>2021-09-10T07:19:05.000Z</time>
      </trkpt>
      <trkpt lat="45.10465" lon="2.68839">
        <ele>1640.4</ele>
        <time>2021-09-10T07:19:14.000Z</time>
      </trkpt>
      <trkpt lat="45.10463" lon="2.6883">
        <ele>1640.3</ele>
        <time>2021-09-10T07:19:19.000Z</time>
      </trkpt>
      <trkpt lat="45.1046" lon="2.6882">
        <ele>1639.3</ele>
        <time>2021-09-10T07:19:26.000Z</time>
      </trkpt>
      <trkpt lat="45.1046" lon="2.6881">
        <ele>1638.6</ele>
        <time>2021-09-10T07:19:36.000Z</time>
      </trkpt>
      <trkpt lat="45.1046" lon="2.688">
        <ele>1638</ele>
        <time>2021-09-10T07:19:43.000Z</time>
      </trkpt>
      <trkpt lat="45.10462" lon="2.68789">
        <ele>1637.4</ele>
        <time>2021-09-10T07:19:49.000Z</time>
      </trkpt>
      <trkpt lat="45.10464" lon="2.68779">
        <ele>1636.9</ele>
        <time>2021-09-10T07:19:53.000Z</time>
      </trkpt>
      <trkpt lat="45.10466" lon="2.68769">
        <ele>1636.3</ele>
        <time>2021-09-10T07:19:59.000Z</time>
      </trkpt>
      <trkpt lat="45.10466" lon="2.6876">
        <ele>1635.7</ele>
        <time>2021-09-10T07:20:05.000Z</time>
      </trkpt>
      <trkpt lat="45.10468" lon="2.6875">
        <ele>1635.1</ele>
        <time>2021-09-10T07:20:13.000Z</time>
      </trkpt>
      <trkpt lat="45.10468" lon="2.68741">
        <ele>1633.1</ele>
        <time>2021-09-10T07:20:29.000Z</time>
      </trkpt>
      <trkpt lat="45.1047" lon="2.68732">
        <ele>1631.1</ele>
        <time>2021-09-10T07:20:47.000Z</time>
      </trkpt>
      <trkpt lat="45.10472" lon="2.68723">
        <ele>1629.2</ele>
        <time>2021-09-10T07:20:53.000Z</time>
      </trkpt>
      <trkpt lat="45.10472" lon="2.68714">
        <ele>1627.1</ele>
        <time>2021-09-10T07:21:05.000Z</time>
      </trkpt>
      <trkpt lat="45.10475" lon="2.68706">
        <ele>1625.3</ele>
        <time>2021-09-10T07:21:25.000Z</time>
      </trkpt>
      <trkpt lat="45.10476" lon="2.68695">
        <ele>1622.8</ele>
        <time>2021-09-10T07:21:52.000Z</time>
      </trkpt>
      <trkpt lat="45.10478" lon="2.68683">
        <ele>1619.9</ele>
        <time>2021-09-10T07:22:34.000Z</time>
      </trkpt>
      <trkpt lat="45.1048" lon="2.68674">
        <ele>1617.7</ele>
        <time>2021-09-10T07:22:45.000Z</time>
      </trkpt>
      <trkpt lat="45.10484" lon="2.68665">
        <ele>1615.6</ele>
        <time>2021-09-10T07:22:59.000Z</time>
      </trkpt>
      <trkpt lat="45.10488" lon="2.68658">
        <ele>1614.7</ele>
        <time>2021-09-10T07:23:10.000Z</time>
      </trkpt>
      <trkpt lat="45.1049" lon="2.68648">
        <ele>1613.6</ele>
        <time>2021-09-10T07:23:40.000Z</time>
      </trkpt>
      <trkpt lat="45.10489" lon="2.68639">
        <ele>1612.7</ele>
        <time>2021-09-10T07:23:46.000Z</time>
      </trkpt>
      <trkpt lat="45.1049" lon="2.68629">
        <ele>1611.6</ele>
        <time>2021-09-10T07:23:54.000Z</time>
      </trkpt>
      <trkpt lat="45.10493" lon="2.6862">
        <ele>1610.6</ele>
        <time>2021-09-10T07:24:02.000Z</time>
      </trkpt>
      <trkpt lat="45.10493" lon="2.6861">
        <ele>1609.6</ele>
        <time>2021-09-10T07:24:09.000Z</time>
      </trkpt>
      <trkpt lat="45.10496" lon="2.68602">
        <ele>1608.8</ele>
        <time>2021-09-10T07:24:18.000Z</time>
      </trkpt>
      <trkpt lat="45.105" lon="2.68595">
        <ele>1608.1</ele>
        <time>2021-09-10T07:24:30.000Z</time>
      </trkpt>
      <trkpt lat="45.10499" lon="2.68585">
        <ele>1607.1</ele>
        <time>2021-09-10T07:24:38.000Z</time>
      </trkpt>
      <trkpt lat="45.105" lon="2.68575">
        <ele>1607.7</ele>
        <time>2021-09-10T07:24:46.000Z</time>
      </trkpt>
      <trkpt lat="45.10501" lon="2.68565">
        <ele>1607.6</ele>
        <time>2021-09-10T07:24:57.000Z</time>
      </trkpt>
      <trkpt lat="45.10504" lon="2.68557">
        <ele>1605.4</ele>
        <time>2021-09-10T07:25:26.000Z</time>
      </trkpt>
      <trkpt lat="45.10498" lon="2.68553">
        <ele>1609.4</ele>
        <time>2021-09-10T07:26:08.000Z</time>
      </trkpt>
      <trkpt lat="45.10499" lon="2.68543">
        <ele>1610.3</ele>
        <time>2021-09-10T07:26:15.000Z</time>
      </trkpt>
      <trkpt lat="45.10505" lon="2.68537">
        <ele>1606.5</ele>
        <time>2021-09-10T07:26:29.000Z</time>
      </trkpt>
      <trkpt lat="45.10512" lon="2.68538">
        <ele>1600.3</ele>
        <time>2021-09-10T07:26:53.000Z</time>
      </trkpt>
      <trkpt lat="45.10514" lon="2.68527">
        <ele>1600</ele>
        <time>2021-09-10T07:27:25.000Z</time>
      </trkpt>
      <trkpt lat="45.10518" lon="2.68519">
        <ele>1597.9</ele>
        <time>2021-09-10T07:27:39.000Z</time>
      </trkpt>
      <trkpt lat="45.10521" lon="2.6851">
        <ele>1597</ele>
        <time>2021-09-10T07:27:47.000Z</time>
      </trkpt>
      <trkpt lat="45.10526" lon="2.68502">
        <ele>1594.6</ele>
        <time>2021-09-10T07:27:56.000Z</time>
      </trkpt>
      <trkpt lat="45.1053" lon="2.68495">
        <ele>1592.5</ele>
        <time>2021-09-10T07:28:05.000Z</time>
      </trkpt>
      <trkpt lat="45.10536" lon="2.6849">
        <ele>1588.7</ele>
        <time>2021-09-10T07:28:11.000Z</time>
      </trkpt>
      <trkpt lat="45.10538" lon="2.68482">
        <ele>1588.3</ele>
        <time>2021-09-10T07:28:20.000Z</time>
      </trkpt>
      <trkpt lat="45.10542" lon="2.68474">
        <ele>1586.7</ele>
        <time>2021-09-10T07:28:25.000Z</time>
      </trkpt>
      <trkpt lat="45.10545" lon="2.68464">
        <ele>1586.3</ele>
        <time>2021-09-10T07:28:32.000Z</time>
      </trkpt>
      <trkpt lat="45.1055" lon="2.68459">
        <ele>1584.2</ele>
        <time>2021-09-10T07:28:39.000Z</time>
      </trkpt>
      <trkpt lat="45.10556" lon="2.68452">
        <ele>1582.1</ele>
        <time>2021-09-10T07:28:46.000Z</time>
      </trkpt>
      <trkpt lat="45.10562" lon="2.68447">
        <ele>1580</ele>
        <time>2021-09-10T07:28:51.000Z</time>
      </trkpt>
      <trkpt lat="45.10569" lon="2.68443">
        <ele>1577.3</ele>
        <time>2021-09-10T07:28:57.000Z</time>
      </trkpt>
      <trkpt lat="45.10574" lon="2.68437">
        <ele>1576.4</ele>
        <time>2021-09-10T07:29:05.000Z</time>
      </trkpt>
      <trkpt lat="45.1058" lon="2.68433">
        <ele>1574.6</ele>
        <time>2021-09-10T07:29:11.000Z</time>
      </trkpt>
      <trkpt lat="45.10585" lon="2.68426">
        <ele>1574</ele>
        <time>2021-09-10T07:29:17.000Z</time>
      </trkpt>
      <trkpt lat="45.10589" lon="2.68418">
        <ele>1573.6</ele>
        <time>2021-09-10T07:29:23.000Z</time>
      </trkpt>
      <trkpt lat="45.10591" lon="2.68409">
        <ele>1574.3</ele>
        <time>2021-09-10T07:29:29.000Z</time>
      </trkpt>
      <trkpt lat="45.10596" lon="2.68403">
        <ele>1572.3</ele>
        <time>2021-09-10T07:29:36.000Z</time>
      </trkpt>
      <trkpt lat="45.10599" lon="2.68394">
        <ele>1572.4</ele>
        <time>2021-09-10T07:29:46.000Z</time>
      </trkpt>
      <trkpt lat="45.10601" lon="2.68386">
        <ele>1573.1</ele>
        <time>2021-09-10T07:30:02.000Z</time>
      </trkpt>
      <trkpt lat="45.10605" lon="2.68376">
        <ele>1573</ele>
        <time>2021-09-10T07:30:13.000Z</time>
      </trkpt>
      <trkpt lat="45.10611" lon="2.6837">
        <ele>1570.7</ele>
        <time>2021-09-10T07:30:21.000Z</time>
      </trkpt>
      <trkpt lat="45.10617" lon="2.68365">
        <ele>1568.3</ele>
        <time>2021-09-10T07:30:33.000Z</time>
      </trkpt>
      <trkpt lat="45.10623" lon="2.6836">
        <ele>1566</ele>
        <time>2021-09-10T07:30:40.000Z</time>
      </trkpt>
      <trkpt lat="45.10627" lon="2.68352">
        <ele>1565.9</ele>
        <time>2021-09-10T07:30:48.000Z</time>
      </trkpt>
      <trkpt lat="45.10633" lon="2.68347">
        <ele>1563.9</ele>
        <time>2021-09-10T07:30:53.000Z</time>
      </trkpt>
      <trkpt lat="45.10634" lon="2.68337">
        <ele>1566.3</ele>
        <time>2021-09-10T07:31:00.000Z</time>
      </trkpt>
      <trkpt lat="45.10639" lon="2.68331">
        <ele>1564.9</ele>
        <time>2021-09-10T07:31:11.000Z</time>
      </trkpt>
      <trkpt lat="45.10643" lon="2.68323">
        <ele>1563.7</ele>
        <time>2021-09-10T07:31:18.000Z</time>
      </trkpt>
      <trkpt lat="45.10637" lon="2.68311">
        <ele>1568.2</ele>
        <time>2021-09-10T07:31:27.000Z</time>
      </trkpt>
      <trkpt lat="45.10644" lon="2.68311">
        <ele>1564.8</ele>
        <time>2021-09-10T07:31:52.000Z</time>
      </trkpt>
      <trkpt lat="45.10637" lon="2.68314">
        <ele>1567.8</ele>
        <time>2021-09-10T07:32:10.000Z</time>
      </trkpt>
      <trkpt lat="45.10645" lon="2.68313">
        <ele>1564.1</ele>
        <time>2021-09-10T07:32:27.000Z</time>
      </trkpt>
      <trkpt lat="45.10656" lon="2.68308">
        <ele>1559.7</ele>
        <time>2021-09-10T07:32:33.000Z</time>
      </trkpt>
      <trkpt lat="45.10663" lon="2.68306">
        <ele>1556.9</ele>
        <time>2021-09-10T07:32:39.000Z</time>
      </trkpt>
      <trkpt lat="45.1067" lon="2.68307">
        <ele>1553.5</ele>
        <time>2021-09-10T07:32:45.000Z</time>
      </trkpt>
      <trkpt lat="45.10677" lon="2.68303">
        <ele>1551.2</ele>
        <time>2021-09-10T07:32:53.000Z</time>
      </trkpt>
      <trkpt lat="45.10683" lon="2.68299">
        <ele>1549.5</ele>
        <time>2021-09-10T07:33:00.000Z</time>
      </trkpt>
      <trkpt lat="45.10691" lon="2.68297">
        <ele>1546.5</ele>
        <time>2021-09-10T07:33:06.000Z</time>
      </trkpt>
      <trkpt lat="45.10696" lon="2.68292">
        <ele>1545.6</ele>
        <time>2021-09-10T07:33:14.000Z</time>
      </trkpt>
      <trkpt lat="45.10703" lon="2.68287">
        <ele>1543.9</ele>
        <time>2021-09-10T07:33:21.000Z</time>
      </trkpt>
      <trkpt lat="45.10709" lon="2.68282">
        <ele>1542.7</ele>
        <time>2021-09-10T07:33:27.000Z</time>
      </trkpt>
      <trkpt lat="45.10716" lon="2.68282">
        <ele>1539.7</ele>
        <time>2021-09-10T07:33:37.000Z</time>
      </trkpt>
      <trkpt lat="45.10723" lon="2.6828">
        <ele>1537.3</ele>
        <time>2021-09-10T07:33:49.000Z</time>
      </trkpt>
      <trkpt lat="45.1073" lon="2.68278">
        <ele>1535</ele>
        <time>2021-09-10T07:34:01.000Z</time>
      </trkpt>
      <trkpt lat="45.10738" lon="2.68277">
        <ele>1532</ele>
        <time>2021-09-10T07:34:08.000Z</time>
      </trkpt>
      <trkpt lat="45.10745" lon="2.68274">
        <ele>1530</ele>
        <time>2021-09-10T07:34:14.000Z</time>
      </trkpt>
      <trkpt lat="45.10751" lon="2.68275">
        <ele>1527.4</ele>
        <time>2021-09-10T07:34:29.000Z</time>
      </trkpt>
      <trkpt lat="45.10758" lon="2.68271">
        <ele>1527.2</ele>
        <time>2021-09-10T07:34:37.000Z</time>
      </trkpt>
      <trkpt lat="45.10766" lon="2.68268">
        <ele>1526.8</ele>
        <time>2021-09-10T07:34:43.000Z</time>
      </trkpt>
      <trkpt lat="45.10773" lon="2.68267">
        <ele>1525.9</ele>
        <time>2021-09-10T07:34:50.000Z</time>
      </trkpt>
      <trkpt lat="45.1078" lon="2.68266">
        <ele>1525.1</ele>
        <time>2021-09-10T07:34:54.000Z</time>
      </trkpt>
      <trkpt lat="45.10787" lon="2.68267">
        <ele>1523.3</ele>
        <time>2021-09-10T07:35:02.000Z</time>
      </trkpt>
      <trkpt lat="45.10793" lon="2.68267">
        <ele>1522.1</ele>
        <time>2021-09-10T07:35:08.000Z</time>
      </trkpt>
      <trkpt lat="45.108" lon="2.68267">
        <ele>1520.8</ele>
        <time>2021-09-10T07:35:14.000Z</time>
      </trkpt>
      <trkpt lat="45.10806" lon="2.68268">
        <ele>1519</ele>
        <time>2021-09-10T07:35:22.000Z</time>
      </trkpt>
      <trkpt lat="45.10799" lon="2.68271">
        <ele>1518.5</ele>
        <time>2021-09-10T07:35:27.000Z</time>
      </trkpt>
      <trkpt lat="45.10789" lon="2.68272">
        <ele>1520</ele>
        <time>2021-09-10T07:35:33.000Z</time>
      </trkpt>
      <trkpt lat="45.10796" lon="2.6827">
        <ele>1519.7</ele>
        <time>2021-09-10T07:35:46.000Z</time>
      </trkpt>
      <trkpt lat="45.10803" lon="2.68267">
        <ele>1520.3</ele>
        <time>2021-09-10T07:35:52.000Z</time>
      </trkpt>
      <trkpt lat="45.1081" lon="2.68262">
        <ele>1522.5</ele>
        <time>2021-09-10T07:35:57.000Z</time>
      </trkpt>
      <trkpt lat="45.10818" lon="2.68259">
        <ele>1523.5</ele>
        <time>2021-09-10T07:36:03.000Z</time>
      </trkpt>
      <trkpt lat="45.10825" lon="2.6826">
        <ele>1521.7</ele>
        <time>2021-09-10T07:36:09.000Z</time>
      </trkpt>
      <trkpt lat="45.10832" lon="2.68263">
        <ele>1518.1</ele>
        <time>2021-09-10T07:36:16.000Z</time>
      </trkpt>
      <trkpt lat="45.10839" lon="2.68267">
        <ele>1513.3</ele>
        <time>2021-09-10T07:36:21.000Z</time>
      </trkpt>
      <trkpt lat="45.10845" lon="2.68272">
        <ele>1507.9</ele>
        <time>2021-09-10T07:36:28.000Z</time>
      </trkpt>
      <trkpt lat="45.10852" lon="2.68273">
        <ele>1505.7</ele>
        <time>2021-09-10T07:36:35.000Z</time>
      </trkpt>
      <trkpt lat="45.10858" lon="2.68272">
        <ele>1505.3</ele>
        <time>2021-09-10T07:36:46.000Z</time>
      </trkpt>
      <trkpt lat="45.10865" lon="2.68275">
        <ele>1501.7</ele>
        <time>2021-09-10T07:37:00.000Z</time>
      </trkpt>
      <trkpt lat="45.10871" lon="2.6828">
        <ele>1496.9</ele>
        <time>2021-09-10T07:37:38.000Z</time>
      </trkpt>
      <trkpt lat="45.10878" lon="2.68283">
        <ele>1493.7</ele>
        <time>2021-09-10T07:37:43.000Z</time>
      </trkpt>
      <trkpt lat="45.10884" lon="2.6828">
        <ele>1494.7</ele>
        <time>2021-09-10T07:37:50.000Z</time>
      </trkpt>
      <trkpt lat="45.10891" lon="2.68282">
        <ele>1492.2</ele>
        <time>2021-09-10T07:38:06.000Z</time>
      </trkpt>
      <trkpt lat="45.10897" lon="2.68287">
        <ele>1488</ele>
        <time>2021-09-10T07:38:15.000Z</time>
      </trkpt>
      <trkpt lat="45.10899" lon="2.68297">
        <ele>1481.5</ele>
        <time>2021-09-10T07:39:08.000Z</time>
      </trkpt>
      <trkpt lat="45.10903" lon="2.68306">
        <ele>1475.5</ele>
        <time>2021-09-10T07:39:13.000Z</time>
      </trkpt>
      <trkpt lat="45.10909" lon="2.6831">
        <ele>1472.7</ele>
        <time>2021-09-10T07:39:23.000Z</time>
      </trkpt>
      <trkpt lat="45.10916" lon="2.68313">
        <ele>1470.5</ele>
        <time>2021-09-10T07:39:28.000Z</time>
      </trkpt>
      <trkpt lat="45.10921" lon="2.68319">
        <ele>1467.6</ele>
        <time>2021-09-10T07:39:33.000Z</time>
      </trkpt>
      <trkpt lat="45.10931" lon="2.68318">
        <ele>1469.2</ele>
        <time>2021-09-10T07:39:39.000Z</time>
      </trkpt>
      <trkpt lat="45.10938" lon="2.68321">
        <ele>1468.3</ele>
        <time>2021-09-10T07:39:46.000Z</time>
      </trkpt>
      <trkpt lat="45.10945" lon="2.68326">
        <ele>1466.4</ele>
        <time>2021-09-10T07:39:51.000Z</time>
      </trkpt>
      <trkpt lat="45.10953" lon="2.68333">
        <ele>1463.5</ele>
        <time>2021-09-10T07:39:57.000Z</time>
      </trkpt>
      <trkpt lat="45.1096" lon="2.6834">
        <ele>1461.6</ele>
        <time>2021-09-10T07:40:03.000Z</time>
      </trkpt>
      <trkpt lat="45.10969" lon="2.6835">
        <ele>1458.6</ele>
        <time>2021-09-10T07:40:09.000Z</time>
      </trkpt>
      <trkpt lat="45.10976" lon="2.68357">
        <ele>1456.5</ele>
        <time>2021-09-10T07:40:15.000Z</time>
      </trkpt>
      <trkpt lat="45.10983" lon="2.68365">
        <ele>1454</ele>
        <time>2021-09-10T07:40:21.000Z</time>
      </trkpt>
      <trkpt lat="45.10989" lon="2.68372">
        <ele>1451.7</ele>
        <time>2021-09-10T07:40:27.000Z</time>
      </trkpt>
      <trkpt lat="45.10994" lon="2.68378">
        <ele>1449.7</ele>
        <time>2021-09-10T07:40:38.000Z</time>
      </trkpt>
      <trkpt lat="45.11" lon="2.68383">
        <ele>1448.1</ele>
        <time>2021-09-10T07:40:42.000Z</time>
      </trkpt>
      <trkpt lat="45.11005" lon="2.68389">
        <ele>1447</ele>
        <time>2021-09-10T07:40:46.000Z</time>
      </trkpt>
      <trkpt lat="45.11012" lon="2.68396">
        <ele>1446</ele>
        <time>2021-09-10T07:40:51.000Z</time>
      </trkpt>
      <trkpt lat="45.1102" lon="2.68405">
        <ele>1444.4</ele>
        <time>2021-09-10T07:40:57.000Z</time>
      </trkpt>
      <trkpt lat="45.11029" lon="2.68412">
        <ele>1444</ele>
        <time>2021-09-10T07:41:03.000Z</time>
      </trkpt>
      <trkpt lat="45.11037" lon="2.68421">
        <ele>1443.1</ele>
        <time>2021-09-10T07:41:09.000Z</time>
      </trkpt>
      <trkpt lat="45.11044" lon="2.68427">
        <ele>1443.2</ele>
        <time>2021-09-10T07:41:17.000Z</time>
      </trkpt>
      <trkpt lat="45.11049" lon="2.68432">
        <ele>1443</ele>
        <time>2021-09-10T07:41:21.000Z</time>
      </trkpt>
      <trkpt lat="45.11057" lon="2.6844">
        <ele>1442.5</ele>
        <time>2021-09-10T07:41:27.000Z</time>
      </trkpt>
      <trkpt lat="45.11065" lon="2.68447">
        <ele>1441.9</ele>
        <time>2021-09-10T07:41:33.000Z</time>
      </trkpt>
      <trkpt lat="45.11073" lon="2.68453">
        <ele>1441.5</ele>
        <time>2021-09-10T07:41:39.000Z</time>
      </trkpt>
      <trkpt lat="45.1108" lon="2.68461">
        <ele>1439.9</ele>
        <time>2021-09-10T07:41:45.000Z</time>
      </trkpt>
      <trkpt lat="45.11086" lon="2.68471">
        <ele>1437.3</ele>
        <time>2021-09-10T07:41:51.000Z</time>
      </trkpt>
      <trkpt lat="45.11092" lon="2.68478">
        <ele>1435.8</ele>
        <time>2021-09-10T07:41:57.000Z</time>
      </trkpt>
      <trkpt lat="45.11099" lon="2.68483">
        <ele>1435.2</ele>
        <time>2021-09-10T07:42:03.000Z</time>
      </trkpt>
      <trkpt lat="45.11106" lon="2.68482">
        <ele>1436.9</ele>
        <time>2021-09-10T07:42:09.000Z</time>
      </trkpt>
      <trkpt lat="45.11112" lon="2.68479">
        <ele>1439.1</ele>
        <time>2021-09-10T07:42:20.000Z</time>
      </trkpt>
      <trkpt lat="45.11106" lon="2.68486">
        <ele>1435.3</ele>
        <time>2021-09-10T07:43:17.000Z</time>
      </trkpt>
      <trkpt lat="45.11101" lon="2.68493">
        <ele>1431.7</ele>
        <time>2021-09-10T07:43:23.000Z</time>
      </trkpt>
      <trkpt lat="45.11098" lon="2.68502">
        <ele>1428.1</ele>
        <time>2021-09-10T07:43:51.000Z</time>
      </trkpt>
      <trkpt lat="45.11094" lon="2.6851">
        <ele>1426</ele>
        <time>2021-09-10T07:44:08.000Z</time>
      </trkpt>
      <trkpt lat="45.11096" lon="2.685">
        <ele>1428.1</ele>
        <time>2021-09-10T07:44:25.000Z</time>
      </trkpt>
      <trkpt lat="45.11091" lon="2.68495">
        <ele>1429.2</ele>
        <time>2021-09-10T07:44:48.000Z</time>
      </trkpt>
      <trkpt lat="45.11088" lon="2.68504">
        <ele>1426.1</ele>
        <time>2021-09-10T07:45:04.000Z</time>
      </trkpt>
      <trkpt lat="45.11089" lon="2.68514">
        <ele>1424.5</ele>
        <time>2021-09-10T07:45:11.000Z</time>
      </trkpt>
      <trkpt lat="45.11092" lon="2.68523">
        <ele>1423.4</ele>
        <time>2021-09-10T07:45:16.000Z</time>
      </trkpt>
      <trkpt lat="45.11097" lon="2.68532">
        <ele>1422.6</ele>
        <time>2021-09-10T07:45:21.000Z</time>
      </trkpt>
      <trkpt lat="45.11103" lon="2.68539">
        <ele>1422.2</ele>
        <time>2021-09-10T07:45:27.000Z</time>
      </trkpt>
      <trkpt lat="45.11109" lon="2.68544">
        <ele>1422.1</ele>
        <time>2021-09-10T07:45:33.000Z</time>
      </trkpt>
      <trkpt lat="45.11118" lon="2.68552">
        <ele>1421.8</ele>
        <time>2021-09-10T07:45:39.000Z</time>
      </trkpt>
      <trkpt lat="45.11124" lon="2.68562">
        <ele>1420.6</ele>
        <time>2021-09-10T07:45:45.000Z</time>
      </trkpt>
      <trkpt lat="45.11131" lon="2.68568">
        <ele>1420.3</ele>
        <time>2021-09-10T07:45:51.000Z</time>
      </trkpt>
      <trkpt lat="45.11139" lon="2.68571">
        <ele>1420.6</ele>
        <time>2021-09-10T07:45:57.000Z</time>
      </trkpt>
      <trkpt lat="45.11148" lon="2.68575">
        <ele>1420.8</ele>
        <time>2021-09-10T07:46:03.000Z</time>
      </trkpt>
      <trkpt lat="45.11156" lon="2.68582">
        <ele>1420.1</ele>
        <time>2021-09-10T07:46:09.000Z</time>
      </trkpt>
      <trkpt lat="45.11166" lon="2.68587">
        <ele>1420.6</ele>
        <time>2021-09-10T07:46:15.000Z</time>
      </trkpt>
      <trkpt lat="45.11174" lon="2.68592">
        <ele>1420.8</ele>
        <time>2021-09-10T07:46:21.000Z</time>
      </trkpt>
      <trkpt lat="45.11181" lon="2.68595">
        <ele>1421.1</ele>
        <time>2021-09-10T07:46:27.000Z</time>
      </trkpt>
      <trkpt lat="45.11189" lon="2.68601">
        <ele>1421.1</ele>
        <time>2021-09-10T07:46:33.000Z</time>
      </trkpt>
      <trkpt lat="45.11198" lon="2.68607">
        <ele>1421.3</ele>
        <time>2021-09-10T07:46:39.000Z</time>
      </trkpt>
      <trkpt lat="45.11207" lon="2.68612">
        <ele>1421.5</ele>
        <time>2021-09-10T07:46:45.000Z</time>
      </trkpt>
      <trkpt lat="45.11214" lon="2.68617">
        <ele>1421.6</ele>
        <time>2021-09-10T07:46:51.000Z</time>
      </trkpt>
      <trkpt lat="45.11221" lon="2.68621">
        <ele>1421.7</ele>
        <time>2021-09-10T07:46:56.000Z</time>
      </trkpt>
      <trkpt lat="45.1123" lon="2.68624">
        <ele>1422.1</ele>
        <time>2021-09-10T07:47:02.000Z</time>
      </trkpt>
      <trkpt lat="45.11237" lon="2.68628">
        <ele>1422.3</ele>
        <time>2021-09-10T07:47:08.000Z</time>
      </trkpt>
      <trkpt lat="45.11246" lon="2.68633">
        <ele>1422.5</ele>
        <time>2021-09-10T07:47:14.000Z</time>
      </trkpt>
      <trkpt lat="45.11256" lon="2.68635">
        <ele>1422.4</ele>
        <time>2021-09-10T07:47:20.000Z</time>
      </trkpt>
      <trkpt lat="45.11265" lon="2.68635">
        <ele>1421.9</ele>
        <time>2021-09-10T07:47:26.000Z</time>
      </trkpt>
      <trkpt lat="45.11274" lon="2.68634">
        <ele>1421.5</ele>
        <time>2021-09-10T07:47:32.000Z</time>
      </trkpt>
      <trkpt lat="45.11281" lon="2.68632">
        <ele>1421.2</ele>
        <time>2021-09-10T07:47:38.000Z</time>
      </trkpt>
      <trkpt lat="45.11289" lon="2.68633">
        <ele>1420.8</ele>
        <time>2021-09-10T07:47:44.000Z</time>
      </trkpt>
      <trkpt lat="45.11297" lon="2.68628">
        <ele>1420.5</ele>
        <time>2021-09-10T07:47:51.000Z</time>
      </trkpt>
      <trkpt lat="45.11302" lon="2.68621">
        <ele>1420.5</ele>
        <time>2021-09-10T07:48:01.000Z</time>
      </trkpt>
      <trkpt lat="45.11307" lon="2.68613">
        <ele>1420.5</ele>
        <time>2021-09-10T07:48:11.000Z</time>
      </trkpt>
      <trkpt lat="45.11313" lon="2.68608">
        <ele>1420.2</ele>
        <time>2021-09-10T07:48:17.000Z</time>
      </trkpt>
      <trkpt lat="45.11322" lon="2.68603">
        <ele>1419.7</ele>
        <time>2021-09-10T07:48:23.000Z</time>
      </trkpt>
      <trkpt lat="45.11328" lon="2.68605">
        <ele>1419.2</ele>
        <time>2021-09-10T07:48:43.000Z</time>
      </trkpt>
      <trkpt lat="45.11338" lon="2.6861">
        <ele>1418.1</ele>
        <time>2021-09-10T07:48:49.000Z</time>
      </trkpt>
      <trkpt lat="45.11344" lon="2.68615">
        <ele>1417.3</ele>
        <time>2021-09-10T07:48:55.000Z</time>
      </trkpt>
      <trkpt lat="45.1135" lon="2.68618">
        <ele>1416.6</ele>
        <time>2021-09-10T07:49:02.000Z</time>
      </trkpt>
      <trkpt lat="45.11357" lon="2.68621">
        <ele>1415.7</ele>
        <time>2021-09-10T07:49:08.000Z</time>
      </trkpt>
      <trkpt lat="45.11364" lon="2.68621">
        <ele>1414.9</ele>
        <time>2021-09-10T07:49:13.000Z</time>
      </trkpt>
      <trkpt lat="45.11372" lon="2.68623">
        <ele>1413.9</ele>
        <time>2021-09-10T07:49:18.000Z</time>
      </trkpt>
      <trkpt lat="45.11381" lon="2.68625">
        <ele>1412.8</ele>
        <time>2021-09-10T07:49:24.000Z</time>
      </trkpt>
      <trkpt lat="45.11386" lon="2.68631">
        <ele>1412.1</ele>
        <time>2021-09-10T07:49:53.000Z</time>
      </trkpt>
      <trkpt lat="45.11389" lon="2.6864">
        <ele>1411.6</ele>
        <time>2021-09-10T07:49:59.000Z</time>
      </trkpt>
      <trkpt lat="45.11392" lon="2.68649">
        <ele>1411.2</ele>
        <time>2021-09-10T07:50:49.000Z</time>
      </trkpt>
      <trkpt lat="45.11394" lon="2.68659">
        <ele>1410.8</ele>
        <time>2021-09-10T07:50:55.000Z</time>
      </trkpt>
      <trkpt lat="45.11396" lon="2.68669">
        <ele>1410.5</ele>
        <time>2021-09-10T07:51:00.000Z</time>
      </trkpt>
      <trkpt lat="45.11394" lon="2.68678">
        <ele>1410.9</ele>
        <time>2021-09-10T07:51:05.000Z</time>
      </trkpt>
      <trkpt lat="45.11391" lon="2.68688">
        <ele>1411.4</ele>
        <time>2021-09-10T07:51:11.000Z</time>
      </trkpt>
      <trkpt lat="45.11391" lon="2.68699">
        <ele>1411.5</ele>
        <time>2021-09-10T07:51:17.000Z</time>
      </trkpt>
      <trkpt lat="45.11395" lon="2.68707">
        <ele>1411.2</ele>
        <time>2021-09-10T07:51:23.000Z</time>
      </trkpt>
      <trkpt lat="45.11401" lon="2.68714">
        <ele>1410.7</ele>
        <time>2021-09-10T07:51:29.000Z</time>
      </trkpt>
      <trkpt lat="45.11404" lon="2.68727">
        <ele>1410.6</ele>
        <time>2021-09-10T07:51:35.000Z</time>
      </trkpt>
      <trkpt lat="45.11405" lon="2.68736">
        <ele>1410.7</ele>
        <time>2021-09-10T07:51:42.000Z</time>
      </trkpt>
      <trkpt lat="45.11406" lon="2.68746">
        <ele>1410.8</ele>
        <time>2021-09-10T07:52:54.000Z</time>
      </trkpt>
      <trkpt lat="45.11403" lon="2.68756">
        <ele>1411.1</ele>
        <time>2021-09-10T07:53:00.000Z</time>
      </trkpt>
      <trkpt lat="45.11402" lon="2.68766">
        <ele>1411</ele>
        <time>2021-09-10T07:53:05.000Z</time>
      </trkpt>
      <trkpt lat="45.11404" lon="2.68776">
        <ele>1410.7</ele>
        <time>2021-09-10T07:53:11.000Z</time>
      </trkpt>
      <trkpt lat="45.11407" lon="2.68785">
        <ele>1410.3</ele>
        <time>2021-09-10T07:53:17.000Z</time>
      </trkpt>
      <trkpt lat="45.11411" lon="2.68796">
        <ele>1409.8</ele>
        <time>2021-09-10T07:53:23.000Z</time>
      </trkpt>
      <trkpt lat="45.11412" lon="2.68805">
        <ele>1409.7</ele>
        <time>2021-09-10T07:53:30.000Z</time>
      </trkpt>
      <trkpt lat="45.11415" lon="2.68815">
        <ele>1409.3</ele>
        <time>2021-09-10T07:53:36.000Z</time>
      </trkpt>
      <trkpt lat="45.11415" lon="2.68825">
        <ele>1409.2</ele>
        <time>2021-09-10T07:53:44.000Z</time>
      </trkpt>
      <trkpt lat="45.11413" lon="2.68834">
        <ele>1409.1</ele>
        <time>2021-09-10T07:53:55.000Z</time>
      </trkpt>
      <trkpt lat="45.11415" lon="2.68844">
        <ele>1407.9</ele>
        <time>2021-09-10T07:54:00.000Z</time>
      </trkpt>
      <trkpt lat="45.11419" lon="2.68853">
        <ele>1406.3</ele>
        <time>2021-09-10T07:54:05.000Z</time>
      </trkpt>
      <trkpt lat="45.11424" lon="2.68866">
        <ele>1403.8</ele>
        <time>2021-09-10T07:54:11.000Z</time>
      </trkpt>
      <trkpt lat="45.11431" lon="2.68876">
        <ele>1401.4</ele>
        <time>2021-09-10T07:54:17.000Z</time>
      </trkpt>
      <trkpt lat="45.11438" lon="2.68889">
        <ele>1398.9</ele>
        <time>2021-09-10T07:54:23.000Z</time>
      </trkpt>
      <trkpt lat="45.11445" lon="2.68904">
        <ele>1396.5</ele>
        <time>2021-09-10T07:54:28.000Z</time>
      </trkpt>
      <trkpt lat="45.11452" lon="2.6891">
        <ele>1394.9</ele>
        <time>2021-09-10T07:54:33.000Z</time>
      </trkpt>
      <trkpt lat="45.11458" lon="2.68915">
        <ele>1393.6</ele>
        <time>2021-09-10T07:54:39.000Z</time>
      </trkpt>
      <trkpt lat="45.11463" lon="2.68924">
        <ele>1392.2</ele>
        <time>2021-09-10T07:54:45.000Z</time>
      </trkpt>
      <trkpt lat="45.11472" lon="2.68935">
        <ele>1390.3</ele>
        <time>2021-09-10T07:54:51.000Z</time>
      </trkpt>
      <trkpt lat="45.11478" lon="2.68943">
        <ele>1389.1</ele>
        <time>2021-09-10T07:54:57.000Z</time>
      </trkpt>
      <trkpt lat="45.11486" lon="2.68952">
        <ele>1387.9</ele>
        <time>2021-09-10T07:55:03.000Z</time>
      </trkpt>
      <trkpt lat="45.11495" lon="2.68963">
        <ele>1386.8</ele>
        <time>2021-09-10T07:55:09.000Z</time>
      </trkpt>
      <trkpt lat="45.11501" lon="2.68968">
        <ele>1386.3</ele>
        <time>2021-09-10T07:55:16.000Z</time>
      </trkpt>
      <trkpt lat="45.11508" lon="2.6897">
        <ele>1385.6</ele>
        <time>2021-09-10T07:55:21.000Z</time>
      </trkpt>
      <trkpt lat="45.11518" lon="2.68973">
        <ele>1384.6</ele>
        <time>2021-09-10T07:55:27.000Z</time>
      </trkpt>
      <trkpt lat="45.11527" lon="2.68977">
        <ele>1383.8</ele>
        <time>2021-09-10T07:55:33.000Z</time>
      </trkpt>
      <trkpt lat="45.11536" lon="2.68977">
        <ele>1383</ele>
        <time>2021-09-10T07:55:39.000Z</time>
      </trkpt>
      <trkpt lat="45.11542" lon="2.68983">
        <ele>1382.6</ele>
        <time>2021-09-10T07:55:45.000Z</time>
      </trkpt>
      <trkpt lat="45.1155" lon="2.68986">
        <ele>1382</ele>
        <time>2021-09-10T07:55:52.000Z</time>
      </trkpt>
      <trkpt lat="45.11555" lon="2.68991">
        <ele>1381.7</ele>
        <time>2021-09-10T07:56:01.000Z</time>
      </trkpt>
      <trkpt lat="45.11563" lon="2.68995">
        <ele>1381.3</ele>
        <time>2021-09-10T07:56:06.000Z</time>
      </trkpt>
      <trkpt lat="45.1157" lon="2.68998">
        <ele>1380.9</ele>
        <time>2021-09-10T07:56:11.000Z</time>
      </trkpt>
      <trkpt lat="45.11576" lon="2.69002">
        <ele>1380.4</ele>
        <time>2021-09-10T07:56:15.000Z</time>
      </trkpt>
      <trkpt lat="45.11584" lon="2.69007">
        <ele>1379.6</ele>
        <time>2021-09-10T07:56:21.000Z</time>
      </trkpt>
      <trkpt lat="45.11591" lon="2.69009">
        <ele>1378.9</ele>
        <time>2021-09-10T07:56:27.000Z</time>
      </trkpt>
      <trkpt lat="45.11598" lon="2.69017">
        <ele>1378.1</ele>
        <time>2021-09-10T07:56:33.000Z</time>
      </trkpt>
      <trkpt lat="45.11607" lon="2.69023">
        <ele>1377.4</ele>
        <time>2021-09-10T07:56:39.000Z</time>
      </trkpt>
      <trkpt lat="45.11614" lon="2.69028">
        <ele>1377</ele>
        <time>2021-09-10T07:56:46.000Z</time>
      </trkpt>
      <trkpt lat="45.11619" lon="2.69033">
        <ele>1376.8</ele>
        <time>2021-09-10T07:56:52.000Z</time>
      </trkpt>
      <trkpt lat="45.11625" lon="2.69038">
        <ele>1376.6</ele>
        <time>2021-09-10T07:56:57.000Z</time>
      </trkpt>
      <trkpt lat="45.11633" lon="2.69053">
        <ele>1377</ele>
        <time>2021-09-10T07:57:03.000Z</time>
      </trkpt>
      <trkpt lat="45.11643" lon="2.69068">
        <ele>1377.9</ele>
        <time>2021-09-10T07:57:09.000Z</time>
      </trkpt>
      <trkpt lat="45.1165" lon="2.69082">
        <ele>1379.1</ele>
        <time>2021-09-10T07:57:15.000Z</time>
      </trkpt>
      <trkpt lat="45.11656" lon="2.69092">
        <ele>1378.2</ele>
        <time>2021-09-10T07:57:21.000Z</time>
      </trkpt>
      <trkpt lat="45.11663" lon="2.69095">
        <ele>1378.2</ele>
        <time>2021-09-10T07:57:27.000Z</time>
      </trkpt>
      <trkpt lat="45.11668" lon="2.69102">
        <ele>1377.5</ele>
        <time>2021-09-10T07:57:36.000Z</time>
      </trkpt>
      <trkpt lat="45.11673" lon="2.69109">
        <ele>1376.4</ele>
        <time>2021-09-10T07:57:43.000Z</time>
      </trkpt>
      <trkpt lat="45.11679" lon="2.69112">
        <ele>1375.9</ele>
        <time>2021-09-10T07:57:51.000Z</time>
      </trkpt>
      <trkpt lat="45.11688" lon="2.69116">
        <ele>1375.4</ele>
        <time>2021-09-10T07:57:57.000Z</time>
      </trkpt>
      <trkpt lat="45.11696" lon="2.69121">
        <ele>1375.1</ele>
        <time>2021-09-10T07:58:03.000Z</time>
      </trkpt>
      <trkpt lat="45.11702" lon="2.69127">
        <ele>1374.8</ele>
        <time>2021-09-10T07:58:09.000Z</time>
      </trkpt>
      <trkpt lat="45.11704" lon="2.69137">
        <ele>1374.5</ele>
        <time>2021-09-10T07:58:21.000Z</time>
      </trkpt>
      <trkpt lat="45.11705" lon="2.69147">
        <ele>1374.2</ele>
        <time>2021-09-10T07:58:29.000Z</time>
      </trkpt>
      <trkpt lat="45.11712" lon="2.69153">
        <ele>1374.6</ele>
        <time>2021-09-10T07:58:36.000Z</time>
      </trkpt>
      <trkpt lat="45.1172" lon="2.69154">
        <ele>1375.3</ele>
        <time>2021-09-10T07:58:49.000Z</time>
      </trkpt>
      <trkpt lat="45.11732" lon="2.69152">
        <ele>1376.3</ele>
        <time>2021-09-10T08:03:07.000Z</time>
      </trkpt>
      <trkpt lat="45.11739" lon="2.69156">
        <ele>1377.1</ele>
        <time>2021-09-10T08:05:04.000Z</time>
      </trkpt>
      <trkpt lat="45.11745" lon="2.69162">
        <ele>1378.1</ele>
        <time>2021-09-10T08:05:16.000Z</time>
      </trkpt>
      <trkpt lat="45.1175" lon="2.69169">
        <ele>1378.7</ele>
        <time>2021-09-10T08:05:21.000Z</time>
      </trkpt>
      <trkpt lat="45.11755" lon="2.69179">
        <ele>1377.2</ele>
        <time>2021-09-10T08:05:27.000Z</time>
      </trkpt>
      <trkpt lat="45.11762" lon="2.69183">
        <ele>1376.6</ele>
        <time>2021-09-10T08:05:33.000Z</time>
      </trkpt>
      <trkpt lat="45.11769" lon="2.69186">
        <ele>1376.1</ele>
        <time>2021-09-10T08:05:39.000Z</time>
      </trkpt>
      <trkpt lat="45.11778" lon="2.69191">
        <ele>1375.5</ele>
        <time>2021-09-10T08:05:45.000Z</time>
      </trkpt>
      <trkpt lat="45.11786" lon="2.69194">
        <ele>1375.2</ele>
        <time>2021-09-10T08:05:51.000Z</time>
      </trkpt>
      <trkpt lat="45.11792" lon="2.69193">
        <ele>1375.3</ele>
        <time>2021-09-10T08:05:59.000Z</time>
      </trkpt>
      <trkpt lat="45.118" lon="2.69197">
        <ele>1375</ele>
        <time>2021-09-10T08:07:10.000Z</time>
      </trkpt>
      <trkpt lat="45.11808" lon="2.69205">
        <ele>1374.7</ele>
        <time>2021-09-10T08:07:15.000Z</time>
      </trkpt>
      <trkpt lat="45.11813" lon="2.69211">
        <ele>1374.5</ele>
        <time>2021-09-10T08:07:44.000Z</time>
      </trkpt>
      <trkpt lat="45.11821" lon="2.69216">
        <ele>1374.6</ele>
        <time>2021-09-10T08:07:49.000Z</time>
      </trkpt>
      <trkpt lat="45.11827" lon="2.69219">
        <ele>1374.8</ele>
        <time>2021-09-10T08:07:54.000Z</time>
      </trkpt>
      <trkpt lat="45.11833" lon="2.69223">
        <ele>1375</ele>
        <time>2021-09-10T08:07:58.000Z</time>
      </trkpt>
      <trkpt lat="45.1184" lon="2.69229">
        <ele>1374.7</ele>
        <time>2021-09-10T08:08:03.000Z</time>
      </trkpt>
      <trkpt lat="45.11846" lon="2.69234">
        <ele>1374.5</ele>
        <time>2021-09-10T08:08:09.000Z</time>
      </trkpt>
      <trkpt lat="45.11855" lon="2.69237">
        <ele>1374.3</ele>
        <time>2021-09-10T08:08:15.000Z</time>
      </trkpt>
      <trkpt lat="45.11861" lon="2.69242">
        <ele>1374.3</ele>
        <time>2021-09-10T08:08:23.000Z</time>
      </trkpt>
      <trkpt lat="45.11869" lon="2.69246">
        <ele>1374.3</ele>
        <time>2021-09-10T08:08:28.000Z</time>
      </trkpt>
      <trkpt lat="45.11876" lon="2.69254">
        <ele>1373.8</ele>
        <time>2021-09-10T08:08:33.000Z</time>
      </trkpt>
      <trkpt lat="45.11883" lon="2.69264">
        <ele>1372.2</ele>
        <time>2021-09-10T08:08:39.000Z</time>
      </trkpt>
      <trkpt lat="45.11892" lon="2.6927">
        <ele>1371.6</ele>
        <time>2021-09-10T08:08:45.000Z</time>
      </trkpt>
      <trkpt lat="45.119" lon="2.69278">
        <ele>1371</ele>
        <time>2021-09-10T08:08:51.000Z</time>
      </trkpt>
      <trkpt lat="45.11907" lon="2.69286">
        <ele>1370.7</ele>
        <time>2021-09-10T08:08:57.000Z</time>
      </trkpt>
      <trkpt lat="45.11916" lon="2.69291">
        <ele>1371</ele>
        <time>2021-09-10T08:09:03.000Z</time>
      </trkpt>
      <trkpt lat="45.11925" lon="2.69297">
        <ele>1370.4</ele>
        <time>2021-09-10T08:09:09.000Z</time>
      </trkpt>
      <trkpt lat="45.11934" lon="2.69302">
        <ele>1370</ele>
        <time>2021-09-10T08:09:15.000Z</time>
      </trkpt>
      <trkpt lat="45.11942" lon="2.69306">
        <ele>1369.7</ele>
        <time>2021-09-10T08:09:21.000Z</time>
      </trkpt>
      <trkpt lat="45.11949" lon="2.69307">
        <ele>1369.6</ele>
        <time>2021-09-10T08:09:34.000Z</time>
      </trkpt>
      <trkpt lat="45.11956" lon="2.69311">
        <ele>1369.4</ele>
        <time>2021-09-10T08:09:39.000Z</time>
      </trkpt>
      <trkpt lat="45.11963" lon="2.69314">
        <ele>1369.3</ele>
        <time>2021-09-10T08:09:45.000Z</time>
      </trkpt>
      <trkpt lat="45.11973" lon="2.69317">
        <ele>1369.3</ele>
        <time>2021-09-10T08:09:51.000Z</time>
      </trkpt>
      <trkpt lat="45.1198" lon="2.6932">
        <ele>1369.4</ele>
        <time>2021-09-10T08:09:57.000Z</time>
      </trkpt>
      <trkpt lat="45.11987" lon="2.69322">
        <ele>1369.5</ele>
        <time>2021-09-10T08:10:03.000Z</time>
      </trkpt>
      <trkpt lat="45.11996" lon="2.69324">
        <ele>1369.6</ele>
        <time>2021-09-10T08:10:09.000Z</time>
      </trkpt>
      <trkpt lat="45.12005" lon="2.69327">
        <ele>1369.8</ele>
        <time>2021-09-10T08:10:15.000Z</time>
      </trkpt>
      <trkpt lat="45.12013" lon="2.69328">
        <ele>1370</ele>
        <time>2021-09-10T08:10:21.000Z</time>
      </trkpt>
      <trkpt lat="45.12023" lon="2.6933">
        <ele>1370.3</ele>
        <time>2021-09-10T08:10:27.000Z</time>
      </trkpt>
      <trkpt lat="45.12032" lon="2.6933">
        <ele>1370.4</ele>
        <time>2021-09-10T08:10:33.000Z</time>
      </trkpt>
      <trkpt lat="45.12041" lon="2.6933">
        <ele>1370.6</ele>
        <time>2021-09-10T08:10:39.000Z</time>
      </trkpt>
      <trkpt lat="45.12048" lon="2.69329">
        <ele>1370.6</ele>
        <time>2021-09-10T08:10:45.000Z</time>
      </trkpt>
      <trkpt lat="45.12056" lon="2.69327">
        <ele>1370.4</ele>
        <time>2021-09-10T08:11:00.000Z</time>
      </trkpt>
      <trkpt lat="45.12063" lon="2.69327">
        <ele>1370.5</ele>
        <time>2021-09-10T08:11:07.000Z</time>
      </trkpt>
      <trkpt lat="45.1207" lon="2.69331">
        <ele>1371.3</ele>
        <time>2021-09-10T08:11:13.000Z</time>
      </trkpt>
      <trkpt lat="45.12077" lon="2.69334">
        <ele>1371.9</ele>
        <time>2021-09-10T08:11:20.000Z</time>
      </trkpt>
      <trkpt lat="45.12083" lon="2.69335">
        <ele>1372.1</ele>
        <time>2021-09-10T08:11:27.000Z</time>
      </trkpt>
      <trkpt lat="45.1209" lon="2.69336">
        <ele>1372.6</ele>
        <time>2021-09-10T08:11:44.000Z</time>
      </trkpt>
      <trkpt lat="45.12097" lon="2.6934">
        <ele>1373.3</ele>
        <time>2021-09-10T08:11:50.000Z</time>
      </trkpt>
      <trkpt lat="45.12104" lon="2.69341">
        <ele>1373.9</ele>
        <time>2021-09-10T08:11:53.000Z</time>
      </trkpt>
      <trkpt lat="45.12112" lon="2.69343">
        <ele>1374.7</ele>
        <time>2021-09-10T08:11:57.000Z</time>
      </trkpt>
      <trkpt lat="45.12122" lon="2.69349">
        <ele>1376</ele>
        <time>2021-09-10T08:12:03.000Z</time>
      </trkpt>
      <trkpt lat="45.1213" lon="2.69352">
        <ele>1376.9</ele>
        <time>2021-09-10T08:12:09.000Z</time>
      </trkpt>
      <trkpt lat="45.12136" lon="2.69357">
        <ele>1377.9</ele>
        <time>2021-09-10T08:12:17.000Z</time>
      </trkpt>
      <trkpt lat="45.1214" lon="2.69365">
        <ele>1379</ele>
        <time>2021-09-10T08:12:23.000Z</time>
      </trkpt>
      <trkpt lat="45.12144" lon="2.69372">
        <ele>1380.1</ele>
        <time>2021-09-10T08:12:31.000Z</time>
      </trkpt>
      <trkpt lat="45.1215" lon="2.69379">
        <ele>1381.5</ele>
        <time>2021-09-10T08:12:37.000Z</time>
      </trkpt>
      <trkpt lat="45.12152" lon="2.69388">
        <ele>1382.7</ele>
        <time>2021-09-10T08:12:43.000Z</time>
      </trkpt>
      <trkpt lat="45.12155" lon="2.69398">
        <ele>1384.2</ele>
        <time>2021-09-10T08:12:50.000Z</time>
      </trkpt>
      <trkpt lat="45.12161" lon="2.69406">
        <ele>1385.9</ele>
        <time>2021-09-10T08:12:56.000Z</time>
      </trkpt>
      <trkpt lat="45.12165" lon="2.69414">
        <ele>1387.4</ele>
        <time>2021-09-10T08:13:04.000Z</time>
      </trkpt>
      <trkpt lat="45.12171" lon="2.6942">
        <ele>1387.6</ele>
        <time>2021-09-10T08:13:09.000Z</time>
      </trkpt>
      <trkpt lat="45.12173" lon="2.69429">
        <ele>1386.5</ele>
        <time>2021-09-10T08:13:18.000Z</time>
      </trkpt>
      <trkpt lat="45.12178" lon="2.69438">
        <ele>1385.6</ele>
        <time>2021-09-10T08:13:24.000Z</time>
      </trkpt>
      <trkpt lat="45.12185" lon="2.6944">
        <ele>1385.8</ele>
        <time>2021-09-10T08:13:29.000Z</time>
      </trkpt>
      <trkpt lat="45.12191" lon="2.69444">
        <ele>1385.7</ele>
        <time>2021-09-10T08:13:33.000Z</time>
      </trkpt>
      <trkpt lat="45.12202" lon="2.69447">
        <ele>1386.2</ele>
        <time>2021-09-10T08:13:39.000Z</time>
      </trkpt>
      <trkpt lat="45.12214" lon="2.69449">
        <ele>1386.9</ele>
        <time>2021-09-10T08:13:45.000Z</time>
      </trkpt>
      <trkpt lat="45.12225" lon="2.69449">
        <ele>1387.7</ele>
        <time>2021-09-10T08:13:51.000Z</time>
      </trkpt>
      <trkpt lat="45.12232" lon="2.69449">
        <ele>1388.3</ele>
        <time>2021-09-10T08:13:57.000Z</time>
      </trkpt>
      <trkpt lat="45.12243" lon="2.69453">
        <ele>1389</ele>
        <time>2021-09-10T08:14:03.000Z</time>
      </trkpt>
      <trkpt lat="45.12253" lon="2.69459">
        <ele>1389.5</ele>
        <time>2021-09-10T08:14:09.000Z</time>
      </trkpt>
      <trkpt lat="45.12265" lon="2.69468">
        <ele>1389.4</ele>
        <time>2021-09-10T08:14:15.000Z</time>
      </trkpt>
      <trkpt lat="45.12272" lon="2.69467">
        <ele>1389.4</ele>
        <time>2021-09-10T08:14:21.000Z</time>
      </trkpt>
      <trkpt lat="45.12279" lon="2.69464">
        <ele>1389.3</ele>
        <time>2021-09-10T08:14:27.000Z</time>
      </trkpt>
      <trkpt lat="45.12288" lon="2.69463">
        <ele>1389.2</ele>
        <time>2021-09-10T08:14:33.000Z</time>
      </trkpt>
      <trkpt lat="45.12295" lon="2.69469">
        <ele>1389.4</ele>
        <time>2021-09-10T08:14:41.000Z</time>
      </trkpt>
      <trkpt lat="45.12301" lon="2.69474">
        <ele>1389.6</ele>
        <time>2021-09-10T08:14:47.000Z</time>
      </trkpt>
      <trkpt lat="45.12307" lon="2.69476">
        <ele>1389.8</ele>
        <time>2021-09-10T08:14:53.000Z</time>
      </trkpt>
      <trkpt lat="45.12315" lon="2.6948">
        <ele>1390.1</ele>
        <time>2021-09-10T08:14:59.000Z</time>
      </trkpt>
      <trkpt lat="45.12322" lon="2.69482">
        <ele>1390.3</ele>
        <time>2021-09-10T08:15:04.000Z</time>
      </trkpt>
      <trkpt lat="45.12329" lon="2.69485">
        <ele>1390.7</ele>
        <time>2021-09-10T08:15:09.000Z</time>
      </trkpt>
      <trkpt lat="45.12336" lon="2.6949">
        <ele>1391.2</ele>
        <time>2021-09-10T08:15:16.000Z</time>
      </trkpt>
      <trkpt lat="45.12347" lon="2.69495">
        <ele>1392</ele>
        <time>2021-09-10T08:15:21.000Z</time>
      </trkpt>
      <trkpt lat="45.12352" lon="2.69501">
        <ele>1392.6</ele>
        <time>2021-09-10T08:15:28.000Z</time>
      </trkpt>
      <trkpt lat="45.12358" lon="2.69506">
        <ele>1392.6</ele>
        <time>2021-09-10T08:15:40.000Z</time>
      </trkpt>
      <trkpt lat="45.12364" lon="2.6951">
        <ele>1392.7</ele>
        <time>2021-09-10T08:15:50.000Z</time>
      </trkpt>
      <trkpt lat="45.1237" lon="2.69516">
        <ele>1392.8</ele>
        <time>2021-09-10T08:15:56.000Z</time>
      </trkpt>
      <trkpt lat="45.12377" lon="2.69519">
        <ele>1393.2</ele>
        <time>2021-09-10T08:16:00.000Z</time>
      </trkpt>
      <trkpt lat="45.12383" lon="2.69523">
        <ele>1393.4</ele>
        <time>2021-09-10T08:16:04.000Z</time>
      </trkpt>
      <trkpt lat="45.12384" lon="2.69533">
        <ele>1393.4</ele>
        <time>2021-09-10T08:16:10.000Z</time>
      </trkpt>
      <trkpt lat="45.12385" lon="2.69544">
        <ele>1393.3</ele>
        <time>2021-09-10T08:16:16.000Z</time>
      </trkpt>
      <trkpt lat="45.12384" lon="2.69553">
        <ele>1393.1</ele>
        <time>2021-09-10T08:16:22.000Z</time>
      </trkpt>
      <trkpt lat="45.12385" lon="2.69563">
        <ele>1393.1</ele>
        <time>2021-09-10T08:16:28.000Z</time>
      </trkpt>
      <trkpt lat="45.12384" lon="2.69573">
        <ele>1392.8</ele>
        <time>2021-09-10T08:16:37.000Z</time>
      </trkpt>
      <trkpt lat="45.12388" lon="2.69583">
        <ele>1393.2</ele>
        <time>2021-09-10T08:16:42.000Z</time>
      </trkpt>
      <trkpt lat="45.12393" lon="2.69591">
        <ele>1391.6</ele>
        <time>2021-09-10T08:16:46.000Z</time>
      </trkpt>
      <trkpt lat="45.12402" lon="2.69599">
        <ele>1390.5</ele>
        <time>2021-09-10T08:16:51.000Z</time>
      </trkpt>
      <trkpt lat="45.12409" lon="2.69607">
        <ele>1389.3</ele>
        <time>2021-09-10T08:16:57.000Z</time>
      </trkpt>
      <trkpt lat="45.12417" lon="2.69616">
        <ele>1388</ele>
        <time>2021-09-10T08:17:03.000Z</time>
      </trkpt>
      <trkpt lat="45.12424" lon="2.69625">
        <ele>1385.4</ele>
        <time>2021-09-10T08:17:09.000Z</time>
      </trkpt>
      <trkpt lat="45.12436" lon="2.69636">
        <ele>1382.5</ele>
        <time>2021-09-10T08:17:15.000Z</time>
      </trkpt>
      <trkpt lat="45.1245" lon="2.69646">
        <ele>1380.3</ele>
        <time>2021-09-10T08:17:21.000Z</time>
      </trkpt>
      <trkpt lat="45.12464" lon="2.69654">
        <ele>1378.9</ele>
        <time>2021-09-10T08:17:27.000Z</time>
      </trkpt>
      <trkpt lat="45.12479" lon="2.69663">
        <ele>1377.7</ele>
        <time>2021-09-10T08:17:33.000Z</time>
      </trkpt>
      <trkpt lat="45.12489" lon="2.69672">
        <ele>1375.4</ele>
        <time>2021-09-10T08:17:39.000Z</time>
      </trkpt>
      <trkpt lat="45.12496" lon="2.69675">
        <ele>1374.6</ele>
        <time>2021-09-10T08:17:45.000Z</time>
      </trkpt>
      <trkpt lat="45.12507" lon="2.69678">
        <ele>1373.5</ele>
        <time>2021-09-10T08:17:51.000Z</time>
      </trkpt>
      <trkpt lat="45.12517" lon="2.6968">
        <ele>1372.6</ele>
        <time>2021-09-10T08:17:57.000Z</time>
      </trkpt>
      <trkpt lat="45.1252" lon="2.69692">
        <ele>1368.4</ele>
        <time>2021-09-10T08:18:52.000Z</time>
      </trkpt>
      <trkpt lat="45.12527" lon="2.69694">
        <ele>1367.7</ele>
        <time>2021-09-10T08:19:23.000Z</time>
      </trkpt>
      <trkpt lat="45.12534" lon="2.69692">
        <ele>1368.4</ele>
        <time>2021-09-10T08:19:30.000Z</time>
      </trkpt>
      <trkpt lat="45.12541" lon="2.69691">
        <ele>1368.8</ele>
        <time>2021-09-10T08:19:39.000Z</time>
      </trkpt>
      <trkpt lat="45.1255" lon="2.697">
        <ele>1366</ele>
        <time>2021-09-10T08:19:45.000Z</time>
      </trkpt>
      <trkpt lat="45.12559" lon="2.69709">
        <ele>1363.6</ele>
        <time>2021-09-10T08:19:51.000Z</time>
      </trkpt>
      <trkpt lat="45.12569" lon="2.69717">
        <ele>1361.7</ele>
        <time>2021-09-10T08:19:57.000Z</time>
      </trkpt>
      <trkpt lat="45.12577" lon="2.69725">
        <ele>1359.9</ele>
        <time>2021-09-10T08:20:03.000Z</time>
      </trkpt>
      <trkpt lat="45.12584" lon="2.69733">
        <ele>1358.3</ele>
        <time>2021-09-10T08:20:09.000Z</time>
      </trkpt>
      <trkpt lat="45.12591" lon="2.69747">
        <ele>1354.8</ele>
        <time>2021-09-10T08:20:15.000Z</time>
      </trkpt>
      <trkpt lat="45.12598" lon="2.69758">
        <ele>1351.7</ele>
        <time>2021-09-10T08:20:21.000Z</time>
      </trkpt>
      <trkpt lat="45.12604" lon="2.69768">
        <ele>1348.9</ele>
        <time>2021-09-10T08:20:27.000Z</time>
      </trkpt>
      <trkpt lat="45.12612" lon="2.69776">
        <ele>1347.2</ele>
        <time>2021-09-10T08:20:33.000Z</time>
      </trkpt>
      <trkpt lat="45.12621" lon="2.69781">
        <ele>1346.7</ele>
        <time>2021-09-10T08:20:39.000Z</time>
      </trkpt>
      <trkpt lat="45.12628" lon="2.69788">
        <ele>1345.7</ele>
        <time>2021-09-10T08:20:45.000Z</time>
      </trkpt>
      <trkpt lat="45.12636" lon="2.69795">
        <ele>1345.1</ele>
        <time>2021-09-10T08:20:51.000Z</time>
      </trkpt>
      <trkpt lat="45.12643" lon="2.69804">
        <ele>1344.3</ele>
        <time>2021-09-10T08:20:57.000Z</time>
      </trkpt>
      <trkpt lat="45.1265" lon="2.69813">
        <ele>1343.8</ele>
        <time>2021-09-10T08:21:03.000Z</time>
      </trkpt>
      <trkpt lat="45.12657" lon="2.69822">
        <ele>1343.6</ele>
        <time>2021-09-10T08:21:09.000Z</time>
      </trkpt>
      <trkpt lat="45.12661" lon="2.69831">
        <ele>1343.1</ele>
        <time>2021-09-10T08:21:16.000Z</time>
      </trkpt>
      <trkpt lat="45.12663" lon="2.6984">
        <ele>1341.6</ele>
        <time>2021-09-10T08:21:24.000Z</time>
      </trkpt>
      <trkpt lat="45.12663" lon="2.6985">
        <ele>1339.3</ele>
        <time>2021-09-10T08:21:31.000Z</time>
      </trkpt>
      <trkpt lat="45.12661" lon="2.6986">
        <ele>1336.4</ele>
        <time>2021-09-10T08:21:38.000Z</time>
      </trkpt>
      <trkpt lat="45.12663" lon="2.6987">
        <ele>1334.6</ele>
        <time>2021-09-10T08:21:43.000Z</time>
      </trkpt>
      <trkpt lat="45.12667" lon="2.69877">
        <ele>1334.1</ele>
        <time>2021-09-10T08:22:00.000Z</time>
      </trkpt>
      <trkpt lat="45.12672" lon="2.69884">
        <ele>1333.9</ele>
        <time>2021-09-10T08:22:07.000Z</time>
      </trkpt>
      <trkpt lat="45.12676" lon="2.69892">
        <ele>1333.3</ele>
        <time>2021-09-10T08:22:14.000Z</time>
      </trkpt>
      <trkpt lat="45.12681" lon="2.69898">
        <ele>1333.6</ele>
        <time>2021-09-10T08:22:20.000Z</time>
      </trkpt>
      <trkpt lat="45.12687" lon="2.69906">
        <ele>1334.1</ele>
        <time>2021-09-10T08:22:26.000Z</time>
      </trkpt>
      <trkpt lat="45.12693" lon="2.69911">
        <ele>1335.3</ele>
        <time>2021-09-10T08:22:31.000Z</time>
      </trkpt>
      <trkpt lat="45.12699" lon="2.69917">
        <ele>1336.6</ele>
        <time>2021-09-10T08:22:36.000Z</time>
      </trkpt>
      <trkpt lat="45.12705" lon="2.69922">
        <ele>1337.5</ele>
        <time>2021-09-10T08:22:42.000Z</time>
      </trkpt>
      <trkpt lat="45.12711" lon="2.69929">
        <ele>1338</ele>
        <time>2021-09-10T08:22:49.000Z</time>
      </trkpt>
      <trkpt lat="45.12716" lon="2.69935">
        <ele>1338.5</ele>
        <time>2021-09-10T08:22:54.000Z</time>
      </trkpt>
      <trkpt lat="45.12722" lon="2.69941">
        <ele>1339.4</ele>
        <time>2021-09-10T08:22:59.000Z</time>
      </trkpt>
      <trkpt lat="45.1273" lon="2.6994">
        <ele>1342.6</ele>
        <time>2021-09-10T08:24:42.000Z</time>
      </trkpt>
      <trkpt lat="45.12734" lon="2.69948">
        <ele>1342.4</ele>
        <time>2021-09-10T08:24:49.000Z</time>
      </trkpt>
      <trkpt lat="45.12737" lon="2.69957">
        <ele>1341.6</ele>
        <time>2021-09-10T08:24:54.000Z</time>
      </trkpt>
      <trkpt lat="45.12742" lon="2.69964">
        <ele>1342.1</ele>
        <time>2021-09-10T08:24:59.000Z</time>
      </trkpt>
      <trkpt lat="45.12748" lon="2.69972">
        <ele>1342.9</ele>
        <time>2021-09-10T08:25:04.000Z</time>
      </trkpt>
      <trkpt lat="45.12753" lon="2.6998">
        <ele>1342.7</ele>
        <time>2021-09-10T08:25:10.000Z</time>
      </trkpt>
      <trkpt lat="45.12758" lon="2.69987">
        <ele>1342.4</ele>
        <time>2021-09-10T08:25:16.000Z</time>
      </trkpt>
      <trkpt lat="45.12763" lon="2.69993">
        <ele>1342.4</ele>
        <time>2021-09-10T08:25:38.000Z</time>
      </trkpt>
      <trkpt lat="45.12768" lon="2.7">
        <ele>1342.5</ele>
        <time>2021-09-10T08:26:03.000Z</time>
      </trkpt>
      <trkpt lat="45.12774" lon="2.70007">
        <ele>1342.4</ele>
        <time>2021-09-10T08:26:09.000Z</time>
      </trkpt>
      <trkpt lat="45.1278" lon="2.70015">
        <ele>1342.1</ele>
        <time>2021-09-10T08:26:15.000Z</time>
      </trkpt>
      <trkpt lat="45.12786" lon="2.70021">
        <ele>1342.3</ele>
        <time>2021-09-10T08:26:21.000Z</time>
      </trkpt>
      <trkpt lat="45.12794" lon="2.70027">
        <ele>1343.1</ele>
        <time>2021-09-10T08:26:27.000Z</time>
      </trkpt>
      <trkpt lat="45.12802" lon="2.70035">
        <ele>1343.6</ele>
        <time>2021-09-10T08:26:33.000Z</time>
      </trkpt>
      <trkpt lat="45.12811" lon="2.70043">
        <ele>1344.4</ele>
        <time>2021-09-10T08:26:39.000Z</time>
      </trkpt>
      <trkpt lat="45.12818" lon="2.70051">
        <ele>1344.8</ele>
        <time>2021-09-10T08:26:45.000Z</time>
      </trkpt>
      <trkpt lat="45.12822" lon="2.70057">
        <ele>1344.7</ele>
        <time>2021-09-10T08:26:52.000Z</time>
      </trkpt>
      <trkpt lat="45.12829" lon="2.70062">
        <ele>1345.8</ele>
        <time>2021-09-10T08:27:01.000Z</time>
      </trkpt>
      <trkpt lat="45.12835" lon="2.70065">
        <ele>1346.6</ele>
        <time>2021-09-10T08:27:06.000Z</time>
      </trkpt>
      <trkpt lat="45.12841" lon="2.7007">
        <ele>1346.2</ele>
        <time>2021-09-10T08:27:12.000Z</time>
      </trkpt>
      <trkpt lat="45.12848" lon="2.70073">
        <ele>1346.3</ele>
        <time>2021-09-10T08:27:17.000Z</time>
      </trkpt>
      <trkpt lat="45.12855" lon="2.70075">
        <ele>1346.7</ele>
        <time>2021-09-10T08:27:21.000Z</time>
      </trkpt>
      <trkpt lat="45.12864" lon="2.70076">
        <ele>1347.4</ele>
        <time>2021-09-10T08:27:27.000Z</time>
      </trkpt>
      <trkpt lat="45.12871" lon="2.7008">
        <ele>1347.8</ele>
        <time>2021-09-10T08:27:33.000Z</time>
      </trkpt>
      <trkpt lat="45.12878" lon="2.70086">
        <ele>1347.7</ele>
        <time>2021-09-10T08:27:39.000Z</time>
      </trkpt>
      <trkpt lat="45.12885" lon="2.70092">
        <ele>1347</ele>
        <time>2021-09-10T08:27:45.000Z</time>
      </trkpt>
      <trkpt lat="45.12891" lon="2.701">
        <ele>1345.7</ele>
        <time>2021-09-10T08:27:51.000Z</time>
      </trkpt>
      <trkpt lat="45.12899" lon="2.70107">
        <ele>1345</ele>
        <time>2021-09-10T08:27:57.000Z</time>
      </trkpt>
      <trkpt lat="45.12909" lon="2.70111">
        <ele>1345.3</ele>
        <time>2021-09-10T08:28:03.000Z</time>
      </trkpt>
      <trkpt lat="45.12916" lon="2.70116">
        <ele>1345.1</ele>
        <time>2021-09-10T08:28:09.000Z</time>
      </trkpt>
      <trkpt lat="45.12926" lon="2.70117">
        <ele>1344.9</ele>
        <time>2021-09-10T08:28:15.000Z</time>
      </trkpt>
      <trkpt lat="45.12936" lon="2.70118">
        <ele>1344.7</ele>
        <time>2021-09-10T08:28:21.000Z</time>
      </trkpt>
      <trkpt lat="45.12945" lon="2.7012">
        <ele>1344.4</ele>
        <time>2021-09-10T08:28:27.000Z</time>
      </trkpt>
      <trkpt lat="45.12952" lon="2.7012">
        <ele>1344.4</ele>
        <time>2021-09-10T08:28:33.000Z</time>
      </trkpt>
      <trkpt lat="45.12959" lon="2.70122">
        <ele>1344.2</ele>
        <time>2021-09-10T08:28:39.000Z</time>
      </trkpt>
      <trkpt lat="45.12968" lon="2.70126">
        <ele>1343.8</ele>
        <time>2021-09-10T08:28:45.000Z</time>
      </trkpt>
      <trkpt lat="45.12977" lon="2.70128">
        <ele>1343.8</ele>
        <time>2021-09-10T08:28:51.000Z</time>
      </trkpt>
      <trkpt lat="45.12984" lon="2.70131">
        <ele>1343.8</ele>
        <time>2021-09-10T08:28:57.000Z</time>
      </trkpt>
      <trkpt lat="45.1299" lon="2.7013">
        <ele>1344</ele>
        <time>2021-09-10T08:29:03.000Z</time>
      </trkpt>
      <trkpt lat="45.12995" lon="2.70138">
        <ele>1343.8</ele>
        <time>2021-09-10T08:29:26.000Z</time>
      </trkpt>
      <trkpt lat="45.12994" lon="2.70148">
        <ele>1343.2</ele>
        <time>2021-09-10T08:29:32.000Z</time>
      </trkpt>
      <trkpt lat="45.12996" lon="2.70158">
        <ele>1342.9</ele>
        <time>2021-09-10T08:29:38.000Z</time>
      </trkpt>
      <trkpt lat="45.12999" lon="2.70166">
        <ele>1342.9</ele>
        <time>2021-09-10T08:29:43.000Z</time>
      </trkpt>
      <trkpt lat="45.13004" lon="2.70172">
        <ele>1341.4</ele>
        <time>2021-09-10T08:29:48.000Z</time>
      </trkpt>
      <trkpt lat="45.13011" lon="2.70178">
        <ele>1339.6</ele>
        <time>2021-09-10T08:29:53.000Z</time>
      </trkpt>
      <trkpt lat="45.13017" lon="2.70181">
        <ele>1338.6</ele>
        <time>2021-09-10T08:29:58.000Z</time>
      </trkpt>
      <trkpt lat="45.13022" lon="2.70187">
        <ele>1337.1</ele>
        <time>2021-09-10T08:30:04.000Z</time>
      </trkpt>
      <trkpt lat="45.13027" lon="2.70195">
        <ele>1335.3</ele>
        <time>2021-09-10T08:30:10.000Z</time>
      </trkpt>
      <trkpt lat="45.13032" lon="2.70202">
        <ele>1333.9</ele>
        <time>2021-09-10T08:30:18.000Z</time>
      </trkpt>
      <trkpt lat="45.13031" lon="2.70212">
        <ele>1332</ele>
        <time>2021-09-10T08:30:38.000Z</time>
      </trkpt>
      <trkpt lat="45.13031" lon="2.70222">
        <ele>1330</ele>
        <time>2021-09-10T08:30:43.000Z</time>
      </trkpt>
      <trkpt lat="45.13034" lon="2.70231">
        <ele>1328.4</ele>
        <time>2021-09-10T08:30:47.000Z</time>
      </trkpt>
      <trkpt lat="45.13042" lon="2.70235">
        <ele>1328.1</ele>
        <time>2021-09-10T08:30:52.000Z</time>
      </trkpt>
      <trkpt lat="45.13047" lon="2.70243">
        <ele>1327.1</ele>
        <time>2021-09-10T08:30:58.000Z</time>
      </trkpt>
      <trkpt lat="45.13051" lon="2.70252">
        <ele>1325.9</ele>
        <time>2021-09-10T08:31:03.000Z</time>
      </trkpt>
      <trkpt lat="45.13055" lon="2.70265">
        <ele>1323.5</ele>
        <time>2021-09-10T08:31:09.000Z</time>
      </trkpt>
      <trkpt lat="45.13058" lon="2.70277">
        <ele>1321.5</ele>
        <time>2021-09-10T08:31:15.000Z</time>
      </trkpt>
      <trkpt lat="45.13061" lon="2.70287">
        <ele>1320</ele>
        <time>2021-09-10T08:31:25.000Z</time>
      </trkpt>
      <trkpt lat="45.13064" lon="2.70295">
        <ele>1319</ele>
        <time>2021-09-10T08:31:29.000Z</time>
      </trkpt>
      <trkpt lat="45.13067" lon="2.70306">
        <ele>1317.6</ele>
        <time>2021-09-10T08:31:33.000Z</time>
      </trkpt>
      <trkpt lat="45.13072" lon="2.70318">
        <ele>1316.6</ele>
        <time>2021-09-10T08:31:39.000Z</time>
      </trkpt>
      <trkpt lat="45.13078" lon="2.70328">
        <ele>1316.4</ele>
        <time>2021-09-10T08:31:45.000Z</time>
      </trkpt>
      <trkpt lat="45.13084" lon="2.70335">
        <ele>1316.6</ele>
        <time>2021-09-10T08:31:51.000Z</time>
      </trkpt>
      <trkpt lat="45.13091" lon="2.70341">
        <ele>1316</ele>
        <time>2021-09-10T08:31:58.000Z</time>
      </trkpt>
      <trkpt lat="45.13096" lon="2.70347">
        <ele>1315.3</ele>
        <time>2021-09-10T08:32:03.000Z</time>
      </trkpt>
      <trkpt lat="45.13103" lon="2.70355">
        <ele>1314.5</ele>
        <time>2021-09-10T08:32:09.000Z</time>
      </trkpt>
      <trkpt lat="45.1311" lon="2.70364">
        <ele>1313.8</ele>
        <time>2021-09-10T08:32:15.000Z</time>
      </trkpt>
      <trkpt lat="45.13118" lon="2.7037">
        <ele>1314</ele>
        <time>2021-09-10T08:32:21.000Z</time>
      </trkpt>
      <trkpt lat="45.13124" lon="2.70377">
        <ele>1313.9</ele>
        <time>2021-09-10T08:32:27.000Z</time>
      </trkpt>
      <trkpt lat="45.13129" lon="2.70383">
        <ele>1313.9</ele>
        <time>2021-09-10T08:32:33.000Z</time>
      </trkpt>
      <trkpt lat="45.13133" lon="2.70393">
        <ele>1313.2</ele>
        <time>2021-09-10T08:33:09.000Z</time>
      </trkpt>
      <trkpt lat="45.1314" lon="2.70395">
        <ele>1314.6</ele>
        <time>2021-09-10T08:33:22.000Z</time>
      </trkpt>
      <trkpt lat="45.13145" lon="2.704">
        <ele>1315.1</ele>
        <time>2021-09-10T08:33:27.000Z</time>
      </trkpt>
      <trkpt lat="45.13151" lon="2.7041">
        <ele>1315.3</ele>
        <time>2021-09-10T08:33:33.000Z</time>
      </trkpt>
      <trkpt lat="45.13154" lon="2.70418">
        <ele>1315.1</ele>
        <time>2021-09-10T08:33:52.000Z</time>
      </trkpt>
      <trkpt lat="45.13158" lon="2.70426">
        <ele>1314.5</ele>
        <time>2021-09-10T08:33:57.000Z</time>
      </trkpt>
      <trkpt lat="45.1316" lon="2.70437">
        <ele>1312.8</ele>
        <time>2021-09-10T08:34:03.000Z</time>
      </trkpt>
      <trkpt lat="45.13161" lon="2.70447">
        <ele>1311.1</ele>
        <time>2021-09-10T08:34:09.000Z</time>
      </trkpt>
      <trkpt lat="45.13165" lon="2.70456">
        <ele>1310.4</ele>
        <time>2021-09-10T08:34:15.000Z</time>
      </trkpt>
      <trkpt lat="45.1317" lon="2.70464">
        <ele>1310.1</ele>
        <time>2021-09-10T08:34:22.000Z</time>
      </trkpt>
      <trkpt lat="45.13175" lon="2.70472">
        <ele>1309.7</ele>
        <time>2021-09-10T08:34:28.000Z</time>
      </trkpt>
      <trkpt lat="45.13179" lon="2.70481">
        <ele>1309.2</ele>
        <time>2021-09-10T08:34:34.000Z</time>
      </trkpt>
      <trkpt lat="45.13183" lon="2.70489">
        <ele>1308.9</ele>
        <time>2021-09-10T08:34:40.000Z</time>
      </trkpt>
      <trkpt lat="45.13189" lon="2.70496">
        <ele>1309.6</ele>
        <time>2021-09-10T08:34:45.000Z</time>
      </trkpt>
      <trkpt lat="45.13193" lon="2.70504">
        <ele>1309.6</ele>
        <time>2021-09-10T08:34:51.000Z</time>
      </trkpt>
      <trkpt lat="45.13197" lon="2.70514">
        <ele>1309.4</ele>
        <time>2021-09-10T08:34:57.000Z</time>
      </trkpt>
      <trkpt lat="45.13201" lon="2.70522">
        <ele>1309.6</ele>
        <time>2021-09-10T08:35:03.000Z</time>
      </trkpt>
      <trkpt lat="45.13206" lon="2.7053">
        <ele>1310.2</ele>
        <time>2021-09-10T08:35:09.000Z</time>
      </trkpt>
      <trkpt lat="45.13209" lon="2.70539">
        <ele>1310.1</ele>
        <time>2021-09-10T08:35:16.000Z</time>
      </trkpt>
      <trkpt lat="45.13213" lon="2.70547">
        <ele>1310.5</ele>
        <time>2021-09-10T08:35:21.000Z</time>
      </trkpt>
      <trkpt lat="45.13218" lon="2.70555">
        <ele>1311.4</ele>
        <time>2021-09-10T08:35:27.000Z</time>
      </trkpt>
      <trkpt lat="45.13224" lon="2.70562">
        <ele>1312.8</ele>
        <time>2021-09-10T08:35:33.000Z</time>
      </trkpt>
      <trkpt lat="45.13228" lon="2.7057">
        <ele>1313.5</ele>
        <time>2021-09-10T08:35:39.000Z</time>
      </trkpt>
      <trkpt lat="45.13233" lon="2.70577">
        <ele>1314.7</ele>
        <time>2021-09-10T08:35:46.000Z</time>
      </trkpt>
      <trkpt lat="45.13238" lon="2.70585">
        <ele>1315.8</ele>
        <time>2021-09-10T08:35:53.000Z</time>
      </trkpt>
      <trkpt lat="45.13242" lon="2.70594">
        <ele>1316.1</ele>
        <time>2021-09-10T08:35:59.000Z</time>
      </trkpt>
      <trkpt lat="45.13248" lon="2.706">
        <ele>1317.6</ele>
        <time>2021-09-10T08:36:04.000Z</time>
      </trkpt>
      <trkpt lat="45.13253" lon="2.70607">
        <ele>1318.3</ele>
        <time>2021-09-10T08:36:10.000Z</time>
      </trkpt>
      <trkpt lat="45.13258" lon="2.70613">
        <ele>1319</ele>
        <time>2021-09-10T08:36:15.000Z</time>
      </trkpt>
      <trkpt lat="45.13264" lon="2.70621">
        <ele>1319.9</ele>
        <time>2021-09-10T08:36:21.000Z</time>
      </trkpt>
      <trkpt lat="45.1327" lon="2.70627">
        <ele>1321.2</ele>
        <time>2021-09-10T08:36:27.000Z</time>
      </trkpt>
      <trkpt lat="45.13275" lon="2.70634">
        <ele>1322.2</ele>
        <time>2021-09-10T08:36:36.000Z</time>
      </trkpt>
      <trkpt lat="45.13281" lon="2.70639">
        <ele>1323.9</ele>
        <time>2021-09-10T08:36:43.000Z</time>
      </trkpt>
      <trkpt lat="45.13287" lon="2.70643">
        <ele>1325.7</ele>
        <time>2021-09-10T08:36:48.000Z</time>
      </trkpt>
      <trkpt lat="45.13293" lon="2.70648">
        <ele>1327.6</ele>
        <time>2021-09-10T08:36:53.000Z</time>
      </trkpt>
      <trkpt lat="45.13299" lon="2.70653">
        <ele>1329.6</ele>
        <time>2021-09-10T08:37:00.000Z</time>
      </trkpt>
      <trkpt lat="45.13304" lon="2.70659">
        <ele>1331.2</ele>
        <time>2021-09-10T08:37:07.000Z</time>
      </trkpt>
      <trkpt lat="45.13309" lon="2.70666">
        <ele>1332.8</ele>
        <time>2021-09-10T08:37:13.000Z</time>
      </trkpt>
      <trkpt lat="45.13318" lon="2.7067">
        <ele>1336.2</ele>
        <time>2021-09-10T08:37:30.000Z</time>
      </trkpt>
      <trkpt lat="45.13322" lon="2.70677">
        <ele>1337.2</ele>
        <time>2021-09-10T08:37:50.000Z</time>
      </trkpt>
      <trkpt lat="45.13328" lon="2.70681">
        <ele>1339.4</ele>
        <time>2021-09-10T08:37:55.000Z</time>
      </trkpt>
      <trkpt lat="45.13335" lon="2.70685">
        <ele>1341.6</ele>
        <time>2021-09-10T08:38:02.000Z</time>
      </trkpt>
      <trkpt lat="45.13342" lon="2.70688">
        <ele>1343</ele>
        <time>2021-09-10T08:38:09.000Z</time>
      </trkpt>
      <trkpt lat="45.13349" lon="2.70691">
        <ele>1344.5</ele>
        <time>2021-09-10T08:38:16.000Z</time>
      </trkpt>
      <trkpt lat="45.13355" lon="2.70697">
        <ele>1345.8</ele>
        <time>2021-09-10T08:38:22.000Z</time>
      </trkpt>
      <trkpt lat="45.13361" lon="2.70703">
        <ele>1347.3</ele>
        <time>2021-09-10T08:38:27.000Z</time>
      </trkpt>
      <trkpt lat="45.13365" lon="2.7071">
        <ele>1348.5</ele>
        <time>2021-09-10T08:38:34.000Z</time>
      </trkpt>
      <trkpt lat="45.1337" lon="2.70715">
        <ele>1350.1</ele>
        <time>2021-09-10T08:38:42.000Z</time>
      </trkpt>
      <trkpt lat="45.13377" lon="2.70712">
        <ele>1352.3</ele>
        <time>2021-09-10T08:38:58.000Z</time>
      </trkpt>
      <trkpt lat="45.13378" lon="2.70722">
        <ele>1353</ele>
        <time>2021-09-10T08:39:20.000Z</time>
      </trkpt>
      <trkpt lat="45.13383" lon="2.7073">
        <ele>1355.2</ele>
        <time>2021-09-10T08:39:30.000Z</time>
      </trkpt>
      <trkpt lat="45.13389" lon="2.70736">
        <ele>1357.9</ele>
        <time>2021-09-10T08:39:36.000Z</time>
      </trkpt>
      <trkpt lat="45.13394" lon="2.70742">
        <ele>1360.4</ele>
        <time>2021-09-10T08:39:41.000Z</time>
      </trkpt>
      <trkpt lat="45.13401" lon="2.7075">
        <ele>1364.2</ele>
        <time>2021-09-10T08:39:45.000Z</time>
      </trkpt>
      <trkpt lat="45.13412" lon="2.70759">
        <ele>1368.5</ele>
        <time>2021-09-10T08:39:51.000Z</time>
      </trkpt>
      <trkpt lat="45.13423" lon="2.70768">
        <ele>1370.6</ele>
        <time>2021-09-10T08:39:57.000Z</time>
      </trkpt>
      <trkpt lat="45.13433" lon="2.70774">
        <ele>1371.2</ele>
        <time>2021-09-10T08:40:03.000Z</time>
      </trkpt>
      <trkpt lat="45.13444" lon="2.70775">
        <ele>1372.2</ele>
        <time>2021-09-10T08:40:09.000Z</time>
      </trkpt>
      <trkpt lat="45.13451" lon="2.70773">
        <ele>1372.7</ele>
        <time>2021-09-10T08:40:15.000Z</time>
      </trkpt>
      <trkpt lat="45.13458" lon="2.70778">
        <ele>1373.7</ele>
        <time>2021-09-10T08:40:21.000Z</time>
      </trkpt>
      <trkpt lat="45.13469" lon="2.70782">
        <ele>1375.2</ele>
        <time>2021-09-10T08:40:27.000Z</time>
      </trkpt>
      <trkpt lat="45.13479" lon="2.70786">
        <ele>1376.8</ele>
        <time>2021-09-10T08:40:33.000Z</time>
      </trkpt>
      <trkpt lat="45.13486" lon="2.70794">
        <ele>1378.9</ele>
        <time>2021-09-10T08:40:39.000Z</time>
      </trkpt>
      <trkpt lat="45.13493" lon="2.70805">
        <ele>1382</ele>
        <time>2021-09-10T08:40:45.000Z</time>
      </trkpt>
      <trkpt lat="45.13502" lon="2.70814">
        <ele>1384.8</ele>
        <time>2021-09-10T08:40:51.000Z</time>
      </trkpt>
      <trkpt lat="45.13506" lon="2.70823">
        <ele>1386.4</ele>
        <time>2021-09-10T08:40:57.000Z</time>
      </trkpt>
      <trkpt lat="45.13513" lon="2.70821">
        <ele>1385.3</ele>
        <time>2021-09-10T08:41:03.000Z</time>
      </trkpt>
      <trkpt lat="45.13525" lon="2.70819">
        <ele>1383.6</ele>
        <time>2021-09-10T08:41:09.000Z</time>
      </trkpt>
      <trkpt lat="45.13535" lon="2.70822">
        <ele>1383.5</ele>
        <time>2021-09-10T08:41:15.000Z</time>
      </trkpt>
      <trkpt lat="45.13543" lon="2.7083">
        <ele>1385.3</ele>
        <time>2021-09-10T08:41:21.000Z</time>
      </trkpt>
      <trkpt lat="45.13555" lon="2.70846">
        <ele>1388.1</ele>
        <time>2021-09-10T08:41:27.000Z</time>
      </trkpt>
      <trkpt lat="45.13558" lon="2.70856">
        <ele>1389.9</ele>
        <time>2021-09-10T08:41:33.000Z</time>
      </trkpt>
      <trkpt lat="45.13564" lon="2.70861">
        <ele>1391</ele>
        <time>2021-09-10T08:41:39.000Z</time>
      </trkpt>
      <trkpt lat="45.13572" lon="2.70859">
        <ele>1390.7</ele>
        <time>2021-09-10T08:41:47.000Z</time>
      </trkpt>
      <trkpt lat="45.13578" lon="2.70854">
        <ele>1389.5</ele>
        <time>2021-09-10T08:42:01.000Z</time>
      </trkpt>
      <trkpt lat="45.13584" lon="2.70858">
        <ele>1390.4</ele>
        <time>2021-09-10T08:42:08.000Z</time>
      </trkpt>
      <trkpt lat="45.13589" lon="2.70864">
        <ele>1391.1</ele>
        <time>2021-09-10T08:42:13.000Z</time>
      </trkpt>
      <trkpt lat="45.13594" lon="2.7087">
        <ele>1391.8</ele>
        <time>2021-09-10T08:42:16.000Z</time>
      </trkpt>
      <trkpt lat="45.13601" lon="2.70877">
        <ele>1392.6</ele>
        <time>2021-09-10T08:42:21.000Z</time>
      </trkpt>
      <trkpt lat="45.1361" lon="2.70884">
        <ele>1393.2</ele>
        <time>2021-09-10T08:42:27.000Z</time>
      </trkpt>
      <trkpt lat="45.13626" lon="2.70893">
        <ele>1393.5</ele>
        <time>2021-09-10T08:42:33.000Z</time>
      </trkpt>
      <trkpt lat="45.13646" lon="2.70899">
        <ele>1392.5</ele>
        <time>2021-09-10T08:42:39.000Z</time>
      </trkpt>
      <trkpt lat="45.13664" lon="2.70898">
        <ele>1389.7</ele>
        <time>2021-09-10T08:42:45.000Z</time>
      </trkpt>
      <trkpt lat="45.13678" lon="2.70892">
        <ele>1383.7</ele>
        <time>2021-09-10T08:42:51.000Z</time>
      </trkpt>
      <trkpt lat="45.13686" lon="2.70889">
        <ele>1380.2</ele>
        <time>2021-09-10T08:42:57.000Z</time>
      </trkpt>
      <trkpt lat="45.13693" lon="2.70878">
        <ele>1374</ele>
        <time>2021-09-10T08:43:03.000Z</time>
      </trkpt>
      <trkpt lat="45.13704" lon="2.7087">
        <ele>1367.7</ele>
        <time>2021-09-10T08:43:09.000Z</time>
      </trkpt>
      <trkpt lat="45.13713" lon="2.70864">
        <ele>1362.8</ele>
        <time>2021-09-10T08:43:15.000Z</time>
      </trkpt>
      <trkpt lat="45.13724" lon="2.70861">
        <ele>1358.3</ele>
        <time>2021-09-10T08:43:21.000Z</time>
      </trkpt>
      <trkpt lat="45.13736" lon="2.70863">
        <ele>1355.3</ele>
        <time>2021-09-10T08:43:27.000Z</time>
      </trkpt>
      <trkpt lat="45.13737" lon="2.70872">
        <ele>1358.4</ele>
        <time>2021-09-10T08:43:37.000Z</time>
      </trkpt>
      <trkpt lat="45.13736" lon="2.70882">
        <ele>1362.4</ele>
        <time>2021-09-10T08:43:46.000Z</time>
      </trkpt>
      <trkpt lat="45.13739" lon="2.70892">
        <ele>1365.2</ele>
        <time>2021-09-10T08:43:53.000Z</time>
      </trkpt>
      <trkpt lat="45.13741" lon="2.70901">
        <ele>1367.9</ele>
        <time>2021-09-10T08:43:58.000Z</time>
      </trkpt>
      <trkpt lat="45.13744" lon="2.70911">
        <ele>1370.7</ele>
        <time>2021-09-10T08:44:04.000Z</time>
      </trkpt>
      <trkpt lat="45.13749" lon="2.7092">
        <ele>1372.5</ele>
        <time>2021-09-10T08:44:10.000Z</time>
      </trkpt>
      <trkpt lat="45.13753" lon="2.70927">
        <ele>1373.6</ele>
        <time>2021-09-10T08:44:16.000Z</time>
      </trkpt>
      <trkpt lat="45.13757" lon="2.70935">
        <ele>1374.8</ele>
        <time>2021-09-10T08:44:24.000Z</time>
      </trkpt>
      <trkpt lat="45.13759" lon="2.70945">
        <ele>1377.4</ele>
        <time>2021-09-10T08:44:28.000Z</time>
      </trkpt>
      <trkpt lat="45.13761" lon="2.70962">
        <ele>1382.4</ele>
        <time>2021-09-10T08:44:33.000Z</time>
      </trkpt>
      <trkpt lat="45.13763" lon="2.70974">
        <ele>1385.6</ele>
        <time>2021-09-10T08:44:39.000Z</time>
      </trkpt>
      <trkpt lat="45.13768" lon="2.70985">
        <ele>1386.6</ele>
        <time>2021-09-10T08:44:45.000Z</time>
      </trkpt>
      <trkpt lat="45.13772" lon="2.70993">
        <ele>1387.1</ele>
        <time>2021-09-10T08:44:51.000Z</time>
      </trkpt>
      <trkpt lat="45.13776" lon="2.71001">
        <ele>1387.2</ele>
        <time>2021-09-10T08:44:57.000Z</time>
      </trkpt>
      <trkpt lat="45.13781" lon="2.71011">
        <ele>1385.9</ele>
        <time>2021-09-10T08:45:04.000Z</time>
      </trkpt>
      <trkpt lat="45.13784" lon="2.71019">
        <ele>1385.5</ele>
        <time>2021-09-10T08:45:10.000Z</time>
      </trkpt>
      <trkpt lat="45.13789" lon="2.71027">
        <ele>1384.1</ele>
        <time>2021-09-10T08:45:18.000Z</time>
      </trkpt>
      <trkpt lat="45.1379" lon="2.71037">
        <ele>1385.3</ele>
        <time>2021-09-10T08:45:23.000Z</time>
      </trkpt>
      <trkpt lat="45.13793" lon="2.71046">
        <ele>1385.3</ele>
        <time>2021-09-10T08:45:29.000Z</time>
      </trkpt>
      <trkpt lat="45.13796" lon="2.71055">
        <ele>1385.4</ele>
        <time>2021-09-10T08:45:35.000Z</time>
      </trkpt>
      <trkpt lat="45.13798" lon="2.71064">
        <ele>1386</ele>
        <time>2021-09-10T08:45:40.000Z</time>
      </trkpt>
      <trkpt lat="45.13799" lon="2.71075">
        <ele>1387.5</ele>
        <time>2021-09-10T08:45:45.000Z</time>
      </trkpt>
      <trkpt lat="45.13803" lon="2.71086">
        <ele>1387.7</ele>
        <time>2021-09-10T08:45:51.000Z</time>
      </trkpt>
      <trkpt lat="45.13809" lon="2.71091">
        <ele>1385.9</ele>
        <time>2021-09-10T08:46:04.000Z</time>
      </trkpt>
      <trkpt lat="45.13814" lon="2.71098">
        <ele>1385</ele>
        <time>2021-09-10T08:46:13.000Z</time>
      </trkpt>
      <trkpt lat="45.13819" lon="2.71106">
        <ele>1384.5</ele>
        <time>2021-09-10T08:46:20.000Z</time>
      </trkpt>
      <trkpt lat="45.13823" lon="2.71114">
        <ele>1384.6</ele>
        <time>2021-09-10T08:46:27.000Z</time>
      </trkpt>
      <trkpt lat="45.13826" lon="2.71123">
        <ele>1385.4</ele>
        <time>2021-09-10T08:46:33.000Z</time>
      </trkpt>
      <trkpt lat="45.13828" lon="2.71134">
        <ele>1387.2</ele>
        <time>2021-09-10T08:46:39.000Z</time>
      </trkpt>
      <trkpt lat="45.13831" lon="2.71144">
        <ele>1388.4</ele>
        <time>2021-09-10T08:46:45.000Z</time>
      </trkpt>
      <trkpt lat="45.13834" lon="2.71152">
        <ele>1389.2</ele>
        <time>2021-09-10T08:47:08.000Z</time>
      </trkpt>
      <trkpt lat="45.1384" lon="2.71158">
        <ele>1387.8</ele>
        <time>2021-09-10T08:47:16.000Z</time>
      </trkpt>
      <trkpt lat="45.13844" lon="2.71166">
        <ele>1388</ele>
        <time>2021-09-10T08:47:24.000Z</time>
      </trkpt>
      <trkpt lat="45.1385" lon="2.71171">
        <ele>1386.4</ele>
        <time>2021-09-10T08:47:30.000Z</time>
      </trkpt>
      <trkpt lat="45.13857" lon="2.71174">
        <ele>1383.9</ele>
        <time>2021-09-10T08:47:38.000Z</time>
      </trkpt>
      <trkpt lat="45.13863" lon="2.71178">
        <ele>1382.1</ele>
        <time>2021-09-10T08:47:46.000Z</time>
      </trkpt>
      <trkpt lat="45.13867" lon="2.71186">
        <ele>1382.2</ele>
        <time>2021-09-10T08:47:55.000Z</time>
      </trkpt>
      <trkpt lat="45.13868" lon="2.71196">
        <ele>1384.1</ele>
        <time>2021-09-10T08:48:04.000Z</time>
      </trkpt>
      <trkpt lat="45.13868" lon="2.71206">
        <ele>1386.5</ele>
        <time>2021-09-10T08:48:10.000Z</time>
      </trkpt>
      <trkpt lat="45.13871" lon="2.71216">
        <ele>1387.6</ele>
        <time>2021-09-10T08:48:20.000Z</time>
      </trkpt>
      <trkpt lat="45.13873" lon="2.71227">
        <ele>1389.3</ele>
        <time>2021-09-10T08:48:26.000Z</time>
      </trkpt>
      <trkpt lat="45.13873" lon="2.71236">
        <ele>1391.5</ele>
        <time>2021-09-10T08:48:32.000Z</time>
      </trkpt>
      <trkpt lat="45.13877" lon="2.71243">
        <ele>1391.5</ele>
        <time>2021-09-10T08:48:35.000Z</time>
      </trkpt>
      <trkpt lat="45.13878" lon="2.71253">
        <ele>1393.6</ele>
        <time>2021-09-10T08:48:40.000Z</time>
      </trkpt>
      <trkpt lat="45.13879" lon="2.71263">
        <ele>1396</ele>
        <time>2021-09-10T08:48:45.000Z</time>
      </trkpt>
      <trkpt lat="45.13886" lon="2.71274">
        <ele>1396.2</ele>
        <time>2021-09-10T08:48:51.000Z</time>
      </trkpt>
      <trkpt lat="45.13894" lon="2.71286">
        <ele>1396.4</ele>
        <time>2021-09-10T08:48:57.000Z</time>
      </trkpt>
      <trkpt lat="45.13902" lon="2.71302">
        <ele>1397.7</ele>
        <time>2021-09-10T08:49:03.000Z</time>
      </trkpt>
      <trkpt lat="45.1391" lon="2.71318">
        <ele>1399.2</ele>
        <time>2021-09-10T08:49:09.000Z</time>
      </trkpt>
      <trkpt lat="45.13916" lon="2.7133">
        <ele>1400.3</ele>
        <time>2021-09-10T08:49:15.000Z</time>
      </trkpt>
      <trkpt lat="45.13922" lon="2.71337">
        <ele>1400.6</ele>
        <time>2021-09-10T08:49:21.000Z</time>
      </trkpt>
      <trkpt lat="45.13928" lon="2.71352">
        <ele>1403.6</ele>
        <time>2021-09-10T08:49:29.000Z</time>
      </trkpt>
      <trkpt lat="45.13933" lon="2.71361">
        <ele>1405.2</ele>
        <time>2021-09-10T08:49:33.000Z</time>
      </trkpt>
      <trkpt lat="45.13941" lon="2.71367">
        <ele>1405.3</ele>
        <time>2021-09-10T08:49:39.000Z</time>
      </trkpt>
      <trkpt lat="45.13949" lon="2.7137">
        <ele>1404.4</ele>
        <time>2021-09-10T08:49:45.000Z</time>
      </trkpt>
      <trkpt lat="45.13962" lon="2.71385">
        <ele>1406.8</ele>
        <time>2021-09-10T08:49:51.000Z</time>
      </trkpt>
      <trkpt lat="45.13973" lon="2.71394">
        <ele>1407.9</ele>
        <time>2021-09-10T08:49:57.000Z</time>
      </trkpt>
      <trkpt lat="45.1398" lon="2.71398">
        <ele>1408.1</ele>
        <time>2021-09-10T08:50:03.000Z</time>
      </trkpt>
      <trkpt lat="45.13987" lon="2.71401">
        <ele>1407.9</ele>
        <time>2021-09-10T08:50:09.000Z</time>
      </trkpt>
      <trkpt lat="45.13996" lon="2.714">
        <ele>1405.8</ele>
        <time>2021-09-10T08:50:15.000Z</time>
      </trkpt>
      <trkpt lat="45.14002" lon="2.71396">
        <ele>1403.4</ele>
        <time>2021-09-10T08:50:22.000Z</time>
      </trkpt>
      <trkpt lat="45.14008" lon="2.71392">
        <ele>1402</ele>
        <time>2021-09-10T08:50:27.000Z</time>
      </trkpt>
      <trkpt lat="45.14016" lon="2.71377">
        <ele>1396.3</ele>
        <time>2021-09-10T08:50:33.000Z</time>
      </trkpt>
      <trkpt lat="45.14023" lon="2.71374">
        <ele>1395.5</ele>
        <time>2021-09-10T08:50:39.000Z</time>
      </trkpt>
      <trkpt lat="45.1403" lon="2.71367">
        <ele>1393.1</ele>
        <time>2021-09-10T08:50:45.000Z</time>
      </trkpt>
      <trkpt lat="45.14029" lon="2.71357">
        <ele>1389</ele>
        <time>2021-09-10T08:50:53.000Z</time>
      </trkpt>
      <trkpt lat="45.14034" lon="2.71349">
        <ele>1386.1</ele>
        <time>2021-09-10T08:50:59.000Z</time>
      </trkpt>
      <trkpt lat="45.14039" lon="2.71342">
        <ele>1383.7</ele>
        <time>2021-09-10T08:51:04.000Z</time>
      </trkpt>
      <trkpt lat="45.14045" lon="2.71336">
        <ele>1381.8</ele>
        <time>2021-09-10T08:51:09.000Z</time>
      </trkpt>
      <trkpt lat="45.1405" lon="2.71327">
        <ele>1378.7</ele>
        <time>2021-09-10T08:51:15.000Z</time>
      </trkpt>
      <trkpt lat="45.14056" lon="2.71322">
        <ele>1377.2</ele>
        <time>2021-09-10T08:51:21.000Z</time>
      </trkpt>
      <trkpt lat="45.14063" lon="2.71315">
        <ele>1374.9</ele>
        <time>2021-09-10T08:51:27.000Z</time>
      </trkpt>
      <trkpt lat="45.1407" lon="2.71308">
        <ele>1372.6</ele>
        <time>2021-09-10T08:51:33.000Z</time>
      </trkpt>
      <trkpt lat="45.14078" lon="2.71306">
        <ele>1372.4</ele>
        <time>2021-09-10T08:51:39.000Z</time>
      </trkpt>
      <trkpt lat="45.14086" lon="2.71304">
        <ele>1372.4</ele>
        <time>2021-09-10T08:51:45.000Z</time>
      </trkpt>
      <trkpt lat="45.14093" lon="2.71304">
        <ele>1373.5</ele>
        <time>2021-09-10T08:51:53.000Z</time>
      </trkpt>
      <trkpt lat="45.14099" lon="2.71305">
        <ele>1374.9</ele>
        <time>2021-09-10T08:51:59.000Z</time>
      </trkpt>
      <trkpt lat="45.14108" lon="2.71305">
        <ele>1376.3</ele>
        <time>2021-09-10T08:52:04.000Z</time>
      </trkpt>
      <trkpt lat="45.14115" lon="2.713">
        <ele>1375.3</ele>
        <time>2021-09-10T08:52:09.000Z</time>
      </trkpt>
      <trkpt lat="45.14124" lon="2.71292">
        <ele>1373.5</ele>
        <time>2021-09-10T08:52:15.000Z</time>
      </trkpt>
      <trkpt lat="45.14133" lon="2.71278">
        <ele>1369.2</ele>
        <time>2021-09-10T08:52:21.000Z</time>
      </trkpt>
      <trkpt lat="45.14139" lon="2.7126">
        <ele>1362.8</ele>
        <time>2021-09-10T08:52:27.000Z</time>
      </trkpt>
      <trkpt lat="45.1415" lon="2.71259">
        <ele>1364.1</ele>
        <time>2021-09-10T08:52:33.000Z</time>
      </trkpt>
      <trkpt lat="45.14156" lon="2.71263">
        <ele>1366.6</ele>
        <time>2021-09-10T08:52:41.000Z</time>
      </trkpt>
      <trkpt lat="45.14161" lon="2.7127">
        <ele>1370.3</ele>
        <time>2021-09-10T08:52:47.000Z</time>
      </trkpt>
      <trkpt lat="45.1416" lon="2.71281">
        <ele>1374.6</ele>
        <time>2021-09-10T08:52:54.000Z</time>
      </trkpt>
      <trkpt lat="45.1416" lon="2.71291">
        <ele>1378.7</ele>
        <time>2021-09-10T08:52:58.000Z</time>
      </trkpt>
      <trkpt lat="45.14162" lon="2.713">
        <ele>1382.7</ele>
        <time>2021-09-10T08:53:04.000Z</time>
      </trkpt>
      <trkpt lat="45.14164" lon="2.7131">
        <ele>1387.1</ele>
        <time>2021-09-10T08:53:11.000Z</time>
      </trkpt>
      <trkpt lat="45.14162" lon="2.71319">
        <ele>1390.4</ele>
        <time>2021-09-10T08:53:18.000Z</time>
      </trkpt>
      <trkpt lat="45.14163" lon="2.71328">
        <ele>1394.3</ele>
        <time>2021-09-10T08:53:28.000Z</time>
      </trkpt>
      <trkpt lat="45.14167" lon="2.71336">
        <ele>1397.6</ele>
        <time>2021-09-10T08:53:42.000Z</time>
      </trkpt>
      <trkpt lat="45.14174" lon="2.71339">
        <ele>1396.9</ele>
        <time>2021-09-10T08:53:48.000Z</time>
      </trkpt>
      <trkpt lat="45.14187" lon="2.71342">
        <ele>1395</ele>
        <time>2021-09-10T08:54:03.000Z</time>
      </trkpt>
      <trkpt lat="45.14192" lon="2.71351">
        <ele>1395.8</ele>
        <time>2021-09-10T08:54:14.000Z</time>
      </trkpt>
      <trkpt lat="45.14189" lon="2.71359">
        <ele>1398.1</ele>
        <time>2021-09-10T08:54:31.000Z</time>
      </trkpt>
      <trkpt lat="45.14182" lon="2.71367">
        <ele>1401.6</ele>
        <time>2021-09-10T08:54:50.000Z</time>
      </trkpt>
      <trkpt lat="45.14175" lon="2.71375">
        <ele>1405.3</ele>
        <time>2021-09-10T08:55:01.000Z</time>
      </trkpt>
      <trkpt lat="45.14169" lon="2.7138">
        <ele>1408.1</ele>
        <time>2021-09-10T08:55:09.000Z</time>
      </trkpt>
      <trkpt lat="45.14165" lon="2.71389">
        <ele>1410.9</ele>
        <time>2021-09-10T08:55:24.000Z</time>
      </trkpt>
      <trkpt lat="45.1416" lon="2.71395">
        <ele>1412.1</ele>
        <time>2021-09-10T08:55:33.000Z</time>
      </trkpt>
      <trkpt lat="45.14154" lon="2.714">
        <ele>1413</ele>
        <time>2021-09-10T08:55:39.000Z</time>
      </trkpt>
      <trkpt lat="45.14149" lon="2.71409">
        <ele>1415.2</ele>
        <time>2021-09-10T08:55:47.000Z</time>
      </trkpt>
      <trkpt lat="45.14143" lon="2.71415">
        <ele>1416.7</ele>
        <time>2021-09-10T08:55:53.000Z</time>
      </trkpt>
      <trkpt lat="45.1414" lon="2.71423">
        <ele>1417.8</ele>
        <time>2021-09-10T08:56:00.000Z</time>
      </trkpt>
      <trkpt lat="45.14136" lon="2.71432">
        <ele>1419</ele>
        <time>2021-09-10T08:56:07.000Z</time>
      </trkpt>
      <trkpt lat="45.14137" lon="2.71442">
        <ele>1420.3</ele>
        <time>2021-09-10T08:56:13.000Z</time>
      </trkpt>
      <trkpt lat="45.14133" lon="2.71451">
        <ele>1421.7</ele>
        <time>2021-09-10T08:56:21.000Z</time>
      </trkpt>
      <trkpt lat="45.1413" lon="2.71459">
        <ele>1423</ele>
        <time>2021-09-10T08:56:27.000Z</time>
      </trkpt>
      <trkpt lat="45.14128" lon="2.71472">
        <ele>1425.2</ele>
        <time>2021-09-10T08:56:33.000Z</time>
      </trkpt>
      <trkpt lat="45.14125" lon="2.71492">
        <ele>1428.7</ele>
        <time>2021-09-10T08:56:39.000Z</time>
      </trkpt>
      <trkpt lat="45.14128" lon="2.71513">
        <ele>1430.6</ele>
        <time>2021-09-10T08:56:45.000Z</time>
      </trkpt>
      <trkpt lat="45.1413" lon="2.71529">
        <ele>1431.5</ele>
        <time>2021-09-10T08:56:51.000Z</time>
      </trkpt>
      <trkpt lat="45.14131" lon="2.71549">
        <ele>1432.8</ele>
        <time>2021-09-10T08:56:57.000Z</time>
      </trkpt>
      <trkpt lat="45.14134" lon="2.7157">
        <ele>1433.4</ele>
        <time>2021-09-10T08:57:03.000Z</time>
      </trkpt>
      <trkpt lat="45.14137" lon="2.71591">
        <ele>1434.1</ele>
        <time>2021-09-10T08:57:09.000Z</time>
      </trkpt>
      <trkpt lat="45.14142" lon="2.71603">
        <ele>1433.7</ele>
        <time>2021-09-10T08:57:15.000Z</time>
      </trkpt>
      <trkpt lat="45.14144" lon="2.71613">
        <ele>1434.2</ele>
        <time>2021-09-10T08:57:21.000Z</time>
      </trkpt>
      <trkpt lat="45.1415" lon="2.71619">
        <ele>1432.8</ele>
        <time>2021-09-10T08:57:27.000Z</time>
      </trkpt>
      <trkpt lat="45.14159" lon="2.71625">
        <ele>1430.5</ele>
        <time>2021-09-10T08:57:33.000Z</time>
      </trkpt>
      <trkpt lat="45.14165" lon="2.71632">
        <ele>1429.4</ele>
        <time>2021-09-10T08:57:39.000Z</time>
      </trkpt>
      <trkpt lat="45.14174" lon="2.71637">
        <ele>1426.3</ele>
        <time>2021-09-10T08:57:45.000Z</time>
      </trkpt>
      <trkpt lat="45.14188" lon="2.7164">
        <ele>1420.6</ele>
        <time>2021-09-10T08:57:51.000Z</time>
      </trkpt>
      <trkpt lat="45.14196" lon="2.71647">
        <ele>1418.1</ele>
        <time>2021-09-10T08:57:57.000Z</time>
      </trkpt>
      <trkpt lat="45.14204" lon="2.71655">
        <ele>1415.7</ele>
        <time>2021-09-10T08:58:03.000Z</time>
      </trkpt>
      <trkpt lat="45.14209" lon="2.71662">
        <ele>1414.6</ele>
        <time>2021-09-10T08:58:10.000Z</time>
      </trkpt>
      <trkpt lat="45.14213" lon="2.71671">
        <ele>1414</ele>
        <time>2021-09-10T08:58:15.000Z</time>
      </trkpt>
      <trkpt lat="45.14213" lon="2.71681">
        <ele>1415.2</ele>
        <time>2021-09-10T08:58:21.000Z</time>
      </trkpt>
      <trkpt lat="45.14216" lon="2.71692">
        <ele>1415.2</ele>
        <time>2021-09-10T08:58:27.000Z</time>
      </trkpt>
      <trkpt lat="45.14219" lon="2.71702">
        <ele>1415</ele>
        <time>2021-09-10T08:58:33.000Z</time>
      </trkpt>
      <trkpt lat="45.14222" lon="2.71713">
        <ele>1415</ele>
        <time>2021-09-10T08:58:39.000Z</time>
      </trkpt>
      <trkpt lat="45.14223" lon="2.71724">
        <ele>1415.7</ele>
        <time>2021-09-10T08:58:45.000Z</time>
      </trkpt>
      <trkpt lat="45.14221" lon="2.71734">
        <ele>1417.8</ele>
        <time>2021-09-10T08:58:51.000Z</time>
      </trkpt>
      <trkpt lat="45.14223" lon="2.71745">
        <ele>1418.1</ele>
        <time>2021-09-10T08:58:57.000Z</time>
      </trkpt>
      <trkpt lat="45.14222" lon="2.71758">
        <ele>1419</ele>
        <time>2021-09-10T08:59:03.000Z</time>
      </trkpt>
      <trkpt lat="45.14223" lon="2.7177">
        <ele>1418.5</ele>
        <time>2021-09-10T08:59:09.000Z</time>
      </trkpt>
      <trkpt lat="45.14226" lon="2.71779">
        <ele>1416.9</ele>
        <time>2021-09-10T08:59:15.000Z</time>
      </trkpt>
      <trkpt lat="45.14233" lon="2.71778">
        <ele>1413.4</ele>
        <time>2021-09-10T08:59:30.000Z</time>
      </trkpt>
      <trkpt lat="45.1424" lon="2.7178">
        <ele>1409.9</ele>
        <time>2021-09-10T08:59:49.000Z</time>
      </trkpt>
      <trkpt lat="45.14247" lon="2.7179">
        <ele>1406.1</ele>
        <time>2021-09-10T09:00:49.000Z</time>
      </trkpt>
      <trkpt lat="45.14254" lon="2.71792">
        <ele>1402.6</ele>
        <time>2021-09-10T09:00:57.000Z</time>
      </trkpt>
      <trkpt lat="45.14259" lon="2.71786">
        <ele>1400.5</ele>
        <time>2021-09-10T09:01:07.000Z</time>
      </trkpt>
      <trkpt lat="45.14264" lon="2.71778">
        <ele>1398.4</ele>
        <time>2021-09-10T09:01:14.000Z</time>
      </trkpt>
      <trkpt lat="45.14267" lon="2.7177">
        <ele>1397.2</ele>
        <time>2021-09-10T09:01:20.000Z</time>
      </trkpt>
      <trkpt lat="45.1427" lon="2.7176">
        <ele>1396.1</ele>
        <time>2021-09-10T09:01:26.000Z</time>
      </trkpt>
      <trkpt lat="45.14275" lon="2.71752">
        <ele>1393.9</ele>
        <time>2021-09-10T09:01:31.000Z</time>
      </trkpt>
      <trkpt lat="45.1428" lon="2.71743">
        <ele>1391.1</ele>
        <time>2021-09-10T09:01:38.000Z</time>
      </trkpt>
      <trkpt lat="45.14289" lon="2.71737">
        <ele>1386.4</ele>
        <time>2021-09-10T09:01:43.000Z</time>
      </trkpt>
      <trkpt lat="45.14298" lon="2.71731">
        <ele>1381.8</ele>
        <time>2021-09-10T09:01:49.000Z</time>
      </trkpt>
      <trkpt lat="45.14303" lon="2.71724">
        <ele>1379.1</ele>
        <time>2021-09-10T09:01:56.000Z</time>
      </trkpt>
      <trkpt lat="45.14302" lon="2.71714">
        <ele>1378.9</ele>
        <time>2021-09-10T09:02:04.000Z</time>
      </trkpt>
      <trkpt lat="45.14298" lon="2.71702">
        <ele>1380</ele>
        <time>2021-09-10T09:02:12.000Z</time>
      </trkpt>
      <trkpt lat="45.14303" lon="2.71696">
        <ele>1377.4</ele>
        <time>2021-09-10T09:02:28.000Z</time>
      </trkpt>
      <trkpt lat="45.14306" lon="2.71686">
        <ele>1375.6</ele>
        <time>2021-09-10T09:02:35.000Z</time>
      </trkpt>
      <trkpt lat="45.14307" lon="2.71676">
        <ele>1374.6</ele>
        <time>2021-09-10T09:02:39.000Z</time>
      </trkpt>
      <trkpt lat="45.14305" lon="2.71666">
        <ele>1374.8</ele>
        <time>2021-09-10T09:02:45.000Z</time>
      </trkpt>
      <trkpt lat="45.14305" lon="2.71656">
        <ele>1373.2</ele>
        <time>2021-09-10T09:02:51.000Z</time>
      </trkpt>
      <trkpt lat="45.14305" lon="2.71646">
        <ele>1371.7</ele>
        <time>2021-09-10T09:02:59.000Z</time>
      </trkpt>
      <trkpt lat="45.143" lon="2.71639">
        <ele>1372.7</ele>
        <time>2021-09-10T09:03:04.000Z</time>
      </trkpt>
      <trkpt lat="45.14297" lon="2.7163">
        <ele>1372.5</ele>
        <time>2021-09-10T09:03:10.000Z</time>
      </trkpt>
      <trkpt lat="45.14295" lon="2.7162">
        <ele>1371.8</ele>
        <time>2021-09-10T09:03:14.000Z</time>
      </trkpt>
      <trkpt lat="45.14293" lon="2.71611">
        <ele>1371.3</ele>
        <time>2021-09-10T09:03:19.000Z</time>
      </trkpt>
      <trkpt lat="45.14289" lon="2.71603">
        <ele>1371.7</ele>
        <time>2021-09-10T09:03:26.000Z</time>
      </trkpt>
      <trkpt lat="45.14287" lon="2.71593">
        <ele>1371</ele>
        <time>2021-09-10T09:03:30.000Z</time>
      </trkpt>
      <trkpt lat="45.14282" lon="2.7158">
        <ele>1371.3</ele>
        <time>2021-09-10T09:03:36.000Z</time>
      </trkpt>
      <trkpt lat="45.14277" lon="2.71566">
        <ele>1372.3</ele>
        <time>2021-09-10T09:03:42.000Z</time>
      </trkpt>
      <trkpt lat="45.14272" lon="2.71556">
        <ele>1373.8</ele>
        <time>2021-09-10T09:03:48.000Z</time>
      </trkpt>
      <trkpt lat="45.14265" lon="2.7155">
        <ele>1376.5</ele>
        <time>2021-09-10T09:03:54.000Z</time>
      </trkpt>
      <trkpt lat="45.14262" lon="2.7154">
        <ele>1377.3</ele>
        <time>2021-09-10T09:04:01.000Z</time>
      </trkpt>
      <trkpt lat="45.14255" lon="2.71532">
        <ele>1380.1</ele>
        <time>2021-09-10T09:04:06.000Z</time>
      </trkpt>
      <trkpt lat="45.14251" lon="2.71524">
        <ele>1381.7</ele>
        <time>2021-09-10T09:04:12.000Z</time>
      </trkpt>
      <trkpt lat="45.14251" lon="2.71513">
        <ele>1381.1</ele>
        <time>2021-09-10T09:04:18.000Z</time>
      </trkpt>
      <trkpt lat="45.14247" lon="2.71504">
        <ele>1382.7</ele>
        <time>2021-09-10T09:04:25.000Z</time>
      </trkpt>
      <trkpt lat="45.14242" lon="2.71495">
        <ele>1385.4</ele>
        <time>2021-09-10T09:04:30.000Z</time>
      </trkpt>
      <trkpt lat="45.14236" lon="2.71487">
        <ele>1389</ele>
        <time>2021-09-10T09:04:36.000Z</time>
      </trkpt>
      <trkpt lat="45.14236" lon="2.71478">
        <ele>1389.6</ele>
        <time>2021-09-10T09:04:45.000Z</time>
      </trkpt>
      <trkpt lat="45.14237" lon="2.71467">
        <ele>1389.9</ele>
        <time>2021-09-10T09:04:52.000Z</time>
      </trkpt>
      <trkpt lat="45.14243" lon="2.71461">
        <ele>1387.8</ele>
        <time>2021-09-10T09:04:55.000Z</time>
      </trkpt>
      <trkpt lat="45.14247" lon="2.71451">
        <ele>1386.9</ele>
        <time>2021-09-10T09:05:00.000Z</time>
      </trkpt>
      <trkpt lat="45.14252" lon="2.71436">
        <ele>1386.1</ele>
        <time>2021-09-10T09:05:06.000Z</time>
      </trkpt>
      <trkpt lat="45.14263" lon="2.71426">
        <ele>1381.1</ele>
        <time>2021-09-10T09:05:12.000Z</time>
      </trkpt>
      <trkpt lat="45.14274" lon="2.71421">
        <ele>1375.7</ele>
        <time>2021-09-10T09:05:18.000Z</time>
      </trkpt>
      <trkpt lat="45.14279" lon="2.71415">
        <ele>1373.3</ele>
        <time>2021-09-10T09:05:27.000Z</time>
      </trkpt>
      <trkpt lat="45.14286" lon="2.71414">
        <ele>1369.5</ele>
        <time>2021-09-10T09:05:35.000Z</time>
      </trkpt>
      <trkpt lat="45.14292" lon="2.71409">
        <ele>1366.2</ele>
        <time>2021-09-10T09:05:41.000Z</time>
      </trkpt>
      <trkpt lat="45.14297" lon="2.71402">
        <ele>1363.6</ele>
        <time>2021-09-10T09:05:45.000Z</time>
      </trkpt>
      <trkpt lat="45.14304" lon="2.71396">
        <ele>1360.1</ele>
        <time>2021-09-10T09:05:50.000Z</time>
      </trkpt>
      <trkpt lat="45.14307" lon="2.71388">
        <ele>1358.8</ele>
        <time>2021-09-10T09:05:55.000Z</time>
      </trkpt>
      <trkpt lat="45.14309" lon="2.71377">
        <ele>1358.1</ele>
        <time>2021-09-10T09:06:00.000Z</time>
      </trkpt>
      <trkpt lat="45.1431" lon="2.71364">
        <ele>1357.9</ele>
        <time>2021-09-10T09:06:06.000Z</time>
      </trkpt>
      <trkpt lat="45.14311" lon="2.71352">
        <ele>1357.8</ele>
        <time>2021-09-10T09:06:12.000Z</time>
      </trkpt>
      <trkpt lat="45.1431" lon="2.71342">
        <ele>1358.5</ele>
        <time>2021-09-10T09:06:18.000Z</time>
      </trkpt>
      <trkpt lat="45.14306" lon="2.71333">
        <ele>1360.1</ele>
        <time>2021-09-10T09:06:24.000Z</time>
      </trkpt>
      <trkpt lat="45.14301" lon="2.71324">
        <ele>1359.9</ele>
        <time>2021-09-10T09:06:30.000Z</time>
      </trkpt>
      <trkpt lat="45.14295" lon="2.71311">
        <ele>1359</ele>
        <time>2021-09-10T09:06:36.000Z</time>
      </trkpt>
      <trkpt lat="45.14291" lon="2.71303">
        <ele>1358.5</ele>
        <time>2021-09-10T09:06:42.000Z</time>
      </trkpt>
      <trkpt lat="45.1429" lon="2.71291">
        <ele>1355.9</ele>
        <time>2021-09-10T09:06:48.000Z</time>
      </trkpt>
      <trkpt lat="45.14288" lon="2.71276">
        <ele>1352.9</ele>
        <time>2021-09-10T09:06:54.000Z</time>
      </trkpt>
      <trkpt lat="45.14287" lon="2.71266">
        <ele>1350.8</ele>
        <time>2021-09-10T09:07:02.000Z</time>
      </trkpt>
      <trkpt lat="45.14283" lon="2.71259">
        <ele>1350.3</ele>
        <time>2021-09-10T09:07:08.000Z</time>
      </trkpt>
      <trkpt lat="45.14288" lon="2.71251">
        <ele>1346.8</ele>
        <time>2021-09-10T09:07:15.000Z</time>
      </trkpt>
      <trkpt lat="45.14291" lon="2.71242">
        <ele>1343.9</ele>
        <time>2021-09-10T09:07:21.000Z</time>
      </trkpt>
      <trkpt lat="45.14295" lon="2.71231">
        <ele>1340.3</ele>
        <time>2021-09-10T09:07:27.000Z</time>
      </trkpt>
      <trkpt lat="45.14298" lon="2.71222">
        <ele>1337.6</ele>
        <time>2021-09-10T09:07:32.000Z</time>
      </trkpt>
      <trkpt lat="45.14298" lon="2.71212">
        <ele>1335.4</ele>
        <time>2021-09-10T09:07:36.000Z</time>
      </trkpt>
      <trkpt lat="45.14301" lon="2.71202">
        <ele>1332.5</ele>
        <time>2021-09-10T09:07:44.000Z</time>
      </trkpt>
      <trkpt lat="45.14306" lon="2.71196">
        <ele>1330</ele>
        <time>2021-09-10T09:07:49.000Z</time>
      </trkpt>
      <trkpt lat="45.14313" lon="2.71192">
        <ele>1327.5</ele>
        <time>2021-09-10T09:07:55.000Z</time>
      </trkpt>
      <trkpt lat="45.14318" lon="2.71185">
        <ele>1324.9</ele>
        <time>2021-09-10T09:08:02.000Z</time>
      </trkpt>
      <trkpt lat="45.14325" lon="2.71179">
        <ele>1322.1</ele>
        <time>2021-09-10T09:08:07.000Z</time>
      </trkpt>
      <trkpt lat="45.1433" lon="2.7117">
        <ele>1319.3</ele>
        <time>2021-09-10T09:08:13.000Z</time>
      </trkpt>
      <trkpt lat="45.14333" lon="2.71149">
        <ele>1315.7</ele>
        <time>2021-09-10T09:08:18.000Z</time>
      </trkpt>
      <trkpt lat="45.14335" lon="2.71137">
        <ele>1313.6</ele>
        <time>2021-09-10T09:08:24.000Z</time>
      </trkpt>
      <trkpt lat="45.14334" lon="2.71118">
        <ele>1311.4</ele>
        <time>2021-09-10T09:08:30.000Z</time>
      </trkpt>
      <trkpt lat="45.1433" lon="2.7111">
        <ele>1310.8</ele>
        <time>2021-09-10T09:08:37.000Z</time>
      </trkpt>
      <trkpt lat="45.14328" lon="2.711">
        <ele>1309.4</ele>
        <time>2021-09-10T09:08:44.000Z</time>
      </trkpt>
      <trkpt lat="45.14322" lon="2.71098">
        <ele>1309.4</ele>
        <time>2021-09-10T09:08:53.000Z</time>
      </trkpt>
      <trkpt lat="45.14322" lon="2.71108">
        <ele>1311</ele>
        <time>2021-09-10T09:08:59.000Z</time>
      </trkpt>
      <trkpt lat="45.1432" lon="2.71118">
        <ele>1312.8</ele>
        <time>2021-09-10T09:09:04.000Z</time>
      </trkpt>
      <trkpt lat="45.14322" lon="2.71127">
        <ele>1314</ele>
        <time>2021-09-10T09:09:07.000Z</time>
      </trkpt>
      <trkpt lat="45.14322" lon="2.71137">
        <ele>1315.7</ele>
        <time>2021-09-10T09:09:12.000Z</time>
      </trkpt>
      <trkpt lat="45.14321" lon="2.71146">
        <ele>1317.3</ele>
        <time>2021-09-10T09:09:20.000Z</time>
      </trkpt>
      <trkpt lat="45.14318" lon="2.71157">
        <ele>1319.7</ele>
        <time>2021-09-10T09:09:24.000Z</time>
      </trkpt>
      <trkpt lat="45.14316" lon="2.71166">
        <ele>1321.6</ele>
        <time>2021-09-10T09:09:31.000Z</time>
      </trkpt>
      <trkpt lat="45.14309" lon="2.71174">
        <ele>1324.8</ele>
        <time>2021-09-10T09:09:43.000Z</time>
      </trkpt>
      <trkpt lat="45.14308" lon="2.71186">
        <ele>1327.4</ele>
        <time>2021-09-10T09:09:48.000Z</time>
      </trkpt>
      <trkpt lat="45.14311" lon="2.71194">
        <ele>1328.4</ele>
        <time>2021-09-10T09:09:55.000Z</time>
      </trkpt>
      <trkpt lat="45.14316" lon="2.712">
        <ele>1328.3</ele>
        <time>2021-09-10T09:10:01.000Z</time>
      </trkpt>
      <trkpt lat="45.14323" lon="2.71203">
        <ele>1327.2</ele>
        <time>2021-09-10T09:10:06.000Z</time>
      </trkpt>
      <trkpt lat="45.14333" lon="2.7121">
        <ele>1325.9</ele>
        <time>2021-09-10T09:10:12.000Z</time>
      </trkpt>
      <trkpt lat="45.1434" lon="2.7122">
        <ele>1325.3</ele>
        <time>2021-09-10T09:10:18.000Z</time>
      </trkpt>
      <trkpt lat="45.1435" lon="2.71224">
        <ele>1322.5</ele>
        <time>2021-09-10T09:10:24.000Z</time>
      </trkpt>
      <trkpt lat="45.14357" lon="2.71231">
        <ele>1321.3</ele>
        <time>2021-09-10T09:10:30.000Z</time>
      </trkpt>
      <trkpt lat="45.14365" lon="2.71238">
        <ele>1319.6</ele>
        <time>2021-09-10T09:10:36.000Z</time>
      </trkpt>
      <trkpt lat="45.14373" lon="2.71243">
        <ele>1317.6</ele>
        <time>2021-09-10T09:10:42.000Z</time>
      </trkpt>
      <trkpt lat="45.14388" lon="2.71246">
        <ele>1312.7</ele>
        <time>2021-09-10T09:10:48.000Z</time>
      </trkpt>
      <trkpt lat="45.14394" lon="2.71253">
        <ele>1311.5</ele>
        <time>2021-09-10T09:10:54.000Z</time>
      </trkpt>
      <trkpt lat="45.14401" lon="2.7126">
        <ele>1309.7</ele>
        <time>2021-09-10T09:11:00.000Z</time>
      </trkpt>
      <trkpt lat="45.14413" lon="2.7127">
        <ele>1306.1</ele>
        <time>2021-09-10T09:11:06.000Z</time>
      </trkpt>
      <trkpt lat="45.14418" lon="2.71276">
        <ele>1304.6</ele>
        <time>2021-09-10T09:11:13.000Z</time>
      </trkpt>
      <trkpt lat="45.14417" lon="2.71285">
        <ele>1305.8</ele>
        <time>2021-09-10T09:11:21.000Z</time>
      </trkpt>
      <trkpt lat="45.14415" lon="2.71294">
        <ele>1307.4</ele>
        <time>2021-09-10T09:11:28.000Z</time>
      </trkpt>
      <trkpt lat="45.14415" lon="2.71304">
        <ele>1308.3</ele>
        <time>2021-09-10T09:11:36.000Z</time>
      </trkpt>
      <trkpt lat="45.14415" lon="2.71316">
        <ele>1309.3</ele>
        <time>2021-09-10T09:11:42.000Z</time>
      </trkpt>
      <trkpt lat="45.14413" lon="2.71327">
        <ele>1311.2</ele>
        <time>2021-09-10T09:11:48.000Z</time>
      </trkpt>
      <trkpt lat="45.14414" lon="2.71343">
        <ele>1310.4</ele>
        <time>2021-09-10T09:11:54.000Z</time>
      </trkpt>
      <trkpt lat="45.14414" lon="2.71365">
        <ele>1308.3</ele>
        <time>2021-09-10T09:12:00.000Z</time>
      </trkpt>
      <trkpt lat="45.14417" lon="2.71378">
        <ele>1305.6</ele>
        <time>2021-09-10T09:12:06.000Z</time>
      </trkpt>
      <trkpt lat="45.14421" lon="2.71393">
        <ele>1302.4</ele>
        <time>2021-09-10T09:12:12.000Z</time>
      </trkpt>
      <trkpt lat="45.14426" lon="2.714">
        <ele>1299.7</ele>
        <time>2021-09-10T09:12:19.000Z</time>
      </trkpt>
      <trkpt lat="45.14433" lon="2.71407">
        <ele>1296.3</ele>
        <time>2021-09-10T09:12:24.000Z</time>
      </trkpt>
      <trkpt lat="45.14434" lon="2.71416">
        <ele>1295.2</ele>
        <time>2021-09-10T09:12:49.000Z</time>
      </trkpt>
      <trkpt lat="45.14441" lon="2.71417">
        <ele>1292.4</ele>
        <time>2021-09-10T09:12:58.000Z</time>
      </trkpt>
      <trkpt lat="45.14448" lon="2.71413">
        <ele>1289.8</ele>
        <time>2021-09-10T09:13:03.000Z</time>
      </trkpt>
      <trkpt lat="45.14454" lon="2.71419">
        <ele>1287.5</ele>
        <time>2021-09-10T09:13:08.000Z</time>
      </trkpt>
      <trkpt lat="45.14459" lon="2.71425">
        <ele>1286.1</ele>
        <time>2021-09-10T09:13:14.000Z</time>
      </trkpt>
      <trkpt lat="45.14464" lon="2.71432">
        <ele>1284.9</ele>
        <time>2021-09-10T09:13:19.000Z</time>
      </trkpt>
      <trkpt lat="45.14467" lon="2.7144">
        <ele>1284.6</ele>
        <time>2021-09-10T09:13:26.000Z</time>
      </trkpt>
      <trkpt lat="45.14472" lon="2.71446">
        <ele>1283.4</ele>
        <time>2021-09-10T09:13:30.000Z</time>
      </trkpt>
      <trkpt lat="45.14481" lon="2.71459">
        <ele>1281.4</ele>
        <time>2021-09-10T09:13:36.000Z</time>
      </trkpt>
      <trkpt lat="45.14487" lon="2.71471">
        <ele>1280.5</ele>
        <time>2021-09-10T09:13:42.000Z</time>
      </trkpt>
      <trkpt lat="45.14494" lon="2.71482">
        <ele>1279.1</ele>
        <time>2021-09-10T09:13:48.000Z</time>
      </trkpt>
      <trkpt lat="45.14497" lon="2.71491">
        <ele>1279</ele>
        <time>2021-09-10T09:13:57.000Z</time>
      </trkpt>
      <trkpt lat="45.14505" lon="2.71493">
        <ele>1276.4</ele>
        <time>2021-09-10T09:14:00.000Z</time>
      </trkpt>
      <trkpt lat="45.14521" lon="2.71496">
        <ele>1271</ele>
        <time>2021-09-10T09:14:06.000Z</time>
      </trkpt>
      <trkpt lat="45.14531" lon="2.71499">
        <ele>1267.7</ele>
        <time>2021-09-10T09:14:12.000Z</time>
      </trkpt>
      <trkpt lat="45.14541" lon="2.71501">
        <ele>1264.4</ele>
        <time>2021-09-10T09:14:18.000Z</time>
      </trkpt>
      <trkpt lat="45.1455" lon="2.71501">
        <ele>1261.1</ele>
        <time>2021-09-10T09:14:24.000Z</time>
      </trkpt>
      <trkpt lat="45.14557" lon="2.71497">
        <ele>1258.2</ele>
        <time>2021-09-10T09:14:30.000Z</time>
      </trkpt>
      <trkpt lat="45.14564" lon="2.71491">
        <ele>1255.2</ele>
        <time>2021-09-10T09:14:36.000Z</time>
      </trkpt>
      <trkpt lat="45.1457" lon="2.71485">
        <ele>1252.6</ele>
        <time>2021-09-10T09:14:42.000Z</time>
      </trkpt>
      <trkpt lat="45.14576" lon="2.71482">
        <ele>1250.3</ele>
        <time>2021-09-10T09:14:49.000Z</time>
      </trkpt>
      <trkpt lat="45.14583" lon="2.71482">
        <ele>1247.8</ele>
        <time>2021-09-10T09:14:54.000Z</time>
      </trkpt>
      <trkpt lat="45.14591" lon="2.71483">
        <ele>1247.5</ele>
        <time>2021-09-10T09:15:00.000Z</time>
      </trkpt>
      <trkpt lat="45.14601" lon="2.71484">
        <ele>1247.2</ele>
        <time>2021-09-10T09:15:06.000Z</time>
      </trkpt>
      <trkpt lat="45.14607" lon="2.71478">
        <ele>1246.3</ele>
        <time>2021-09-10T09:15:15.000Z</time>
      </trkpt>
      <trkpt lat="45.14607" lon="2.71468">
        <ele>1245.2</ele>
        <time>2021-09-10T09:15:19.000Z</time>
      </trkpt>
      <trkpt lat="45.14614" lon="2.71465">
        <ele>1244.4</ele>
        <time>2021-09-10T09:15:31.000Z</time>
      </trkpt>
      <trkpt lat="45.14622" lon="2.71463">
        <ele>1243.6</ele>
        <time>2021-09-10T09:15:36.000Z</time>
      </trkpt>
      <trkpt lat="45.1463" lon="2.7146">
        <ele>1242.6</ele>
        <time>2021-09-10T09:15:42.000Z</time>
      </trkpt>
      <trkpt lat="45.14638" lon="2.71458">
        <ele>1241.7</ele>
        <time>2021-09-10T09:15:48.000Z</time>
      </trkpt>
      <trkpt lat="45.14647" lon="2.71456">
        <ele>1240.6</ele>
        <time>2021-09-10T09:15:54.000Z</time>
      </trkpt>
      <trkpt lat="45.14653" lon="2.71451">
        <ele>1239.2</ele>
        <time>2021-09-10T09:16:01.000Z</time>
      </trkpt>
      <trkpt lat="45.14658" lon="2.71442">
        <ele>1237.1</ele>
        <time>2021-09-10T09:17:55.000Z</time>
      </trkpt>
      <trkpt lat="45.14663" lon="2.71438">
        <ele>1235.8</ele>
        <time>2021-09-10T09:18:07.000Z</time>
      </trkpt>
      <trkpt lat="45.14668" lon="2.71431">
        <ele>1234</ele>
        <time>2021-09-10T09:18:13.000Z</time>
      </trkpt>
      <trkpt lat="45.14674" lon="2.71424">
        <ele>1232.7</ele>
        <time>2021-09-10T09:18:19.000Z</time>
      </trkpt>
      <trkpt lat="45.1468" lon="2.71417">
        <ele>1231.4</ele>
        <time>2021-09-10T09:18:24.000Z</time>
      </trkpt>
      <trkpt lat="45.1469" lon="2.71409">
        <ele>1230.2</ele>
        <time>2021-09-10T09:18:30.000Z</time>
      </trkpt>
      <trkpt lat="45.14698" lon="2.714">
        <ele>1228.7</ele>
        <time>2021-09-10T09:18:36.000Z</time>
      </trkpt>
      <trkpt lat="45.14703" lon="2.71393">
        <ele>1227.4</ele>
        <time>2021-09-10T09:18:42.000Z</time>
      </trkpt>
      <trkpt lat="45.14707" lon="2.71383">
        <ele>1225.5</ele>
        <time>2021-09-10T09:18:48.000Z</time>
      </trkpt>
      <trkpt lat="45.14714" lon="2.71376">
        <ele>1224.2</ele>
        <time>2021-09-10T09:18:54.000Z</time>
      </trkpt>
      <trkpt lat="45.14719" lon="2.71366">
        <ele>1222.2</ele>
        <time>2021-09-10T09:19:00.000Z</time>
      </trkpt>
      <trkpt lat="45.14722" lon="2.71352">
        <ele>1219.4</ele>
        <time>2021-09-10T09:19:06.000Z</time>
      </trkpt>
      <trkpt lat="45.14726" lon="2.71333">
        <ele>1215.5</ele>
        <time>2021-09-10T09:19:12.000Z</time>
      </trkpt>
      <trkpt lat="45.1473" lon="2.71317">
        <ele>1213</ele>
        <time>2021-09-10T09:19:18.000Z</time>
      </trkpt>
      <trkpt lat="45.14732" lon="2.71307">
        <ele>1211.3</ele>
        <time>2021-09-10T09:19:24.000Z</time>
      </trkpt>
      <trkpt lat="45.14735" lon="2.71298">
        <ele>1209.6</ele>
        <time>2021-09-10T09:19:30.000Z</time>
      </trkpt>
      <trkpt lat="45.14741" lon="2.71286">
        <ele>1207</ele>
        <time>2021-09-10T09:19:36.000Z</time>
      </trkpt>
      <trkpt lat="45.14748" lon="2.71276">
        <ele>1204.3</ele>
        <time>2021-09-10T09:19:42.000Z</time>
      </trkpt>
      <trkpt lat="45.14755" lon="2.71263">
        <ele>1202.1</ele>
        <time>2021-09-10T09:19:48.000Z</time>
      </trkpt>
      <trkpt lat="45.14757" lon="2.71253">
        <ele>1200.4</ele>
        <time>2021-09-10T09:19:54.000Z</time>
      </trkpt>
      <trkpt lat="45.14763" lon="2.71247">
        <ele>1200</ele>
        <time>2021-09-10T09:20:14.000Z</time>
      </trkpt>
      <trkpt lat="45.1477" lon="2.71243">
        <ele>1200.1</ele>
        <time>2021-09-10T09:20:19.000Z</time>
      </trkpt>
      <trkpt lat="45.14779" lon="2.7124">
        <ele>1200.5</ele>
        <time>2021-09-10T09:20:24.000Z</time>
      </trkpt>
      <trkpt lat="45.14788" lon="2.71236">
        <ele>1200.6</ele>
        <time>2021-09-10T09:20:30.000Z</time>
      </trkpt>
      <trkpt lat="45.14795" lon="2.71236">
        <ele>1201.3</ele>
        <time>2021-09-10T09:20:54.000Z</time>
      </trkpt>
      <trkpt lat="45.14807" lon="2.71234">
        <ele>1202</ele>
        <time>2021-09-10T09:21:00.000Z</time>
      </trkpt>
      <trkpt lat="45.14818" lon="2.71231">
        <ele>1202.3</ele>
        <time>2021-09-10T09:21:06.000Z</time>
      </trkpt>
      <trkpt lat="45.14828" lon="2.71229">
        <ele>1202.7</ele>
        <time>2021-09-10T09:21:12.000Z</time>
      </trkpt>
      <trkpt lat="45.1484" lon="2.71228">
        <ele>1202.7</ele>
        <time>2021-09-10T09:21:18.000Z</time>
      </trkpt>
      <trkpt lat="45.14849" lon="2.71226">
        <ele>1201.9</ele>
        <time>2021-09-10T09:21:24.000Z</time>
      </trkpt>
      <trkpt lat="45.14858" lon="2.71226">
        <ele>1201.7</ele>
        <time>2021-09-10T09:21:30.000Z</time>
      </trkpt>
      <trkpt lat="45.14866" lon="2.71227">
        <ele>1201.7</ele>
        <time>2021-09-10T09:21:36.000Z</time>
      </trkpt>
      <trkpt lat="45.14873" lon="2.71228">
        <ele>1201.8</ele>
        <time>2021-09-10T09:21:42.000Z</time>
      </trkpt>
      <trkpt lat="45.14881" lon="2.71232">
        <ele>1202.8</ele>
        <time>2021-09-10T09:21:48.000Z</time>
      </trkpt>
      <trkpt lat="45.14889" lon="2.71235">
        <ele>1203.6</ele>
        <time>2021-09-10T09:21:54.000Z</time>
      </trkpt>
      <trkpt lat="45.14898" lon="2.71237">
        <ele>1204</ele>
        <time>2021-09-10T09:22:00.000Z</time>
      </trkpt>
      <trkpt lat="45.14906" lon="2.71242">
        <ele>1205.5</ele>
        <time>2021-09-10T09:22:06.000Z</time>
      </trkpt>
      <trkpt lat="45.14915" lon="2.71244">
        <ele>1206</ele>
        <time>2021-09-10T09:22:12.000Z</time>
      </trkpt>
      <trkpt lat="45.14924" lon="2.71244">
        <ele>1204.9</ele>
        <time>2021-09-10T09:22:18.000Z</time>
      </trkpt>
      <trkpt lat="45.14934" lon="2.71242">
        <ele>1202.8</ele>
        <time>2021-09-10T09:22:24.000Z</time>
      </trkpt>
      <trkpt lat="45.14942" lon="2.7124">
        <ele>1200.9</ele>
        <time>2021-09-10T09:22:30.000Z</time>
      </trkpt>
      <trkpt lat="45.14951" lon="2.71242">
        <ele>1200.3</ele>
        <time>2021-09-10T09:22:36.000Z</time>
      </trkpt>
      <trkpt lat="45.14959" lon="2.71239">
        <ele>1198.1</ele>
        <time>2021-09-10T09:22:42.000Z</time>
      </trkpt>
      <trkpt lat="45.14967" lon="2.71236">
        <ele>1195.8</ele>
        <time>2021-09-10T09:22:48.000Z</time>
      </trkpt>
      <trkpt lat="45.14976" lon="2.71238">
        <ele>1195.2</ele>
        <time>2021-09-10T09:22:54.000Z</time>
      </trkpt>
      <trkpt lat="45.14983" lon="2.71236">
        <ele>1193.5</ele>
        <time>2021-09-10T09:23:00.000Z</time>
      </trkpt>
      <trkpt lat="45.14991" lon="2.71234">
        <ele>1191.6</ele>
        <time>2021-09-10T09:23:06.000Z</time>
      </trkpt>
      <trkpt lat="45.15" lon="2.71235">
        <ele>1190.6</ele>
        <time>2021-09-10T09:23:12.000Z</time>
      </trkpt>
      <trkpt lat="45.15008" lon="2.71238">
        <ele>1190.7</ele>
        <time>2021-09-10T09:23:18.000Z</time>
      </trkpt>
      <trkpt lat="45.15015" lon="2.71236">
        <ele>1189</ele>
        <time>2021-09-10T09:23:36.000Z</time>
      </trkpt>
      <trkpt lat="45.15021" lon="2.71239">
        <ele>1189.3</ele>
        <time>2021-09-10T09:23:42.000Z</time>
      </trkpt>
      <trkpt lat="45.15028" lon="2.71241">
        <ele>1189.1</ele>
        <time>2021-09-10T09:23:50.000Z</time>
      </trkpt>
      <trkpt lat="45.15035" lon="2.7124">
        <ele>1187.9</ele>
        <time>2021-09-10T09:23:55.000Z</time>
      </trkpt>
      <trkpt lat="45.15042" lon="2.71238">
        <ele>1186.3</ele>
        <time>2021-09-10T09:24:00.000Z</time>
      </trkpt>
      <trkpt lat="45.15051" lon="2.71236">
        <ele>1184.4</ele>
        <time>2021-09-10T09:24:06.000Z</time>
      </trkpt>
      <trkpt lat="45.1506" lon="2.71236">
        <ele>1183.3</ele>
        <time>2021-09-10T09:24:12.000Z</time>
      </trkpt>
      <trkpt lat="45.1507" lon="2.71236">
        <ele>1182</ele>
        <time>2021-09-10T09:24:18.000Z</time>
      </trkpt>
      <trkpt lat="45.1508" lon="2.71238">
        <ele>1181.4</ele>
        <time>2021-09-10T09:24:24.000Z</time>
      </trkpt>
      <trkpt lat="45.15089" lon="2.71241">
        <ele>1180.8</ele>
        <time>2021-09-10T09:24:30.000Z</time>
      </trkpt>
      <trkpt lat="45.151" lon="2.71241">
        <ele>1178.4</ele>
        <time>2021-09-10T09:24:36.000Z</time>
      </trkpt>
      <trkpt lat="45.15108" lon="2.71242">
        <ele>1177.1</ele>
        <time>2021-09-10T09:24:42.000Z</time>
      </trkpt>
      <trkpt lat="45.15116" lon="2.71242">
        <ele>1175.4</ele>
        <time>2021-09-10T09:24:48.000Z</time>
      </trkpt>
      <trkpt lat="45.15123" lon="2.71244">
        <ele>1174.5</ele>
        <time>2021-09-10T09:24:54.000Z</time>
      </trkpt>
      <trkpt lat="45.15131" lon="2.71247">
        <ele>1173.8</ele>
        <time>2021-09-10T09:25:00.000Z</time>
      </trkpt>
      <trkpt lat="45.15139" lon="2.71247">
        <ele>1172</ele>
        <time>2021-09-10T09:25:06.000Z</time>
      </trkpt>
      <trkpt lat="45.15148" lon="2.7125">
        <ele>1171</ele>
        <time>2021-09-10T09:25:12.000Z</time>
      </trkpt>
      <trkpt lat="45.15157" lon="2.7125">
        <ele>1169.1</ele>
        <time>2021-09-10T09:25:18.000Z</time>
      </trkpt>
      <trkpt lat="45.15164" lon="2.71253">
        <ele>1168.6</ele>
        <time>2021-09-10T09:25:25.000Z</time>
      </trkpt>
      <trkpt lat="45.1517" lon="2.71257">
        <ele>1168.7</ele>
        <time>2021-09-10T09:25:31.000Z</time>
      </trkpt>
      <trkpt lat="45.15178" lon="2.71261">
        <ele>1168.5</ele>
        <time>2021-09-10T09:25:37.000Z</time>
      </trkpt>
      <trkpt lat="45.15186" lon="2.71266">
        <ele>1168.5</ele>
        <time>2021-09-10T09:25:42.000Z</time>
      </trkpt>
      <trkpt lat="45.15198" lon="2.71269">
        <ele>1167.1</ele>
        <time>2021-09-10T09:25:48.000Z</time>
      </trkpt>
      <trkpt lat="45.15202" lon="2.7126">
        <ele>1163.4</ele>
        <time>2021-09-10T09:25:54.000Z</time>
      </trkpt>
      <trkpt lat="45.152" lon="2.7125">
        <ele>1160.6</ele>
        <time>2021-09-10T09:26:00.000Z</time>
      </trkpt>
      <trkpt lat="45.15196" lon="2.7124">
        <ele>1158.5</ele>
        <time>2021-09-10T09:26:06.000Z</time>
      </trkpt>
      <trkpt lat="45.15192" lon="2.7123">
        <ele>1156.4</ele>
        <time>2021-09-10T09:26:12.000Z</time>
      </trkpt>
      <trkpt lat="45.15184" lon="2.71221">
        <ele>1155.3</ele>
        <time>2021-09-10T09:27:10.000Z</time>
      </trkpt>
      <trkpt lat="45.15179" lon="2.71214">
        <ele>1154.1</ele>
        <time>2021-09-10T09:27:16.000Z</time>
      </trkpt>
      <trkpt lat="45.15174" lon="2.71208">
        <ele>1153.2</ele>
        <time>2021-09-10T09:27:21.000Z</time>
      </trkpt>
      <trkpt lat="45.15168" lon="2.71199">
        <ele>1151.5</ele>
        <time>2021-09-10T09:27:27.000Z</time>
      </trkpt>
      <trkpt lat="45.15159" lon="2.71189">
        <ele>1150.2</ele>
        <time>2021-09-10T09:27:33.000Z</time>
      </trkpt>
      <trkpt lat="45.15154" lon="2.71179">
        <ele>1148</ele>
        <time>2021-09-10T09:27:39.000Z</time>
      </trkpt>
      <trkpt lat="45.15147" lon="2.71174">
        <ele>1147.8</ele>
        <time>2021-09-10T09:27:45.000Z</time>
      </trkpt>
      <trkpt lat="45.15141" lon="2.71167">
        <ele>1146.7</ele>
        <time>2021-09-10T09:27:51.000Z</time>
      </trkpt>
      <trkpt lat="45.15133" lon="2.71162">
        <ele>1146.5</ele>
        <time>2021-09-10T09:27:57.000Z</time>
      </trkpt>
      <trkpt lat="45.15126" lon="2.71153">
        <ele>1144.7</ele>
        <time>2021-09-10T09:28:03.000Z</time>
      </trkpt>
      <trkpt lat="45.1512" lon="2.71144">
        <ele>1142.6</ele>
        <time>2021-09-10T09:28:09.000Z</time>
      </trkpt>
      <trkpt lat="45.15114" lon="2.71133">
        <ele>1139.8</ele>
        <time>2021-09-10T09:28:15.000Z</time>
      </trkpt>
      <trkpt lat="45.15106" lon="2.71126">
        <ele>1138.7</ele>
        <time>2021-09-10T09:28:21.000Z</time>
      </trkpt>
      <trkpt lat="45.15097" lon="2.7112">
        <ele>1138</ele>
        <time>2021-09-10T09:28:27.000Z</time>
      </trkpt>
      <trkpt lat="45.15091" lon="2.71116">
        <ele>1137.5</ele>
        <time>2021-09-10T09:28:34.000Z</time>
      </trkpt>
      <trkpt lat="45.15085" lon="2.71113">
        <ele>1137.4</ele>
        <time>2021-09-10T09:28:39.000Z</time>
      </trkpt>
      <trkpt lat="45.15077" lon="2.71108">
        <ele>1136.8</ele>
        <time>2021-09-10T09:28:45.000Z</time>
      </trkpt>
      <trkpt lat="45.15068" lon="2.71102">
        <ele>1136.1</ele>
        <time>2021-09-10T09:28:51.000Z</time>
      </trkpt>
      <trkpt lat="45.15064" lon="2.71091">
        <ele>1132.9</ele>
        <time>2021-09-10T09:28:57.000Z</time>
      </trkpt>
      <trkpt lat="45.1507" lon="2.71087">
        <ele>1130.5</ele>
        <time>2021-09-10T09:29:05.000Z</time>
      </trkpt>
      <trkpt lat="45.15077" lon="2.71085">
        <ele>1128.7</ele>
        <time>2021-09-10T09:29:13.000Z</time>
      </trkpt>
      <trkpt lat="45.15083" lon="2.71081">
        <ele>1126.6</ele>
        <time>2021-09-10T09:29:19.000Z</time>
      </trkpt>
      <trkpt lat="45.1509" lon="2.71081">
        <ele>1125.5</ele>
        <time>2021-09-10T09:29:24.000Z</time>
      </trkpt>
      <trkpt lat="45.15097" lon="2.7108">
        <ele>1124.3</ele>
        <time>2021-09-10T09:29:28.000Z</time>
      </trkpt>
      <trkpt lat="45.15104" lon="2.71079">
        <ele>1123.1</ele>
        <time>2021-09-10T09:29:33.000Z</time>
      </trkpt>
      <trkpt lat="45.15114" lon="2.71074">
        <ele>1120.6</ele>
        <time>2021-09-10T09:29:39.000Z</time>
      </trkpt>
      <trkpt lat="45.15121" lon="2.7107">
        <ele>1118.8</ele>
        <time>2021-09-10T09:29:48.000Z</time>
      </trkpt>
      <trkpt lat="45.15129" lon="2.71069">
        <ele>1117.4</ele>
        <time>2021-09-10T09:29:53.000Z</time>
      </trkpt>
      <trkpt lat="45.15137" lon="2.71067">
        <ele>1115.9</ele>
        <time>2021-09-10T09:29:58.000Z</time>
      </trkpt>
      <trkpt lat="45.15144" lon="2.71065">
        <ele>1114.5</ele>
        <time>2021-09-10T09:30:05.000Z</time>
      </trkpt>
      <trkpt lat="45.15151" lon="2.71069">
        <ele>1114.3</ele>
        <time>2021-09-10T09:32:22.000Z</time>
      </trkpt>
      <trkpt lat="45.15159" lon="2.7107">
        <ele>1113.4</ele>
        <time>2021-09-10T09:32:27.000Z</time>
      </trkpt>
      <trkpt lat="45.15166" lon="2.7107">
        <ele>1112.4</ele>
        <time>2021-09-10T09:32:34.000Z</time>
      </trkpt>
      <trkpt lat="45.15173" lon="2.71067">
        <ele>1111.3</ele>
        <time>2021-09-10T09:32:40.000Z</time>
      </trkpt>
      <trkpt lat="45.1518" lon="2.71064">
        <ele>1110.3</ele>
        <time>2021-09-10T09:32:45.000Z</time>
      </trkpt>
      <trkpt lat="45.15191" lon="2.71061">
        <ele>1109</ele>
        <time>2021-09-10T09:32:51.000Z</time>
      </trkpt>
      <trkpt lat="45.15199" lon="2.7106">
        <ele>1108.3</ele>
        <time>2021-09-10T09:32:57.000Z</time>
      </trkpt>
      <trkpt lat="45.15209" lon="2.71061">
        <ele>1107.9</ele>
        <time>2021-09-10T09:33:03.000Z</time>
      </trkpt>
      <trkpt lat="45.15218" lon="2.71066">
        <ele>1108.4</ele>
        <time>2021-09-10T09:33:09.000Z</time>
      </trkpt>
      <trkpt lat="45.15227" lon="2.7107">
        <ele>1108.7</ele>
        <time>2021-09-10T09:33:15.000Z</time>
      </trkpt>
      <trkpt lat="45.15233" lon="2.71074">
        <ele>1109.1</ele>
        <time>2021-09-10T09:33:21.000Z</time>
      </trkpt>
      <trkpt lat="45.1524" lon="2.71077">
        <ele>1109.3</ele>
        <time>2021-09-10T09:33:28.000Z</time>
      </trkpt>
      <trkpt lat="45.15247" lon="2.71079">
        <ele>1109.3</ele>
        <time>2021-09-10T09:33:34.000Z</time>
      </trkpt>
      <trkpt lat="45.15254" lon="2.71082">
        <ele>1109.3</ele>
        <time>2021-09-10T09:33:39.000Z</time>
      </trkpt>
      <trkpt lat="45.15264" lon="2.71085">
        <ele>1109</ele>
        <time>2021-09-10T09:33:45.000Z</time>
      </trkpt>
      <trkpt lat="45.15277" lon="2.71088">
        <ele>1108.5</ele>
        <time>2021-09-10T09:33:51.000Z</time>
      </trkpt>
      <trkpt lat="45.15286" lon="2.71092">
        <ele>1108.5</ele>
        <time>2021-09-10T09:33:57.000Z</time>
      </trkpt>
      <trkpt lat="45.15296" lon="2.71094">
        <ele>1107.9</ele>
        <time>2021-09-10T09:34:03.000Z</time>
      </trkpt>
      <trkpt lat="45.15305" lon="2.71095">
        <ele>1107.2</ele>
        <time>2021-09-10T09:34:09.000Z</time>
      </trkpt>
      <trkpt lat="45.15315" lon="2.71098">
        <ele>1106.9</ele>
        <time>2021-09-10T09:34:15.000Z</time>
      </trkpt>
      <trkpt lat="45.15331" lon="2.71102">
        <ele>1106.1</ele>
        <time>2021-09-10T09:34:21.000Z</time>
      </trkpt>
      <trkpt lat="45.15342" lon="2.71105">
        <ele>1105.9</ele>
        <time>2021-09-10T09:34:27.000Z</time>
      </trkpt>
      <trkpt lat="45.15351" lon="2.71108">
        <ele>1105.9</ele>
        <time>2021-09-10T09:34:33.000Z</time>
      </trkpt>
      <trkpt lat="45.15358" lon="2.71109">
        <ele>1105.6</ele>
        <time>2021-09-10T09:34:40.000Z</time>
      </trkpt>
      <trkpt lat="45.15365" lon="2.7111">
        <ele>1105.3</ele>
        <time>2021-09-10T09:34:45.000Z</time>
      </trkpt>
      <trkpt lat="45.15374" lon="2.7111">
        <ele>1104.7</ele>
        <time>2021-09-10T09:34:51.000Z</time>
      </trkpt>
      <trkpt lat="45.15384" lon="2.71107">
        <ele>1103.5</ele>
        <time>2021-09-10T09:34:57.000Z</time>
      </trkpt>
      <trkpt lat="45.1539" lon="2.71105">
        <ele>1102.8</ele>
        <time>2021-09-10T09:35:05.000Z</time>
      </trkpt>
      <trkpt lat="45.15398" lon="2.71102">
        <ele>1101.8</ele>
        <time>2021-09-10T09:35:23.000Z</time>
      </trkpt>
      <trkpt lat="45.15404" lon="2.71099">
        <ele>1101</ele>
        <time>2021-09-10T09:35:28.000Z</time>
      </trkpt>
      <trkpt lat="45.15412" lon="2.71097">
        <ele>1100.2</ele>
        <time>2021-09-10T09:35:33.000Z</time>
      </trkpt>
      <trkpt lat="45.15421" lon="2.71093">
        <ele>1099.4</ele>
        <time>2021-09-10T09:35:39.000Z</time>
      </trkpt>
      <trkpt lat="45.15429" lon="2.71094">
        <ele>1099.6</ele>
        <time>2021-09-10T09:35:45.000Z</time>
      </trkpt>
      <trkpt lat="45.15441" lon="2.71102">
        <ele>1100.7</ele>
        <time>2021-09-10T09:35:51.000Z</time>
      </trkpt>
      <trkpt lat="45.15445" lon="2.71109">
        <ele>1101.5</ele>
        <time>2021-09-10T09:35:58.000Z</time>
      </trkpt>
      <trkpt lat="45.15447" lon="2.7112">
        <ele>1102.8</ele>
        <time>2021-09-10T09:36:06.000Z</time>
      </trkpt>
      <trkpt lat="45.15451" lon="2.71128">
        <ele>1103.7</ele>
        <time>2021-09-10T09:36:13.000Z</time>
      </trkpt>
      <trkpt lat="45.15456" lon="2.71136">
        <ele>1104.6</ele>
        <time>2021-09-10T09:36:18.000Z</time>
      </trkpt>
      <trkpt lat="45.15461" lon="2.71143">
        <ele>1105.2</ele>
        <time>2021-09-10T09:36:23.000Z</time>
      </trkpt>
      <trkpt lat="45.15463" lon="2.71154">
        <ele>1106.4</ele>
        <time>2021-09-10T09:36:28.000Z</time>
      </trkpt>
      <trkpt lat="45.15466" lon="2.71165">
        <ele>1107.5</ele>
        <time>2021-09-10T09:36:33.000Z</time>
      </trkpt>
      <trkpt lat="45.15468" lon="2.71178">
        <ele>1108.6</ele>
        <time>2021-09-10T09:36:39.000Z</time>
      </trkpt>
      <trkpt lat="45.15473" lon="2.71187">
        <ele>1109.1</ele>
        <time>2021-09-10T09:36:45.000Z</time>
      </trkpt>
      <trkpt lat="45.15478" lon="2.712">
        <ele>1109.9</ele>
        <time>2021-09-10T09:36:51.000Z</time>
      </trkpt>
      <trkpt lat="45.15485" lon="2.71194">
        <ele>1108.8</ele>
        <time>2021-09-10T09:36:58.000Z</time>
      </trkpt>
      <trkpt lat="45.1549" lon="2.71187">
        <ele>1107.9</ele>
        <time>2021-09-10T09:37:03.000Z</time>
      </trkpt>
      <trkpt lat="45.15495" lon="2.71181">
        <ele>1107.2</ele>
        <time>2021-09-10T09:37:09.000Z</time>
      </trkpt>
      <trkpt lat="45.15502" lon="2.71175">
        <ele>1106.2</ele>
        <time>2021-09-10T09:37:24.000Z</time>
      </trkpt>
      <trkpt lat="45.15509" lon="2.7117">
        <ele>1104.7</ele>
        <time>2021-09-10T09:37:28.000Z</time>
      </trkpt>
      <trkpt lat="45.15516" lon="2.71164">
        <ele>1103.1</ele>
        <time>2021-09-10T09:37:33.000Z</time>
      </trkpt>
      <trkpt lat="45.15521" lon="2.71158">
        <ele>1101.8</ele>
        <time>2021-09-10T09:37:39.000Z</time>
      </trkpt>
      <trkpt lat="45.15528" lon="2.71153">
        <ele>1100.2</ele>
        <time>2021-09-10T09:37:50.000Z</time>
      </trkpt>
      <trkpt lat="45.15533" lon="2.71145">
        <ele>1098.7</ele>
        <time>2021-09-10T09:37:54.000Z</time>
      </trkpt>
      <trkpt lat="45.15538" lon="2.71137">
        <ele>1097.3</ele>
        <time>2021-09-10T09:37:58.000Z</time>
      </trkpt>
      <trkpt lat="45.15544" lon="2.71128">
        <ele>1095.6</ele>
        <time>2021-09-10T09:38:03.000Z</time>
      </trkpt>
      <trkpt lat="45.15551" lon="2.7112">
        <ele>1093.9</ele>
        <time>2021-09-10T09:38:09.000Z</time>
      </trkpt>
      <trkpt lat="45.15558" lon="2.71113">
        <ele>1092.2</ele>
        <time>2021-09-10T09:38:15.000Z</time>
      </trkpt>
      <trkpt lat="45.15564" lon="2.71104">
        <ele>1090.6</ele>
        <time>2021-09-10T09:38:21.000Z</time>
      </trkpt>
      <trkpt lat="45.15567" lon="2.71092">
        <ele>1089.2</ele>
        <time>2021-09-10T09:38:27.000Z</time>
      </trkpt>
      <trkpt lat="45.1557" lon="2.7108">
        <ele>1087.5</ele>
        <time>2021-09-10T09:38:33.000Z</time>
      </trkpt>
      <trkpt lat="45.15574" lon="2.71068">
        <ele>1084.8</ele>
        <time>2021-09-10T09:38:39.000Z</time>
      </trkpt>
      <trkpt lat="45.15578" lon="2.71061">
        <ele>1083</ele>
        <time>2021-09-10T09:38:54.000Z</time>
      </trkpt>
      <trkpt lat="45.15581" lon="2.71052">
        <ele>1081.1</ele>
        <time>2021-09-10T09:39:08.000Z</time>
      </trkpt>
      <trkpt lat="45.15583" lon="2.71043">
        <ele>1079.3</ele>
        <time>2021-09-10T09:39:15.000Z</time>
      </trkpt>
      <trkpt lat="45.15586" lon="2.71034">
        <ele>1077.5</ele>
        <time>2021-09-10T09:39:22.000Z</time>
      </trkpt>
      <trkpt lat="45.15589" lon="2.71026">
        <ele>1075.9</ele>
        <time>2021-09-10T09:39:27.000Z</time>
      </trkpt>
      <trkpt lat="45.15593" lon="2.71018">
        <ele>1074.3</ele>
        <time>2021-09-10T09:39:35.000Z</time>
      </trkpt>
      <trkpt lat="45.15595" lon="2.7101">
        <ele>1072.9</ele>
        <time>2021-09-10T09:39:53.000Z</time>
      </trkpt>
      <trkpt lat="45.15595" lon="2.70999">
        <ele>1071.2</ele>
        <time>2021-09-10T09:39:59.000Z</time>
      </trkpt>
      <trkpt lat="45.15596" lon="2.7099">
        <ele>1070.1</ele>
        <time>2021-09-10T09:40:03.000Z</time>
      </trkpt>
      <trkpt lat="45.15598" lon="2.70978">
        <ele>1068.7</ele>
        <time>2021-09-10T09:40:09.000Z</time>
      </trkpt>
      <trkpt lat="45.15605" lon="2.70969">
        <ele>1067.2</ele>
        <time>2021-09-10T09:40:15.000Z</time>
      </trkpt>
      <trkpt lat="45.15611" lon="2.70965">
        <ele>1066.3</ele>
        <time>2021-09-10T09:40:21.000Z</time>
      </trkpt>
      <trkpt lat="45.15618" lon="2.70962">
        <ele>1065.4</ele>
        <time>2021-09-10T09:40:27.000Z</time>
      </trkpt>
      <trkpt lat="45.15624" lon="2.70963">
        <ele>1065.1</ele>
        <time>2021-09-10T09:40:36.000Z</time>
      </trkpt>
      <trkpt lat="45.1563" lon="2.70957">
        <ele>1064</ele>
        <time>2021-09-10T09:41:36.000Z</time>
      </trkpt>
      <trkpt lat="45.15636" lon="2.7095">
        <ele>1062.7</ele>
        <time>2021-09-10T09:41:42.000Z</time>
      </trkpt>
      <trkpt lat="45.15641" lon="2.70943">
        <ele>1061.4</ele>
        <time>2021-09-10T09:41:47.000Z</time>
      </trkpt>
      <trkpt lat="45.15647" lon="2.70936">
        <ele>1060.1</ele>
        <time>2021-09-10T09:41:52.000Z</time>
      </trkpt>
      <trkpt lat="45.15654" lon="2.70929">
        <ele>1058.6</ele>
        <time>2021-09-10T09:41:57.000Z</time>
      </trkpt>
      <trkpt lat="45.1566" lon="2.70922">
        <ele>1057.3</ele>
        <time>2021-09-10T09:42:03.000Z</time>
      </trkpt>
      <trkpt lat="45.15667" lon="2.70914">
        <ele>1055.8</ele>
        <time>2021-09-10T09:42:09.000Z</time>
      </trkpt>
      <trkpt lat="45.15673" lon="2.70906">
        <ele>1054.8</ele>
        <time>2021-09-10T09:42:15.000Z</time>
      </trkpt>
      <trkpt lat="45.15682" lon="2.70898">
        <ele>1053.8</ele>
        <time>2021-09-10T09:42:21.000Z</time>
      </trkpt>
      <trkpt lat="45.15689" lon="2.70894">
        <ele>1053.2</ele>
        <time>2021-09-10T09:42:27.000Z</time>
      </trkpt>
      <trkpt lat="45.15696" lon="2.70893">
        <ele>1052.8</ele>
        <time>2021-09-10T09:42:33.000Z</time>
      </trkpt>
      <trkpt lat="45.15703" lon="2.70891">
        <ele>1052.4</ele>
        <time>2021-09-10T09:42:39.000Z</time>
      </trkpt>
      <trkpt lat="45.15713" lon="2.70887">
        <ele>1051.7</ele>
        <time>2021-09-10T09:42:45.000Z</time>
      </trkpt>
      <trkpt lat="45.15721" lon="2.70881">
        <ele>1051</ele>
        <time>2021-09-10T09:42:51.000Z</time>
      </trkpt>
      <trkpt lat="45.15729" lon="2.70873">
        <ele>1050.1</ele>
        <time>2021-09-10T09:42:57.000Z</time>
      </trkpt>
      <trkpt lat="45.15735" lon="2.70864">
        <ele>1049.3</ele>
        <time>2021-09-10T09:43:03.000Z</time>
      </trkpt>
      <trkpt lat="45.15742" lon="2.70855">
        <ele>1048.5</ele>
        <time>2021-09-10T09:43:09.000Z</time>
      </trkpt>
      <trkpt lat="45.15747" lon="2.70845">
        <ele>1047.8</ele>
        <time>2021-09-10T09:43:15.000Z</time>
      </trkpt>
      <trkpt lat="45.15752" lon="2.70835">
        <ele>1047</ele>
        <time>2021-09-10T09:43:21.000Z</time>
      </trkpt>
      <trkpt lat="45.15756" lon="2.70824">
        <ele>1046.1</ele>
        <time>2021-09-10T09:43:27.000Z</time>
      </trkpt>
      <trkpt lat="45.1576" lon="2.70814">
        <ele>1045.4</ele>
        <time>2021-09-10T09:43:33.000Z</time>
      </trkpt>
      <trkpt lat="45.15765" lon="2.70802">
        <ele>1044.4</ele>
        <time>2021-09-10T09:43:39.000Z</time>
      </trkpt>
      <trkpt lat="45.15769" lon="2.7079">
        <ele>1043.6</ele>
        <time>2021-09-10T09:43:45.000Z</time>
      </trkpt>
      <trkpt lat="45.15775" lon="2.70779">
        <ele>1042.6</ele>
        <time>2021-09-10T09:43:51.000Z</time>
      </trkpt>
      <trkpt lat="45.1578" lon="2.70769">
        <ele>1041.8</ele>
        <time>2021-09-10T09:43:57.000Z</time>
      </trkpt>
      <trkpt lat="45.15788" lon="2.7076">
        <ele>1040.7</ele>
        <time>2021-09-10T09:44:03.000Z</time>
      </trkpt>
      <trkpt lat="45.15794" lon="2.70752">
        <ele>1039.9</ele>
        <time>2021-09-10T09:44:09.000Z</time>
      </trkpt>
      <trkpt lat="45.158" lon="2.70746">
        <ele>1039.3</ele>
        <time>2021-09-10T09:44:15.000Z</time>
      </trkpt>
      <trkpt lat="45.15805" lon="2.70739">
        <ele>1038.9</ele>
        <time>2021-09-10T09:44:21.000Z</time>
      </trkpt>
      <trkpt lat="45.15809" lon="2.70731">
        <ele>1038.5</ele>
        <time>2021-09-10T09:44:28.000Z</time>
      </trkpt>
      <trkpt lat="45.15815" lon="2.70725">
        <ele>1038.1</ele>
        <time>2021-09-10T09:44:35.000Z</time>
      </trkpt>
      <trkpt lat="45.1582" lon="2.70718">
        <ele>1037.7</ele>
        <time>2021-09-10T09:44:43.000Z</time>
      </trkpt>
      <trkpt lat="45.1582" lon="2.70708">
        <ele>1037.6</ele>
        <time>2021-09-10T09:44:48.000Z</time>
      </trkpt>
      <trkpt lat="45.15822" lon="2.70699">
        <ele>1037.5</ele>
        <time>2021-09-10T09:44:54.000Z</time>
      </trkpt>
      <trkpt lat="45.15827" lon="2.70691">
        <ele>1037.2</ele>
        <time>2021-09-10T09:45:00.000Z</time>
      </trkpt>
      <trkpt lat="45.15833" lon="2.70684">
        <ele>1037</ele>
        <time>2021-09-10T09:45:04.000Z</time>
      </trkpt>
      <trkpt lat="45.15839" lon="2.70679">
        <ele>1037</ele>
        <time>2021-09-10T09:45:09.000Z</time>
      </trkpt>
      <trkpt lat="45.15845" lon="2.70669">
        <ele>1037</ele>
        <time>2021-09-10T09:45:15.000Z</time>
      </trkpt>
      <trkpt lat="45.15849" lon="2.70656">
        <ele>1037</ele>
        <time>2021-09-10T09:45:21.000Z</time>
      </trkpt>
      <trkpt lat="45.15854" lon="2.70647">
        <ele>1037.1</ele>
        <time>2021-09-10T09:45:51.000Z</time>
      </trkpt>
      <trkpt lat="45.15863" lon="2.70641">
        <ele>1037.2</ele>
        <time>2021-09-10T09:45:57.000Z</time>
      </trkpt>
      <trkpt lat="45.15869" lon="2.70635">
        <ele>1037.3</ele>
        <time>2021-09-10T09:46:04.000Z</time>
      </trkpt>
      <trkpt lat="45.15874" lon="2.70627">
        <ele>1037.5</ele>
        <time>2021-09-10T09:46:10.000Z</time>
      </trkpt>
      <trkpt lat="45.15878" lon="2.70619">
        <ele>1037.6</ele>
        <time>2021-09-10T09:46:16.000Z</time>
      </trkpt>
      <trkpt lat="45.15883" lon="2.7061">
        <ele>1037.8</ele>
        <time>2021-09-10T09:46:22.000Z</time>
      </trkpt>
      <trkpt lat="45.1589" lon="2.706">
        <ele>1038.1</ele>
        <time>2021-09-10T09:46:27.000Z</time>
      </trkpt>
      <trkpt lat="45.15896" lon="2.70594">
        <ele>1038.3</ele>
        <time>2021-09-10T09:46:33.000Z</time>
      </trkpt>
      <trkpt lat="45.15904" lon="2.7059">
        <ele>1038.6</ele>
        <time>2021-09-10T09:46:39.000Z</time>
      </trkpt>
      <trkpt lat="45.15911" lon="2.70589">
        <ele>1038.7</ele>
        <time>2021-09-10T09:46:49.000Z</time>
      </trkpt>
      <trkpt lat="45.15918" lon="2.70589">
        <ele>1038.8</ele>
        <time>2021-09-10T09:46:53.000Z</time>
      </trkpt>
      <trkpt lat="45.15925" lon="2.70589">
        <ele>1038.7</ele>
        <time>2021-09-10T09:46:57.000Z</time>
      </trkpt>
      <trkpt lat="45.15933" lon="2.7059">
        <ele>1038.6</ele>
        <time>2021-09-10T09:47:03.000Z</time>
      </trkpt>
      <trkpt lat="45.15944" lon="2.70593">
        <ele>1038.3</ele>
        <time>2021-09-10T09:47:09.000Z</time>
      </trkpt>
      <trkpt lat="45.15952" lon="2.70596">
        <ele>1038.1</ele>
        <time>2021-09-10T09:47:15.000Z</time>
      </trkpt>
      <trkpt lat="45.15959" lon="2.70592">
        <ele>1038.1</ele>
        <time>2021-09-10T09:47:31.000Z</time>
      </trkpt>
      <trkpt lat="45.15966" lon="2.70598">
        <ele>1037.7</ele>
        <time>2021-09-10T09:48:02.000Z</time>
      </trkpt>
      <trkpt lat="45.15972" lon="2.70602">
        <ele>1037.4</ele>
        <time>2021-09-10T09:48:08.000Z</time>
      </trkpt>
      <trkpt lat="45.15979" lon="2.70605">
        <ele>1037.1</ele>
        <time>2021-09-10T09:48:14.000Z</time>
      </trkpt>
      <trkpt lat="45.15986" lon="2.70606">
        <ele>1036.9</ele>
        <time>2021-09-10T09:48:20.000Z</time>
      </trkpt>
      <trkpt lat="45.15992" lon="2.70609">
        <ele>1036.6</ele>
        <time>2021-09-10T09:48:26.000Z</time>
      </trkpt>
      <trkpt lat="45.15999" lon="2.7061">
        <ele>1036.4</ele>
        <time>2021-09-10T09:48:31.000Z</time>
      </trkpt>
      <trkpt lat="45.16005" lon="2.70611">
        <ele>1036.4</ele>
        <time>2021-09-10T09:48:35.000Z</time>
      </trkpt>
      <trkpt lat="45.16013" lon="2.70615">
        <ele>1036.4</ele>
        <time>2021-09-10T09:48:39.000Z</time>
      </trkpt>
      <trkpt lat="45.16023" lon="2.70621">
        <ele>1036.3</ele>
        <time>2021-09-10T09:48:45.000Z</time>
      </trkpt>
      <trkpt lat="45.16032" lon="2.70626">
        <ele>1036.2</ele>
        <time>2021-09-10T09:48:51.000Z</time>
      </trkpt>
      <trkpt lat="45.16037" lon="2.70631">
        <ele>1036.1</ele>
        <time>2021-09-10T09:48:57.000Z</time>
      </trkpt>
      <trkpt lat="45.16043" lon="2.70636">
        <ele>1036</ele>
        <time>2021-09-10T09:49:03.000Z</time>
      </trkpt>
      <trkpt lat="45.1605" lon="2.70638">
        <ele>1036.1</ele>
        <time>2021-09-10T09:49:09.000Z</time>
      </trkpt>
      <trkpt lat="45.16056" lon="2.70639">
        <ele>1036.2</ele>
        <time>2021-09-10T09:49:17.000Z</time>
      </trkpt>
      <trkpt lat="45.16063" lon="2.70641">
        <ele>1036.3</ele>
        <time>2021-09-10T09:49:22.000Z</time>
      </trkpt>
      <trkpt lat="45.16068" lon="2.70647">
        <ele>1036.2</ele>
        <time>2021-09-10T09:49:29.000Z</time>
      </trkpt>
      <trkpt lat="45.16074" lon="2.70654">
        <ele>1036.2</ele>
        <time>2021-09-10T09:49:40.000Z</time>
      </trkpt>
      <trkpt lat="45.16079" lon="2.70662">
        <ele>1036</ele>
        <time>2021-09-10T09:49:49.000Z</time>
      </trkpt>
      <trkpt lat="45.16088" lon="2.70665">
        <ele>1036.2</ele>
        <time>2021-09-10T09:49:56.000Z</time>
      </trkpt>
      <trkpt lat="45.16094" lon="2.7067">
        <ele>1036.3</ele>
        <time>2021-09-10T09:50:08.000Z</time>
      </trkpt>
      <trkpt lat="45.161" lon="2.70673">
        <ele>1036.4</ele>
        <time>2021-09-10T09:50:19.000Z</time>
      </trkpt>
      <trkpt lat="45.16104" lon="2.70665">
        <ele>1036.8</ele>
        <time>2021-09-10T09:50:32.000Z</time>
      </trkpt>
      <trkpt lat="45.16109" lon="2.70658">
        <ele>1037.1</ele>
        <time>2021-09-10T09:50:38.000Z</time>
      </trkpt>
      <trkpt lat="45.16115" lon="2.70655">
        <ele>1037.3</ele>
        <time>2021-09-10T09:50:52.000Z</time>
      </trkpt>
      <trkpt lat="45.16043" lon="2.70637">
        <ele>1036</ele>
        <time>2021-09-10T09:53:12.000Z</time>
      </trkpt>
      <trkpt lat="45.16036" lon="2.70642">
        <ele>1035.5</ele>
        <time>2021-09-10T09:53:19.000Z</time>
      </trkpt>
      <trkpt lat="45.16058" lon="2.70651">
        <ele>1035.8</ele>
        <time>2021-09-10T09:53:24.000Z</time>
      </trkpt>
      <trkpt lat="45.16084" lon="2.70649">
        <ele>1036.7</ele>
        <time>2021-09-10T09:53:32.000Z</time>
      </trkpt>
      <trkpt lat="45.16081" lon="2.70641">
        <ele>1036.9</ele>
        <time>2021-09-10T09:53:42.000Z</time>
      </trkpt>
      <trkpt lat="45.1607" lon="2.70636">
        <ele>1036.7</ele>
        <time>2021-09-10T09:53:48.000Z</time>
      </trkpt>
      <trkpt lat="45.16062" lon="2.7063">
        <ele>1036.8</ele>
        <time>2021-09-10T09:53:54.000Z</time>
      </trkpt>
      <trkpt lat="45.16053" lon="2.70624">
        <ele>1036.8</ele>
        <time>2021-09-10T09:54:00.000Z</time>
      </trkpt>
      <trkpt lat="45.16045" lon="2.7062">
        <ele>1036.8</ele>
        <time>2021-09-10T09:54:06.000Z</time>
      </trkpt>
      <trkpt lat="45.16037" lon="2.70613">
        <ele>1037</ele>
        <time>2021-09-10T09:54:12.000Z</time>
      </trkpt>
      <trkpt lat="45.16029" lon="2.70607">
        <ele>1037.1</ele>
        <time>2021-09-10T09:54:18.000Z</time>
      </trkpt>
      <trkpt lat="45.16019" lon="2.70604">
        <ele>1037.1</ele>
        <time>2021-09-10T09:54:24.000Z</time>
      </trkpt>
      <trkpt lat="45.16011" lon="2.706">
        <ele>1037.2</ele>
        <time>2021-09-10T09:54:30.000Z</time>
      </trkpt>
      <trkpt lat="45.16003" lon="2.70597">
        <ele>1037.2</ele>
        <time>2021-09-10T09:54:36.000Z</time>
      </trkpt>
      <trkpt lat="45.15995" lon="2.70595">
        <ele>1037.4</ele>
        <time>2021-09-10T09:54:42.000Z</time>
      </trkpt>
      <trkpt lat="45.15987" lon="2.70593">
        <ele>1037.6</ele>
        <time>2021-09-10T09:54:48.000Z</time>
      </trkpt>
      <trkpt lat="45.15977" lon="2.70591">
        <ele>1037.9</ele>
        <time>2021-09-10T09:54:54.000Z</time>
      </trkpt>
      <trkpt lat="45.15971" lon="2.70589">
        <ele>1038.1</ele>
        <time>2021-09-10T09:55:00.000Z</time>
      </trkpt>
      <trkpt lat="45.15963" lon="2.70586">
        <ele>1038.3</ele>
        <time>2021-09-10T09:55:06.000Z</time>
      </trkpt>
      <trkpt lat="45.15953" lon="2.70584">
        <ele>1038.5</ele>
        <time>2021-09-10T09:55:12.000Z</time>
      </trkpt>
      <trkpt lat="45.15944" lon="2.70583">
        <ele>1038.7</ele>
        <time>2021-09-10T09:55:18.000Z</time>
      </trkpt>
      <trkpt lat="45.15935" lon="2.70581">
        <ele>1038.8</ele>
        <time>2021-09-10T09:55:24.000Z</time>
      </trkpt>
      <trkpt lat="45.15932" lon="2.70565">
        <ele>1039.2</ele>
        <time>2021-09-10T09:56:03.000Z</time>
      </trkpt>
      <trkpt lat="45.15913" lon="2.70413">
        <ele>1042</ele>
        <time>2021-09-10T09:57:21.000Z</time>
      </trkpt>
      <trkpt lat="45.1593" lon="2.70444">
        <ele>1042</ele>
        <time>2021-09-10T09:57:27.000Z</time>
      </trkpt>
      <trkpt lat="45.15939" lon="2.70449">
        <ele>1042.4</ele>
        <time>2021-09-10T09:57:33.000Z</time>
      </trkpt>
      <trkpt lat="45.1594" lon="2.70466">
        <ele>1041.9</ele>
        <time>2021-09-10T09:59:31.000Z</time>
      </trkpt>
      <trkpt lat="45.15928" lon="2.70467">
        <ele>1041.3</ele>
        <time>2021-09-10T09:59:43.000Z</time>
      </trkpt>
      <trkpt lat="45.15909" lon="2.70448">
        <ele>1040.8</ele>
        <time>2021-09-10T09:59:49.000Z</time>
      </trkpt>
      <trkpt lat="45.15902" lon="2.70445">
        <ele>1040.5</ele>
        <time>2021-09-10T09:59:57.000Z</time>
      </trkpt>
      <trkpt lat="45.15892" lon="2.7044">
        <ele>1040</ele>
        <time>2021-09-10T10:00:12.000Z</time>
      </trkpt>
      <trkpt lat="45.15886" lon="2.70436">
        <ele>1039.8</ele>
        <time>2021-09-10T10:00:14.000Z</time>
      </trkpt>
      <trkpt lat="45.15875" lon="2.7043">
        <ele>1039.3</ele>
        <time>2021-09-10T10:00:19.000Z</time>
      </trkpt>
      <trkpt lat="45.15864" lon="2.70419">
        <ele>1038.8</ele>
        <time>2021-09-10T10:00:25.000Z</time>
      </trkpt>
      <trkpt lat="45.1586" lon="2.70409">
        <ele>1039.1</ele>
        <time>2021-09-10T10:00:31.000Z</time>
      </trkpt>
      <trkpt lat="45.15849" lon="2.70415">
        <ele>1038</ele>
        <time>2021-09-10T10:00:38.000Z</time>
      </trkpt>
      <trkpt lat="45.15843" lon="2.7042">
        <ele>1037.5</ele>
        <time>2021-09-10T10:00:46.000Z</time>
      </trkpt>
      <trkpt lat="45.15841" lon="2.7043">
        <ele>1037.3</ele>
        <time>2021-09-10T10:00:56.000Z</time>
      </trkpt>
      <trkpt lat="45.15841" lon="2.70441">
        <ele>1037.1</ele>
        <time>2021-09-10T10:01:01.000Z</time>
      </trkpt>
      <trkpt lat="45.15846" lon="2.70454">
        <ele>1037.2</ele>
        <time>2021-09-10T10:01:07.000Z</time>
      </trkpt>
      <trkpt lat="45.15856" lon="2.70472">
        <ele>1037.5</ele>
        <time>2021-09-10T10:01:13.000Z</time>
      </trkpt>
      <trkpt lat="45.15884" lon="2.70518">
        <ele>1038.4</ele>
        <time>2021-09-10T10:01:19.000Z</time>
      </trkpt>
      <trkpt lat="45.15889" lon="2.70549">
        <ele>1038.5</ele>
        <time>2021-09-10T10:01:25.000Z</time>
      </trkpt>
      <trkpt lat="45.15902" lon="2.70584">
        <ele>1038.6</ele>
        <time>2021-09-10T10:01:31.000Z</time>
      </trkpt>
      <trkpt lat="45.15907" lon="2.70592">
        <ele>1038.6</ele>
        <time>2021-09-10T10:01:40.000Z</time>
      </trkpt>
      <trkpt lat="45.15915" lon="2.70607">
        <ele>1038.4</ele>
        <time>2021-09-10T10:01:43.000Z</time>
      </trkpt>
      <trkpt lat="45.1593" lon="2.70626">
        <ele>1037.6</ele>
        <time>2021-09-10T10:01:49.000Z</time>
      </trkpt>
      <trkpt lat="45.15946" lon="2.70632">
        <ele>1036.9</ele>
        <time>2021-09-10T10:01:55.000Z</time>
      </trkpt>
      <trkpt lat="45.15956" lon="2.70631">
        <ele>1036.6</ele>
        <time>2021-09-10T10:02:01.000Z</time>
      </trkpt>
      <trkpt lat="45.15943" lon="2.70609">
        <ele>1037.8</ele>
        <time>2021-09-10T10:02:07.000Z</time>
      </trkpt>
      <trkpt lat="45.15942" lon="2.70588">
        <ele>1038.5</ele>
        <time>2021-09-10T10:02:13.000Z</time>
      </trkpt>
      <trkpt lat="45.15945" lon="2.70578">
        <ele>1038.8</ele>
        <time>2021-09-10T10:02:19.000Z</time>
      </trkpt>
      <trkpt lat="45.15959" lon="2.70572">
        <ele>1038.9</ele>
        <time>2021-09-10T10:02:25.000Z</time>
      </trkpt>
      <trkpt lat="45.15966" lon="2.70573">
        <ele>1038.8</ele>
        <time>2021-09-10T10:02:31.000Z</time>
      </trkpt>
      <trkpt lat="45.15972" lon="2.70578">
        <ele>1038.6</ele>
        <time>2021-09-10T10:02:37.000Z</time>
      </trkpt>
      <trkpt lat="45.15971" lon="2.70564">
        <ele>1039.2</ele>
        <time>2021-09-10T10:02:43.000Z</time>
      </trkpt>
      <trkpt lat="45.15966" lon="2.70571">
        <ele>1038.9</ele>
        <time>2021-09-10T10:02:49.000Z</time>
      </trkpt>
      <trkpt lat="45.15951" lon="2.70563">
        <ele>1039.2</ele>
        <time>2021-09-10T10:03:10.000Z</time>
      </trkpt>
      <trkpt lat="45.15945" lon="2.70561">
        <ele>1039.3</ele>
        <time>2021-09-10T10:03:14.000Z</time>
      </trkpt>
      <trkpt lat="45.15934" lon="2.70562">
        <ele>1039.3</ele>
        <time>2021-09-10T10:03:19.000Z</time>
      </trkpt>
      <trkpt lat="45.15925" lon="2.70566">
        <ele>1039.2</ele>
        <time>2021-09-10T10:03:25.000Z</time>
      </trkpt>
      <trkpt lat="45.15917" lon="2.70563">
        <ele>1039.2</ele>
        <time>2021-09-10T10:03:58.000Z</time>
      </trkpt>
      <trkpt lat="45.15919" lon="2.70573">
        <ele>1039.1</ele>
        <time>2021-09-10T10:04:02.000Z</time>
      </trkpt>
      <trkpt lat="45.15923" lon="2.70596">
        <ele>1038.6</ele>
        <time>2021-09-10T10:04:07.000Z</time>
      </trkpt>
      <trkpt lat="45.15926" lon="2.70605">
        <ele>1038.3</ele>
        <time>2021-09-10T10:04:17.000Z</time>
      </trkpt>
      <trkpt lat="45.15925" lon="2.70567">
        <ele>1039.2</ele>
        <time>2021-09-10T10:04:27.000Z</time>
      </trkpt>
      <trkpt lat="45.15915" lon="2.70533">
        <ele>1039.5</ele>
        <time>2021-09-10T10:04:33.000Z</time>
      </trkpt>
      <trkpt lat="45.15913" lon="2.70556">
        <ele>1039.2</ele>
        <time>2021-09-10T10:04:39.000Z</time>
      </trkpt>
      <trkpt lat="45.15904" lon="2.70558">
        <ele>1038.9</ele>
        <time>2021-09-10T10:04:51.000Z</time>
      </trkpt>
      <trkpt lat="45.15895" lon="2.70557">
        <ele>1038.6</ele>
        <time>2021-09-10T10:04:57.000Z</time>
      </trkpt>
      <trkpt lat="45.15884" lon="2.70559">
        <ele>1038.3</ele>
        <time>2021-09-10T10:05:03.000Z</time>
      </trkpt>
      <trkpt lat="45.15873" lon="2.70556">
        <ele>1037.9</ele>
        <time>2021-09-10T10:05:09.000Z</time>
      </trkpt>
      <trkpt lat="45.15863" lon="2.70556">
        <ele>1037.6</ele>
        <time>2021-09-10T10:05:15.000Z</time>
      </trkpt>
      <trkpt lat="45.15869" lon="2.70561">
        <ele>1037.8</ele>
        <time>2021-09-10T10:05:31.000Z</time>
      </trkpt>
      <trkpt lat="45.15876" lon="2.70566">
        <ele>1038</ele>
        <time>2021-09-10T10:05:36.000Z</time>
      </trkpt>
      <trkpt lat="45.15882" lon="2.70559">
        <ele>1038.2</ele>
        <time>2021-09-10T10:05:43.000Z</time>
      </trkpt>
      <trkpt lat="45.15885" lon="2.70549">
        <ele>1038.3</ele>
        <time>2021-09-10T10:05:47.000Z</time>
      </trkpt>
      <trkpt lat="45.15888" lon="2.7054">
        <ele>1038.5</ele>
        <time>2021-09-10T10:05:52.000Z</time>
      </trkpt>
      <trkpt lat="45.1589" lon="2.7053">
        <ele>1038.6</ele>
        <time>2021-09-10T10:05:57.000Z</time>
      </trkpt>
      <trkpt lat="45.15891" lon="2.7052">
        <ele>1038.7</ele>
        <time>2021-09-10T10:06:03.000Z</time>
      </trkpt>
      <trkpt lat="45.15886" lon="2.70512">
        <ele>1038.5</ele>
        <time>2021-09-10T10:06:09.000Z</time>
      </trkpt>
      <trkpt lat="45.15878" lon="2.7051">
        <ele>1038.1</ele>
        <time>2021-09-10T10:06:15.000Z</time>
      </trkpt>
      <trkpt lat="45.15871" lon="2.70504">
        <ele>1037.8</ele>
        <time>2021-09-10T10:06:21.000Z</time>
      </trkpt>
      <trkpt lat="45.15864" lon="2.705">
        <ele>1037.5</ele>
        <time>2021-09-10T10:06:27.000Z</time>
      </trkpt>
      <trkpt lat="45.15857" lon="2.70495">
        <ele>1037.2</ele>
        <time>2021-09-10T10:06:33.000Z</time>
      </trkpt>
      <trkpt lat="45.1585" lon="2.70489">
        <ele>1037</ele>
        <time>2021-09-10T10:06:39.000Z</time>
      </trkpt>
      <trkpt lat="45.15841" lon="2.70482">
        <ele>1036.6</ele>
        <time>2021-09-10T10:06:45.000Z</time>
      </trkpt>
      <trkpt lat="45.15836" lon="2.70476">
        <ele>1036.4</ele>
        <time>2021-09-10T10:06:54.000Z</time>
      </trkpt>
      <trkpt lat="45.1583" lon="2.70472">
        <ele>1036.3</ele>
        <time>2021-09-10T10:07:39.000Z</time>
      </trkpt>
      <trkpt lat="45.15827" lon="2.70462">
        <ele>1036.3</ele>
        <time>2021-09-10T10:07:45.000Z</time>
      </trkpt>
      <trkpt lat="45.15826" lon="2.70453">
        <ele>1036.4</ele>
        <time>2021-09-10T10:07:52.000Z</time>
      </trkpt>
      <trkpt lat="45.15824" lon="2.70443">
        <ele>1036.5</ele>
        <time>2021-09-10T10:07:58.000Z</time>
      </trkpt>
      <trkpt lat="45.1582" lon="2.70435">
        <ele>1036.5</ele>
        <time>2021-09-10T10:08:06.000Z</time>
      </trkpt>
      <trkpt lat="45.15816" lon="2.70427">
        <ele>1036.5</ele>
        <time>2021-09-10T10:08:12.000Z</time>
      </trkpt>
      <trkpt lat="45.15812" lon="2.70419">
        <ele>1036.5</ele>
        <time>2021-09-10T10:08:16.000Z</time>
      </trkpt>
      <trkpt lat="45.15808" lon="2.70409">
        <ele>1036.8</ele>
        <time>2021-09-10T10:08:21.000Z</time>
      </trkpt>
      <trkpt lat="45.15804" lon="2.704">
        <ele>1037.1</ele>
        <time>2021-09-10T10:08:26.000Z</time>
      </trkpt>
      <trkpt lat="45.15798" lon="2.70392">
        <ele>1037.3</ele>
        <time>2021-09-10T10:08:32.000Z</time>
      </trkpt>
      <trkpt lat="45.15795" lon="2.70384">
        <ele>1037.5</ele>
        <time>2021-09-10T10:08:38.000Z</time>
      </trkpt>
      <trkpt lat="45.15794" lon="2.70374">
        <ele>1037.9</ele>
        <time>2021-09-10T10:08:44.000Z</time>
      </trkpt>
      <trkpt lat="45.15793" lon="2.70358">
        <ele>1038.5</ele>
        <time>2021-09-10T10:08:50.000Z</time>
      </trkpt>
      <trkpt lat="45.1579" lon="2.70348">
        <ele>1038.8</ele>
        <time>2021-09-10T10:08:58.000Z</time>
      </trkpt>
      <trkpt lat="45.15782" lon="2.70348">
        <ele>1038.4</ele>
        <time>2021-09-10T10:09:04.000Z</time>
      </trkpt>
      <trkpt lat="45.15776" lon="2.70353">
        <ele>1037.9</ele>
        <time>2021-09-10T10:09:10.000Z</time>
      </trkpt>
      <trkpt lat="45.15772" lon="2.70344">
        <ele>1038</ele>
        <time>2021-09-10T10:09:25.000Z</time>
      </trkpt>
      <trkpt lat="45.15765" lon="2.70337">
        <ele>1037.8</ele>
        <time>2021-09-10T10:09:30.000Z</time>
      </trkpt>
      <trkpt lat="45.15759" lon="2.70331">
        <ele>1037.7</ele>
        <time>2021-09-10T10:09:35.000Z</time>
      </trkpt>
      <trkpt lat="45.15755" lon="2.70323">
        <ele>1037.9</ele>
        <time>2021-09-10T10:09:42.000Z</time>
      </trkpt>
      <trkpt lat="45.1575" lon="2.70316">
        <ele>1038</ele>
        <time>2021-09-10T10:09:49.000Z</time>
      </trkpt>
      <trkpt lat="45.15742" lon="2.70315">
        <ele>1038</ele>
        <time>2021-09-10T10:10:07.000Z</time>
      </trkpt>
      <trkpt lat="45.15739" lon="2.70306">
        <ele>1038.5</ele>
        <time>2021-09-10T10:10:15.000Z</time>
      </trkpt>
      <trkpt lat="45.15739" lon="2.70296">
        <ele>1039.1</ele>
        <time>2021-09-10T10:10:23.000Z</time>
      </trkpt>
      <trkpt lat="45.1574" lon="2.70285">
        <ele>1039.8</ele>
        <time>2021-09-10T10:10:29.000Z</time>
      </trkpt>
      <trkpt lat="45.15742" lon="2.70275">
        <ele>1040.4</ele>
        <time>2021-09-10T10:10:35.000Z</time>
      </trkpt>
      <trkpt lat="45.15744" lon="2.70266">
        <ele>1041</ele>
        <time>2021-09-10T10:10:41.000Z</time>
      </trkpt>
      <trkpt lat="45.15745" lon="2.70256">
        <ele>1041.6</ele>
        <time>2021-09-10T10:10:48.000Z</time>
      </trkpt>
      <trkpt lat="45.15744" lon="2.70246">
        <ele>1042.5</ele>
        <time>2021-09-10T10:10:54.000Z</time>
      </trkpt>
      <trkpt lat="45.15745" lon="2.70236">
        <ele>1044</ele>
        <time>2021-09-10T10:11:00.000Z</time>
      </trkpt>
      <trkpt lat="45.15744" lon="2.70227">
        <ele>1045.3</ele>
        <time>2021-09-10T10:11:08.000Z</time>
      </trkpt>
      <trkpt lat="45.15745" lon="2.70217">
        <ele>1046.7</ele>
        <time>2021-09-10T10:11:18.000Z</time>
      </trkpt>
      <trkpt lat="45.15739" lon="2.7021">
        <ele>1047.8</ele>
        <time>2021-09-10T10:11:26.000Z</time>
      </trkpt>
      <trkpt lat="45.15739" lon="2.70201">
        <ele>1049.1</ele>
        <time>2021-09-10T10:11:46.000Z</time>
      </trkpt>
      <trkpt lat="45.1574" lon="2.70191">
        <ele>1050.5</ele>
        <time>2021-09-10T10:11:54.000Z</time>
      </trkpt>
      <trkpt lat="45.15736" lon="2.70181">
        <ele>1052</ele>
        <time>2021-09-10T10:12:02.000Z</time>
      </trkpt>
      <trkpt lat="45.15735" lon="2.70172">
        <ele>1053.4</ele>
        <time>2021-09-10T10:12:13.000Z</time>
      </trkpt>
      <trkpt lat="45.15733" lon="2.70163">
        <ele>1055.1</ele>
        <time>2021-09-10T10:12:24.000Z</time>
      </trkpt>
      <trkpt lat="45.15731" lon="2.70154">
        <ele>1057.3</ele>
        <time>2021-09-10T10:12:33.000Z</time>
      </trkpt>
      <trkpt lat="45.1573" lon="2.70144">
        <ele>1059.7</ele>
        <time>2021-09-10T10:12:41.000Z</time>
      </trkpt>
      <trkpt lat="45.15731" lon="2.70134">
        <ele>1062.1</ele>
        <time>2021-09-10T10:12:50.000Z</time>
      </trkpt>
      <trkpt lat="45.15733" lon="2.70124">
        <ele>1064.4</ele>
        <time>2021-09-10T10:12:58.000Z</time>
      </trkpt>
      <trkpt lat="45.1573" lon="2.70116">
        <ele>1066.4</ele>
        <time>2021-09-10T10:13:07.000Z</time>
      </trkpt>
      <trkpt lat="45.15719" lon="2.70112">
        <ele>1067.5</ele>
        <time>2021-09-10T10:13:58.000Z</time>
      </trkpt>
      <trkpt lat="45.15716" lon="2.70103">
        <ele>1069.7</ele>
        <time>2021-09-10T10:14:10.000Z</time>
      </trkpt>
      <trkpt lat="45.15713" lon="2.70095">
        <ele>1071.6</ele>
        <time>2021-09-10T10:14:18.000Z</time>
      </trkpt>
      <trkpt lat="45.15716" lon="2.70086">
        <ele>1073.8</ele>
        <time>2021-09-10T10:14:50.000Z</time>
      </trkpt>
      <trkpt lat="45.15712" lon="2.70078">
        <ele>1076.3</ele>
        <time>2021-09-10T10:15:00.000Z</time>
      </trkpt>
      <trkpt lat="45.15707" lon="2.70071">
        <ele>1078.7</ele>
        <time>2021-09-10T10:15:08.000Z</time>
      </trkpt>
      <trkpt lat="45.15702" lon="2.70064">
        <ele>1081.2</ele>
        <time>2021-09-10T10:15:15.000Z</time>
      </trkpt>
      <trkpt lat="45.15696" lon="2.70057">
        <ele>1083.7</ele>
        <time>2021-09-10T10:15:24.000Z</time>
      </trkpt>
      <trkpt lat="45.1569" lon="2.70053">
        <ele>1085.2</ele>
        <time>2021-09-10T10:15:32.000Z</time>
      </trkpt>
      <trkpt lat="45.15684" lon="2.70047">
        <ele>1087.3</ele>
        <time>2021-09-10T10:16:02.000Z</time>
      </trkpt>
      <trkpt lat="45.15678" lon="2.70042">
        <ele>1089.2</ele>
        <time>2021-09-10T10:16:10.000Z</time>
      </trkpt>
      <trkpt lat="45.15674" lon="2.70035">
        <ele>1091.7</ele>
        <time>2021-09-10T10:16:17.000Z</time>
      </trkpt>
      <trkpt lat="45.1567" lon="2.70027">
        <ele>1094.5</ele>
        <time>2021-09-10T10:16:27.000Z</time>
      </trkpt>
      <trkpt lat="45.15666" lon="2.70017">
        <ele>1098.1</ele>
        <time>2021-09-10T10:16:48.000Z</time>
      </trkpt>
      <trkpt lat="45.15659" lon="2.70017">
        <ele>1098</ele>
        <time>2021-09-10T10:16:58.000Z</time>
      </trkpt>
      <trkpt lat="45.15654" lon="2.70011">
        <ele>1100</ele>
        <time>2021-09-10T10:17:18.000Z</time>
      </trkpt>
      <trkpt lat="45.15649" lon="2.70005">
        <ele>1102</ele>
        <time>2021-09-10T10:17:45.000Z</time>
      </trkpt>
      <trkpt lat="45.15645" lon="2.69997">
        <ele>1105.1</ele>
        <time>2021-09-10T10:18:01.000Z</time>
      </trkpt>
      <trkpt lat="45.15639" lon="2.70001">
        <ele>1103.3</ele>
        <time>2021-09-10T10:18:10.000Z</time>
      </trkpt>
      <trkpt lat="45.15634" lon="2.69992">
        <ele>1107.3</ele>
        <time>2021-09-10T10:18:26.000Z</time>
      </trkpt>
      <trkpt lat="45.15625" lon="2.69983">
        <ele>1111.4</ele>
        <time>2021-09-10T10:18:48.000Z</time>
      </trkpt>
      <trkpt lat="45.1562" lon="2.69978">
        <ele>1113.7</ele>
        <time>2021-09-10T10:18:59.000Z</time>
      </trkpt>
      <trkpt lat="45.15613" lon="2.69978">
        <ele>1113.7</ele>
        <time>2021-09-10T10:19:05.000Z</time>
      </trkpt>
      <trkpt lat="45.15606" lon="2.69979">
        <ele>1113.3</ele>
        <time>2021-09-10T10:19:09.000Z</time>
      </trkpt>
      <trkpt lat="45.156" lon="2.69975">
        <ele>1115.2</ele>
        <time>2021-09-10T10:19:21.000Z</time>
      </trkpt>
      <trkpt lat="45.15592" lon="2.69974">
        <ele>1115.7</ele>
        <time>2021-09-10T10:19:27.000Z</time>
      </trkpt>
      <trkpt lat="45.15594" lon="2.69964">
        <ele>1120.6</ele>
        <time>2021-09-10T10:19:31.000Z</time>
      </trkpt>
      <trkpt lat="45.15585" lon="2.69959">
        <ele>1123.1</ele>
        <time>2021-09-10T10:19:51.000Z</time>
      </trkpt>
      <trkpt lat="45.15579" lon="2.69954">
        <ele>1125.6</ele>
        <time>2021-09-10T10:20:06.000Z</time>
      </trkpt>
      <trkpt lat="45.15572" lon="2.69956">
        <ele>1124.5</ele>
        <time>2021-09-10T10:20:14.000Z</time>
      </trkpt>
      <trkpt lat="45.15566" lon="2.69959">
        <ele>1123</ele>
        <time>2021-09-10T10:20:21.000Z</time>
      </trkpt>
      <trkpt lat="45.15559" lon="2.69956">
        <ele>1124.3</ele>
        <time>2021-09-10T10:20:28.000Z</time>
      </trkpt>
      <trkpt lat="45.15552" lon="2.69955">
        <ele>1124.7</ele>
        <time>2021-09-10T10:20:33.000Z</time>
      </trkpt>
      <trkpt lat="45.15546" lon="2.69959">
        <ele>1122.7</ele>
        <time>2021-09-10T10:20:40.000Z</time>
      </trkpt>
      <trkpt lat="45.1554" lon="2.69963">
        <ele>1120.8</ele>
        <time>2021-09-10T10:20:45.000Z</time>
      </trkpt>
      <trkpt lat="45.15532" lon="2.69962">
        <ele>1121.2</ele>
        <time>2021-09-10T10:21:16.000Z</time>
      </trkpt>
      <trkpt lat="45.15526" lon="2.69962">
        <ele>1121.1</ele>
        <time>2021-09-10T10:22:04.000Z</time>
      </trkpt>
      <trkpt lat="45.15519" lon="2.69958">
        <ele>1122.9</ele>
        <time>2021-09-10T10:22:16.000Z</time>
      </trkpt>
      <trkpt lat="45.15518" lon="2.69949">
        <ele>1127</ele>
        <time>2021-09-10T10:22:24.000Z</time>
      </trkpt>
      <trkpt lat="45.15511" lon="2.69946">
        <ele>1128.2</ele>
        <time>2021-09-10T10:22:48.000Z</time>
      </trkpt>
      <trkpt lat="45.15505" lon="2.69949">
        <ele>1126.7</ele>
        <time>2021-09-10T10:22:55.000Z</time>
      </trkpt>
      <trkpt lat="45.155" lon="2.69956">
        <ele>1123.5</ele>
        <time>2021-09-10T10:23:03.000Z</time>
      </trkpt>
      <trkpt lat="45.15494" lon="2.69958">
        <ele>1121.5</ele>
        <time>2021-09-10T10:23:12.000Z</time>
      </trkpt>
      <trkpt lat="45.15487" lon="2.69956">
        <ele>1120.9</ele>
        <time>2021-09-10T10:23:18.000Z</time>
      </trkpt>
      <trkpt lat="45.15481" lon="2.69961">
        <ele>1117.6</ele>
        <time>2021-09-10T10:23:22.000Z</time>
      </trkpt>
      <trkpt lat="45.15474" lon="2.6996">
        <ele>1116.7</ele>
        <time>2021-09-10T10:23:38.000Z</time>
      </trkpt>
      <trkpt lat="45.15464" lon="2.69961">
        <ele>1114.3</ele>
        <time>2021-09-10T10:23:52.000Z</time>
      </trkpt>
      <trkpt lat="45.15461" lon="2.69953">
        <ele>1116.9</ele>
        <time>2021-09-10T10:24:00.000Z</time>
      </trkpt>
      <trkpt lat="45.15451" lon="2.69957">
        <ele>1113.3</ele>
        <time>2021-09-10T10:25:39.000Z</time>
      </trkpt>
      <trkpt lat="45.15446" lon="2.69952">
        <ele>1114.3</ele>
        <time>2021-09-10T10:26:26.000Z</time>
      </trkpt>
      <trkpt lat="45.15439" lon="2.69952">
        <ele>1112.8</ele>
        <time>2021-09-10T10:26:32.000Z</time>
      </trkpt>
      <trkpt lat="45.15432" lon="2.6995">
        <ele>1112.2</ele>
        <time>2021-09-10T10:26:38.000Z</time>
      </trkpt>
      <trkpt lat="45.15426" lon="2.69945">
        <ele>1112.8</ele>
        <time>2021-09-10T10:26:44.000Z</time>
      </trkpt>
      <trkpt lat="45.1542" lon="2.69945">
        <ele>1111.5</ele>
        <time>2021-09-10T10:26:49.000Z</time>
      </trkpt>
      <trkpt lat="45.15413" lon="2.69944">
        <ele>1109.9</ele>
        <time>2021-09-10T10:26:55.000Z</time>
      </trkpt>
      <trkpt lat="45.15407" lon="2.69939">
        <ele>1109.6</ele>
        <time>2021-09-10T10:27:13.000Z</time>
      </trkpt>
      <trkpt lat="45.15402" lon="2.69934">
        <ele>1109.7</ele>
        <time>2021-09-10T10:27:21.000Z</time>
      </trkpt>
      <trkpt lat="45.15408" lon="2.69925">
        <ele>1114.9</ele>
        <time>2021-09-10T10:27:48.000Z</time>
      </trkpt>
      <trkpt lat="45.15399" lon="2.69921">
        <ele>1113.1</ele>
        <time>2021-09-10T10:28:13.000Z</time>
      </trkpt>
      <trkpt lat="45.15386" lon="2.69911">
        <ele>1111.5</ele>
        <time>2021-09-10T10:28:38.000Z</time>
      </trkpt>
      <trkpt lat="45.15386" lon="2.69901">
        <ele>1114.3</ele>
        <time>2021-09-10T10:30:44.000Z</time>
      </trkpt>
      <trkpt lat="45.15391" lon="2.69907">
        <ele>1114.4</ele>
        <time>2021-09-10T10:30:59.000Z</time>
      </trkpt>
      <trkpt lat="45.15397" lon="2.69909">
        <ele>1116.1</ele>
        <time>2021-09-10T10:31:09.000Z</time>
      </trkpt>
      <trkpt lat="45.15404" lon="2.69912">
        <ele>1117.8</ele>
        <time>2021-09-10T10:31:29.000Z</time>
      </trkpt>
      <trkpt lat="45.15409" lon="2.69906">
        <ele>1121.3</ele>
        <time>2021-09-10T10:31:43.000Z</time>
      </trkpt>
      <trkpt lat="45.15405" lon="2.69899">
        <ele>1121.8</ele>
        <time>2021-09-10T10:32:02.000Z</time>
      </trkpt>
      <trkpt lat="45.15399" lon="2.69894">
        <ele>1121</ele>
        <time>2021-09-10T10:32:12.000Z</time>
      </trkpt>
      <trkpt lat="45.1539" lon="2.69883">
        <ele>1120.7</ele>
        <time>2021-09-10T10:33:13.000Z</time>
      </trkpt>
      <trkpt lat="45.15385" lon="2.69878">
        <ele>1120.2</ele>
        <time>2021-09-10T10:33:19.000Z</time>
      </trkpt>
      <trkpt lat="45.15382" lon="2.69869">
        <ele>1121.5</ele>
        <time>2021-09-10T10:33:48.000Z</time>
      </trkpt>
      <trkpt lat="45.1538" lon="2.6986">
        <ele>1123.2</ele>
        <time>2021-09-10T10:34:04.000Z</time>
      </trkpt>
      <trkpt lat="45.15368" lon="2.69858">
        <ele>1119.1</ele>
        <time>2021-09-10T10:34:51.000Z</time>
      </trkpt>
      <trkpt lat="45.15362" lon="2.69855">
        <ele>1117.6</ele>
        <time>2021-09-10T10:35:08.000Z</time>
      </trkpt>
      <trkpt lat="45.15357" lon="2.69848">
        <ele>1117.5</ele>
        <time>2021-09-10T10:35:20.000Z</time>
      </trkpt>
      <trkpt lat="45.15354" lon="2.69839">
        <ele>1118.7</ele>
        <time>2021-09-10T10:35:29.000Z</time>
      </trkpt>
      <trkpt lat="45.15355" lon="2.69829">
        <ele>1122</ele>
        <time>2021-09-10T10:35:35.000Z</time>
      </trkpt>
      <trkpt lat="45.15353" lon="2.6982">
        <ele>1124.2</ele>
        <time>2021-09-10T10:35:45.000Z</time>
      </trkpt>
      <trkpt lat="45.15351" lon="2.6981">
        <ele>1126.8</ele>
        <time>2021-09-10T10:35:54.000Z</time>
      </trkpt>
      <trkpt lat="45.15347" lon="2.69802">
        <ele>1128.3</ele>
        <time>2021-09-10T10:36:04.000Z</time>
      </trkpt>
      <trkpt lat="45.15344" lon="2.69793">
        <ele>1130.5</ele>
        <time>2021-09-10T10:36:17.000Z</time>
      </trkpt>
      <trkpt lat="45.15341" lon="2.69785">
        <ele>1132.6</ele>
        <time>2021-09-10T10:36:30.000Z</time>
      </trkpt>
      <trkpt lat="45.15344" lon="2.69776">
        <ele>1136.6</ele>
        <time>2021-09-10T10:36:41.000Z</time>
      </trkpt>
      <trkpt lat="45.15343" lon="2.69766">
        <ele>1139.9</ele>
        <time>2021-09-10T10:36:50.000Z</time>
      </trkpt>
      <trkpt lat="45.1534" lon="2.69758">
        <ele>1142.2</ele>
        <time>2021-09-10T10:36:58.000Z</time>
      </trkpt>
      <trkpt lat="45.15336" lon="2.6975">
        <ele>1144.4</ele>
        <time>2021-09-10T10:37:06.000Z</time>
      </trkpt>
      <trkpt lat="45.15332" lon="2.69741">
        <ele>1146</ele>
        <time>2021-09-10T10:37:44.000Z</time>
      </trkpt>
      <trkpt lat="45.15334" lon="2.69732">
        <ele>1149.1</ele>
        <time>2021-09-10T10:37:51.000Z</time>
      </trkpt>
      <trkpt lat="45.15329" lon="2.69727">
        <ele>1148.9</ele>
        <time>2021-09-10T10:38:19.000Z</time>
      </trkpt>
      <trkpt lat="45.15332" lon="2.69719">
        <ele>1152.1</ele>
        <time>2021-09-10T10:38:33.000Z</time>
      </trkpt>
      <trkpt lat="45.15326" lon="2.69716">
        <ele>1151.1</ele>
        <time>2021-09-10T10:39:00.000Z</time>
      </trkpt>
      <trkpt lat="45.1532" lon="2.69724">
        <ele>1146.8</ele>
        <time>2021-09-10T10:39:05.000Z</time>
      </trkpt>
      <trkpt lat="45.15313" lon="2.69728">
        <ele>1143.3</ele>
        <time>2021-09-10T10:39:10.000Z</time>
      </trkpt>
      <trkpt lat="45.15308" lon="2.69721">
        <ele>1143.8</ele>
        <time>2021-09-10T10:39:15.000Z</time>
      </trkpt>
      <trkpt lat="45.15303" lon="2.69713">
        <ele>1144.7</ele>
        <time>2021-09-10T10:39:21.000Z</time>
      </trkpt>
      <trkpt lat="45.15303" lon="2.69703">
        <ele>1147.9</ele>
        <time>2021-09-10T10:39:30.000Z</time>
      </trkpt>
      <trkpt lat="45.1531" lon="2.69706">
        <ele>1149.1</ele>
        <time>2021-09-10T10:39:59.000Z</time>
      </trkpt>
      <trkpt lat="45.15316" lon="2.69704">
        <ele>1151.5</ele>
        <time>2021-09-10T10:40:29.000Z</time>
      </trkpt>
      <trkpt lat="45.1532" lon="2.69694">
        <ele>1155.6</ele>
        <time>2021-09-10T10:40:49.000Z</time>
      </trkpt>
      <trkpt lat="45.15325" lon="2.69688">
        <ele>1158.8</ele>
        <time>2021-09-10T10:40:53.000Z</time>
      </trkpt>
      <trkpt lat="45.1533" lon="2.6968">
        <ele>1162.4</ele>
        <time>2021-09-10T10:40:57.000Z</time>
      </trkpt>
      <trkpt lat="45.15336" lon="2.69669">
        <ele>1166.3</ele>
        <time>2021-09-10T10:41:03.000Z</time>
      </trkpt>
      <trkpt lat="45.15342" lon="2.6966">
        <ele>1167.3</ele>
        <time>2021-09-10T10:41:09.000Z</time>
      </trkpt>
      <trkpt lat="45.15347" lon="2.69651">
        <ele>1168</ele>
        <time>2021-09-10T10:41:15.000Z</time>
      </trkpt>
      <trkpt lat="45.15352" lon="2.69645">
        <ele>1168.3</ele>
        <time>2021-09-10T10:41:21.000Z</time>
      </trkpt>
      <trkpt lat="45.15356" lon="2.69637">
        <ele>1168.9</ele>
        <time>2021-09-10T10:41:28.000Z</time>
      </trkpt>
      <trkpt lat="45.1536" lon="2.69628">
        <ele>1169.5</ele>
        <time>2021-09-10T10:41:33.000Z</time>
      </trkpt>
      <trkpt lat="45.15365" lon="2.69621">
        <ele>1169.9</ele>
        <time>2021-09-10T10:41:39.000Z</time>
      </trkpt>
      <trkpt lat="45.15371" lon="2.69615">
        <ele>1170.2</ele>
        <time>2021-09-10T10:41:45.000Z</time>
      </trkpt>
      <trkpt lat="45.15378" lon="2.6961">
        <ele>1170.3</ele>
        <time>2021-09-10T10:41:51.000Z</time>
      </trkpt>
      <trkpt lat="45.15382" lon="2.69602">
        <ele>1170.8</ele>
        <time>2021-09-10T10:42:11.000Z</time>
      </trkpt>
      <trkpt lat="45.15387" lon="2.69595">
        <ele>1171.2</ele>
        <time>2021-09-10T10:42:17.000Z</time>
      </trkpt>
      <trkpt lat="45.15391" lon="2.69585">
        <ele>1171.8</ele>
        <time>2021-09-10T10:42:23.000Z</time>
      </trkpt>
      <trkpt lat="45.15394" lon="2.69576">
        <ele>1172</ele>
        <time>2021-09-10T10:42:28.000Z</time>
      </trkpt>
      <trkpt lat="45.15397" lon="2.69567">
        <ele>1172.2</ele>
        <time>2021-09-10T10:42:34.000Z</time>
      </trkpt>
      <trkpt lat="45.154" lon="2.69558">
        <ele>1172.4</ele>
        <time>2021-09-10T10:42:40.000Z</time>
      </trkpt>
      <trkpt lat="45.15403" lon="2.6955">
        <ele>1172.6</ele>
        <time>2021-09-10T10:42:52.000Z</time>
      </trkpt>
      <trkpt lat="45.15404" lon="2.6954">
        <ele>1172.9</ele>
        <time>2021-09-10T10:43:10.000Z</time>
      </trkpt>
      <trkpt lat="45.15402" lon="2.69531">
        <ele>1173.2</ele>
        <time>2021-09-10T10:43:19.000Z</time>
      </trkpt>
      <trkpt lat="45.154" lon="2.69521">
        <ele>1173.5</ele>
        <time>2021-09-10T10:43:42.000Z</time>
      </trkpt>
      <trkpt lat="45.15397" lon="2.69512">
        <ele>1173.9</ele>
        <time>2021-09-10T10:43:49.000Z</time>
      </trkpt>
      <trkpt lat="45.15393" lon="2.69502">
        <ele>1174.2</ele>
        <time>2021-09-10T10:43:55.000Z</time>
      </trkpt>
      <trkpt lat="45.15389" lon="2.69493">
        <ele>1174.1</ele>
        <time>2021-09-10T10:44:01.000Z</time>
      </trkpt>
      <trkpt lat="45.15385" lon="2.69485">
        <ele>1174</ele>
        <time>2021-09-10T10:44:07.000Z</time>
      </trkpt>
      <trkpt lat="45.1538" lon="2.69477">
        <ele>1173.8</ele>
        <time>2021-09-10T10:44:18.000Z</time>
      </trkpt>
      <trkpt lat="45.15376" lon="2.69469">
        <ele>1173.6</ele>
        <time>2021-09-10T10:44:24.000Z</time>
      </trkpt>
      <trkpt lat="45.15373" lon="2.6946">
        <ele>1173.3</ele>
        <time>2021-09-10T10:44:29.000Z</time>
      </trkpt>
      <trkpt lat="45.1537" lon="2.69452">
        <ele>1173.1</ele>
        <time>2021-09-10T10:44:35.000Z</time>
      </trkpt>
      <trkpt lat="45.15365" lon="2.69444">
        <ele>1172.9</ele>
        <time>2021-09-10T10:44:42.000Z</time>
      </trkpt>
      <trkpt lat="45.15358" lon="2.6944">
        <ele>1172.8</ele>
        <time>2021-09-10T10:45:25.000Z</time>
      </trkpt>
      <trkpt lat="45.15353" lon="2.69446">
        <ele>1173</ele>
        <time>2021-09-10T10:45:34.000Z</time>
      </trkpt>
      <trkpt lat="45.15347" lon="2.69445">
        <ele>1173</ele>
        <time>2021-09-10T10:45:40.000Z</time>
      </trkpt>
      <trkpt lat="45.15341" lon="2.69451">
        <ele>1173.2</ele>
        <time>2021-09-10T10:45:55.000Z</time>
      </trkpt>
      <trkpt lat="45.15334" lon="2.69454">
        <ele>1173.3</ele>
        <time>2021-09-10T10:46:07.000Z</time>
      </trkpt>
      <trkpt lat="45.15328" lon="2.69449">
        <ele>1173.5</ele>
        <time>2021-09-10T10:46:14.000Z</time>
      </trkpt>
      <trkpt lat="45.1532" lon="2.69445">
        <ele>1173.9</ele>
        <time>2021-09-10T10:46:19.000Z</time>
      </trkpt>
      <trkpt lat="45.15314" lon="2.69442">
        <ele>1174.2</ele>
        <time>2021-09-10T10:46:25.000Z</time>
      </trkpt>
      <trkpt lat="45.15306" lon="2.6944">
        <ele>1174.7</ele>
        <time>2021-09-10T10:46:29.000Z</time>
      </trkpt>
      <trkpt lat="45.15293" lon="2.69438">
        <ele>1175.5</ele>
        <time>2021-09-10T10:46:35.000Z</time>
      </trkpt>
      <trkpt lat="45.15284" lon="2.69435">
        <ele>1176.2</ele>
        <time>2021-09-10T10:46:41.000Z</time>
      </trkpt>
      <trkpt lat="45.15275" lon="2.69432">
        <ele>1176.8</ele>
        <time>2021-09-10T10:46:47.000Z</time>
      </trkpt>
      <trkpt lat="45.15268" lon="2.69429">
        <ele>1177.4</ele>
        <time>2021-09-10T10:46:53.000Z</time>
      </trkpt>
      <trkpt lat="45.1526" lon="2.69424">
        <ele>1178</ele>
        <time>2021-09-10T10:46:59.000Z</time>
      </trkpt>
      <trkpt lat="45.15254" lon="2.69422">
        <ele>1178.6</ele>
        <time>2021-09-10T10:47:05.000Z</time>
      </trkpt>
      <trkpt lat="45.15246" lon="2.69416">
        <ele>1179.1</ele>
        <time>2021-09-10T10:47:11.000Z</time>
      </trkpt>
      <trkpt lat="45.1524" lon="2.69409">
        <ele>1179.2</ele>
        <time>2021-09-10T10:47:17.000Z</time>
      </trkpt>
      <trkpt lat="45.15232" lon="2.69403">
        <ele>1179.4</ele>
        <time>2021-09-10T10:47:23.000Z</time>
      </trkpt>
      <trkpt lat="45.15225" lon="2.69399">
        <ele>1179.7</ele>
        <time>2021-09-10T10:47:29.000Z</time>
      </trkpt>
      <trkpt lat="45.15216" lon="2.69394">
        <ele>1180.2</ele>
        <time>2021-09-10T10:47:35.000Z</time>
      </trkpt>
      <trkpt lat="45.15209" lon="2.6939">
        <ele>1180.6</ele>
        <time>2021-09-10T10:47:41.000Z</time>
      </trkpt>
      <trkpt lat="45.15203" lon="2.69386">
        <ele>1181</ele>
        <time>2021-09-10T10:48:05.000Z</time>
      </trkpt>
      <trkpt lat="45.15196" lon="2.69383">
        <ele>1181.6</ele>
        <time>2021-09-10T10:48:13.000Z</time>
      </trkpt>
      <trkpt lat="45.1519" lon="2.69379">
        <ele>1182.1</ele>
        <time>2021-09-10T10:48:24.000Z</time>
      </trkpt>
      <trkpt lat="45.15184" lon="2.69376">
        <ele>1182.6</ele>
        <time>2021-09-10T10:48:29.000Z</time>
      </trkpt>
      <trkpt lat="45.15177" lon="2.69372">
        <ele>1183.3</ele>
        <time>2021-09-10T10:48:35.000Z</time>
      </trkpt>
      <trkpt lat="45.15172" lon="2.69366">
        <ele>1184</ele>
        <time>2021-09-10T10:48:42.000Z</time>
      </trkpt>
      <trkpt lat="45.15165" lon="2.6936">
        <ele>1184.9</ele>
        <time>2021-09-10T10:48:48.000Z</time>
      </trkpt>
      <trkpt lat="45.15158" lon="2.69355">
        <ele>1185.8</ele>
        <time>2021-09-10T10:48:53.000Z</time>
      </trkpt>
      <trkpt lat="45.15151" lon="2.69349">
        <ele>1186.8</ele>
        <time>2021-09-10T10:48:59.000Z</time>
      </trkpt>
      <trkpt lat="45.15142" lon="2.69342">
        <ele>1188.2</ele>
        <time>2021-09-10T10:49:05.000Z</time>
      </trkpt>
      <trkpt lat="45.15135" lon="2.69334">
        <ele>1189.4</ele>
        <time>2021-09-10T10:49:11.000Z</time>
      </trkpt>
      <trkpt lat="45.15127" lon="2.69327">
        <ele>1190.2</ele>
        <time>2021-09-10T10:49:17.000Z</time>
      </trkpt>
      <trkpt lat="45.15118" lon="2.69322">
        <ele>1191.2</ele>
        <time>2021-09-10T10:49:23.000Z</time>
      </trkpt>
      <trkpt lat="45.15113" lon="2.69317">
        <ele>1191.8</ele>
        <time>2021-09-10T10:49:29.000Z</time>
      </trkpt>
      <trkpt lat="45.15105" lon="2.69311">
        <ele>1192.7</ele>
        <time>2021-09-10T10:49:35.000Z</time>
      </trkpt>
      <trkpt lat="45.15098" lon="2.69304">
        <ele>1193.6</ele>
        <time>2021-09-10T10:49:41.000Z</time>
      </trkpt>
      <trkpt lat="45.15091" lon="2.69297">
        <ele>1194.5</ele>
        <time>2021-09-10T10:49:47.000Z</time>
      </trkpt>
      <trkpt lat="45.15085" lon="2.69292">
        <ele>1195.3</ele>
        <time>2021-09-10T10:49:53.000Z</time>
      </trkpt>
      <trkpt lat="45.15076" lon="2.69283">
        <ele>1195.9</ele>
        <time>2021-09-10T10:49:59.000Z</time>
      </trkpt>
      <trkpt lat="45.15069" lon="2.69277">
        <ele>1196.3</ele>
        <time>2021-09-10T10:50:05.000Z</time>
      </trkpt>
      <trkpt lat="45.15061" lon="2.69269">
        <ele>1196.7</ele>
        <time>2021-09-10T10:50:11.000Z</time>
      </trkpt>
      <trkpt lat="45.15052" lon="2.69263">
        <ele>1197.1</ele>
        <time>2021-09-10T10:50:17.000Z</time>
      </trkpt>
      <trkpt lat="45.15044" lon="2.69256">
        <ele>1197.4</ele>
        <time>2021-09-10T10:50:23.000Z</time>
      </trkpt>
      <trkpt lat="45.15037" lon="2.69253">
        <ele>1197.7</ele>
        <time>2021-09-10T10:51:04.000Z</time>
      </trkpt>
      <trkpt lat="45.15031" lon="2.69246">
        <ele>1197.6</ele>
        <time>2021-09-10T10:51:10.000Z</time>
      </trkpt>
      <trkpt lat="45.15025" lon="2.69239">
        <ele>1197.3</ele>
        <time>2021-09-10T10:51:16.000Z</time>
      </trkpt>
      <trkpt lat="45.15019" lon="2.69232">
        <ele>1197</ele>
        <time>2021-09-10T10:51:21.000Z</time>
      </trkpt>
      <trkpt lat="45.15013" lon="2.69227">
        <ele>1197</ele>
        <time>2021-09-10T10:51:26.000Z</time>
      </trkpt>
      <trkpt lat="45.15007" lon="2.69222">
        <ele>1197</ele>
        <time>2021-09-10T10:51:31.000Z</time>
      </trkpt>
      <trkpt lat="45.15001" lon="2.69216">
        <ele>1196.9</ele>
        <time>2021-09-10T10:51:36.000Z</time>
      </trkpt>
      <trkpt lat="45.14995" lon="2.6921">
        <ele>1196.9</ele>
        <time>2021-09-10T10:51:41.000Z</time>
      </trkpt>
      <trkpt lat="45.14988" lon="2.69203">
        <ele>1196.8</ele>
        <time>2021-09-10T10:51:47.000Z</time>
      </trkpt>
      <trkpt lat="45.14981" lon="2.69194">
        <ele>1196.7</ele>
        <time>2021-09-10T10:51:53.000Z</time>
      </trkpt>
      <trkpt lat="45.14974" lon="2.69186">
        <ele>1196.6</ele>
        <time>2021-09-10T10:51:59.000Z</time>
      </trkpt>
      <trkpt lat="45.14968" lon="2.69178">
        <ele>1196.5</ele>
        <time>2021-09-10T10:52:05.000Z</time>
      </trkpt>
      <trkpt lat="45.14962" lon="2.69171">
        <ele>1196.5</ele>
        <time>2021-09-10T10:52:11.000Z</time>
      </trkpt>
      <trkpt lat="45.14957" lon="2.69165">
        <ele>1196.5</ele>
        <time>2021-09-10T10:52:18.000Z</time>
      </trkpt>
      <trkpt lat="45.14951" lon="2.69157">
        <ele>1196.5</ele>
        <time>2021-09-10T10:52:31.000Z</time>
      </trkpt>
      <trkpt lat="45.14946" lon="2.6915">
        <ele>1196.5</ele>
        <time>2021-09-10T10:52:35.000Z</time>
      </trkpt>
      <trkpt lat="45.14939" lon="2.69141">
        <ele>1196.6</ele>
        <time>2021-09-10T10:52:41.000Z</time>
      </trkpt>
      <trkpt lat="45.14932" lon="2.69134">
        <ele>1196.9</ele>
        <time>2021-09-10T10:52:47.000Z</time>
      </trkpt>
      <trkpt lat="45.14925" lon="2.69127">
        <ele>1197.3</ele>
        <time>2021-09-10T10:52:53.000Z</time>
      </trkpt>
      <trkpt lat="45.14917" lon="2.69118">
        <ele>1197.8</ele>
        <time>2021-09-10T10:52:59.000Z</time>
      </trkpt>
      <trkpt lat="45.1491" lon="2.6911">
        <ele>1198.2</ele>
        <time>2021-09-10T10:53:05.000Z</time>
      </trkpt>
      <trkpt lat="45.14904" lon="2.69103">
        <ele>1198.7</ele>
        <time>2021-09-10T10:53:11.000Z</time>
      </trkpt>
      <trkpt lat="45.14896" lon="2.69092">
        <ele>1199.3</ele>
        <time>2021-09-10T10:53:17.000Z</time>
      </trkpt>
      <trkpt lat="45.14891" lon="2.69084">
        <ele>1199.8</ele>
        <time>2021-09-10T10:53:22.000Z</time>
      </trkpt>
      <trkpt lat="45.14886" lon="2.69076">
        <ele>1200.2</ele>
        <time>2021-09-10T10:53:27.000Z</time>
      </trkpt>
      <trkpt lat="45.1488" lon="2.69066">
        <ele>1200.8</ele>
        <time>2021-09-10T10:53:33.000Z</time>
      </trkpt>
      <trkpt lat="45.14873" lon="2.69058">
        <ele>1201.4</ele>
        <time>2021-09-10T10:53:39.000Z</time>
      </trkpt>
      <trkpt lat="45.14864" lon="2.69049">
        <ele>1202.3</ele>
        <time>2021-09-10T10:53:45.000Z</time>
      </trkpt>
      <trkpt lat="45.14855" lon="2.69041">
        <ele>1203.2</ele>
        <time>2021-09-10T10:53:51.000Z</time>
      </trkpt>
      <trkpt lat="45.14847" lon="2.69032">
        <ele>1203.9</ele>
        <time>2021-09-10T10:53:57.000Z</time>
      </trkpt>
      <trkpt lat="45.14842" lon="2.69025">
        <ele>1204.4</ele>
        <time>2021-09-10T10:54:05.000Z</time>
      </trkpt>
      <trkpt lat="45.14837" lon="2.69018">
        <ele>1204.8</ele>
        <time>2021-09-10T10:54:11.000Z</time>
      </trkpt>
      <trkpt lat="45.14831" lon="2.69012">
        <ele>1205.3</ele>
        <time>2021-09-10T10:54:17.000Z</time>
      </trkpt>
      <trkpt lat="45.14826" lon="2.69004">
        <ele>1205.4</ele>
        <time>2021-09-10T10:54:23.000Z</time>
      </trkpt>
      <trkpt lat="45.14821" lon="2.68997">
        <ele>1205.5</ele>
        <time>2021-09-10T10:54:28.000Z</time>
      </trkpt>
      <trkpt lat="45.14816" lon="2.6899">
        <ele>1205.4</ele>
        <time>2021-09-10T10:54:33.000Z</time>
      </trkpt>
      <trkpt lat="45.14809" lon="2.68982">
        <ele>1205.5</ele>
        <time>2021-09-10T10:54:39.000Z</time>
      </trkpt>
      <trkpt lat="45.14803" lon="2.68976">
        <ele>1205.6</ele>
        <time>2021-09-10T10:54:45.000Z</time>
      </trkpt>
      <trkpt lat="45.14796" lon="2.68968">
        <ele>1205.8</ele>
        <time>2021-09-10T10:54:51.000Z</time>
      </trkpt>
      <trkpt lat="45.14789" lon="2.6896">
        <ele>1206</ele>
        <time>2021-09-10T10:54:57.000Z</time>
      </trkpt>
      <trkpt lat="45.14782" lon="2.68952">
        <ele>1206.2</ele>
        <time>2021-09-10T10:55:03.000Z</time>
      </trkpt>
      <trkpt lat="45.14776" lon="2.68945">
        <ele>1206.5</ele>
        <time>2021-09-10T10:55:09.000Z</time>
      </trkpt>
      <trkpt lat="45.1477" lon="2.68939">
        <ele>1206.8</ele>
        <time>2021-09-10T10:55:15.000Z</time>
      </trkpt>
      <trkpt lat="45.14763" lon="2.68933">
        <ele>1207.2</ele>
        <time>2021-09-10T10:55:21.000Z</time>
      </trkpt>
      <trkpt lat="45.14757" lon="2.68926">
        <ele>1207.6</ele>
        <time>2021-09-10T10:55:27.000Z</time>
      </trkpt>
      <trkpt lat="45.1475" lon="2.68915">
        <ele>1207.9</ele>
        <time>2021-09-10T10:55:33.000Z</time>
      </trkpt>
      <trkpt lat="45.14742" lon="2.68907">
        <ele>1208.1</ele>
        <time>2021-09-10T10:55:39.000Z</time>
      </trkpt>
      <trkpt lat="45.14734" lon="2.68898">
        <ele>1208.3</ele>
        <time>2021-09-10T10:55:45.000Z</time>
      </trkpt>
      <trkpt lat="45.14725" lon="2.68891">
        <ele>1208.7</ele>
        <time>2021-09-10T10:55:51.000Z</time>
      </trkpt>
      <trkpt lat="45.14718" lon="2.68885">
        <ele>1208.9</ele>
        <time>2021-09-10T10:55:57.000Z</time>
      </trkpt>
      <trkpt lat="45.14711" lon="2.68878">
        <ele>1209</ele>
        <time>2021-09-10T10:56:03.000Z</time>
      </trkpt>
      <trkpt lat="45.14705" lon="2.68871">
        <ele>1209</ele>
        <time>2021-09-10T10:56:09.000Z</time>
      </trkpt>
      <trkpt lat="45.14698" lon="2.68871">
        <ele>1209.6</ele>
        <time>2021-09-10T10:56:30.000Z</time>
      </trkpt>
      <trkpt lat="45.14691" lon="2.68868">
        <ele>1210</ele>
        <time>2021-09-10T10:56:37.000Z</time>
      </trkpt>
      <trkpt lat="45.14684" lon="2.68862">
        <ele>1210.2</ele>
        <time>2021-09-10T10:56:43.000Z</time>
      </trkpt>
      <trkpt lat="45.14677" lon="2.68856">
        <ele>1210.2</ele>
        <time>2021-09-10T10:56:48.000Z</time>
      </trkpt>
      <trkpt lat="45.14671" lon="2.68851">
        <ele>1210.3</ele>
        <time>2021-09-10T10:56:53.000Z</time>
      </trkpt>
      <trkpt lat="45.14665" lon="2.68845">
        <ele>1210.3</ele>
        <time>2021-09-10T10:56:59.000Z</time>
      </trkpt>
      <trkpt lat="45.14657" lon="2.6884">
        <ele>1210.6</ele>
        <time>2021-09-10T10:57:04.000Z</time>
      </trkpt>
      <trkpt lat="45.1465" lon="2.68835">
        <ele>1210.9</ele>
        <time>2021-09-10T10:57:09.000Z</time>
      </trkpt>
      <trkpt lat="45.14642" lon="2.68831">
        <ele>1211.5</ele>
        <time>2021-09-10T10:57:15.000Z</time>
      </trkpt>
      <trkpt lat="45.14635" lon="2.68829">
        <ele>1212.1</ele>
        <time>2021-09-10T10:57:21.000Z</time>
      </trkpt>
      <trkpt lat="45.14626" lon="2.68826">
        <ele>1212.9</ele>
        <time>2021-09-10T10:57:27.000Z</time>
      </trkpt>
      <trkpt lat="45.14618" lon="2.68823">
        <ele>1213.6</ele>
        <time>2021-09-10T10:57:33.000Z</time>
      </trkpt>
      <trkpt lat="45.14609" lon="2.68821">
        <ele>1214.6</ele>
        <time>2021-09-10T10:57:39.000Z</time>
      </trkpt>
      <trkpt lat="45.146" lon="2.68815">
        <ele>1215.5</ele>
        <time>2021-09-10T10:57:45.000Z</time>
      </trkpt>
      <trkpt lat="45.14593" lon="2.68813">
        <ele>1216.3</ele>
        <time>2021-09-10T10:57:51.000Z</time>
      </trkpt>
      <trkpt lat="45.14582" lon="2.68808">
        <ele>1217.5</ele>
        <time>2021-09-10T10:57:57.000Z</time>
      </trkpt>
      <trkpt lat="45.14573" lon="2.68803">
        <ele>1218.5</ele>
        <time>2021-09-10T10:58:03.000Z</time>
      </trkpt>
      <trkpt lat="45.14566" lon="2.68798">
        <ele>1219.2</ele>
        <time>2021-09-10T10:58:09.000Z</time>
      </trkpt>
      <trkpt lat="45.1456" lon="2.68794">
        <ele>1219.8</ele>
        <time>2021-09-10T10:58:15.000Z</time>
      </trkpt>
      <trkpt lat="45.14553" lon="2.6879">
        <ele>1220.6</ele>
        <time>2021-09-10T10:58:22.000Z</time>
      </trkpt>
      <trkpt lat="45.14547" lon="2.68782">
        <ele>1221.2</ele>
        <time>2021-09-10T10:58:29.000Z</time>
      </trkpt>
      <trkpt lat="45.14544" lon="2.68772">
        <ele>1221.5</ele>
        <time>2021-09-10T10:58:35.000Z</time>
      </trkpt>
      <trkpt lat="45.14545" lon="2.68763">
        <ele>1221.2</ele>
        <time>2021-09-10T10:58:42.000Z</time>
      </trkpt>
      <trkpt lat="45.14538" lon="2.68757">
        <ele>1222.1</ele>
        <time>2021-09-10T10:58:57.000Z</time>
      </trkpt>
      <trkpt lat="45.14528" lon="2.68761">
        <ele>1223.4</ele>
        <time>2021-09-10T10:59:03.000Z</time>
      </trkpt>
      <trkpt lat="45.14521" lon="2.68759">
        <ele>1224.3</ele>
        <time>2021-09-10T10:59:12.000Z</time>
      </trkpt>
      <trkpt lat="45.14515" lon="2.68755">
        <ele>1225</ele>
        <time>2021-09-10T10:59:23.000Z</time>
      </trkpt>
      <trkpt lat="45.14508" lon="2.68756">
        <ele>1226</ele>
        <time>2021-09-10T10:59:30.000Z</time>
      </trkpt>
      <trkpt lat="45.14501" lon="2.68754">
        <ele>1226.9</ele>
        <time>2021-09-10T10:59:34.000Z</time>
      </trkpt>
      <trkpt lat="45.14494" lon="2.68754">
        <ele>1228.6</ele>
        <time>2021-09-10T10:59:39.000Z</time>
      </trkpt>
      <trkpt lat="45.14487" lon="2.6875">
        <ele>1230.6</ele>
        <time>2021-09-10T10:59:44.000Z</time>
      </trkpt>
      <trkpt lat="45.1448" lon="2.68748">
        <ele>1232.4</ele>
        <time>2021-09-10T10:59:50.000Z</time>
      </trkpt>
      <trkpt lat="45.1447" lon="2.68749">
        <ele>1235.2</ele>
        <time>2021-09-10T10:59:56.000Z</time>
      </trkpt>
      <trkpt lat="45.14465" lon="2.68744">
        <ele>1236.3</ele>
        <time>2021-09-10T11:00:11.000Z</time>
      </trkpt>
      <trkpt lat="45.14458" lon="2.68744">
        <ele>1238.2</ele>
        <time>2021-09-10T11:00:16.000Z</time>
      </trkpt>
      <trkpt lat="45.14451" lon="2.6874">
        <ele>1239.7</ele>
        <time>2021-09-10T11:00:22.000Z</time>
      </trkpt>
      <trkpt lat="45.14444" lon="2.68739">
        <ele>1241.5</ele>
        <time>2021-09-10T11:00:29.000Z</time>
      </trkpt>
      <trkpt lat="45.14438" lon="2.68738">
        <ele>1243</ele>
        <time>2021-09-10T11:00:33.000Z</time>
      </trkpt>
      <trkpt lat="45.14431" lon="2.68735">
        <ele>1244.6</ele>
        <time>2021-09-10T11:00:40.000Z</time>
      </trkpt>
      <trkpt lat="45.14425" lon="2.68731">
        <ele>1245.8</ele>
        <time>2021-09-10T11:00:47.000Z</time>
      </trkpt>
      <trkpt lat="45.1442" lon="2.68724">
        <ele>1246.3</ele>
        <time>2021-09-10T11:00:54.000Z</time>
      </trkpt>
      <trkpt lat="45.14416" lon="2.68716">
        <ele>1246.5</ele>
        <time>2021-09-10T11:01:01.000Z</time>
      </trkpt>
      <trkpt lat="45.14411" lon="2.68708">
        <ele>1246.5</ele>
        <time>2021-09-10T11:01:08.000Z</time>
      </trkpt>
      <trkpt lat="45.14406" lon="2.687">
        <ele>1246.5</ele>
        <time>2021-09-10T11:01:14.000Z</time>
      </trkpt>
      <trkpt lat="45.14401" lon="2.68693">
        <ele>1246.4</ele>
        <time>2021-09-10T11:01:20.000Z</time>
      </trkpt>
      <trkpt lat="45.14396" lon="2.68686">
        <ele>1246.3</ele>
        <time>2021-09-10T11:01:26.000Z</time>
      </trkpt>
      <trkpt lat="45.14391" lon="2.6868">
        <ele>1246.3</ele>
        <time>2021-09-10T11:01:32.000Z</time>
      </trkpt>
      <trkpt lat="45.14385" lon="2.68674">
        <ele>1246.3</ele>
        <time>2021-09-10T11:01:38.000Z</time>
      </trkpt>
      <trkpt lat="45.14378" lon="2.68673">
        <ele>1247.1</ele>
        <time>2021-09-10T11:01:42.000Z</time>
      </trkpt>
      <trkpt lat="45.14368" lon="2.68669">
        <ele>1247.8</ele>
        <time>2021-09-10T11:01:48.000Z</time>
      </trkpt>
      <trkpt lat="45.14362" lon="2.68663">
        <ele>1247.6</ele>
        <time>2021-09-10T11:01:54.000Z</time>
      </trkpt>
      <trkpt lat="45.14355" lon="2.68657">
        <ele>1247.6</ele>
        <time>2021-09-10T11:02:00.000Z</time>
      </trkpt>
      <trkpt lat="45.1435" lon="2.68647">
        <ele>1246.7</ele>
        <time>2021-09-10T11:02:06.000Z</time>
      </trkpt>
      <trkpt lat="45.14346" lon="2.6864">
        <ele>1246.2</ele>
        <time>2021-09-10T11:02:12.000Z</time>
      </trkpt>
      <trkpt lat="45.14342" lon="2.68632">
        <ele>1245.4</ele>
        <time>2021-09-10T11:02:18.000Z</time>
      </trkpt>
      <trkpt lat="45.14338" lon="2.68624">
        <ele>1244.7</ele>
        <time>2021-09-10T11:02:25.000Z</time>
      </trkpt>
      <trkpt lat="45.14332" lon="2.68617">
        <ele>1244.6</ele>
        <time>2021-09-10T11:02:32.000Z</time>
      </trkpt>
      <trkpt lat="45.14326" lon="2.68611">
        <ele>1245.3</ele>
        <time>2021-09-10T11:02:41.000Z</time>
      </trkpt>
      <trkpt lat="45.1432" lon="2.68607">
        <ele>1246.3</ele>
        <time>2021-09-10T11:02:46.000Z</time>
      </trkpt>
      <trkpt lat="45.14313" lon="2.68601">
        <ele>1247.3</ele>
        <time>2021-09-10T11:02:52.000Z</time>
      </trkpt>
      <trkpt lat="45.14308" lon="2.68596">
        <ele>1247.8</ele>
        <time>2021-09-10T11:02:56.000Z</time>
      </trkpt>
      <trkpt lat="45.14304" lon="2.68587">
        <ele>1247.4</ele>
        <time>2021-09-10T11:03:02.000Z</time>
      </trkpt>
      <trkpt lat="45.14297" lon="2.68585">
        <ele>1248.9</ele>
        <time>2021-09-10T11:03:07.000Z</time>
      </trkpt>
      <trkpt lat="45.1429" lon="2.68582">
        <ele>1250.2</ele>
        <time>2021-09-10T11:03:14.000Z</time>
      </trkpt>
      <trkpt lat="45.14282" lon="2.68581">
        <ele>1252.2</ele>
        <time>2021-09-10T11:03:18.000Z</time>
      </trkpt>
      <trkpt lat="45.14275" lon="2.68577">
        <ele>1253.4</ele>
        <time>2021-09-10T11:03:24.000Z</time>
      </trkpt>
      <trkpt lat="45.14269" lon="2.68572">
        <ele>1254.1</ele>
        <time>2021-09-10T11:03:30.000Z</time>
      </trkpt>
      <trkpt lat="45.14262" lon="2.68567">
        <ele>1255</ele>
        <time>2021-09-10T11:03:35.000Z</time>
      </trkpt>
      <trkpt lat="45.14254" lon="2.68562">
        <ele>1256.2</ele>
        <time>2021-09-10T11:03:41.000Z</time>
      </trkpt>
      <trkpt lat="45.14248" lon="2.68551">
        <ele>1255.7</ele>
        <time>2021-09-10T11:03:47.000Z</time>
      </trkpt>
      <trkpt lat="45.14238" lon="2.68532">
        <ele>1254.7</ele>
        <time>2021-09-10T11:03:53.000Z</time>
      </trkpt>
      <trkpt lat="45.14231" lon="2.68523">
        <ele>1254.7</ele>
        <time>2021-09-10T11:03:59.000Z</time>
      </trkpt>
      <trkpt lat="45.14226" lon="2.68518">
        <ele>1254.9</ele>
        <time>2021-09-10T11:04:20.000Z</time>
      </trkpt>
      <trkpt lat="45.14221" lon="2.68511">
        <ele>1254.7</ele>
        <time>2021-09-10T11:04:24.000Z</time>
      </trkpt>
      <trkpt lat="45.14215" lon="2.68508">
        <ele>1255.5</ele>
        <time>2021-09-10T11:04:38.000Z</time>
      </trkpt>
      <trkpt lat="45.1421" lon="2.685">
        <ele>1255.1</ele>
        <time>2021-09-10T11:04:47.000Z</time>
      </trkpt>
      <trkpt lat="45.14204" lon="2.68494">
        <ele>1255.5</ele>
        <time>2021-09-10T11:04:53.000Z</time>
      </trkpt>
      <trkpt lat="45.14197" lon="2.68491">
        <ele>1256.5</ele>
        <time>2021-09-10T11:05:01.000Z</time>
      </trkpt>
      <trkpt lat="45.14191" lon="2.68486">
        <ele>1256.8</ele>
        <time>2021-09-10T11:05:07.000Z</time>
      </trkpt>
      <trkpt lat="45.14184" lon="2.68483">
        <ele>1257.7</ele>
        <time>2021-09-10T11:05:15.000Z</time>
      </trkpt>
      <trkpt lat="45.14178" lon="2.68484">
        <ele>1259.2</ele>
        <time>2021-09-10T11:05:23.000Z</time>
      </trkpt>
      <trkpt lat="45.14171" lon="2.68487">
        <ele>1261.3</ele>
        <time>2021-09-10T11:05:32.000Z</time>
      </trkpt>
      <trkpt lat="45.14164" lon="2.68484">
        <ele>1261.8</ele>
        <time>2021-09-10T11:05:41.000Z</time>
      </trkpt>
      <trkpt lat="45.14158" lon="2.68482">
        <ele>1262</ele>
        <time>2021-09-10T11:05:47.000Z</time>
      </trkpt>
      <trkpt lat="45.14151" lon="2.68479">
        <ele>1262</ele>
        <time>2021-09-10T11:05:53.000Z</time>
      </trkpt>
      <trkpt lat="45.14142" lon="2.68478">
        <ele>1262.7</ele>
        <time>2021-09-10T11:05:57.000Z</time>
      </trkpt>
      <trkpt lat="45.14133" lon="2.68477">
        <ele>1263.4</ele>
        <time>2021-09-10T11:06:03.000Z</time>
      </trkpt>
      <trkpt lat="45.14127" lon="2.68472">
        <ele>1262.9</ele>
        <time>2021-09-10T11:06:09.000Z</time>
      </trkpt>
      <trkpt lat="45.14121" lon="2.68467">
        <ele>1262.5</ele>
        <time>2021-09-10T11:06:30.000Z</time>
      </trkpt>
      <trkpt lat="45.14115" lon="2.68464">
        <ele>1262.5</ele>
        <time>2021-09-10T11:06:43.000Z</time>
      </trkpt>
      <trkpt lat="45.14107" lon="2.68461">
        <ele>1262.6</ele>
        <time>2021-09-10T11:06:50.000Z</time>
      </trkpt>
      <trkpt lat="45.14101" lon="2.68457">
        <ele>1262.4</ele>
        <time>2021-09-10T11:06:55.000Z</time>
      </trkpt>
      <trkpt lat="45.14095" lon="2.68455">
        <ele>1262.6</ele>
        <time>2021-09-10T11:07:01.000Z</time>
      </trkpt>
      <trkpt lat="45.14089" lon="2.6845">
        <ele>1262.2</ele>
        <time>2021-09-10T11:07:08.000Z</time>
      </trkpt>
      <trkpt lat="45.14083" lon="2.68447">
        <ele>1262.2</ele>
        <time>2021-09-10T11:07:13.000Z</time>
      </trkpt>
      <trkpt lat="45.14076" lon="2.68445">
        <ele>1262.5</ele>
        <time>2021-09-10T11:07:17.000Z</time>
      </trkpt>
      <trkpt lat="45.1407" lon="2.68444">
        <ele>1262.9</ele>
        <time>2021-09-10T11:07:21.000Z</time>
      </trkpt>
      <trkpt lat="45.14057" lon="2.68442">
        <ele>1263.7</ele>
        <time>2021-09-10T11:07:27.000Z</time>
      </trkpt>
      <trkpt lat="45.14051" lon="2.6844">
        <ele>1263.8</ele>
        <time>2021-09-10T11:07:33.000Z</time>
      </trkpt>
      <trkpt lat="45.14044" lon="2.68443">
        <ele>1265.1</ele>
        <time>2021-09-10T11:07:39.000Z</time>
      </trkpt>
      <trkpt lat="45.14037" lon="2.68446">
        <ele>1266.5</ele>
        <time>2021-09-10T11:07:45.000Z</time>
      </trkpt>
      <trkpt lat="45.1403" lon="2.68451">
        <ele>1268.3</ele>
        <time>2021-09-10T11:07:52.000Z</time>
      </trkpt>
      <trkpt lat="45.14023" lon="2.68448">
        <ele>1268.3</ele>
        <time>2021-09-10T11:07:59.000Z</time>
      </trkpt>
      <trkpt lat="45.14016" lon="2.68452">
        <ele>1269.9</ele>
        <time>2021-09-10T11:08:04.000Z</time>
      </trkpt>
      <trkpt lat="45.1401" lon="2.68451">
        <ele>1270.3</ele>
        <time>2021-09-10T11:08:10.000Z</time>
      </trkpt>
      <trkpt lat="45.14003" lon="2.68452">
        <ele>1271.2</ele>
        <time>2021-09-10T11:08:15.000Z</time>
      </trkpt>
      <trkpt lat="45.13993" lon="2.6845">
        <ele>1272.8</ele>
        <time>2021-09-10T11:08:21.000Z</time>
      </trkpt>
      <trkpt lat="45.13984" lon="2.6845">
        <ele>1275.1</ele>
        <time>2021-09-10T11:08:27.000Z</time>
      </trkpt>
      <trkpt lat="45.13975" lon="2.68445">
        <ele>1276.2</ele>
        <time>2021-09-10T11:08:33.000Z</time>
      </trkpt>
      <trkpt lat="45.13965" lon="2.6844">
        <ele>1277.5</ele>
        <time>2021-09-10T11:08:39.000Z</time>
      </trkpt>
      <trkpt lat="45.13958" lon="2.6844">
        <ele>1279.3</ele>
        <time>2021-09-10T11:08:46.000Z</time>
      </trkpt>
      <trkpt lat="45.13947" lon="2.68444">
        <ele>1283.1</ele>
        <time>2021-09-10T11:08:51.000Z</time>
      </trkpt>
      <trkpt lat="45.13938" lon="2.68445">
        <ele>1285.7</ele>
        <time>2021-09-10T11:08:57.000Z</time>
      </trkpt>
      <trkpt lat="45.13931" lon="2.68444">
        <ele>1287.2</ele>
        <time>2021-09-10T11:09:04.000Z</time>
      </trkpt>
      <trkpt lat="45.13924" lon="2.68445">
        <ele>1289.3</ele>
        <time>2021-09-10T11:09:09.000Z</time>
      </trkpt>
      <trkpt lat="45.13917" lon="2.68444">
        <ele>1290.8</ele>
        <time>2021-09-10T11:09:15.000Z</time>
      </trkpt>
      <trkpt lat="45.13909" lon="2.68443">
        <ele>1292.6</ele>
        <time>2021-09-10T11:09:21.000Z</time>
      </trkpt>
      <trkpt lat="45.13897" lon="2.68432">
        <ele>1293.5</ele>
        <time>2021-09-10T11:09:27.000Z</time>
      </trkpt>
      <trkpt lat="45.13891" lon="2.68431">
        <ele>1295</ele>
        <time>2021-09-10T11:09:45.000Z</time>
      </trkpt>
      <trkpt lat="45.13884" lon="2.68427">
        <ele>1296.4</ele>
        <time>2021-09-10T11:09:51.000Z</time>
      </trkpt>
      <trkpt lat="45.13878" lon="2.68425">
        <ele>1297.8</ele>
        <time>2021-09-10T11:09:59.000Z</time>
      </trkpt>
      <trkpt lat="45.13872" lon="2.6842">
        <ele>1298.9</ele>
        <time>2021-09-10T11:10:07.000Z</time>
      </trkpt>
      <trkpt lat="45.13868" lon="2.68413">
        <ele>1299.2</ele>
        <time>2021-09-10T11:10:23.000Z</time>
      </trkpt>
      <trkpt lat="45.13862" lon="2.68411">
        <ele>1300.9</ele>
        <time>2021-09-10T11:10:29.000Z</time>
      </trkpt>
      <trkpt lat="45.13861" lon="2.68422">
        <ele>1302.7</ele>
        <time>2021-09-10T11:10:33.000Z</time>
      </trkpt>
      <trkpt lat="45.13859" lon="2.68414">
        <ele>1302.3</ele>
        <time>2021-09-10T11:10:59.000Z</time>
      </trkpt>
      <trkpt lat="45.13852" lon="2.68411">
        <ele>1304.2</ele>
        <time>2021-09-10T11:11:07.000Z</time>
      </trkpt>
      <trkpt lat="45.13846" lon="2.68407">
        <ele>1305.6</ele>
        <time>2021-09-10T11:11:13.000Z</time>
      </trkpt>
      <trkpt lat="45.13839" lon="2.68403">
        <ele>1307.5</ele>
        <time>2021-09-10T11:11:19.000Z</time>
      </trkpt>
      <trkpt lat="45.13833" lon="2.68397">
        <ele>1308.7</ele>
        <time>2021-09-10T11:11:26.000Z</time>
      </trkpt>
      <trkpt lat="45.13827" lon="2.68394">
        <ele>1308.8</ele>
        <time>2021-09-10T11:11:32.000Z</time>
      </trkpt>
      <trkpt lat="45.13822" lon="2.68387">
        <ele>1308.6</ele>
        <time>2021-09-10T11:11:42.000Z</time>
      </trkpt>
      <trkpt lat="45.13817" lon="2.68381">
        <ele>1308.7</ele>
        <time>2021-09-10T11:11:50.000Z</time>
      </trkpt>
      <trkpt lat="45.13812" lon="2.68375">
        <ele>1308.9</ele>
        <time>2021-09-10T11:12:00.000Z</time>
      </trkpt>
      <trkpt lat="45.13805" lon="2.68372">
        <ele>1309.8</ele>
        <time>2021-09-10T11:12:05.000Z</time>
      </trkpt>
      <trkpt lat="45.13799" lon="2.68371">
        <ele>1310.7</ele>
        <time>2021-09-10T11:12:13.000Z</time>
      </trkpt>
      <trkpt lat="45.13792" lon="2.68366">
        <ele>1311.7</ele>
        <time>2021-09-10T11:12:27.000Z</time>
      </trkpt>
      <trkpt lat="45.13785" lon="2.68363">
        <ele>1313</ele>
        <time>2021-09-10T11:12:37.000Z</time>
      </trkpt>
      <trkpt lat="45.1378" lon="2.68356">
        <ele>1314.1</ele>
        <time>2021-09-10T11:12:43.000Z</time>
      </trkpt>
      <trkpt lat="45.13771" lon="2.68354">
        <ele>1316</ele>
        <time>2021-09-10T11:12:58.000Z</time>
      </trkpt>
      <trkpt lat="45.13766" lon="2.68348">
        <ele>1317.5</ele>
        <time>2021-09-10T11:13:17.000Z</time>
      </trkpt>
      <trkpt lat="45.13762" lon="2.68339">
        <ele>1319.3</ele>
        <time>2021-09-10T11:13:37.000Z</time>
      </trkpt>
      <trkpt lat="45.13762" lon="2.6833">
        <ele>1320.3</ele>
        <time>2021-09-10T11:13:47.000Z</time>
      </trkpt>
      <trkpt lat="45.13759" lon="2.68322">
        <ele>1322.4</ele>
        <time>2021-09-10T11:13:56.000Z</time>
      </trkpt>
      <trkpt lat="45.13755" lon="2.68313">
        <ele>1324.8</ele>
        <time>2021-09-10T11:14:03.000Z</time>
      </trkpt>
      <trkpt lat="45.13748" lon="2.68308">
        <ele>1326.8</ele>
        <time>2021-09-10T11:14:19.000Z</time>
      </trkpt>
      <trkpt lat="45.13742" lon="2.68303">
        <ele>1327.3</ele>
        <time>2021-09-10T11:14:31.000Z</time>
      </trkpt>
      <trkpt lat="45.13735" lon="2.68303">
        <ele>1326.9</ele>
        <time>2021-09-10T11:14:42.000Z</time>
      </trkpt>
      <trkpt lat="45.13729" lon="2.68306">
        <ele>1326</ele>
        <time>2021-09-10T11:14:57.000Z</time>
      </trkpt>
      <trkpt lat="45.13723" lon="2.68304">
        <ele>1326</ele>
        <time>2021-09-10T11:15:08.000Z</time>
      </trkpt>
      <trkpt lat="45.13715" lon="2.68305">
        <ele>1325.3</ele>
        <time>2021-09-10T11:15:16.000Z</time>
      </trkpt>
      <trkpt lat="45.13709" lon="2.68308">
        <ele>1324.4</ele>
        <time>2021-09-10T11:15:24.000Z</time>
      </trkpt>
      <trkpt lat="45.13701" lon="2.68322">
        <ele>1320.8</ele>
        <time>2021-09-10T11:15:43.000Z</time>
      </trkpt>
      <trkpt lat="45.13693" lon="2.68323">
        <ele>1319.9</ele>
        <time>2021-09-10T11:16:06.000Z</time>
      </trkpt>
      <trkpt lat="45.13688" lon="2.68328">
        <ele>1318.3</ele>
        <time>2021-09-10T11:16:12.000Z</time>
      </trkpt>
      <trkpt lat="45.13682" lon="2.68334">
        <ele>1316.3</ele>
        <time>2021-09-10T11:16:18.000Z</time>
      </trkpt>
      <trkpt lat="45.1368" lon="2.68343">
        <ele>1313.8</ele>
        <time>2021-09-10T11:16:23.000Z</time>
      </trkpt>
      <trkpt lat="45.1368" lon="2.68352">
        <ele>1311.6</ele>
        <time>2021-09-10T11:16:32.000Z</time>
      </trkpt>
      <trkpt lat="45.13675" lon="2.68359">
        <ele>1309.1</ele>
        <time>2021-09-10T11:16:38.000Z</time>
      </trkpt>
      <trkpt lat="45.13669" lon="2.68355">
        <ele>1309.3</ele>
        <time>2021-09-10T11:17:07.000Z</time>
      </trkpt>
      <trkpt lat="45.13661" lon="2.68355">
        <ele>1307.9</ele>
        <time>2021-09-10T11:17:16.000Z</time>
      </trkpt>
      <trkpt lat="45.13655" lon="2.68353">
        <ele>1307.2</ele>
        <time>2021-09-10T11:17:22.000Z</time>
      </trkpt>
      <trkpt lat="45.13649" lon="2.68352">
        <ele>1306.3</ele>
        <time>2021-09-10T11:17:27.000Z</time>
      </trkpt>
      <trkpt lat="45.13645" lon="2.68344">
        <ele>1307.5</ele>
        <time>2021-09-10T11:17:47.000Z</time>
      </trkpt>
      <trkpt lat="45.13639" lon="2.68338">
        <ele>1307.8</ele>
        <time>2021-09-10T11:17:56.000Z</time>
      </trkpt>
      <trkpt lat="45.13635" lon="2.68331">
        <ele>1308.9</ele>
        <time>2021-09-10T11:18:03.000Z</time>
      </trkpt>
      <trkpt lat="45.1363" lon="2.68323">
        <ele>1310.2</ele>
        <time>2021-09-10T11:18:09.000Z</time>
      </trkpt>
      <trkpt lat="45.13626" lon="2.68315">
        <ele>1311.8</ele>
        <time>2021-09-10T11:18:15.000Z</time>
      </trkpt>
      <trkpt lat="45.13619" lon="2.68308">
        <ele>1312.6</ele>
        <time>2021-09-10T11:18:21.000Z</time>
      </trkpt>
      <trkpt lat="45.13612" lon="2.68305">
        <ele>1312.2</ele>
        <time>2021-09-10T11:18:27.000Z</time>
      </trkpt>
      <trkpt lat="45.13604" lon="2.68302">
        <ele>1311.7</ele>
        <time>2021-09-10T11:18:33.000Z</time>
      </trkpt>
      <trkpt lat="45.13595" lon="2.68299">
        <ele>1311.1</ele>
        <time>2021-09-10T11:18:39.000Z</time>
      </trkpt>
      <trkpt lat="45.13589" lon="2.68298">
        <ele>1310.3</ele>
        <time>2021-09-10T11:18:47.000Z</time>
      </trkpt>
      <trkpt lat="45.13582" lon="2.68293">
        <ele>1310.9</ele>
        <time>2021-09-10T11:18:53.000Z</time>
      </trkpt>
      <trkpt lat="45.13575" lon="2.68291">
        <ele>1311.2</ele>
        <time>2021-09-10T11:19:01.000Z</time>
      </trkpt>
      <trkpt lat="45.13568" lon="2.68285">
        <ele>1312.8</ele>
        <time>2021-09-10T11:19:09.000Z</time>
      </trkpt>
      <trkpt lat="45.13561" lon="2.68284">
        <ele>1312.7</ele>
        <time>2021-09-10T11:19:15.000Z</time>
      </trkpt>
      <trkpt lat="45.13553" lon="2.68285">
        <ele>1311.8</ele>
        <time>2021-09-10T11:19:21.000Z</time>
      </trkpt>
      <trkpt lat="45.13544" lon="2.68289">
        <ele>1309.8</ele>
        <time>2021-09-10T11:19:27.000Z</time>
      </trkpt>
      <trkpt lat="45.13532" lon="2.68291">
        <ele>1308.3</ele>
        <time>2021-09-10T11:19:33.000Z</time>
      </trkpt>
      <trkpt lat="45.13514" lon="2.68301">
        <ele>1303.6</ele>
        <time>2021-09-10T11:19:39.000Z</time>
      </trkpt>
      <trkpt lat="45.13503" lon="2.68312">
        <ele>1298.9</ele>
        <time>2021-09-10T11:19:45.000Z</time>
      </trkpt>
      <trkpt lat="45.13496" lon="2.68316">
        <ele>1297.5</ele>
        <time>2021-09-10T11:19:53.000Z</time>
      </trkpt>
      <trkpt lat="45.13489" lon="2.68311">
        <ele>1299.7</ele>
        <time>2021-09-10T11:20:05.000Z</time>
      </trkpt>
      <trkpt lat="45.13484" lon="2.68306">
        <ele>1301.7</ele>
        <time>2021-09-10T11:20:11.000Z</time>
      </trkpt>
      <trkpt lat="45.13476" lon="2.68305">
        <ele>1302.5</ele>
        <time>2021-09-10T11:20:19.000Z</time>
      </trkpt>
      <trkpt lat="45.1348" lon="2.68312">
        <ele>1299.9</ele>
        <time>2021-09-10T11:21:45.000Z</time>
      </trkpt>
      <trkpt lat="45.13486" lon="2.68317">
        <ele>1297.8</ele>
        <time>2021-09-10T11:21:54.000Z</time>
      </trkpt>
      <trkpt lat="45.1349" lon="2.68326">
        <ele>1294.4</ele>
        <time>2021-09-10T11:22:00.000Z</time>
      </trkpt>
      <trkpt lat="45.1349" lon="2.68335">
        <ele>1291.3</ele>
        <time>2021-09-10T11:22:06.000Z</time>
      </trkpt>
      <trkpt lat="45.13489" lon="2.68345">
        <ele>1288.3</ele>
        <time>2021-09-10T11:22:14.000Z</time>
      </trkpt>
      <trkpt lat="45.13485" lon="2.68353">
        <ele>1286.2</ele>
        <time>2021-09-10T11:22:22.000Z</time>
      </trkpt>
      <trkpt lat="45.1348" lon="2.6836">
        <ele>1284.6</ele>
        <time>2021-09-10T11:22:29.000Z</time>
      </trkpt>
      <trkpt lat="45.13473" lon="2.68361">
        <ele>1285.1</ele>
        <time>2021-09-10T11:22:33.000Z</time>
      </trkpt>
      <trkpt lat="45.13465" lon="2.6837">
        <ele>1283.4</ele>
        <time>2021-09-10T11:23:08.000Z</time>
      </trkpt>
      <trkpt lat="45.13471" lon="2.68373">
        <ele>1281.7</ele>
        <time>2021-09-10T11:23:18.000Z</time>
      </trkpt>
      <trkpt lat="45.13479" lon="2.68369">
        <ele>1282</ele>
        <time>2021-09-10T11:23:32.000Z</time>
      </trkpt>
      <trkpt lat="45.13482" lon="2.68359">
        <ele>1284.7</ele>
        <time>2021-09-10T11:23:41.000Z</time>
      </trkpt>
      <trkpt lat="45.13488" lon="2.68353">
        <ele>1285.9</ele>
        <time>2021-09-10T11:23:46.000Z</time>
      </trkpt>
      <trkpt lat="45.1349" lon="2.68344">
        <ele>1288.5</ele>
        <time>2021-09-10T11:23:53.000Z</time>
      </trkpt>
      <trkpt lat="45.1349" lon="2.68334">
        <ele>1291.6</ele>
        <time>2021-09-10T11:23:58.000Z</time>
      </trkpt>
      <trkpt lat="45.13485" lon="2.68324">
        <ele>1295.5</ele>
        <time>2021-09-10T11:24:03.000Z</time>
      </trkpt>
      <trkpt lat="45.13476" lon="2.68313">
        <ele>1299.8</ele>
        <time>2021-09-10T11:24:09.000Z</time>
      </trkpt>
      <trkpt lat="45.1347" lon="2.68312">
        <ele>1300.6</ele>
        <time>2021-09-10T11:24:19.000Z</time>
      </trkpt>
      <trkpt lat="45.13463" lon="2.68309">
        <ele>1302</ele>
        <time>2021-09-10T11:24:47.000Z</time>
      </trkpt>
      <trkpt lat="45.13464" lon="2.68322">
        <ele>1297.7</ele>
        <time>2021-09-10T11:25:19.000Z</time>
      </trkpt>
      <trkpt lat="45.13466" lon="2.68313">
        <ele>1300.5</ele>
        <time>2021-09-10T11:25:46.000Z</time>
      </trkpt>
      <trkpt lat="45.13473" lon="2.68316">
        <ele>1299</ele>
        <time>2021-09-10T11:25:56.000Z</time>
      </trkpt>
      <trkpt lat="45.13479" lon="2.68312">
        <ele>1300</ele>
        <time>2021-09-10T11:26:07.000Z</time>
      </trkpt>
      <trkpt lat="45.13486" lon="2.68315">
        <ele>1298.5</ele>
        <time>2021-09-10T11:26:55.000Z</time>
      </trkpt>
      <trkpt lat="45.13493" lon="2.68318">
        <ele>1297</ele>
        <time>2021-09-10T11:27:01.000Z</time>
      </trkpt>
      <trkpt lat="45.13498" lon="2.68324">
        <ele>1294.5</ele>
        <time>2021-09-10T11:27:07.000Z</time>
      </trkpt>
      <trkpt lat="45.13505" lon="2.68321">
        <ele>1295.8</ele>
        <time>2021-09-10T11:27:18.000Z</time>
      </trkpt>
      <trkpt lat="45.13514" lon="2.68321">
        <ele>1296.4</ele>
        <time>2021-09-10T11:27:33.000Z</time>
      </trkpt>
      <trkpt lat="45.13521" lon="2.68322">
        <ele>1296.6</ele>
        <time>2021-09-10T11:27:39.000Z</time>
      </trkpt>
      <trkpt lat="45.13529" lon="2.68326">
        <ele>1295.7</ele>
        <time>2021-09-10T11:28:01.000Z</time>
      </trkpt>
      <trkpt lat="45.13533" lon="2.68334">
        <ele>1293.2</ele>
        <time>2021-09-10T11:28:49.000Z</time>
      </trkpt>
      <trkpt lat="45.13539" lon="2.6833">
        <ele>1295</ele>
        <time>2021-09-10T11:28:59.000Z</time>
      </trkpt>
      <trkpt lat="45.13545" lon="2.68324">
        <ele>1297.5</ele>
        <time>2021-09-10T11:29:14.000Z</time>
      </trkpt>
      <trkpt lat="45.13552" lon="2.68322">
        <ele>1298.7</ele>
        <time>2021-09-10T11:29:19.000Z</time>
      </trkpt>
      <trkpt lat="45.13558" lon="2.68321">
        <ele>1299.5</ele>
        <time>2021-09-10T11:29:24.000Z</time>
      </trkpt>
      <trkpt lat="45.13565" lon="2.68322">
        <ele>1299.7</ele>
        <time>2021-09-10T11:29:30.000Z</time>
      </trkpt>
      <trkpt lat="45.13571" lon="2.68327">
        <ele>1298.3</ele>
        <time>2021-09-10T11:29:39.000Z</time>
      </trkpt>
      <trkpt lat="45.13578" lon="2.68326">
        <ele>1299.2</ele>
        <time>2021-09-10T11:29:47.000Z</time>
      </trkpt>
      <trkpt lat="45.13585" lon="2.68326">
        <ele>1299.9</ele>
        <time>2021-09-10T11:29:56.000Z</time>
      </trkpt>
      <trkpt lat="45.13592" lon="2.68329">
        <ele>1300.3</ele>
        <time>2021-09-10T11:30:05.000Z</time>
      </trkpt>
      <trkpt lat="45.13598" lon="2.68333">
        <ele>1300.3</ele>
        <time>2021-09-10T11:30:18.000Z</time>
      </trkpt>
      <trkpt lat="45.13604" lon="2.68338">
        <ele>1300.4</ele>
        <time>2021-09-10T11:30:33.000Z</time>
      </trkpt>
      <trkpt lat="45.1361" lon="2.68345">
        <ele>1300</ele>
        <time>2021-09-10T11:30:42.000Z</time>
      </trkpt>
      <trkpt lat="45.13622" lon="2.68353">
        <ele>1300.6</ele>
        <time>2021-09-10T11:30:51.000Z</time>
      </trkpt>
      <trkpt lat="45.13627" lon="2.6836">
        <ele>1299.8</ele>
        <time>2021-09-10T11:31:03.000Z</time>
      </trkpt>
      <trkpt lat="45.13634" lon="2.68363">
        <ele>1300.5</ele>
        <time>2021-09-10T11:31:11.000Z</time>
      </trkpt>
      <trkpt lat="45.13642" lon="2.68364">
        <ele>1301.8</ele>
        <time>2021-09-10T11:31:16.000Z</time>
      </trkpt>
      <trkpt lat="45.13649" lon="2.68365">
        <ele>1302.8</ele>
        <time>2021-09-10T11:31:23.000Z</time>
      </trkpt>
      <trkpt lat="45.13657" lon="2.68367">
        <ele>1303.9</ele>
        <time>2021-09-10T11:31:30.000Z</time>
      </trkpt>
      <trkpt lat="45.13664" lon="2.68366">
        <ele>1305.5</ele>
        <time>2021-09-10T11:31:38.000Z</time>
      </trkpt>
      <trkpt lat="45.13671" lon="2.68366">
        <ele>1306.6</ele>
        <time>2021-09-10T11:31:48.000Z</time>
      </trkpt>
      <trkpt lat="45.13669" lon="2.68357">
        <ele>1308.8</ele>
        <time>2021-09-10T11:32:03.000Z</time>
      </trkpt>
      <trkpt lat="45.13666" lon="2.68349">
        <ele>1310.5</ele>
        <time>2021-09-10T11:32:10.000Z</time>
      </trkpt>
      <trkpt lat="45.1366" lon="2.68343">
        <ele>1310.9</ele>
        <time>2021-09-10T11:32:17.000Z</time>
      </trkpt>
      <trkpt lat="45.13655" lon="2.68337">
        <ele>1311.5</ele>
        <time>2021-09-10T11:32:26.000Z</time>
      </trkpt>
      <trkpt lat="45.13649" lon="2.68332">
        <ele>1311.6</ele>
        <time>2021-09-10T11:32:33.000Z</time>
      </trkpt>
      <trkpt lat="45.13642" lon="2.68325">
        <ele>1312.1</ele>
        <time>2021-09-10T11:32:39.000Z</time>
      </trkpt>
      <trkpt lat="45.13636" lon="2.68319">
        <ele>1312.6</ele>
        <time>2021-09-10T11:32:47.000Z</time>
      </trkpt>
      <trkpt lat="45.13633" lon="2.6831">
        <ele>1314.7</ele>
        <time>2021-09-10T11:32:55.000Z</time>
      </trkpt>
      <trkpt lat="45.13634" lon="2.683">
        <ele>1317.8</ele>
        <time>2021-09-10T11:33:26.000Z</time>
      </trkpt>
      <trkpt lat="45.13636" lon="2.68291">
        <ele>1320.9</ele>
        <time>2021-09-10T11:33:34.000Z</time>
      </trkpt>
      <trkpt lat="45.13629" lon="2.68286">
        <ele>1321.2</ele>
        <time>2021-09-10T11:34:52.000Z</time>
      </trkpt>
      <trkpt lat="45.13628" lon="2.68276">
        <ele>1324</ele>
        <time>2021-09-10T11:35:09.000Z</time>
      </trkpt>
      <trkpt lat="45.13631" lon="2.68267">
        <ele>1327.2</ele>
        <time>2021-09-10T11:35:19.000Z</time>
      </trkpt>
      <trkpt lat="45.13637" lon="2.6826">
        <ele>1330.1</ele>
        <time>2021-09-10T11:35:25.000Z</time>
      </trkpt>
      <trkpt lat="45.13643" lon="2.68262">
        <ele>1330.4</ele>
        <time>2021-09-10T11:35:32.000Z</time>
      </trkpt>
      <trkpt lat="45.13649" lon="2.68266">
        <ele>1330.2</ele>
        <time>2021-09-10T11:35:39.000Z</time>
      </trkpt>
      <trkpt lat="45.13657" lon="2.68265">
        <ele>1331.6</ele>
        <time>2021-09-10T11:35:46.000Z</time>
      </trkpt>
      <trkpt lat="45.13663" lon="2.68262">
        <ele>1333.3</ele>
        <time>2021-09-10T11:35:52.000Z</time>
      </trkpt>
      <trkpt lat="45.13669" lon="2.68256">
        <ele>1335.4</ele>
        <time>2021-09-10T11:36:00.000Z</time>
      </trkpt>
      <trkpt lat="45.13676" lon="2.68252">
        <ele>1336.4</ele>
        <time>2021-09-10T11:36:06.000Z</time>
      </trkpt>
      <trkpt lat="45.13679" lon="2.68243">
        <ele>1337.7</ele>
        <time>2021-09-10T11:36:13.000Z</time>
      </trkpt>
      <trkpt lat="45.13684" lon="2.68236">
        <ele>1338.5</ele>
        <time>2021-09-10T11:36:21.000Z</time>
      </trkpt>
      <trkpt lat="45.13689" lon="2.68228">
        <ele>1339.4</ele>
        <time>2021-09-10T11:36:27.000Z</time>
      </trkpt>
      <trkpt lat="45.13691" lon="2.68219">
        <ele>1340.5</ele>
        <time>2021-09-10T11:36:35.000Z</time>
      </trkpt>
      <trkpt lat="45.13692" lon="2.68208">
        <ele>1341.8</ele>
        <time>2021-09-10T11:36:40.000Z</time>
      </trkpt>
      <trkpt lat="45.13695" lon="2.68199">
        <ele>1342.8</ele>
        <time>2021-09-10T11:36:47.000Z</time>
      </trkpt>
      <trkpt lat="45.137" lon="2.68191">
        <ele>1343.5</ele>
        <time>2021-09-10T11:36:54.000Z</time>
      </trkpt>
      <trkpt lat="45.13708" lon="2.68184">
        <ele>1344</ele>
        <time>2021-09-10T11:36:58.000Z</time>
      </trkpt>
      <trkpt lat="45.13713" lon="2.68172">
        <ele>1345.2</ele>
        <time>2021-09-10T11:37:03.000Z</time>
      </trkpt>
      <trkpt lat="45.13715" lon="2.68162">
        <ele>1346.5</ele>
        <time>2021-09-10T11:37:09.000Z</time>
      </trkpt>
      <trkpt lat="45.1372" lon="2.68153">
        <ele>1347.9</ele>
        <time>2021-09-10T11:37:15.000Z</time>
      </trkpt>
      <trkpt lat="45.13725" lon="2.68146">
        <ele>1349</ele>
        <time>2021-09-10T11:38:01.000Z</time>
      </trkpt>
      <trkpt lat="45.1373" lon="2.68139">
        <ele>1350.1</ele>
        <time>2021-09-10T11:38:07.000Z</time>
      </trkpt>
      <trkpt lat="45.13735" lon="2.6813">
        <ele>1351.7</ele>
        <time>2021-09-10T11:38:13.000Z</time>
      </trkpt>
      <trkpt lat="45.13738" lon="2.68121">
        <ele>1353.4</ele>
        <time>2021-09-10T11:38:18.000Z</time>
      </trkpt>
      <trkpt lat="45.13743" lon="2.68114">
        <ele>1354.8</ele>
        <time>2021-09-10T11:38:24.000Z</time>
      </trkpt>
      <trkpt lat="45.13749" lon="2.6811">
        <ele>1355.6</ele>
        <time>2021-09-10T11:38:29.000Z</time>
      </trkpt>
      <trkpt lat="45.13755" lon="2.68105">
        <ele>1356.1</ele>
        <time>2021-09-10T11:38:35.000Z</time>
      </trkpt>
      <trkpt lat="45.13762" lon="2.68104">
        <ele>1355.7</ele>
        <time>2021-09-10T11:38:41.000Z</time>
      </trkpt>
      <trkpt lat="45.13768" lon="2.68101">
        <ele>1355.8</ele>
        <time>2021-09-10T11:38:46.000Z</time>
      </trkpt>
      <trkpt lat="45.1377" lon="2.68091">
        <ele>1357.7</ele>
        <time>2021-09-10T11:38:53.000Z</time>
      </trkpt>
      <trkpt lat="45.13773" lon="2.68079">
        <ele>1360.2</ele>
        <time>2021-09-10T11:38:57.000Z</time>
      </trkpt>
      <trkpt lat="45.13777" lon="2.6807">
        <ele>1362.2</ele>
        <time>2021-09-10T11:39:03.000Z</time>
      </trkpt>
      <trkpt lat="45.13784" lon="2.68067">
        <ele>1362.4</ele>
        <time>2021-09-10T11:39:10.000Z</time>
      </trkpt>
      <trkpt lat="45.1379" lon="2.68062">
        <ele>1363.3</ele>
        <time>2021-09-10T11:39:16.000Z</time>
      </trkpt>
      <trkpt lat="45.13796" lon="2.68053">
        <ele>1365.2</ele>
        <time>2021-09-10T11:39:21.000Z</time>
      </trkpt>
      <trkpt lat="45.138" lon="2.68044">
        <ele>1367.3</ele>
        <time>2021-09-10T11:39:27.000Z</time>
      </trkpt>
      <trkpt lat="45.13807" lon="2.68038">
        <ele>1368.4</ele>
        <time>2021-09-10T11:39:33.000Z</time>
      </trkpt>
      <trkpt lat="45.13814" lon="2.68031">
        <ele>1369.8</ele>
        <time>2021-09-10T11:39:39.000Z</time>
      </trkpt>
      <trkpt lat="45.13822" lon="2.68025">
        <ele>1370.9</ele>
        <time>2021-09-10T11:39:45.000Z</time>
      </trkpt>
      <trkpt lat="45.13827" lon="2.68016">
        <ele>1373</ele>
        <time>2021-09-10T11:39:51.000Z</time>
      </trkpt>
      <trkpt lat="45.13833" lon="2.68008">
        <ele>1374.8</ele>
        <time>2021-09-10T11:39:57.000Z</time>
      </trkpt>
      <trkpt lat="45.13837" lon="2.68">
        <ele>1375.7</ele>
        <time>2021-09-10T11:40:03.000Z</time>
      </trkpt>
      <trkpt lat="45.13842" lon="2.67992">
        <ele>1376</ele>
        <time>2021-09-10T11:40:09.000Z</time>
      </trkpt>
      <trkpt lat="45.13846" lon="2.67985">
        <ele>1376.4</ele>
        <time>2021-09-10T11:40:15.000Z</time>
      </trkpt>
      <trkpt lat="45.13849" lon="2.67975">
        <ele>1378</ele>
        <time>2021-09-10T11:40:22.000Z</time>
      </trkpt>
      <trkpt lat="45.13851" lon="2.67966">
        <ele>1379.6</ele>
        <time>2021-09-10T11:40:27.000Z</time>
      </trkpt>
      <trkpt lat="45.13858" lon="2.67958">
        <ele>1379</ele>
        <time>2021-09-10T11:40:33.000Z</time>
      </trkpt>
      <trkpt lat="45.13866" lon="2.67953">
        <ele>1377.1</ele>
        <time>2021-09-10T11:40:39.000Z</time>
      </trkpt>
      <trkpt lat="45.13871" lon="2.67946">
        <ele>1376.9</ele>
        <time>2021-09-10T11:41:00.000Z</time>
      </trkpt>
      <trkpt lat="45.13878" lon="2.67941">
        <ele>1375.3</ele>
        <time>2021-09-10T11:41:06.000Z</time>
      </trkpt>
      <trkpt lat="45.13885" lon="2.67936">
        <ele>1373.7</ele>
        <time>2021-09-10T11:41:12.000Z</time>
      </trkpt>
      <trkpt lat="45.13889" lon="2.6793">
        <ele>1373.5</ele>
        <time>2021-09-10T11:41:17.000Z</time>
      </trkpt>
      <trkpt lat="45.13896" lon="2.67924">
        <ele>1372</ele>
        <time>2021-09-10T11:41:23.000Z</time>
      </trkpt>
      <trkpt lat="45.13901" lon="2.67917">
        <ele>1371.5</ele>
        <time>2021-09-10T11:41:27.000Z</time>
      </trkpt>
      <trkpt lat="45.13909" lon="2.67906">
        <ele>1370.7</ele>
        <time>2021-09-10T11:41:33.000Z</time>
      </trkpt>
      <trkpt lat="45.13912" lon="2.67892">
        <ele>1372.8</ele>
        <time>2021-09-10T11:41:39.000Z</time>
      </trkpt>
      <trkpt lat="45.13915" lon="2.67884">
        <ele>1373.5</ele>
        <time>2021-09-10T11:41:45.000Z</time>
      </trkpt>
      <trkpt lat="45.13922" lon="2.67877">
        <ele>1372</ele>
        <time>2021-09-10T11:41:51.000Z</time>
      </trkpt>
      <trkpt lat="45.1393" lon="2.67869">
        <ele>1370.1</ele>
        <time>2021-09-10T11:41:57.000Z</time>
      </trkpt>
      <trkpt lat="45.13936" lon="2.67865">
        <ele>1368.2</ele>
        <time>2021-09-10T11:42:03.000Z</time>
      </trkpt>
      <trkpt lat="45.13943" lon="2.67859">
        <ele>1366.2</ele>
        <time>2021-09-10T11:42:10.000Z</time>
      </trkpt>
      <trkpt lat="45.13948" lon="2.67852">
        <ele>1365.2</ele>
        <time>2021-09-10T11:42:17.000Z</time>
      </trkpt>
      <trkpt lat="45.13952" lon="2.67844">
        <ele>1365</ele>
        <time>2021-09-10T11:42:25.000Z</time>
      </trkpt>
      <trkpt lat="45.13959" lon="2.6784">
        <ele>1362.3</ele>
        <time>2021-09-10T11:42:31.000Z</time>
      </trkpt>
      <trkpt lat="45.13964" lon="2.67834">
        <ele>1361</ele>
        <time>2021-09-10T11:42:37.000Z</time>
      </trkpt>
      <trkpt lat="45.13969" lon="2.67828">
        <ele>1360.3</ele>
        <time>2021-09-10T11:42:42.000Z</time>
      </trkpt>
      <trkpt lat="45.13975" lon="2.67822">
        <ele>1359.1</ele>
        <time>2021-09-10T11:42:48.000Z</time>
      </trkpt>
      <trkpt lat="45.1398" lon="2.67816">
        <ele>1358.5</ele>
        <time>2021-09-10T11:42:54.000Z</time>
      </trkpt>
      <trkpt lat="45.13986" lon="2.6781">
        <ele>1357.5</ele>
        <time>2021-09-10T11:43:00.000Z</time>
      </trkpt>
      <trkpt lat="45.13992" lon="2.67806">
        <ele>1355.8</ele>
        <time>2021-09-10T11:43:05.000Z</time>
      </trkpt>
      <trkpt lat="45.13995" lon="2.67797">
        <ele>1357.2</ele>
        <time>2021-09-10T11:43:10.000Z</time>
      </trkpt>
      <trkpt lat="45.14" lon="2.67792">
        <ele>1356.4</ele>
        <time>2021-09-10T11:43:15.000Z</time>
      </trkpt>
      <trkpt lat="45.14002" lon="2.67783">
        <ele>1358.3</ele>
        <time>2021-09-10T11:43:21.000Z</time>
      </trkpt>
      <trkpt lat="45.14005" lon="2.67775">
        <ele>1359.3</ele>
        <time>2021-09-10T11:43:30.000Z</time>
      </trkpt>
      <trkpt lat="45.14009" lon="2.67767">
        <ele>1359.7</ele>
        <time>2021-09-10T11:43:38.000Z</time>
      </trkpt>
      <trkpt lat="45.14015" lon="2.6776">
        <ele>1358.8</ele>
        <time>2021-09-10T11:43:46.000Z</time>
      </trkpt>
      <trkpt lat="45.1402" lon="2.67752">
        <ele>1358.6</ele>
        <time>2021-09-10T11:43:54.000Z</time>
      </trkpt>
      <trkpt lat="45.14027" lon="2.67749">
        <ele>1355.7</ele>
        <time>2021-09-10T11:44:01.000Z</time>
      </trkpt>
      <trkpt lat="45.14033" lon="2.67742">
        <ele>1354.7</ele>
        <time>2021-09-10T11:44:07.000Z</time>
      </trkpt>
      <trkpt lat="45.14037" lon="2.67735">
        <ele>1354.7</ele>
        <time>2021-09-10T11:44:13.000Z</time>
      </trkpt>
      <trkpt lat="45.14039" lon="2.67723">
        <ele>1357.5</ele>
        <time>2021-09-10T11:44:18.000Z</time>
      </trkpt>
      <trkpt lat="45.14042" lon="2.67714">
        <ele>1358.8</ele>
        <time>2021-09-10T11:44:23.000Z</time>
      </trkpt>
      <trkpt lat="45.14045" lon="2.67705">
        <ele>1360.2</ele>
        <time>2021-09-10T11:44:27.000Z</time>
      </trkpt>
      <trkpt lat="45.14054" lon="2.67698">
        <ele>1358</ele>
        <time>2021-09-10T11:44:33.000Z</time>
      </trkpt>
      <trkpt lat="45.1406" lon="2.67693">
        <ele>1356.8</ele>
        <time>2021-09-10T11:44:39.000Z</time>
      </trkpt>
      <trkpt lat="45.14067" lon="2.67686">
        <ele>1355.8</ele>
        <time>2021-09-10T11:44:46.000Z</time>
      </trkpt>
      <trkpt lat="45.14074" lon="2.67686">
        <ele>1352.5</ele>
        <time>2021-09-10T11:44:51.000Z</time>
      </trkpt>
      <trkpt lat="45.14081" lon="2.67682">
        <ele>1350.6</ele>
        <time>2021-09-10T11:44:57.000Z</time>
      </trkpt>
      <trkpt lat="45.14089" lon="2.67679">
        <ele>1348.3</ele>
        <time>2021-09-10T11:45:04.000Z</time>
      </trkpt>
      <trkpt lat="45.14094" lon="2.67671">
        <ele>1349</ele>
        <time>2021-09-10T11:45:35.000Z</time>
      </trkpt>
      <trkpt lat="45.14101" lon="2.67668">
        <ele>1347.1</ele>
        <time>2021-09-10T11:45:43.000Z</time>
      </trkpt>
      <trkpt lat="45.14107" lon="2.67661">
        <ele>1347</ele>
        <time>2021-09-10T11:45:50.000Z</time>
      </trkpt>
      <trkpt lat="45.14112" lon="2.67656">
        <ele>1346.6</ele>
        <time>2021-09-10T11:45:55.000Z</time>
      </trkpt>
      <trkpt lat="45.14118" lon="2.67649">
        <ele>1346.6</ele>
        <time>2021-09-10T11:46:00.000Z</time>
      </trkpt>
      <trkpt lat="45.14121" lon="2.67639">
        <ele>1348.9</ele>
        <time>2021-09-10T11:46:05.000Z</time>
      </trkpt>
      <trkpt lat="45.14125" lon="2.67631">
        <ele>1350.1</ele>
        <time>2021-09-10T11:46:11.000Z</time>
      </trkpt>
      <trkpt lat="45.14132" lon="2.67625">
        <ele>1349.5</ele>
        <time>2021-09-10T11:46:16.000Z</time>
      </trkpt>
      <trkpt lat="45.14138" lon="2.67621">
        <ele>1348.6</ele>
        <time>2021-09-10T11:46:21.000Z</time>
      </trkpt>
      <trkpt lat="45.14145" lon="2.6762">
        <ele>1346.3</ele>
        <time>2021-09-10T11:46:38.000Z</time>
      </trkpt>
      <trkpt lat="45.14152" lon="2.67618">
        <ele>1344.3</ele>
        <time>2021-09-10T11:46:43.000Z</time>
      </trkpt>
      <trkpt lat="45.1416" lon="2.67616">
        <ele>1342</ele>
        <time>2021-09-10T11:46:48.000Z</time>
      </trkpt>
      <trkpt lat="45.14167" lon="2.67617">
        <ele>1339</ele>
        <time>2021-09-10T11:46:52.000Z</time>
      </trkpt>
      <trkpt lat="45.14175" lon="2.67619">
        <ele>1335.7</ele>
        <time>2021-09-10T11:46:58.000Z</time>
      </trkpt>
      <trkpt lat="45.14181" lon="2.67615">
        <ele>1335.2</ele>
        <time>2021-09-10T11:47:03.000Z</time>
      </trkpt>
      <trkpt lat="45.14193" lon="2.67606">
        <ele>1334.6</ele>
        <time>2021-09-10T11:47:09.000Z</time>
      </trkpt>
      <trkpt lat="45.14206" lon="2.67598">
        <ele>1333.2</ele>
        <time>2021-09-10T11:47:15.000Z</time>
      </trkpt>
      <trkpt lat="45.14215" lon="2.67592">
        <ele>1332.2</ele>
        <time>2021-09-10T11:47:21.000Z</time>
      </trkpt>
      <trkpt lat="45.14222" lon="2.67591">
        <ele>1330.2</ele>
        <time>2021-09-10T11:47:27.000Z</time>
      </trkpt>
      <trkpt lat="45.14233" lon="2.67589">
        <ele>1327.1</ele>
        <time>2021-09-10T11:47:33.000Z</time>
      </trkpt>
      <trkpt lat="45.14237" lon="2.67582">
        <ele>1328</ele>
        <time>2021-09-10T11:47:44.000Z</time>
      </trkpt>
      <trkpt lat="45.1424" lon="2.67573">
        <ele>1330.1</ele>
        <time>2021-09-10T11:47:50.000Z</time>
      </trkpt>
      <trkpt lat="45.14245" lon="2.67567">
        <ele>1330.4</ele>
        <time>2021-09-10T11:47:54.000Z</time>
      </trkpt>
      <trkpt lat="45.14251" lon="2.6756">
        <ele>1330.9</ele>
        <time>2021-09-10T11:48:00.000Z</time>
      </trkpt>
      <trkpt lat="45.14257" lon="2.67552">
        <ele>1332.3</ele>
        <time>2021-09-10T11:48:03.000Z</time>
      </trkpt>
      <trkpt lat="45.14277" lon="2.67541">
        <ele>1330.9</ele>
        <time>2021-09-10T11:48:09.000Z</time>
      </trkpt>
      <trkpt lat="45.14286" lon="2.67538">
        <ele>1329.4</ele>
        <time>2021-09-10T11:48:15.000Z</time>
      </trkpt>
      <trkpt lat="45.14281" lon="2.67544">
        <ele>1329</ele>
        <time>2021-09-10T11:48:25.000Z</time>
      </trkpt>
      <trkpt lat="45.14285" lon="2.67535">
        <ele>1330.5</ele>
        <time>2021-09-10T11:49:05.000Z</time>
      </trkpt>
      <trkpt lat="45.14279" lon="2.67539">
        <ele>1331</ele>
        <time>2021-09-10T11:49:27.000Z</time>
      </trkpt>
      <trkpt lat="45.14273" lon="2.67541">
        <ele>1331.9</ele>
        <time>2021-09-10T11:49:38.000Z</time>
      </trkpt>
      <trkpt lat="45.14266" lon="2.67545">
        <ele>1332.4</ele>
        <time>2021-09-10T11:49:46.000Z</time>
      </trkpt>
      <trkpt lat="45.1426" lon="2.67542">
        <ele>1334.9</ele>
        <time>2021-09-10T11:50:26.000Z</time>
      </trkpt>
      <trkpt lat="45.14253" lon="2.6755">
        <ele>1333.9</ele>
        <time>2021-09-10T11:50:45.000Z</time>
      </trkpt>
      <trkpt lat="45.14259" lon="2.67555">
        <ele>1330.8</ele>
        <time>2021-09-10T11:51:04.000Z</time>
      </trkpt>
      <trkpt lat="45.14258" lon="2.67545">
        <ele>1334.4</ele>
        <time>2021-09-10T11:51:30.000Z</time>
      </trkpt>
      <trkpt lat="45.14253" lon="2.67538">
        <ele>1338</ele>
        <time>2021-09-10T11:51:45.000Z</time>
      </trkpt>
      <trkpt lat="45.14249" lon="2.67531">
        <ele>1341.6</ele>
        <time>2021-09-10T11:51:52.000Z</time>
      </trkpt>
      <trkpt lat="45.14247" lon="2.67522">
        <ele>1345.4</ele>
        <time>2021-09-10T11:52:00.000Z</time>
      </trkpt>
      <trkpt lat="45.14243" lon="2.67513">
        <ele>1349.8</ele>
        <time>2021-09-10T11:52:07.000Z</time>
      </trkpt>
      <trkpt lat="45.14242" lon="2.67504">
        <ele>1353.3</ele>
        <time>2021-09-10T11:52:16.000Z</time>
      </trkpt>
      <trkpt lat="45.14237" lon="2.67497">
        <ele>1357.1</ele>
        <time>2021-09-10T11:52:23.000Z</time>
      </trkpt>
      <trkpt lat="45.14238" lon="2.67488">
        <ele>1358.8</ele>
        <time>2021-09-10T11:52:31.000Z</time>
      </trkpt>
      <trkpt lat="45.14234" lon="2.67481">
        <ele>1361.7</ele>
        <time>2021-09-10T11:52:38.000Z</time>
      </trkpt>
      <trkpt lat="45.14232" lon="2.67472">
        <ele>1364.4</ele>
        <time>2021-09-10T11:52:48.000Z</time>
      </trkpt>
      <trkpt lat="45.14232" lon="2.67461">
        <ele>1366.9</ele>
        <time>2021-09-10T11:53:14.000Z</time>
      </trkpt>
      <trkpt lat="45.14233" lon="2.67451">
        <ele>1368.9</ele>
        <time>2021-09-10T11:53:30.000Z</time>
      </trkpt>
      <trkpt lat="45.14232" lon="2.6744">
        <ele>1371.7</ele>
        <time>2021-09-10T11:53:38.000Z</time>
      </trkpt>
      <trkpt lat="45.14231" lon="2.67431">
        <ele>1374</ele>
        <time>2021-09-10T11:54:01.000Z</time>
      </trkpt>
      <trkpt lat="45.14234" lon="2.67416">
        <ele>1376.5</ele>
        <time>2021-09-10T11:54:24.000Z</time>
      </trkpt>
      <trkpt lat="45.14238" lon="2.67408">
        <ele>1376</ele>
        <time>2021-09-10T11:54:37.000Z</time>
      </trkpt>
      <trkpt lat="45.14242" lon="2.674">
        <ele>1375.6</ele>
        <time>2021-09-10T11:54:46.000Z</time>
      </trkpt>
      <trkpt lat="45.14254" lon="2.67391">
        <ele>1372.8</ele>
        <time>2021-09-10T11:55:03.000Z</time>
      </trkpt>
      <trkpt lat="45.14259" lon="2.67384">
        <ele>1371.9</ele>
        <time>2021-09-10T11:55:13.000Z</time>
      </trkpt>
      <trkpt lat="45.14263" lon="2.67376">
        <ele>1371.4</ele>
        <time>2021-09-10T11:55:20.000Z</time>
      </trkpt>
      <trkpt lat="45.14266" lon="2.67368">
        <ele>1371.4</ele>
        <time>2021-09-10T11:55:33.000Z</time>
      </trkpt>
      <trkpt lat="45.14271" lon="2.67361">
        <ele>1370.7</ele>
        <time>2021-09-10T11:55:45.000Z</time>
      </trkpt>
      <trkpt lat="45.14284" lon="2.6735">
        <ele>1368.5</ele>
        <time>2021-09-10T11:56:06.000Z</time>
      </trkpt>
      <trkpt lat="45.14289" lon="2.67344">
        <ele>1368.1</ele>
        <time>2021-09-10T11:56:13.000Z</time>
      </trkpt>
      <trkpt lat="45.14295" lon="2.67338">
        <ele>1367.5</ele>
        <time>2021-09-10T11:56:19.000Z</time>
      </trkpt>
      <trkpt lat="45.14298" lon="2.67329">
        <ele>1368.4</ele>
        <time>2021-09-10T11:56:29.000Z</time>
      </trkpt>
      <trkpt lat="45.14309" lon="2.6732">
        <ele>1367.7</ele>
        <time>2021-09-10T11:56:53.000Z</time>
      </trkpt>
      <trkpt lat="45.14313" lon="2.67312">
        <ele>1368.6</ele>
        <time>2021-09-10T11:57:10.000Z</time>
      </trkpt>
      <trkpt lat="45.14317" lon="2.67305">
        <ele>1369.4</ele>
        <time>2021-09-10T11:57:23.000Z</time>
      </trkpt>
      <trkpt lat="45.14322" lon="2.67298">
        <ele>1370</ele>
        <time>2021-09-10T11:57:32.000Z</time>
      </trkpt>
      <trkpt lat="45.1432" lon="2.67288">
        <ele>1372.8</ele>
        <time>2021-09-10T11:57:36.000Z</time>
      </trkpt>
      <trkpt lat="45.14327" lon="2.67287">
        <ele>1371.8</ele>
        <time>2021-09-10T11:57:51.000Z</time>
      </trkpt>
      <trkpt lat="45.14326" lon="2.6727">
        <ele>1376.1</ele>
        <time>2021-09-10T11:58:03.000Z</time>
      </trkpt>
      <trkpt lat="45.14326" lon="2.6726">
        <ele>1378.5</ele>
        <time>2021-09-10T11:58:09.000Z</time>
      </trkpt>
      <trkpt lat="45.14333" lon="2.67254">
        <ele>1379</ele>
        <time>2021-09-10T11:58:15.000Z</time>
      </trkpt>
      <trkpt lat="45.14353" lon="2.67266">
        <ele>1373.5</ele>
        <time>2021-09-10T11:58:21.000Z</time>
      </trkpt>
      <trkpt lat="45.14367" lon="2.67278">
        <ele>1368.6</ele>
        <time>2021-09-10T11:58:27.000Z</time>
      </trkpt>
      <trkpt lat="45.14377" lon="2.67297">
        <ele>1362.3</ele>
        <time>2021-09-10T11:58:33.000Z</time>
      </trkpt>
      <trkpt lat="45.1437" lon="2.67298">
        <ele>1363</ele>
        <time>2021-09-10T11:58:42.000Z</time>
      </trkpt>
      <trkpt lat="45.14373" lon="2.67289">
        <ele>1365</ele>
        <time>2021-09-10T11:58:49.000Z</time>
      </trkpt>
      <trkpt lat="45.14379" lon="2.67287">
        <ele>1364.7</ele>
        <time>2021-09-10T11:58:59.000Z</time>
      </trkpt>
      <trkpt lat="45.14374" lon="2.6728">
        <ele>1367.2</ele>
        <time>2021-09-10T11:59:03.000Z</time>
      </trkpt>
      <trkpt lat="45.1437" lon="2.67273">
        <ele>1369.6</ele>
        <time>2021-09-10T11:59:34.000Z</time>
      </trkpt>
      <trkpt lat="45.14363" lon="2.67262">
        <ele>1373.3</ele>
        <time>2021-09-10T11:59:43.000Z</time>
      </trkpt>
      <trkpt lat="45.14358" lon="2.67255">
        <ele>1375.7</ele>
        <time>2021-09-10T11:59:45.000Z</time>
      </trkpt>
      <trkpt lat="45.14364" lon="2.67261">
        <ele>1373.5</ele>
        <time>2021-09-10T11:59:56.000Z</time>
      </trkpt>
      <trkpt lat="45.14371" lon="2.67256">
        <ele>1373.9</ele>
        <time>2021-09-10T12:00:07.000Z</time>
      </trkpt>
      <trkpt lat="45.14372" lon="2.67247">
        <ele>1376.1</ele>
        <time>2021-09-10T12:00:18.000Z</time>
      </trkpt>
      <trkpt lat="45.14378" lon="2.6724">
        <ele>1377</ele>
        <time>2021-09-10T12:00:26.000Z</time>
      </trkpt>
      <trkpt lat="45.14385" lon="2.6724">
        <ele>1376.2</ele>
        <time>2021-09-10T12:00:54.000Z</time>
      </trkpt>
      <trkpt lat="45.14385" lon="2.6723">
        <ele>1378.5</ele>
        <time>2021-09-10T12:01:08.000Z</time>
      </trkpt>
      <trkpt lat="45.14388" lon="2.67212">
        <ele>1382.4</ele>
        <time>2021-09-10T12:01:37.000Z</time>
      </trkpt>
      <trkpt lat="45.14398" lon="2.67202">
        <ele>1383.4</ele>
        <time>2021-09-10T12:02:19.000Z</time>
      </trkpt>
      <trkpt lat="45.14407" lon="2.67203">
        <ele>1382</ele>
        <time>2021-09-10T12:02:25.000Z</time>
      </trkpt>
      <trkpt lat="45.14411" lon="2.6721">
        <ele>1379.9</ele>
        <time>2021-09-10T12:02:33.000Z</time>
      </trkpt>
      <trkpt lat="45.14419" lon="2.67205">
        <ele>1380.1</ele>
        <time>2021-09-10T12:03:30.000Z</time>
      </trkpt>
      <trkpt lat="45.14425" lon="2.67204">
        <ele>1380</ele>
        <time>2021-09-10T12:03:41.000Z</time>
      </trkpt>
      <trkpt lat="45.14435" lon="2.67202">
        <ele>1380</ele>
        <time>2021-09-10T12:04:10.000Z</time>
      </trkpt>
      <trkpt lat="45.14447" lon="2.67194">
        <ele>1381.2</ele>
        <time>2021-09-10T12:05:05.000Z</time>
      </trkpt>
      <trkpt lat="45.1445" lon="2.67185">
        <ele>1383.1</ele>
        <time>2021-09-10T12:05:09.000Z</time>
      </trkpt>
      <trkpt lat="45.14447" lon="2.67194">
        <ele>1381.2</ele>
        <time>2021-09-10T12:05:18.000Z</time>
      </trkpt>
      <trkpt lat="45.1445" lon="2.67183">
        <ele>1383.6</ele>
        <time>2021-09-10T12:05:26.000Z</time>
      </trkpt>
      <trkpt lat="45.1446" lon="2.67189">
        <ele>1381.7</ele>
        <time>2021-09-10T12:05:34.000Z</time>
      </trkpt>
      <trkpt lat="45.14458" lon="2.67199">
        <ele>1379.5</ele>
        <time>2021-09-10T12:05:45.000Z</time>
      </trkpt>
      <trkpt lat="45.14451" lon="2.67198">
        <ele>1380.1</ele>
        <time>2021-09-10T12:05:54.000Z</time>
      </trkpt>
      <trkpt lat="45.14445" lon="2.67195">
        <ele>1381.1</ele>
        <time>2021-09-10T12:06:00.000Z</time>
      </trkpt>
      <trkpt lat="45.14444" lon="2.67185">
        <ele>1383.4</ele>
        <time>2021-09-10T12:06:05.000Z</time>
      </trkpt>
      <trkpt lat="45.14451" lon="2.67185">
        <ele>1383.1</ele>
        <time>2021-09-10T12:06:10.000Z</time>
      </trkpt>
      <trkpt lat="45.14456" lon="2.67177">
        <ele>1384.7</ele>
        <time>2021-09-10T12:06:16.000Z</time>
      </trkpt>
      <trkpt lat="45.14463" lon="2.67172">
        <ele>1385.5</ele>
        <time>2021-09-10T12:06:20.000Z</time>
      </trkpt>
      <trkpt lat="45.14469" lon="2.67168">
        <ele>1386.2</ele>
        <time>2021-09-10T12:06:25.000Z</time>
      </trkpt>
      <trkpt lat="45.14478" lon="2.67164">
        <ele>1386.5</ele>
        <time>2021-09-10T12:06:31.000Z</time>
      </trkpt>
      <trkpt lat="45.14483" lon="2.67153">
        <ele>1388.1</ele>
        <time>2021-09-10T12:06:37.000Z</time>
      </trkpt>
      <trkpt lat="45.14488" lon="2.67145">
        <ele>1389.1</ele>
        <time>2021-09-10T12:06:45.000Z</time>
      </trkpt>
      <trkpt lat="45.14489" lon="2.67136">
        <ele>1390.5</ele>
        <time>2021-09-10T12:06:55.000Z</time>
      </trkpt>
      <trkpt lat="45.14483" lon="2.67131">
        <ele>1391.7</ele>
        <time>2021-09-10T12:07:09.000Z</time>
      </trkpt>
      <trkpt lat="45.14477" lon="2.67126">
        <ele>1393</ele>
        <time>2021-09-10T12:07:19.000Z</time>
      </trkpt>
      <trkpt lat="45.14475" lon="2.67117">
        <ele>1394.7</ele>
        <time>2021-09-10T12:08:01.000Z</time>
      </trkpt>
      <trkpt lat="45.14478" lon="2.67109">
        <ele>1395.8</ele>
        <time>2021-09-10T12:08:15.000Z</time>
      </trkpt>
      <trkpt lat="45.14483" lon="2.67103">
        <ele>1396.4</ele>
        <time>2021-09-10T12:08:30.000Z</time>
      </trkpt>
      <trkpt lat="45.1449" lon="2.67102">
        <ele>1395.9</ele>
        <time>2021-09-10T12:08:56.000Z</time>
      </trkpt>
      <trkpt lat="45.14497" lon="2.67102">
        <ele>1395.3</ele>
        <time>2021-09-10T12:09:25.000Z</time>
      </trkpt>
      <trkpt lat="45.14503" lon="2.67098">
        <ele>1395.6</ele>
        <time>2021-09-10T12:09:34.000Z</time>
      </trkpt>
      <trkpt lat="45.1451" lon="2.67095">
        <ele>1395.9</ele>
        <time>2021-09-10T12:09:44.000Z</time>
      </trkpt>
      <trkpt lat="45.14518" lon="2.67086">
        <ele>1397.1</ele>
        <time>2021-09-10T12:10:32.000Z</time>
      </trkpt>
      <trkpt lat="45.14525" lon="2.67084">
        <ele>1397.3</ele>
        <time>2021-09-10T12:10:44.000Z</time>
      </trkpt>
      <trkpt lat="45.14531" lon="2.67081">
        <ele>1398</ele>
        <time>2021-09-10T12:10:52.000Z</time>
      </trkpt>
      <trkpt lat="45.14538" lon="2.67076">
        <ele>1399.5</ele>
        <time>2021-09-10T12:11:00.000Z</time>
      </trkpt>
      <trkpt lat="45.14548" lon="2.67073">
        <ele>1400.3</ele>
        <time>2021-09-10T12:11:05.000Z</time>
      </trkpt>
      <trkpt lat="45.14553" lon="2.67064">
        <ele>1403.2</ele>
        <time>2021-09-10T12:11:09.000Z</time>
      </trkpt>
      <trkpt lat="45.14558" lon="2.67071">
        <ele>1400.8</ele>
        <time>2021-09-10T12:11:23.000Z</time>
      </trkpt>
      <trkpt lat="45.14564" lon="2.67077">
        <ele>1398.6</ele>
        <time>2021-09-10T12:11:30.000Z</time>
      </trkpt>
      <trkpt lat="45.14566" lon="2.67068">
        <ele>1401.6</ele>
        <time>2021-09-10T12:11:44.000Z</time>
      </trkpt>
      <trkpt lat="45.14565" lon="2.67058">
        <ele>1405.1</ele>
        <time>2021-09-10T12:11:50.000Z</time>
      </trkpt>
      <trkpt lat="45.1456" lon="2.6705">
        <ele>1407.8</ele>
        <time>2021-09-10T12:12:00.000Z</time>
      </trkpt>
      <trkpt lat="45.14557" lon="2.67042">
        <ele>1410.5</ele>
        <time>2021-09-10T12:12:07.000Z</time>
      </trkpt>
      <trkpt lat="45.14555" lon="2.67033">
        <ele>1413.6</ele>
        <time>2021-09-10T12:12:27.000Z</time>
      </trkpt>
      <trkpt lat="45.14553" lon="2.67023">
        <ele>1416.9</ele>
        <time>2021-09-10T12:12:58.000Z</time>
      </trkpt>
      <trkpt lat="45.14556" lon="2.67014">
        <ele>1420</ele>
        <time>2021-09-10T12:13:13.000Z</time>
      </trkpt>
      <trkpt lat="45.14557" lon="2.67004">
        <ele>1423.3</ele>
        <time>2021-09-10T12:13:24.000Z</time>
      </trkpt>
      <trkpt lat="45.14563" lon="2.66993">
        <ele>1426.6</ele>
        <time>2021-09-10T12:14:00.000Z</time>
      </trkpt>
      <trkpt lat="45.1457" lon="2.6699">
        <ele>1427.5</ele>
        <time>2021-09-10T12:14:07.000Z</time>
      </trkpt>
      <trkpt lat="45.1457" lon="2.6698">
        <ele>1430.2</ele>
        <time>2021-09-10T12:14:48.000Z</time>
      </trkpt>
      <trkpt lat="45.14571" lon="2.6697">
        <ele>1432.9</ele>
        <time>2021-09-10T12:15:03.000Z</time>
      </trkpt>
      <trkpt lat="45.14575" lon="2.66961">
        <ele>1435.4</ele>
        <time>2021-09-10T12:15:14.000Z</time>
      </trkpt>
      <trkpt lat="45.14581" lon="2.66957">
        <ele>1436.8</ele>
        <time>2021-09-10T12:16:01.000Z</time>
      </trkpt>
      <trkpt lat="45.14589" lon="2.66946">
        <ele>1440.5</ele>
        <time>2021-09-10T12:16:11.000Z</time>
      </trkpt>
      <trkpt lat="45.14596" lon="2.66944">
        <ele>1441.9</ele>
        <time>2021-09-10T12:16:32.000Z</time>
      </trkpt>
      <trkpt lat="45.14602" lon="2.6694">
        <ele>1443.7</ele>
        <time>2021-09-10T12:16:43.000Z</time>
      </trkpt>
      <trkpt lat="45.14603" lon="2.6693">
        <ele>1446.8</ele>
        <time>2021-09-10T12:17:54.000Z</time>
      </trkpt>
      <trkpt lat="45.14603" lon="2.6692">
        <ele>1449.8</ele>
        <time>2021-09-10T12:18:03.000Z</time>
      </trkpt>
      <trkpt lat="45.14606" lon="2.66912">
        <ele>1453.2</ele>
        <time>2021-09-10T12:18:20.000Z</time>
      </trkpt>
      <trkpt lat="45.14605" lon="2.66901">
        <ele>1457.7</ele>
        <time>2021-09-10T12:18:47.000Z</time>
      </trkpt>
      <trkpt lat="45.14599" lon="2.66896">
        <ele>1459.1</ele>
        <time>2021-09-10T12:19:03.000Z</time>
      </trkpt>
      <trkpt lat="45.14594" lon="2.6689">
        <ele>1461</ele>
        <time>2021-09-10T12:19:15.000Z</time>
      </trkpt>
      <trkpt lat="45.14587" lon="2.66889">
        <ele>1460.7</ele>
        <time>2021-09-10T12:19:20.000Z</time>
      </trkpt>
      <trkpt lat="45.14595" lon="2.66891">
        <ele>1460.7</ele>
        <time>2021-09-10T12:20:30.000Z</time>
      </trkpt>
      <trkpt lat="45.14602" lon="2.66892">
        <ele>1461.1</ele>
        <time>2021-09-10T12:20:40.000Z</time>
      </trkpt>
      <trkpt lat="45.14609" lon="2.66887">
        <ele>1464</ele>
        <time>2021-09-10T12:20:46.000Z</time>
      </trkpt>
      <trkpt lat="45.14613" lon="2.66879">
        <ele>1467.7</ele>
        <time>2021-09-10T12:21:13.000Z</time>
      </trkpt>
      <trkpt lat="45.1462" lon="2.66883">
        <ele>1466.8</ele>
        <time>2021-09-10T12:21:59.000Z</time>
      </trkpt>
      <trkpt lat="45.14626" lon="2.66885">
        <ele>1466.6</ele>
        <time>2021-09-10T12:22:17.000Z</time>
      </trkpt>
      <trkpt lat="45.14633" lon="2.66885">
        <ele>1467.4</ele>
        <time>2021-09-10T12:22:31.000Z</time>
      </trkpt>
      <trkpt lat="45.14641" lon="2.66882">
        <ele>1469.4</ele>
        <time>2021-09-10T12:22:44.000Z</time>
      </trkpt>
      <trkpt lat="45.14646" lon="2.66887">
        <ele>1468.1</ele>
        <time>2021-09-10T12:23:00.000Z</time>
      </trkpt>
      <trkpt lat="45.14648" lon="2.66896">
        <ele>1464.9</ele>
        <time>2021-09-10T12:23:08.000Z</time>
      </trkpt>
      <trkpt lat="45.14654" lon="2.66902">
        <ele>1463.5</ele>
        <time>2021-09-10T12:23:16.000Z</time>
      </trkpt>
      <trkpt lat="45.14658" lon="2.66911">
        <ele>1460.8</ele>
        <time>2021-09-10T12:23:23.000Z</time>
      </trkpt>
      <trkpt lat="45.14663" lon="2.66918">
        <ele>1459</ele>
        <time>2021-09-10T12:23:29.000Z</time>
      </trkpt>
      <trkpt lat="45.14669" lon="2.66925">
        <ele>1457.4</ele>
        <time>2021-09-10T12:23:36.000Z</time>
      </trkpt>
      <trkpt lat="45.14675" lon="2.66929">
        <ele>1457.1</ele>
        <time>2021-09-10T12:23:42.000Z</time>
      </trkpt>
      <trkpt lat="45.14682" lon="2.6693">
        <ele>1458.2</ele>
        <time>2021-09-10T12:23:48.000Z</time>
      </trkpt>
      <trkpt lat="45.1469" lon="2.66932">
        <ele>1459.1</ele>
        <time>2021-09-10T12:23:56.000Z</time>
      </trkpt>
      <trkpt lat="45.14697" lon="2.66932">
        <ele>1460.5</ele>
        <time>2021-09-10T12:24:02.000Z</time>
      </trkpt>
      <trkpt lat="45.14704" lon="2.66934">
        <ele>1461.3</ele>
        <time>2021-09-10T12:24:11.000Z</time>
      </trkpt>
      <trkpt lat="45.14711" lon="2.66933">
        <ele>1463.1</ele>
        <time>2021-09-10T12:24:17.000Z</time>
      </trkpt>
      <trkpt lat="45.14718" lon="2.66932">
        <ele>1464.8</ele>
        <time>2021-09-10T12:24:26.000Z</time>
      </trkpt>
      <trkpt lat="45.14725" lon="2.66933">
        <ele>1465.9</ele>
        <time>2021-09-10T12:24:47.000Z</time>
      </trkpt>
      <trkpt lat="45.14732" lon="2.66935">
        <ele>1466.8</ele>
        <time>2021-09-10T12:24:57.000Z</time>
      </trkpt>
      <trkpt lat="45.14739" lon="2.66937">
        <ele>1467.6</ele>
        <time>2021-09-10T12:25:06.000Z</time>
      </trkpt>
      <trkpt lat="45.14746" lon="2.66936">
        <ele>1469.4</ele>
        <time>2021-09-10T12:25:15.000Z</time>
      </trkpt>
      <trkpt lat="45.14753" lon="2.66933">
        <ele>1471.9</ele>
        <time>2021-09-10T12:25:21.000Z</time>
      </trkpt>
      <trkpt lat="45.14754" lon="2.66923">
        <ele>1475.1</ele>
        <time>2021-09-10T12:25:56.000Z</time>
      </trkpt>
      <trkpt lat="45.14749" lon="2.66917">
        <ele>1475.7</ele>
        <time>2021-09-10T12:26:04.000Z</time>
      </trkpt>
      <trkpt lat="45.14743" lon="2.66912">
        <ele>1476.2</ele>
        <time>2021-09-10T12:26:11.000Z</time>
      </trkpt>
      <trkpt lat="45.14737" lon="2.66909">
        <ele>1476.1</ele>
        <time>2021-09-10T12:26:41.000Z</time>
      </trkpt>
      <trkpt lat="45.14731" lon="2.66907">
        <ele>1475.6</ele>
        <time>2021-09-10T12:26:48.000Z</time>
      </trkpt>
      <trkpt lat="45.14725" lon="2.66901">
        <ele>1476.5</ele>
        <time>2021-09-10T12:26:59.000Z</time>
      </trkpt>
      <trkpt lat="45.14719" lon="2.66897">
        <ele>1476.7</ele>
        <time>2021-09-10T12:27:14.000Z</time>
      </trkpt>
      <trkpt lat="45.14712" lon="2.66892">
        <ele>1477.1</ele>
        <time>2021-09-10T12:29:02.000Z</time>
      </trkpt>
      <trkpt lat="45.14705" lon="2.66886">
        <ele>1477.9</ele>
        <time>2021-09-10T12:29:14.000Z</time>
      </trkpt>
      <trkpt lat="45.14699" lon="2.66881">
        <ele>1478.5</ele>
        <time>2021-09-10T12:29:21.000Z</time>
      </trkpt>
      <trkpt lat="45.14694" lon="2.66875">
        <ele>1479.6</ele>
        <time>2021-09-10T12:29:27.000Z</time>
      </trkpt>
      <trkpt lat="45.14688" lon="2.66868">
        <ele>1480.9</ele>
        <time>2021-09-10T12:29:33.000Z</time>
      </trkpt>
      <trkpt lat="45.14683" lon="2.6686">
        <ele>1482.7</ele>
        <time>2021-09-10T12:29:39.000Z</time>
      </trkpt>
      <trkpt lat="45.14675" lon="2.66855">
        <ele>1483</ele>
        <time>2021-09-10T12:29:45.000Z</time>
      </trkpt>
      <trkpt lat="45.14668" lon="2.66852">
        <ele>1482.7</ele>
        <time>2021-09-10T12:29:51.000Z</time>
      </trkpt>
      <trkpt lat="45.14662" lon="2.66846">
        <ele>1484.3</ele>
        <time>2021-09-10T12:29:58.000Z</time>
      </trkpt>
      <trkpt lat="45.14657" lon="2.66839">
        <ele>1486.5</ele>
        <time>2021-09-10T12:30:08.000Z</time>
      </trkpt>
      <trkpt lat="45.14651" lon="2.66833">
        <ele>1488.3</ele>
        <time>2021-09-10T12:30:16.000Z</time>
      </trkpt>
      <trkpt lat="45.14647" lon="2.66827">
        <ele>1488.9</ele>
        <time>2021-09-10T12:30:24.000Z</time>
      </trkpt>
      <trkpt lat="45.14642" lon="2.6682">
        <ele>1489.6</ele>
        <time>2021-09-10T12:30:32.000Z</time>
      </trkpt>
      <trkpt lat="45.14636" lon="2.66818">
        <ele>1489.6</ele>
        <time>2021-09-10T12:30:40.000Z</time>
      </trkpt>
      <trkpt lat="45.14629" lon="2.66814">
        <ele>1489.8</ele>
        <time>2021-09-10T12:30:47.000Z</time>
      </trkpt>
      <trkpt lat="45.14624" lon="2.66807">
        <ele>1490.6</ele>
        <time>2021-09-10T12:30:54.000Z</time>
      </trkpt>
      <trkpt lat="45.14618" lon="2.66801">
        <ele>1491.2</ele>
        <time>2021-09-10T12:30:59.000Z</time>
      </trkpt>
      <trkpt lat="45.14611" lon="2.66796">
        <ele>1491.7</ele>
        <time>2021-09-10T12:31:04.000Z</time>
      </trkpt>
      <trkpt lat="45.14605" lon="2.66791">
        <ele>1492.2</ele>
        <time>2021-09-10T12:31:09.000Z</time>
      </trkpt>
      <trkpt lat="45.14598" lon="2.66787">
        <ele>1492.6</ele>
        <time>2021-09-10T12:31:17.000Z</time>
      </trkpt>
      <trkpt lat="45.14593" lon="2.66782">
        <ele>1493.3</ele>
        <time>2021-09-10T12:31:23.000Z</time>
      </trkpt>
      <trkpt lat="45.14587" lon="2.66777">
        <ele>1493.9</ele>
        <time>2021-09-10T12:31:29.000Z</time>
      </trkpt>
      <trkpt lat="45.14586" lon="2.66767">
        <ele>1495.4</ele>
        <time>2021-09-10T12:32:17.000Z</time>
      </trkpt>
      <trkpt lat="45.14579" lon="2.66765">
        <ele>1495.8</ele>
        <time>2021-09-10T12:33:20.000Z</time>
      </trkpt>
      <trkpt lat="45.14573" lon="2.66765">
        <ele>1496.1</ele>
        <time>2021-09-10T12:33:40.000Z</time>
      </trkpt>
      <trkpt lat="45.14565" lon="2.66764">
        <ele>1496.5</ele>
        <time>2021-09-10T12:33:45.000Z</time>
      </trkpt>
      <trkpt lat="45.14558" lon="2.66763">
        <ele>1497</ele>
        <time>2021-09-10T12:33:51.000Z</time>
      </trkpt>
      <trkpt lat="45.14552" lon="2.66759">
        <ele>1497.9</ele>
        <time>2021-09-10T12:33:57.000Z</time>
      </trkpt>
      <trkpt lat="45.14544" lon="2.66758">
        <ele>1498.5</ele>
        <time>2021-09-10T12:34:03.000Z</time>
      </trkpt>
      <trkpt lat="45.14538" lon="2.66755">
        <ele>1499.3</ele>
        <time>2021-09-10T12:34:09.000Z</time>
      </trkpt>
      <trkpt lat="45.14529" lon="2.66751">
        <ele>1500.4</ele>
        <time>2021-09-10T12:34:15.000Z</time>
      </trkpt>
      <trkpt lat="45.14522" lon="2.6675">
        <ele>1500.9</ele>
        <time>2021-09-10T12:34:21.000Z</time>
      </trkpt>
      <trkpt lat="45.14515" lon="2.66749">
        <ele>1501.1</ele>
        <time>2021-09-10T12:34:27.000Z</time>
      </trkpt>
      <trkpt lat="45.14508" lon="2.66748">
        <ele>1501.1</ele>
        <time>2021-09-10T12:34:34.000Z</time>
      </trkpt>
      <trkpt lat="45.14501" lon="2.66746">
        <ele>1501</ele>
        <time>2021-09-10T12:34:40.000Z</time>
      </trkpt>
      <trkpt lat="45.14494" lon="2.66745">
        <ele>1501.1</ele>
        <time>2021-09-10T12:34:48.000Z</time>
      </trkpt>
      <trkpt lat="45.14487" lon="2.66747">
        <ele>1502</ele>
        <time>2021-09-10T12:34:53.000Z</time>
      </trkpt>
      <trkpt lat="45.1448" lon="2.66749">
        <ele>1502.9</ele>
        <time>2021-09-10T12:34:59.000Z</time>
      </trkpt>
      <trkpt lat="45.14473" lon="2.66749">
        <ele>1503.4</ele>
        <time>2021-09-10T12:36:04.000Z</time>
      </trkpt>
      <trkpt lat="45.14465" lon="2.66749">
        <ele>1503.8</ele>
        <time>2021-09-10T12:36:10.000Z</time>
      </trkpt>
      <trkpt lat="45.14458" lon="2.66752">
        <ele>1504.1</ele>
        <time>2021-09-10T12:36:15.000Z</time>
      </trkpt>
      <trkpt lat="45.1445" lon="2.66755">
        <ele>1504</ele>
        <time>2021-09-10T12:36:21.000Z</time>
      </trkpt>
      <trkpt lat="45.14442" lon="2.66756">
        <ele>1504.3</ele>
        <time>2021-09-10T12:36:27.000Z</time>
      </trkpt>
      <trkpt lat="45.14435" lon="2.66756">
        <ele>1504.7</ele>
        <time>2021-09-10T12:36:34.000Z</time>
      </trkpt>
      <trkpt lat="45.14427" lon="2.66758">
        <ele>1504.7</ele>
        <time>2021-09-10T12:36:40.000Z</time>
      </trkpt>
      <trkpt lat="45.1442" lon="2.6676">
        <ele>1504.8</ele>
        <time>2021-09-10T12:36:46.000Z</time>
      </trkpt>
      <trkpt lat="45.14414" lon="2.66762">
        <ele>1504.7</ele>
        <time>2021-09-10T12:36:52.000Z</time>
      </trkpt>
      <trkpt lat="45.14406" lon="2.66762">
        <ele>1505.2</ele>
        <time>2021-09-10T12:36:58.000Z</time>
      </trkpt>
      <trkpt lat="45.14399" lon="2.66763">
        <ele>1505.5</ele>
        <time>2021-09-10T12:37:04.000Z</time>
      </trkpt>
      <trkpt lat="45.14392" lon="2.66763">
        <ele>1505.9</ele>
        <time>2021-09-10T12:37:09.000Z</time>
      </trkpt>
      <trkpt lat="45.14384" lon="2.66762">
        <ele>1506.6</ele>
        <time>2021-09-10T12:37:15.000Z</time>
      </trkpt>
      <trkpt lat="45.14376" lon="2.66763">
        <ele>1507</ele>
        <time>2021-09-10T12:37:21.000Z</time>
      </trkpt>
      <trkpt lat="45.14368" lon="2.66764">
        <ele>1507.4</ele>
        <time>2021-09-10T12:37:27.000Z</time>
      </trkpt>
      <trkpt lat="45.14361" lon="2.66763">
        <ele>1507.9</ele>
        <time>2021-09-10T12:37:33.000Z</time>
      </trkpt>
      <trkpt lat="45.14354" lon="2.66764">
        <ele>1508.3</ele>
        <time>2021-09-10T12:37:40.000Z</time>
      </trkpt>
      <trkpt lat="45.14347" lon="2.66766">
        <ele>1508.7</ele>
        <time>2021-09-10T12:37:45.000Z</time>
      </trkpt>
      <trkpt lat="45.14339" lon="2.66765">
        <ele>1509.3</ele>
        <time>2021-09-10T12:37:51.000Z</time>
      </trkpt>
      <trkpt lat="45.14332" lon="2.66766">
        <ele>1509.7</ele>
        <time>2021-09-10T12:37:56.000Z</time>
      </trkpt>
      <trkpt lat="45.14323" lon="2.66769">
        <ele>1510.1</ele>
        <time>2021-09-10T12:38:02.000Z</time>
      </trkpt>
      <trkpt lat="45.14317" lon="2.66768">
        <ele>1510.4</ele>
        <time>2021-09-10T12:38:08.000Z</time>
      </trkpt>
      <trkpt lat="45.14309" lon="2.6677">
        <ele>1510.8</ele>
        <time>2021-09-10T12:38:14.000Z</time>
      </trkpt>
      <trkpt lat="45.14302" lon="2.66773">
        <ele>1511.2</ele>
        <time>2021-09-10T12:38:20.000Z</time>
      </trkpt>
      <trkpt lat="45.14296" lon="2.66775">
        <ele>1511.5</ele>
        <time>2021-09-10T12:38:25.000Z</time>
      </trkpt>
      <trkpt lat="45.14288" lon="2.66771">
        <ele>1511.9</ele>
        <time>2021-09-10T12:38:31.000Z</time>
      </trkpt>
      <trkpt lat="45.14281" lon="2.66769">
        <ele>1512.3</ele>
        <time>2021-09-10T12:38:38.000Z</time>
      </trkpt>
      <trkpt lat="45.14274" lon="2.6677">
        <ele>1512.7</ele>
        <time>2021-09-10T12:38:45.000Z</time>
      </trkpt>
      <trkpt lat="45.14267" lon="2.66771">
        <ele>1513.1</ele>
        <time>2021-09-10T12:38:53.000Z</time>
      </trkpt>
      <trkpt lat="45.1426" lon="2.66771">
        <ele>1513.5</ele>
        <time>2021-09-10T12:39:00.000Z</time>
      </trkpt>
      <trkpt lat="45.14253" lon="2.66771">
        <ele>1513.8</ele>
        <time>2021-09-10T12:39:07.000Z</time>
      </trkpt>
      <trkpt lat="45.14247" lon="2.66771">
        <ele>1513.4</ele>
        <time>2021-09-10T12:39:14.000Z</time>
      </trkpt>
      <trkpt lat="45.14239" lon="2.66772">
        <ele>1511.7</ele>
        <time>2021-09-10T12:39:39.000Z</time>
      </trkpt>
      <trkpt lat="45.14232" lon="2.66772">
        <ele>1510.3</ele>
        <time>2021-09-10T12:39:48.000Z</time>
      </trkpt>
      <trkpt lat="45.14225" lon="2.6677">
        <ele>1508.7</ele>
        <time>2021-09-10T12:39:57.000Z</time>
      </trkpt>
      <trkpt lat="45.14218" lon="2.66771">
        <ele>1507.3</ele>
        <time>2021-09-10T12:40:07.000Z</time>
      </trkpt>
      <trkpt lat="45.14211" lon="2.66769">
        <ele>1505.7</ele>
        <time>2021-09-10T12:40:25.000Z</time>
      </trkpt>
      <trkpt lat="45.14204" lon="2.66772">
        <ele>1504.4</ele>
        <time>2021-09-10T12:40:35.000Z</time>
      </trkpt>
      <trkpt lat="45.14197" lon="2.66775">
        <ele>1503.3</ele>
        <time>2021-09-10T12:40:42.000Z</time>
      </trkpt>
      <trkpt lat="45.14192" lon="2.66781">
        <ele>1503</ele>
        <time>2021-09-10T12:41:49.000Z</time>
      </trkpt>
      <trkpt lat="45.14185" lon="2.66787">
        <ele>1502.5</ele>
        <time>2021-09-10T12:41:55.000Z</time>
      </trkpt>
      <trkpt lat="45.14178" lon="2.66793">
        <ele>1502.1</ele>
        <time>2021-09-10T12:42:01.000Z</time>
      </trkpt>
      <trkpt lat="45.14172" lon="2.66798">
        <ele>1501.9</ele>
        <time>2021-09-10T12:42:07.000Z</time>
      </trkpt>
      <trkpt lat="45.14166" lon="2.66803">
        <ele>1501.8</ele>
        <time>2021-09-10T12:42:15.000Z</time>
      </trkpt>
      <trkpt lat="45.1416" lon="2.66808">
        <ele>1501.3</ele>
        <time>2021-09-10T12:42:21.000Z</time>
      </trkpt>
      <trkpt lat="45.14154" lon="2.66812">
        <ele>1500.9</ele>
        <time>2021-09-10T12:42:30.000Z</time>
      </trkpt>
      <trkpt lat="45.14149" lon="2.66816">
        <ele>1500.7</ele>
        <time>2021-09-10T12:42:36.000Z</time>
      </trkpt>
      <trkpt lat="45.14142" lon="2.6682">
        <ele>1500.2</ele>
        <time>2021-09-10T12:42:42.000Z</time>
      </trkpt>
      <trkpt lat="45.14136" lon="2.66824">
        <ele>1500</ele>
        <time>2021-09-10T12:42:48.000Z</time>
      </trkpt>
      <trkpt lat="45.14129" lon="2.66827">
        <ele>1499.5</ele>
        <time>2021-09-10T12:42:53.000Z</time>
      </trkpt>
      <trkpt lat="45.14127" lon="2.66818">
        <ele>1496.9</ele>
        <time>2021-09-10T12:43:12.000Z</time>
      </trkpt>
      <trkpt lat="45.14123" lon="2.6681">
        <ele>1494.1</ele>
        <time>2021-09-10T12:43:20.000Z</time>
      </trkpt>
      <trkpt lat="45.1412" lon="2.66801">
        <ele>1491</ele>
        <time>2021-09-10T12:43:55.000Z</time>
      </trkpt>
      <trkpt lat="45.14114" lon="2.66798">
        <ele>1488.8</ele>
        <time>2021-09-10T12:44:07.000Z</time>
      </trkpt>
      <trkpt lat="45.14109" lon="2.6679">
        <ele>1485.3</ele>
        <time>2021-09-10T12:44:18.000Z</time>
      </trkpt>
      <trkpt lat="45.14105" lon="2.66783">
        <ele>1482.2</ele>
        <time>2021-09-10T12:44:33.000Z</time>
      </trkpt>
      <trkpt lat="45.14099" lon="2.66776">
        <ele>1478.4</ele>
        <time>2021-09-10T12:44:46.000Z</time>
      </trkpt>
      <trkpt lat="45.14093" lon="2.66773">
        <ele>1475.8</ele>
        <time>2021-09-10T12:45:27.000Z</time>
      </trkpt>
      <trkpt lat="45.14086" lon="2.6677">
        <ele>1472.7</ele>
        <time>2021-09-10T12:45:37.000Z</time>
      </trkpt>
      <trkpt lat="45.14079" lon="2.66775">
        <ele>1473</ele>
        <time>2021-09-10T12:46:09.000Z</time>
      </trkpt>
      <trkpt lat="45.14073" lon="2.66779">
        <ele>1473.5</ele>
        <time>2021-09-10T12:46:17.000Z</time>
      </trkpt>
      <trkpt lat="45.14068" lon="2.66784">
        <ele>1474.4</ele>
        <time>2021-09-10T12:46:24.000Z</time>
      </trkpt>
      <trkpt lat="45.14061" lon="2.66788">
        <ele>1474.7</ele>
        <time>2021-09-10T12:46:34.000Z</time>
      </trkpt>
      <trkpt lat="45.14054" lon="2.66791">
        <ele>1474.7</ele>
        <time>2021-09-10T12:46:42.000Z</time>
      </trkpt>
      <trkpt lat="45.14048" lon="2.66792">
        <ele>1474.1</ele>
        <time>2021-09-10T12:46:49.000Z</time>
      </trkpt>
      <trkpt lat="45.14042" lon="2.66795">
        <ele>1474.2</ele>
        <time>2021-09-10T12:47:09.000Z</time>
      </trkpt>
      <trkpt lat="45.14035" lon="2.66796">
        <ele>1473.5</ele>
        <time>2021-09-10T12:47:20.000Z</time>
      </trkpt>
      <trkpt lat="45.14029" lon="2.66802">
        <ele>1474.6</ele>
        <time>2021-09-10T12:47:30.000Z</time>
      </trkpt>
      <trkpt lat="45.14023" lon="2.66804">
        <ele>1474.4</ele>
        <time>2021-09-10T12:47:41.000Z</time>
      </trkpt>
      <trkpt lat="45.14016" lon="2.66807">
        <ele>1474.3</ele>
        <time>2021-09-10T12:47:52.000Z</time>
      </trkpt>
      <trkpt lat="45.1401" lon="2.66812">
        <ele>1475.1</ele>
        <time>2021-09-10T12:48:02.000Z</time>
      </trkpt>
      <trkpt lat="45.14004" lon="2.66817">
        <ele>1475.9</ele>
        <time>2021-09-10T12:48:11.000Z</time>
      </trkpt>
      <trkpt lat="45.13997" lon="2.66821">
        <ele>1475.8</ele>
        <time>2021-09-10T12:48:18.000Z</time>
      </trkpt>
      <trkpt lat="45.13987" lon="2.66826">
        <ele>1474.4</ele>
        <time>2021-09-10T12:49:36.000Z</time>
      </trkpt>
      <trkpt lat="45.13987" lon="2.66817">
        <ele>1471.5</ele>
        <time>2021-09-10T12:49:53.000Z</time>
      </trkpt>
      <trkpt lat="45.13985" lon="2.66808">
        <ele>1468.1</ele>
        <time>2021-09-10T12:50:04.000Z</time>
      </trkpt>
      <trkpt lat="45.1398" lon="2.66797">
        <ele>1463.3</ele>
        <time>2021-09-10T12:51:04.000Z</time>
      </trkpt>
      <trkpt lat="45.13979" lon="2.66787">
        <ele>1460</ele>
        <time>2021-09-10T12:51:23.000Z</time>
      </trkpt>
      <trkpt lat="45.13978" lon="2.66778">
        <ele>1457.1</ele>
        <time>2021-09-10T12:51:44.000Z</time>
      </trkpt>
      <trkpt lat="45.13976" lon="2.66769">
        <ele>1453.9</ele>
        <time>2021-09-10T12:52:11.000Z</time>
      </trkpt>
      <trkpt lat="45.13972" lon="2.66761">
        <ele>1450.8</ele>
        <time>2021-09-10T12:52:56.000Z</time>
      </trkpt>
      <trkpt lat="45.13968" lon="2.66753">
        <ele>1447.9</ele>
        <time>2021-09-10T12:53:11.000Z</time>
      </trkpt>
      <trkpt lat="45.13961" lon="2.66751">
        <ele>1446.2</ele>
        <time>2021-09-10T12:53:55.000Z</time>
      </trkpt>
      <trkpt lat="45.13954" lon="2.66748">
        <ele>1444.3</ele>
        <time>2021-09-10T12:54:08.000Z</time>
      </trkpt>
      <trkpt lat="45.13948" lon="2.66745">
        <ele>1442.7</ele>
        <time>2021-09-10T12:54:36.000Z</time>
      </trkpt>
      <trkpt lat="45.13941" lon="2.66747">
        <ele>1442.1</ele>
        <time>2021-09-10T12:54:45.000Z</time>
      </trkpt>
      <trkpt lat="45.13936" lon="2.6674">
        <ele>1439.7</ele>
        <time>2021-09-10T12:55:04.000Z</time>
      </trkpt>
      <trkpt lat="45.1393" lon="2.66734">
        <ele>1437.5</ele>
        <time>2021-09-10T12:55:11.000Z</time>
      </trkpt>
      <trkpt lat="45.13925" lon="2.66726">
        <ele>1435.1</ele>
        <time>2021-09-10T12:55:44.000Z</time>
      </trkpt>
      <trkpt lat="45.13922" lon="2.66718">
        <ele>1433.1</ele>
        <time>2021-09-10T12:55:57.000Z</time>
      </trkpt>
      <trkpt lat="45.13919" lon="2.6671">
        <ele>1431.1</ele>
        <time>2021-09-10T12:56:12.000Z</time>
      </trkpt>
      <trkpt lat="45.13917" lon="2.667">
        <ele>1428.8</ele>
        <time>2021-09-10T12:56:24.000Z</time>
      </trkpt>
      <trkpt lat="45.13916" lon="2.66691">
        <ele>1426.8</ele>
        <time>2021-09-10T12:56:31.000Z</time>
      </trkpt>
      <trkpt lat="45.13916" lon="2.66681">
        <ele>1424.8</ele>
        <time>2021-09-10T12:56:43.000Z</time>
      </trkpt>
      <trkpt lat="45.13916" lon="2.66671">
        <ele>1422.7</ele>
        <time>2021-09-10T12:57:12.000Z</time>
      </trkpt>
      <trkpt lat="45.1392" lon="2.66664">
        <ele>1421.6</ele>
        <time>2021-09-10T12:57:20.000Z</time>
      </trkpt>
      <trkpt lat="45.13924" lon="2.66655">
        <ele>1420.1</ele>
        <time>2021-09-10T12:57:30.000Z</time>
      </trkpt>
      <trkpt lat="45.13927" lon="2.66647">
        <ele>1418.6</ele>
        <time>2021-09-10T12:58:14.000Z</time>
      </trkpt>
      <trkpt lat="45.13934" lon="2.66647">
        <ele>1418.8</ele>
        <time>2021-09-10T12:58:22.000Z</time>
      </trkpt>
      <trkpt lat="45.13941" lon="2.66648">
        <ele>1419.3</ele>
        <time>2021-09-10T12:58:33.000Z</time>
      </trkpt>
      <trkpt lat="45.13948" lon="2.66646">
        <ele>1419.1</ele>
        <time>2021-09-10T12:58:41.000Z</time>
      </trkpt>
      <trkpt lat="45.13954" lon="2.66644">
        <ele>1418.8</ele>
        <time>2021-09-10T12:58:56.000Z</time>
      </trkpt>
      <trkpt lat="45.13961" lon="2.66641">
        <ele>1418.4</ele>
        <time>2021-09-10T12:59:10.000Z</time>
      </trkpt>
      <trkpt lat="45.13963" lon="2.66632">
        <ele>1416.4</ele>
        <time>2021-09-10T12:59:40.000Z</time>
      </trkpt>
      <trkpt lat="45.13957" lon="2.66632">
        <ele>1416.3</ele>
        <time>2021-09-10T12:59:53.000Z</time>
      </trkpt>
      <trkpt lat="45.13964" lon="2.66631">
        <ele>1416.2</ele>
        <time>2021-09-10T13:00:14.000Z</time>
      </trkpt>
      <trkpt lat="45.13971" lon="2.66632">
        <ele>1416.6</ele>
        <time>2021-09-10T13:00:23.000Z</time>
      </trkpt>
      <trkpt lat="45.13978" lon="2.6663">
        <ele>1416.3</ele>
        <time>2021-09-10T13:00:35.000Z</time>
      </trkpt>
      <trkpt lat="45.13984" lon="2.66626">
        <ele>1415.5</ele>
        <time>2021-09-10T13:00:54.000Z</time>
      </trkpt>
      <trkpt lat="45.13988" lon="2.66619">
        <ele>1413.8</ele>
        <time>2021-09-10T13:01:07.000Z</time>
      </trkpt>
      <trkpt lat="45.13994" lon="2.66614">
        <ele>1412.7</ele>
        <time>2021-09-10T13:01:32.000Z</time>
      </trkpt>
      <trkpt lat="45.13992" lon="2.66603">
        <ele>1409.9</ele>
        <time>2021-09-10T13:01:49.000Z</time>
      </trkpt>
      <trkpt lat="45.13993" lon="2.66594">
        <ele>1407.7</ele>
        <time>2021-09-10T13:02:05.000Z</time>
      </trkpt>
      <trkpt lat="45.13995" lon="2.66585">
        <ele>1405.5</ele>
        <time>2021-09-10T13:02:20.000Z</time>
      </trkpt>
      <trkpt lat="45.13993" lon="2.66575">
        <ele>1403.1</ele>
        <time>2021-09-10T13:02:26.000Z</time>
      </trkpt>
      <trkpt lat="45.13991" lon="2.66564">
        <ele>1400.5</ele>
        <time>2021-09-10T13:02:34.000Z</time>
      </trkpt>
      <trkpt lat="45.13989" lon="2.66554">
        <ele>1398.1</ele>
        <time>2021-09-10T13:02:43.000Z</time>
      </trkpt>
      <trkpt lat="45.13991" lon="2.66544">
        <ele>1395.7</ele>
        <time>2021-09-10T13:02:52.000Z</time>
      </trkpt>
      <trkpt lat="45.13995" lon="2.66537">
        <ele>1394.2</ele>
        <time>2021-09-10T13:03:06.000Z</time>
      </trkpt>
      <trkpt lat="45.13993" lon="2.66525">
        <ele>1391.3</ele>
        <time>2021-09-10T13:03:33.000Z</time>
      </trkpt>
      <trkpt lat="45.14" lon="2.66516">
        <ele>1389.6</ele>
        <time>2021-09-10T13:03:58.000Z</time>
      </trkpt>
      <trkpt lat="45.14001" lon="2.66505">
        <ele>1387.4</ele>
        <time>2021-09-10T13:04:05.000Z</time>
      </trkpt>
      <trkpt lat="45.14005" lon="2.66496">
        <ele>1386.9</ele>
        <time>2021-09-10T13:04:09.000Z</time>
      </trkpt>
      <trkpt lat="45.14011" lon="2.6648">
        <ele>1386.3</ele>
        <time>2021-09-10T13:04:15.000Z</time>
      </trkpt>
      <trkpt lat="45.14016" lon="2.66474">
        <ele>1387</ele>
        <time>2021-09-10T13:04:21.000Z</time>
      </trkpt>
      <trkpt lat="45.14015" lon="2.66464">
        <ele>1385.2</ele>
        <time>2021-09-10T13:04:29.000Z</time>
      </trkpt>
      <trkpt lat="45.14012" lon="2.66456">
        <ele>1382.9</ele>
        <time>2021-09-10T13:04:38.000Z</time>
      </trkpt>
      <trkpt lat="45.14016" lon="2.66448">
        <ele>1383.1</ele>
        <time>2021-09-10T13:04:47.000Z</time>
      </trkpt>
      <trkpt lat="45.14012" lon="2.66439">
        <ele>1380.2</ele>
        <time>2021-09-10T13:04:56.000Z</time>
      </trkpt>
      <trkpt lat="45.14011" lon="2.66429">
        <ele>1378.3</ele>
        <time>2021-09-10T13:05:02.000Z</time>
      </trkpt>
      <trkpt lat="45.1401" lon="2.6642">
        <ele>1376.5</ele>
        <time>2021-09-10T13:05:06.000Z</time>
      </trkpt>
      <trkpt lat="45.14009" lon="2.6641">
        <ele>1375.4</ele>
        <time>2021-09-10T13:05:13.000Z</time>
      </trkpt>
      <trkpt lat="45.14007" lon="2.664">
        <ele>1374.4</ele>
        <time>2021-09-10T13:05:19.000Z</time>
      </trkpt>
      <trkpt lat="45.14006" lon="2.66389">
        <ele>1373.7</ele>
        <time>2021-09-10T13:05:28.000Z</time>
      </trkpt>
      <trkpt lat="45.14002" lon="2.6638">
        <ele>1371.9</ele>
        <time>2021-09-10T13:05:35.000Z</time>
      </trkpt>
      <trkpt lat="45.13999" lon="2.66372">
        <ele>1370.6</ele>
        <time>2021-09-10T13:05:41.000Z</time>
      </trkpt>
      <trkpt lat="45.13995" lon="2.66364">
        <ele>1368.9</ele>
        <time>2021-09-10T13:05:46.000Z</time>
      </trkpt>
      <trkpt lat="45.13993" lon="2.66355">
        <ele>1367.8</ele>
        <time>2021-09-10T13:05:52.000Z</time>
      </trkpt>
      <trkpt lat="45.1399" lon="2.66344">
        <ele>1366.2</ele>
        <time>2021-09-10T13:06:00.000Z</time>
      </trkpt>
      <trkpt lat="45.1399" lon="2.66334">
        <ele>1365.7</ele>
        <time>2021-09-10T13:06:06.000Z</time>
      </trkpt>
      <trkpt lat="45.13989" lon="2.66324">
        <ele>1364.8</ele>
        <time>2021-09-10T13:06:35.000Z</time>
      </trkpt>
      <trkpt lat="45.13991" lon="2.66315">
        <ele>1365.2</ele>
        <time>2021-09-10T13:06:43.000Z</time>
      </trkpt>
      <trkpt lat="45.13992" lon="2.66305">
        <ele>1365.2</ele>
        <time>2021-09-10T13:06:48.000Z</time>
      </trkpt>
      <trkpt lat="45.13993" lon="2.66295">
        <ele>1365.1</ele>
        <time>2021-09-10T13:06:52.000Z</time>
      </trkpt>
      <trkpt lat="45.13995" lon="2.66283">
        <ele>1365.4</ele>
        <time>2021-09-10T13:06:57.000Z</time>
      </trkpt>
      <trkpt lat="45.13996" lon="2.6627">
        <ele>1365.2</ele>
        <time>2021-09-10T13:07:03.000Z</time>
      </trkpt>
      <trkpt lat="45.13998" lon="2.66261">
        <ele>1365.6</ele>
        <time>2021-09-10T13:07:09.000Z</time>
      </trkpt>
      <trkpt lat="45.14" lon="2.66251">
        <ele>1366</ele>
        <time>2021-09-10T13:07:17.000Z</time>
      </trkpt>
      <trkpt lat="45.14003" lon="2.66242">
        <ele>1366</ele>
        <time>2021-09-10T13:07:23.000Z</time>
      </trkpt>
      <trkpt lat="45.14003" lon="2.66232">
        <ele>1364.9</ele>
        <time>2021-09-10T13:07:30.000Z</time>
      </trkpt>
      <trkpt lat="45.14003" lon="2.66221">
        <ele>1363.7</ele>
        <time>2021-09-10T13:07:36.000Z</time>
      </trkpt>
      <trkpt lat="45.14002" lon="2.66212">
        <ele>1362.4</ele>
        <time>2021-09-10T13:07:43.000Z</time>
      </trkpt>
      <trkpt lat="45.14009" lon="2.66209">
        <ele>1364</ele>
        <time>2021-09-10T13:07:52.000Z</time>
      </trkpt>
      <trkpt lat="45.14015" lon="2.66203">
        <ele>1364.9</ele>
        <time>2021-09-10T13:08:01.000Z</time>
      </trkpt>
      <trkpt lat="45.14022" lon="2.66198">
        <ele>1366.2</ele>
        <time>2021-09-10T13:08:28.000Z</time>
      </trkpt>
      <trkpt lat="45.14019" lon="2.6619">
        <ele>1364.4</ele>
        <time>2021-09-10T13:08:36.000Z</time>
      </trkpt>
      <trkpt lat="45.14015" lon="2.66182">
        <ele>1362.4</ele>
        <time>2021-09-10T13:08:44.000Z</time>
      </trkpt>
      <trkpt lat="45.14009" lon="2.66178">
        <ele>1360.5</ele>
        <time>2021-09-10T13:08:50.000Z</time>
      </trkpt>
      <trkpt lat="45.14004" lon="2.66171">
        <ele>1358.4</ele>
        <time>2021-09-10T13:09:22.000Z</time>
      </trkpt>
      <trkpt lat="45.13997" lon="2.66169">
        <ele>1356.1</ele>
        <time>2021-09-10T13:09:30.000Z</time>
      </trkpt>
      <trkpt lat="45.13992" lon="2.66162">
        <ele>1353.3</ele>
        <time>2021-09-10T13:09:37.000Z</time>
      </trkpt>
      <trkpt lat="45.13987" lon="2.66155">
        <ele>1350.5</ele>
        <time>2021-09-10T13:09:43.000Z</time>
      </trkpt>
      <trkpt lat="45.13982" lon="2.66149">
        <ele>1348</ele>
        <time>2021-09-10T13:09:49.000Z</time>
      </trkpt>
      <trkpt lat="45.13976" lon="2.66145">
        <ele>1345.4</ele>
        <time>2021-09-10T13:09:56.000Z</time>
      </trkpt>
      <trkpt lat="45.1397" lon="2.6614">
        <ele>1342.7</ele>
        <time>2021-09-10T13:10:03.000Z</time>
      </trkpt>
      <trkpt lat="45.13965" lon="2.66133">
        <ele>1340.3</ele>
        <time>2021-09-10T13:10:09.000Z</time>
      </trkpt>
      <trkpt lat="45.13959" lon="2.66128">
        <ele>1337.8</ele>
        <time>2021-09-10T13:10:16.000Z</time>
      </trkpt>
      <trkpt lat="45.13955" lon="2.6612">
        <ele>1335.7</ele>
        <time>2021-09-10T13:10:24.000Z</time>
      </trkpt>
      <trkpt lat="45.13949" lon="2.66114">
        <ele>1333.3</ele>
        <time>2021-09-10T13:10:31.000Z</time>
      </trkpt>
      <trkpt lat="45.13942" lon="2.66111">
        <ele>1330.9</ele>
        <time>2021-09-10T13:10:38.000Z</time>
      </trkpt>
      <trkpt lat="45.13938" lon="2.66104">
        <ele>1329.2</ele>
        <time>2021-09-10T13:10:49.000Z</time>
      </trkpt>
      <trkpt lat="45.13933" lon="2.66096">
        <ele>1327.2</ele>
        <time>2021-09-10T13:10:57.000Z</time>
      </trkpt>
      <trkpt lat="45.13934" lon="2.66086">
        <ele>1326.8</ele>
        <time>2021-09-10T13:11:28.000Z</time>
      </trkpt>
      <trkpt lat="45.1394" lon="2.6608">
        <ele>1327.6</ele>
        <time>2021-09-10T13:11:33.000Z</time>
      </trkpt>
      <trkpt lat="45.13948" lon="2.66076">
        <ele>1328.9</ele>
        <time>2021-09-10T13:11:39.000Z</time>
      </trkpt>
      <trkpt lat="45.13955" lon="2.66074">
        <ele>1330.3</ele>
        <time>2021-09-10T13:11:46.000Z</time>
      </trkpt>
      <trkpt lat="45.1396" lon="2.66069">
        <ele>1330.6</ele>
        <time>2021-09-10T13:11:54.000Z</time>
      </trkpt>
      <trkpt lat="45.13965" lon="2.66061">
        <ele>1330.2</ele>
        <time>2021-09-10T13:12:06.000Z</time>
      </trkpt>
      <trkpt lat="45.13971" lon="2.66057">
        <ele>1330.8</ele>
        <time>2021-09-10T13:12:13.000Z</time>
      </trkpt>
      <trkpt lat="45.13977" lon="2.6605">
        <ele>1330.7</ele>
        <time>2021-09-10T13:12:19.000Z</time>
      </trkpt>
      <trkpt lat="45.13983" lon="2.66046">
        <ele>1331.2</ele>
        <time>2021-09-10T13:12:25.000Z</time>
      </trkpt>
      <trkpt lat="45.13989" lon="2.6604">
        <ele>1331.2</ele>
        <time>2021-09-10T13:12:31.000Z</time>
      </trkpt>
      <trkpt lat="45.13995" lon="2.66034">
        <ele>1331.1</ele>
        <time>2021-09-10T13:12:38.000Z</time>
      </trkpt>
      <trkpt lat="45.14001" lon="2.66029">
        <ele>1331.1</ele>
        <time>2021-09-10T13:12:45.000Z</time>
      </trkpt>
      <trkpt lat="45.14007" lon="2.66025">
        <ele>1331</ele>
        <time>2021-09-10T13:12:52.000Z</time>
      </trkpt>
      <trkpt lat="45.14012" lon="2.66018">
        <ele>1330</ele>
        <time>2021-09-10T13:12:58.000Z</time>
      </trkpt>
      <trkpt lat="45.14019" lon="2.66015">
        <ele>1330.2</ele>
        <time>2021-09-10T13:13:06.000Z</time>
      </trkpt>
      <trkpt lat="45.14025" lon="2.66009">
        <ele>1329.5</ele>
        <time>2021-09-10T13:13:14.000Z</time>
      </trkpt>
      <trkpt lat="45.1403" lon="2.66004">
        <ele>1329</ele>
        <time>2021-09-10T13:13:24.000Z</time>
      </trkpt>
      <trkpt lat="45.14037" lon="2.66001">
        <ele>1329.1</ele>
        <time>2021-09-10T13:13:36.000Z</time>
      </trkpt>
      <trkpt lat="45.14043" lon="2.65996">
        <ele>1328.6</ele>
        <time>2021-09-10T13:13:43.000Z</time>
      </trkpt>
      <trkpt lat="45.14049" lon="2.65991">
        <ele>1328</ele>
        <time>2021-09-10T13:13:52.000Z</time>
      </trkpt>
      <trkpt lat="45.14054" lon="2.65985">
        <ele>1327.1</ele>
        <time>2021-09-10T13:14:22.000Z</time>
      </trkpt>
      <trkpt lat="45.14055" lon="2.65976">
        <ele>1324.7</ele>
        <time>2021-09-10T13:14:37.000Z</time>
      </trkpt>
      <trkpt lat="45.14058" lon="2.65967">
        <ele>1322.7</ele>
        <time>2021-09-10T13:14:50.000Z</time>
      </trkpt>
      <trkpt lat="45.14062" lon="2.65958">
        <ele>1320.7</ele>
        <time>2021-09-10T13:15:14.000Z</time>
      </trkpt>
      <trkpt lat="45.14061" lon="2.65948">
        <ele>1317.9</ele>
        <time>2021-09-10T13:15:28.000Z</time>
      </trkpt>
      <trkpt lat="45.14061" lon="2.65938">
        <ele>1315.1</ele>
        <time>2021-09-10T13:15:35.000Z</time>
      </trkpt>
      <trkpt lat="45.1406" lon="2.65929">
        <ele>1312.6</ele>
        <time>2021-09-10T13:15:44.000Z</time>
      </trkpt>
      <trkpt lat="45.14062" lon="2.65919">
        <ele>1310.1</ele>
        <time>2021-09-10T13:15:55.000Z</time>
      </trkpt>
      <trkpt lat="45.14063" lon="2.65908">
        <ele>1307.4</ele>
        <time>2021-09-10T13:16:05.000Z</time>
      </trkpt>
      <trkpt lat="45.14062" lon="2.65898">
        <ele>1304.8</ele>
        <time>2021-09-10T13:16:14.000Z</time>
      </trkpt>
      <trkpt lat="45.14062" lon="2.65889">
        <ele>1302.6</ele>
        <time>2021-09-10T13:16:29.000Z</time>
      </trkpt>
      <trkpt lat="45.14061" lon="2.65879">
        <ele>1299.9</ele>
        <time>2021-09-10T13:17:13.000Z</time>
      </trkpt>
      <trkpt lat="45.14062" lon="2.65869">
        <ele>1297.6</ele>
        <time>2021-09-10T13:17:33.000Z</time>
      </trkpt>
      <trkpt lat="45.14062" lon="2.65859">
        <ele>1295.1</ele>
        <time>2021-09-10T13:17:41.000Z</time>
      </trkpt>
      <trkpt lat="45.14066" lon="2.65851">
        <ele>1293.5</ele>
        <time>2021-09-10T13:17:53.000Z</time>
      </trkpt>
      <trkpt lat="45.14069" lon="2.65843">
        <ele>1291.9</ele>
        <time>2021-09-10T13:18:01.000Z</time>
      </trkpt>
      <trkpt lat="45.14071" lon="2.65834">
        <ele>1289.8</ele>
        <time>2021-09-10T13:18:09.000Z</time>
      </trkpt>
      <trkpt lat="45.14078" lon="2.6583">
        <ele>1289.4</ele>
        <time>2021-09-10T13:18:15.000Z</time>
      </trkpt>
      <trkpt lat="45.14084" lon="2.65825">
        <ele>1288.4</ele>
        <time>2021-09-10T13:18:21.000Z</time>
      </trkpt>
      <trkpt lat="45.14091" lon="2.65825">
        <ele>1289.2</ele>
        <time>2021-09-10T13:18:45.000Z</time>
      </trkpt>
      <trkpt lat="45.14098" lon="2.65827">
        <ele>1290.7</ele>
        <time>2021-09-10T13:18:56.000Z</time>
      </trkpt>
      <trkpt lat="45.14104" lon="2.65822">
        <ele>1289.7</ele>
        <time>2021-09-10T13:19:03.000Z</time>
      </trkpt>
      <trkpt lat="45.14111" lon="2.65823">
        <ele>1290.9</ele>
        <time>2021-09-10T13:19:11.000Z</time>
      </trkpt>
      <trkpt lat="45.14117" lon="2.65819">
        <ele>1290.3</ele>
        <time>2021-09-10T13:19:16.000Z</time>
      </trkpt>
      <trkpt lat="45.14123" lon="2.65819">
        <ele>1291</ele>
        <time>2021-09-10T13:19:23.000Z</time>
      </trkpt>
      <trkpt lat="45.14126" lon="2.65808">
        <ele>1287.6</ele>
        <time>2021-09-10T13:19:27.000Z</time>
      </trkpt>
      <trkpt lat="45.14133" lon="2.65805">
        <ele>1287.4</ele>
        <time>2021-09-10T13:19:33.000Z</time>
      </trkpt>
      <trkpt lat="45.14126" lon="2.65806">
        <ele>1286.9</ele>
        <time>2021-09-10T13:19:41.000Z</time>
      </trkpt>
      <trkpt lat="45.14132" lon="2.65809">
        <ele>1288.6</ele>
        <time>2021-09-10T13:19:55.000Z</time>
      </trkpt>
      <trkpt lat="45.14139" lon="2.65809">
        <ele>1289.4</ele>
        <time>2021-09-10T13:19:59.000Z</time>
      </trkpt>
      <trkpt lat="45.14146" lon="2.65808">
        <ele>1289.9</ele>
        <time>2021-09-10T13:20:04.000Z</time>
      </trkpt>
      <trkpt lat="45.14153" lon="2.65807">
        <ele>1290.3</ele>
        <time>2021-09-10T13:20:10.000Z</time>
      </trkpt>
      <trkpt lat="45.14159" lon="2.65803">
        <ele>1289.6</ele>
        <time>2021-09-10T13:20:15.000Z</time>
      </trkpt>
      <trkpt lat="45.14159" lon="2.65791">
        <ele>1285.4</ele>
        <time>2021-09-10T13:20:21.000Z</time>
      </trkpt>
      <trkpt lat="45.14171" lon="2.65786">
        <ele>1285</ele>
        <time>2021-09-10T13:20:27.000Z</time>
      </trkpt>
      <trkpt lat="45.14177" lon="2.65778">
        <ele>1282.9</ele>
        <time>2021-09-10T13:20:33.000Z</time>
      </trkpt>
      <trkpt lat="45.14184" lon="2.65775">
        <ele>1282.7</ele>
        <time>2021-09-10T13:20:43.000Z</time>
      </trkpt>
      <trkpt lat="45.14191" lon="2.65777">
        <ele>1284.2</ele>
        <time>2021-09-10T13:20:56.000Z</time>
      </trkpt>
      <trkpt lat="45.14197" lon="2.65774">
        <ele>1283.9</ele>
        <time>2021-09-10T13:21:04.000Z</time>
      </trkpt>
      <trkpt lat="45.14203" lon="2.65767">
        <ele>1282.4</ele>
        <time>2021-09-10T13:21:12.000Z</time>
      </trkpt>
      <trkpt lat="45.14208" lon="2.65763">
        <ele>1281.7</ele>
        <time>2021-09-10T13:21:23.000Z</time>
      </trkpt>
      <trkpt lat="45.14215" lon="2.65766">
        <ele>1283.5</ele>
        <time>2021-09-10T13:21:59.000Z</time>
      </trkpt>
      <trkpt lat="45.14222" lon="2.65764">
        <ele>1283.7</ele>
        <time>2021-09-10T13:22:06.000Z</time>
      </trkpt>
      <trkpt lat="45.14229" lon="2.65759">
        <ele>1283</ele>
        <time>2021-09-10T13:22:09.000Z</time>
      </trkpt>
      <trkpt lat="45.14236" lon="2.65755">
        <ele>1282.7</ele>
        <time>2021-09-10T13:22:15.000Z</time>
      </trkpt>
      <trkpt lat="45.14243" lon="2.65758">
        <ele>1284.5</ele>
        <time>2021-09-10T13:22:24.000Z</time>
      </trkpt>
      <trkpt lat="45.14249" lon="2.65755">
        <ele>1284.4</ele>
        <time>2021-09-10T13:22:40.000Z</time>
      </trkpt>
      <trkpt lat="45.14253" lon="2.65764">
        <ele>1286.6</ele>
        <time>2021-09-10T13:23:08.000Z</time>
      </trkpt>
      <trkpt lat="45.1426" lon="2.65764">
        <ele>1285.3</ele>
        <time>2021-09-10T13:23:16.000Z</time>
      </trkpt>
      <trkpt lat="45.14263" lon="2.65755">
        <ele>1282.1</ele>
        <time>2021-09-10T13:23:36.000Z</time>
      </trkpt>
      <trkpt lat="45.14266" lon="2.65746">
        <ele>1278.9</ele>
        <time>2021-09-10T13:24:03.000Z</time>
      </trkpt>
      <trkpt lat="45.1426" lon="2.65751">
        <ele>1281.5</ele>
        <time>2021-09-10T13:24:13.000Z</time>
      </trkpt>
      <trkpt lat="45.14265" lon="2.65758">
        <ele>1282.6</ele>
        <time>2021-09-10T13:24:28.000Z</time>
      </trkpt>
      <trkpt lat="45.14271" lon="2.65748">
        <ele>1278.6</ele>
        <time>2021-09-10T13:25:31.000Z</time>
      </trkpt>
      <trkpt lat="45.14272" lon="2.65757">
        <ele>1281</ele>
        <time>2021-09-10T13:26:05.000Z</time>
      </trkpt>
      <trkpt lat="45.14278" lon="2.65762">
        <ele>1281.2</ele>
        <time>2021-09-10T13:26:11.000Z</time>
      </trkpt>
      <trkpt lat="45.14283" lon="2.65767">
        <ele>1281.6</ele>
        <time>2021-09-10T13:26:18.000Z</time>
      </trkpt>
      <trkpt lat="45.14286" lon="2.65776">
        <ele>1283.4</ele>
        <time>2021-09-10T13:26:29.000Z</time>
      </trkpt>
      <trkpt lat="45.14292" lon="2.65782">
        <ele>1283.7</ele>
        <time>2021-09-10T13:26:39.000Z</time>
      </trkpt>
      <trkpt lat="45.14299" lon="2.65785">
        <ele>1283</ele>
        <time>2021-09-10T13:26:47.000Z</time>
      </trkpt>
      <trkpt lat="45.14302" lon="2.65792">
        <ele>1284</ele>
        <time>2021-09-10T13:27:03.000Z</time>
      </trkpt>
      <trkpt lat="45.14311" lon="2.65801">
        <ele>1284.2</ele>
        <time>2021-09-10T13:27:28.000Z</time>
      </trkpt>
      <trkpt lat="45.14323" lon="2.65808">
        <ele>1283</ele>
        <time>2021-09-10T13:27:54.000Z</time>
      </trkpt>
      <trkpt lat="45.14331" lon="2.65807">
        <ele>1280.9</ele>
        <time>2021-09-10T13:28:10.000Z</time>
      </trkpt>
      <trkpt lat="45.14338" lon="2.65809">
        <ele>1278.7</ele>
        <time>2021-09-10T13:28:16.000Z</time>
      </trkpt>
      <trkpt lat="45.14345" lon="2.65814">
        <ele>1276.8</ele>
        <time>2021-09-10T13:28:22.000Z</time>
      </trkpt>
      <trkpt lat="45.14351" lon="2.65819">
        <ele>1275.3</ele>
        <time>2021-09-10T13:28:32.000Z</time>
      </trkpt>
      <trkpt lat="45.14363" lon="2.65824">
        <ele>1271.2</ele>
        <time>2021-09-10T13:28:45.000Z</time>
      </trkpt>
      <trkpt lat="45.14369" lon="2.65828">
        <ele>1269.4</ele>
        <time>2021-09-10T13:28:53.000Z</time>
      </trkpt>
      <trkpt lat="45.14375" lon="2.65833">
        <ele>1267.9</ele>
        <time>2021-09-10T13:28:59.000Z</time>
      </trkpt>
      <trkpt lat="45.14381" lon="2.65836">
        <ele>1266.1</ele>
        <time>2021-09-10T13:29:04.000Z</time>
      </trkpt>
      <trkpt lat="45.14388" lon="2.6584">
        <ele>1264</ele>
        <time>2021-09-10T13:29:10.000Z</time>
      </trkpt>
      <trkpt lat="45.14395" lon="2.65845">
        <ele>1262.1</ele>
        <time>2021-09-10T13:29:16.000Z</time>
      </trkpt>
      <trkpt lat="45.14401" lon="2.65851">
        <ele>1260.8</ele>
        <time>2021-09-10T13:29:25.000Z</time>
      </trkpt>
      <trkpt lat="45.14405" lon="2.65859">
        <ele>1260.8</ele>
        <time>2021-09-10T13:29:34.000Z</time>
      </trkpt>
      <trkpt lat="45.14411" lon="2.65853">
        <ele>1256.8</ele>
        <time>2021-09-10T13:29:46.000Z</time>
      </trkpt>
      <trkpt lat="45.1441" lon="2.65842">
        <ele>1254.8</ele>
        <time>2021-09-10T13:30:08.000Z</time>
      </trkpt>
      <trkpt lat="45.14417" lon="2.65843">
        <ele>1252</ele>
        <time>2021-09-10T13:30:24.000Z</time>
      </trkpt>
      <trkpt lat="45.14425" lon="2.65846">
        <ele>1250.8</ele>
        <time>2021-09-10T13:30:31.000Z</time>
      </trkpt>
      <trkpt lat="45.1443" lon="2.65852">
        <ele>1250.9</ele>
        <time>2021-09-10T13:31:04.000Z</time>
      </trkpt>
      <trkpt lat="45.14438" lon="2.65851">
        <ele>1248.8</ele>
        <time>2021-09-10T13:31:14.000Z</time>
      </trkpt>
      <trkpt lat="45.14443" lon="2.65846">
        <ele>1246.6</ele>
        <time>2021-09-10T13:31:22.000Z</time>
      </trkpt>
      <trkpt lat="45.1445" lon="2.65849">
        <ele>1245.6</ele>
        <time>2021-09-10T13:31:42.000Z</time>
      </trkpt>
      <trkpt lat="45.14456" lon="2.65853">
        <ele>1245.1</ele>
        <time>2021-09-10T13:31:51.000Z</time>
      </trkpt>
      <trkpt lat="45.14462" lon="2.65853">
        <ele>1243.7</ele>
        <time>2021-09-10T13:32:04.000Z</time>
      </trkpt>
      <trkpt lat="45.1447" lon="2.65847">
        <ele>1240.6</ele>
        <time>2021-09-10T13:32:23.000Z</time>
      </trkpt>
      <trkpt lat="45.14476" lon="2.65838">
        <ele>1237.4</ele>
        <time>2021-09-10T13:33:16.000Z</time>
      </trkpt>
      <trkpt lat="45.14479" lon="2.6583">
        <ele>1235.1</ele>
        <time>2021-09-10T13:33:30.000Z</time>
      </trkpt>
      <trkpt lat="45.14483" lon="2.65821">
        <ele>1232.3</ele>
        <time>2021-09-10T13:33:41.000Z</time>
      </trkpt>
      <trkpt lat="45.14486" lon="2.65811">
        <ele>1229.6</ele>
        <time>2021-09-10T13:33:46.000Z</time>
      </trkpt>
      <trkpt lat="45.14489" lon="2.65802">
        <ele>1227.1</ele>
        <time>2021-09-10T13:33:51.000Z</time>
      </trkpt>
      <trkpt lat="45.14492" lon="2.65792">
        <ele>1224.3</ele>
        <time>2021-09-10T13:34:02.000Z</time>
      </trkpt>
      <trkpt lat="45.14492" lon="2.65782">
        <ele>1222.3</ele>
        <time>2021-09-10T13:34:06.000Z</time>
      </trkpt>
      <trkpt lat="45.14493" lon="2.65773">
        <ele>1220.2</ele>
        <time>2021-09-10T13:34:13.000Z</time>
      </trkpt>
      <trkpt lat="45.14493" lon="2.65763">
        <ele>1218.2</ele>
        <time>2021-09-10T13:34:22.000Z</time>
      </trkpt>
      <trkpt lat="45.14494" lon="2.65753">
        <ele>1215.9</ele>
        <time>2021-09-10T13:34:30.000Z</time>
      </trkpt>
      <trkpt lat="45.14496" lon="2.65743">
        <ele>1213.5</ele>
        <time>2021-09-10T13:34:37.000Z</time>
      </trkpt>
      <trkpt lat="45.14502" lon="2.65738">
        <ele>1212.1</ele>
        <time>2021-09-10T13:34:46.000Z</time>
      </trkpt>
      <trkpt lat="45.14497" lon="2.65731">
        <ele>1211</ele>
        <time>2021-09-10T13:34:59.000Z</time>
      </trkpt>
      <trkpt lat="45.14501" lon="2.65722">
        <ele>1208.8</ele>
        <time>2021-09-10T13:35:14.000Z</time>
      </trkpt>
      <trkpt lat="45.14506" lon="2.65716">
        <ele>1208.8</ele>
        <time>2021-09-10T13:35:21.000Z</time>
      </trkpt>
      <trkpt lat="45.14503" lon="2.65708">
        <ele>1206.6</ele>
        <time>2021-09-10T13:35:35.000Z</time>
      </trkpt>
      <trkpt lat="45.1451" lon="2.65704">
        <ele>1207.6</ele>
        <time>2021-09-10T13:36:31.000Z</time>
      </trkpt>
      <trkpt lat="45.14515" lon="2.65694">
        <ele>1207</ele>
        <time>2021-09-10T13:36:36.000Z</time>
      </trkpt>
      <trkpt lat="45.14516" lon="2.65682">
        <ele>1205.2</ele>
        <time>2021-09-10T13:36:42.000Z</time>
      </trkpt>
      <trkpt lat="45.14517" lon="2.65672">
        <ele>1203.8</ele>
        <time>2021-09-10T13:36:48.000Z</time>
      </trkpt>
      <trkpt lat="45.14516" lon="2.65663">
        <ele>1202</ele>
        <time>2021-09-10T13:36:54.000Z</time>
      </trkpt>
      <trkpt lat="45.14509" lon="2.65661">
        <ele>1199.6</ele>
        <time>2021-09-10T13:37:45.000Z</time>
      </trkpt>
      <trkpt lat="45.14506" lon="2.65651">
        <ele>1197</ele>
        <time>2021-09-10T13:37:55.000Z</time>
      </trkpt>
      <trkpt lat="45.14501" lon="2.65644">
        <ele>1194.2</ele>
        <time>2021-09-10T13:38:22.000Z</time>
      </trkpt>
      <trkpt lat="45.14501" lon="2.65634">
        <ele>1192.4</ele>
        <time>2021-09-10T13:38:32.000Z</time>
      </trkpt>
      <trkpt lat="45.14504" lon="2.65627">
        <ele>1192.2</ele>
        <time>2021-09-10T13:38:37.000Z</time>
      </trkpt>
      <trkpt lat="45.14506" lon="2.65618">
        <ele>1191.3</ele>
        <time>2021-09-10T13:38:43.000Z</time>
      </trkpt>
      <trkpt lat="45.14507" lon="2.65606">
        <ele>1189.6</ele>
        <time>2021-09-10T13:39:16.000Z</time>
      </trkpt>
      <trkpt lat="45.14507" lon="2.65595">
        <ele>1187.7</ele>
        <time>2021-09-10T13:39:34.000Z</time>
      </trkpt>
      <trkpt lat="45.14508" lon="2.65585">
        <ele>1186.4</ele>
        <time>2021-09-10T13:39:41.000Z</time>
      </trkpt>
      <trkpt lat="45.14502" lon="2.65579">
        <ele>1183.3</ele>
        <time>2021-09-10T13:39:50.000Z</time>
      </trkpt>
      <trkpt lat="45.14502" lon="2.65569">
        <ele>1182.2</ele>
        <time>2021-09-10T13:39:55.000Z</time>
      </trkpt>
      <trkpt lat="45.145" lon="2.65558">
        <ele>1180.3</ele>
        <time>2021-09-10T13:40:00.000Z</time>
      </trkpt>
      <trkpt lat="45.14505" lon="2.65551">
        <ele>1181.5</ele>
        <time>2021-09-10T13:40:09.000Z</time>
      </trkpt>
      <trkpt lat="45.14504" lon="2.65536">
        <ele>1179.5</ele>
        <time>2021-09-10T13:40:35.000Z</time>
      </trkpt>
      <trkpt lat="45.145" lon="2.65528">
        <ele>1177</ele>
        <time>2021-09-10T13:40:43.000Z</time>
      </trkpt>
      <trkpt lat="45.14496" lon="2.6552">
        <ele>1175.8</ele>
        <time>2021-09-10T13:40:55.000Z</time>
      </trkpt>
      <trkpt lat="45.14493" lon="2.65512">
        <ele>1174.6</ele>
        <time>2021-09-10T13:41:03.000Z</time>
      </trkpt>
      <trkpt lat="45.14488" lon="2.65506">
        <ele>1173.3</ele>
        <time>2021-09-10T13:41:26.000Z</time>
      </trkpt>
      <trkpt lat="45.14486" lon="2.65497">
        <ele>1172</ele>
        <time>2021-09-10T13:41:39.000Z</time>
      </trkpt>
      <trkpt lat="45.14484" lon="2.65488">
        <ele>1170.7</ele>
        <time>2021-09-10T13:41:48.000Z</time>
      </trkpt>
      <trkpt lat="45.14479" lon="2.6548">
        <ele>1168.9</ele>
        <time>2021-09-10T13:41:56.000Z</time>
      </trkpt>
      <trkpt lat="45.14474" lon="2.6547">
        <ele>1166.7</ele>
        <time>2021-09-10T13:42:15.000Z</time>
      </trkpt>
      <trkpt lat="45.1447" lon="2.6546">
        <ele>1164.4</ele>
        <time>2021-09-10T13:42:27.000Z</time>
      </trkpt>
      <trkpt lat="45.14465" lon="2.65448">
        <ele>1161.5</ele>
        <time>2021-09-10T13:42:45.000Z</time>
      </trkpt>
      <trkpt lat="45.1446" lon="2.65441">
        <ele>1159.1</ele>
        <time>2021-09-10T13:42:55.000Z</time>
      </trkpt>
      <trkpt lat="45.14452" lon="2.65426">
        <ele>1154.4</ele>
        <time>2021-09-10T13:43:09.000Z</time>
      </trkpt>
      <trkpt lat="45.14452" lon="2.65416">
        <ele>1152.5</ele>
        <time>2021-09-10T13:43:26.000Z</time>
      </trkpt>
      <trkpt lat="45.14453" lon="2.65404">
        <ele>1150.7</ele>
        <time>2021-09-10T13:43:29.000Z</time>
      </trkpt>
      <trkpt lat="45.14453" lon="2.65394">
        <ele>1148.9</ele>
        <time>2021-09-10T13:43:36.000Z</time>
      </trkpt>
      <trkpt lat="45.14451" lon="2.65385">
        <ele>1146.6</ele>
        <time>2021-09-10T13:43:45.000Z</time>
      </trkpt>
      <trkpt lat="45.14452" lon="2.65376">
        <ele>1145.3</ele>
        <time>2021-09-10T13:43:56.000Z</time>
      </trkpt>
      <trkpt lat="45.14453" lon="2.65366">
        <ele>1143.9</ele>
        <time>2021-09-10T13:44:03.000Z</time>
      </trkpt>
      <trkpt lat="45.14454" lon="2.65356">
        <ele>1142.6</ele>
        <time>2021-09-10T13:44:09.000Z</time>
      </trkpt>
      <trkpt lat="45.14453" lon="2.65347">
        <ele>1140.6</ele>
        <time>2021-09-10T13:44:17.000Z</time>
      </trkpt>
      <trkpt lat="45.14454" lon="2.65337">
        <ele>1139.2</ele>
        <time>2021-09-10T13:44:26.000Z</time>
      </trkpt>
      <trkpt lat="45.14459" lon="2.6533">
        <ele>1140.4</ele>
        <time>2021-09-10T13:44:33.000Z</time>
      </trkpt>
      <trkpt lat="45.14465" lon="2.65324">
        <ele>1142.2</ele>
        <time>2021-09-10T13:44:42.000Z</time>
      </trkpt>
      <trkpt lat="45.1447" lon="2.65317">
        <ele>1143.3</ele>
        <time>2021-09-10T13:44:55.000Z</time>
      </trkpt>
      <trkpt lat="45.14474" lon="2.65311">
        <ele>1144.1</ele>
        <time>2021-09-10T13:45:05.000Z</time>
      </trkpt>
      <trkpt lat="45.14479" lon="2.65299">
        <ele>1144.2</ele>
        <time>2021-09-10T13:45:18.000Z</time>
      </trkpt>
      <trkpt lat="45.14482" lon="2.65291">
        <ele>1144.1</ele>
        <time>2021-09-10T13:45:26.000Z</time>
      </trkpt>
      <trkpt lat="45.14485" lon="2.65282">
        <ele>1143.7</ele>
        <time>2021-09-10T13:45:32.000Z</time>
      </trkpt>
      <trkpt lat="45.14488" lon="2.65274">
        <ele>1143.4</ele>
        <time>2021-09-10T13:45:39.000Z</time>
      </trkpt>
      <trkpt lat="45.14492" lon="2.65264">
        <ele>1143</ele>
        <time>2021-09-10T13:45:45.000Z</time>
      </trkpt>
      <trkpt lat="45.14493" lon="2.65254">
        <ele>1141.5</ele>
        <time>2021-09-10T13:46:01.000Z</time>
      </trkpt>
      <trkpt lat="45.14496" lon="2.65244">
        <ele>1140.1</ele>
        <time>2021-09-10T13:46:12.000Z</time>
      </trkpt>
      <trkpt lat="45.14502" lon="2.65244">
        <ele>1141.8</ele>
        <time>2021-09-10T13:46:28.000Z</time>
      </trkpt>
      <trkpt lat="45.14509" lon="2.65245">
        <ele>1143.7</ele>
        <time>2021-09-10T13:46:40.000Z</time>
      </trkpt>
      <trkpt lat="45.14516" lon="2.6524">
        <ele>1143.9</ele>
        <time>2021-09-10T13:46:45.000Z</time>
      </trkpt>
      <trkpt lat="45.14522" lon="2.65231">
        <ele>1142.7</ele>
        <time>2021-09-10T13:46:51.000Z</time>
      </trkpt>
      <trkpt lat="45.14526" lon="2.65224">
        <ele>1141.7</ele>
        <time>2021-09-10T13:46:59.000Z</time>
      </trkpt>
      <trkpt lat="45.14529" lon="2.65232">
        <ele>1144.6</ele>
        <time>2021-09-10T13:47:34.000Z</time>
      </trkpt>
      <trkpt lat="45.14535" lon="2.65229">
        <ele>1145.1</ele>
        <time>2021-09-10T13:47:45.000Z</time>
      </trkpt>
      <trkpt lat="45.14541" lon="2.65223">
        <ele>1144.7</ele>
        <time>2021-09-10T13:47:51.000Z</time>
      </trkpt>
      <trkpt lat="45.14551" lon="2.65217">
        <ele>1145.3</ele>
        <time>2021-09-10T13:47:57.000Z</time>
      </trkpt>
      <trkpt lat="45.14559" lon="2.65222">
        <ele>1148.5</ele>
        <time>2021-09-10T13:48:03.000Z</time>
      </trkpt>
      <trkpt lat="45.14565" lon="2.65216">
        <ele>1148.1</ele>
        <time>2021-09-10T13:48:20.000Z</time>
      </trkpt>
      <trkpt lat="45.1456" lon="2.65207">
        <ele>1144.4</ele>
        <time>2021-09-10T13:48:30.000Z</time>
      </trkpt>
      <trkpt lat="45.14563" lon="2.65199">
        <ele>1142.8</ele>
        <time>2021-09-10T13:48:36.000Z</time>
      </trkpt>
      <trkpt lat="45.14567" lon="2.65191">
        <ele>1141.4</ele>
        <time>2021-09-10T13:48:43.000Z</time>
      </trkpt>
      <trkpt lat="45.14573" lon="2.65184">
        <ele>1140.7</ele>
        <time>2021-09-10T13:48:47.000Z</time>
      </trkpt>
      <trkpt lat="45.1458" lon="2.65187">
        <ele>1143.1</ele>
        <time>2021-09-10T13:49:32.000Z</time>
      </trkpt>
      <trkpt lat="45.14587" lon="2.65183">
        <ele>1143.6</ele>
        <time>2021-09-10T13:49:40.000Z</time>
      </trkpt>
      <trkpt lat="45.14598" lon="2.65176">
        <ele>1144.1</ele>
        <time>2021-09-10T13:49:45.000Z</time>
      </trkpt>
      <trkpt lat="45.14607" lon="2.6517">
        <ele>1144.4</ele>
        <time>2021-09-10T13:49:51.000Z</time>
      </trkpt>
      <trkpt lat="45.14609" lon="2.65162">
        <ele>1142.8</ele>
        <time>2021-09-10T13:49:57.000Z</time>
      </trkpt>
      <trkpt lat="45.14612" lon="2.65153">
        <ele>1141.4</ele>
        <time>2021-09-10T13:50:07.000Z</time>
      </trkpt>
      <trkpt lat="45.14619" lon="2.65151">
        <ele>1142.5</ele>
        <time>2021-09-10T13:50:24.000Z</time>
      </trkpt>
      <trkpt lat="45.14622" lon="2.65143">
        <ele>1141.2</ele>
        <time>2021-09-10T13:50:31.000Z</time>
      </trkpt>
      <trkpt lat="45.14626" lon="2.65136">
        <ele>1140.3</ele>
        <time>2021-09-10T13:50:41.000Z</time>
      </trkpt>
      <trkpt lat="45.14632" lon="2.65134">
        <ele>1141.1</ele>
        <time>2021-09-10T13:50:54.000Z</time>
      </trkpt>
      <trkpt lat="45.14633" lon="2.65124">
        <ele>1138.8</ele>
        <time>2021-09-10T13:51:00.000Z</time>
      </trkpt>
      <trkpt lat="45.14633" lon="2.65114">
        <ele>1136.3</ele>
        <time>2021-09-10T13:51:07.000Z</time>
      </trkpt>
      <trkpt lat="45.14633" lon="2.65104">
        <ele>1133.9</ele>
        <time>2021-09-10T13:51:16.000Z</time>
      </trkpt>
      <trkpt lat="45.14638" lon="2.65097">
        <ele>1133</ele>
        <time>2021-09-10T13:51:22.000Z</time>
      </trkpt>
      <trkpt lat="45.14645" lon="2.65092">
        <ele>1132.8</ele>
        <time>2021-09-10T13:51:30.000Z</time>
      </trkpt>
      <trkpt lat="45.14649" lon="2.65085">
        <ele>1131.7</ele>
        <time>2021-09-10T13:51:34.000Z</time>
      </trkpt>
      <trkpt lat="45.14654" lon="2.65076">
        <ele>1130.3</ele>
        <time>2021-09-10T13:51:39.000Z</time>
      </trkpt>
      <trkpt lat="45.14659" lon="2.65068">
        <ele>1129.3</ele>
        <time>2021-09-10T13:51:45.000Z</time>
      </trkpt>
      <trkpt lat="45.14666" lon="2.65061">
        <ele>1128.8</ele>
        <time>2021-09-10T13:51:51.000Z</time>
      </trkpt>
      <trkpt lat="45.14673" lon="2.65055">
        <ele>1128.5</ele>
        <time>2021-09-10T13:51:57.000Z</time>
      </trkpt>
      <trkpt lat="45.14678" lon="2.65049">
        <ele>1127.9</ele>
        <time>2021-09-10T13:52:04.000Z</time>
      </trkpt>
      <trkpt lat="45.14684" lon="2.65045">
        <ele>1127.9</ele>
        <time>2021-09-10T13:52:09.000Z</time>
      </trkpt>
      <trkpt lat="45.1469" lon="2.65041">
        <ele>1127.8</ele>
        <time>2021-09-10T13:52:15.000Z</time>
      </trkpt>
      <trkpt lat="45.14696" lon="2.65037">
        <ele>1127.8</ele>
        <time>2021-09-10T13:52:22.000Z</time>
      </trkpt>
      <trkpt lat="45.14703" lon="2.65032">
        <ele>1127.6</ele>
        <time>2021-09-10T13:52:31.000Z</time>
      </trkpt>
      <trkpt lat="45.14709" lon="2.65028">
        <ele>1127.5</ele>
        <time>2021-09-10T13:52:35.000Z</time>
      </trkpt>
      <trkpt lat="45.14715" lon="2.65022">
        <ele>1126.9</ele>
        <time>2021-09-10T13:52:40.000Z</time>
      </trkpt>
      <trkpt lat="45.14718" lon="2.65013">
        <ele>1125</ele>
        <time>2021-09-10T13:52:46.000Z</time>
      </trkpt>
      <trkpt lat="45.14719" lon="2.65004">
        <ele>1122.9</ele>
        <time>2021-09-10T13:52:54.000Z</time>
      </trkpt>
      <trkpt lat="45.14713" lon="2.65007">
        <ele>1122.9</ele>
        <time>2021-09-10T13:53:20.000Z</time>
      </trkpt>
      <trkpt lat="45.1471" lon="2.65015">
        <ele>1124.4</ele>
        <time>2021-09-10T13:53:28.000Z</time>
      </trkpt>
      <trkpt lat="45.14704" lon="2.65021">
        <ele>1125.1</ele>
        <time>2021-09-10T13:53:44.000Z</time>
      </trkpt>
      <trkpt lat="45.14699" lon="2.65026">
        <ele>1125.6</ele>
        <time>2021-09-10T13:53:56.000Z</time>
      </trkpt>
      <trkpt lat="45.14694" lon="2.65033">
        <ele>1126.5</ele>
        <time>2021-09-10T13:54:05.000Z</time>
      </trkpt>
      <trkpt lat="45.14691" lon="2.65042">
        <ele>1128.2</ele>
        <time>2021-09-10T13:54:15.000Z</time>
      </trkpt>
      <trkpt lat="45.14684" lon="2.65044">
        <ele>1127.6</ele>
        <time>2021-09-10T13:54:24.000Z</time>
      </trkpt>
      <trkpt lat="45.14678" lon="2.65049">
        <ele>1127.9</ele>
        <time>2021-09-10T13:54:32.000Z</time>
      </trkpt>
      <trkpt lat="45.14672" lon="2.65052">
        <ele>1127.7</ele>
        <time>2021-09-10T13:55:25.000Z</time>
      </trkpt>
      <trkpt lat="45.14667" lon="2.65059">
        <ele>1128.5</ele>
        <time>2021-09-10T13:55:37.000Z</time>
      </trkpt>
      <trkpt lat="45.14665" lon="2.65068">
        <ele>1130.2</ele>
        <time>2021-09-10T13:55:47.000Z</time>
      </trkpt>
      <trkpt lat="45.14661" lon="2.65076">
        <ele>1131.4</ele>
        <time>2021-09-10T13:55:55.000Z</time>
      </trkpt>
      <trkpt lat="45.14657" lon="2.65084">
        <ele>1132.7</ele>
        <time>2021-09-10T13:56:03.000Z</time>
      </trkpt>
      <trkpt lat="45.14648" lon="2.65092">
        <ele>1133.3</ele>
        <time>2021-09-10T13:56:09.000Z</time>
      </trkpt>
      <trkpt lat="45.14641" lon="2.65092">
        <ele>1132.2</ele>
        <time>2021-09-10T13:56:17.000Z</time>
      </trkpt>
      <trkpt lat="45.14641" lon="2.65083">
        <ele>1129.9</ele>
        <time>2021-09-10T13:56:57.000Z</time>
      </trkpt>
      <trkpt lat="45.14644" lon="2.65074">
        <ele>1128.3</ele>
        <time>2021-09-10T13:57:06.000Z</time>
      </trkpt>
      <trkpt lat="45.14646" lon="2.65065">
        <ele>1126.5</ele>
        <time>2021-09-10T13:57:13.000Z</time>
      </trkpt>
      <trkpt lat="45.14649" lon="2.65055">
        <ele>1124.7</ele>
        <time>2021-09-10T13:57:21.000Z</time>
      </trkpt>
      <trkpt lat="45.14651" lon="2.65047">
        <ele>1123.2</ele>
        <time>2021-09-10T13:57:34.000Z</time>
      </trkpt>
      <trkpt lat="45.14654" lon="2.65038">
        <ele>1121.6</ele>
        <time>2021-09-10T13:57:42.000Z</time>
      </trkpt>
      <trkpt lat="45.14655" lon="2.65029">
        <ele>1119.7</ele>
        <time>2021-09-10T13:57:49.000Z</time>
      </trkpt>
      <trkpt lat="45.14659" lon="2.65021">
        <ele>1118.5</ele>
        <time>2021-09-10T13:58:00.000Z</time>
      </trkpt>
      <trkpt lat="45.14666" lon="2.65021">
        <ele>1119.7</ele>
        <time>2021-09-10T13:58:23.000Z</time>
      </trkpt>
      <trkpt lat="45.14667" lon="2.65012">
        <ele>1117.8</ele>
        <time>2021-09-10T13:58:46.000Z</time>
      </trkpt>
      <trkpt lat="45.14665" lon="2.65003">
        <ele>1115.4</ele>
        <time>2021-09-10T13:59:37.000Z</time>
      </trkpt>
      <trkpt lat="45.14658" lon="2.64994">
        <ele>1112.2</ele>
        <time>2021-09-10T13:59:45.000Z</time>
      </trkpt>
      <trkpt lat="45.14655" lon="2.64985">
        <ele>1109.7</ele>
        <time>2021-09-10T14:00:38.000Z</time>
      </trkpt>
      <trkpt lat="45.1466" lon="2.64977">
        <ele>1108.7</ele>
        <time>2021-09-10T14:00:44.000Z</time>
      </trkpt>
      <trkpt lat="45.14665" lon="2.64969">
        <ele>1107.7</ele>
        <time>2021-09-10T14:00:49.000Z</time>
      </trkpt>
      <trkpt lat="45.14669" lon="2.64961">
        <ele>1106.4</ele>
        <time>2021-09-10T14:00:54.000Z</time>
      </trkpt>
      <trkpt lat="45.14674" lon="2.64951">
        <ele>1104.6</ele>
        <time>2021-09-10T14:01:00.000Z</time>
      </trkpt>
      <trkpt lat="45.14679" lon="2.64941">
        <ele>1102.8</ele>
        <time>2021-09-10T14:01:06.000Z</time>
      </trkpt>
      <trkpt lat="45.14684" lon="2.64932">
        <ele>1101.1</ele>
        <time>2021-09-10T14:01:12.000Z</time>
      </trkpt>
      <trkpt lat="45.14687" lon="2.64922">
        <ele>1099</ele>
        <time>2021-09-10T14:01:19.000Z</time>
      </trkpt>
      <trkpt lat="45.14691" lon="2.64914">
        <ele>1097.5</ele>
        <time>2021-09-10T14:01:25.000Z</time>
      </trkpt>
      <trkpt lat="45.14695" lon="2.64906">
        <ele>1096</ele>
        <time>2021-09-10T14:01:30.000Z</time>
      </trkpt>
      <trkpt lat="45.147" lon="2.64899">
        <ele>1095</ele>
        <time>2021-09-10T14:01:37.000Z</time>
      </trkpt>
      <trkpt lat="45.14705" lon="2.64893">
        <ele>1094.2</ele>
        <time>2021-09-10T14:01:45.000Z</time>
      </trkpt>
      <trkpt lat="45.14711" lon="2.64887">
        <ele>1093.6</ele>
        <time>2021-09-10T14:01:53.000Z</time>
      </trkpt>
      <trkpt lat="45.14713" lon="2.64879">
        <ele>1092.1</ele>
        <time>2021-09-10T14:02:05.000Z</time>
      </trkpt>
      <trkpt lat="45.1472" lon="2.64876">
        <ele>1092.3</ele>
        <time>2021-09-10T14:02:14.000Z</time>
      </trkpt>
      <trkpt lat="45.14727" lon="2.64877">
        <ele>1093.3</ele>
        <time>2021-09-10T14:02:19.000Z</time>
      </trkpt>
      <trkpt lat="45.14734" lon="2.64878">
        <ele>1094.3</ele>
        <time>2021-09-10T14:02:25.000Z</time>
      </trkpt>
      <trkpt lat="45.14735" lon="2.64869">
        <ele>1092.6</ele>
        <time>2021-09-10T14:06:02.000Z</time>
      </trkpt>
      <trkpt lat="45.14742" lon="2.64866">
        <ele>1092.9</ele>
        <time>2021-09-10T14:06:14.000Z</time>
      </trkpt>
      <trkpt lat="45.14746" lon="2.64859">
        <ele>1092.1</ele>
        <time>2021-09-10T14:06:21.000Z</time>
      </trkpt>
      <trkpt lat="45.14751" lon="2.64851">
        <ele>1091.3</ele>
        <time>2021-09-10T14:06:30.000Z</time>
      </trkpt>
      <trkpt lat="45.14755" lon="2.64842">
        <ele>1089.9</ele>
        <time>2021-09-10T14:06:36.000Z</time>
      </trkpt>
      <trkpt lat="45.14758" lon="2.64832">
        <ele>1088.3</ele>
        <time>2021-09-10T14:06:42.000Z</time>
      </trkpt>
      <trkpt lat="45.14761" lon="2.64823">
        <ele>1086.9</ele>
        <time>2021-09-10T14:06:47.000Z</time>
      </trkpt>
      <trkpt lat="45.14765" lon="2.64816">
        <ele>1085.9</ele>
        <time>2021-09-10T14:06:52.000Z</time>
      </trkpt>
      <trkpt lat="45.14772" lon="2.6481">
        <ele>1085.3</ele>
        <time>2021-09-10T14:06:59.000Z</time>
      </trkpt>
      <trkpt lat="45.14778" lon="2.64807">
        <ele>1085.3</ele>
        <time>2021-09-10T14:07:03.000Z</time>
      </trkpt>
      <trkpt lat="45.14788" lon="2.64805">
        <ele>1085.8</ele>
        <time>2021-09-10T14:07:09.000Z</time>
      </trkpt>
      <trkpt lat="45.14797" lon="2.64804">
        <ele>1086.3</ele>
        <time>2021-09-10T14:07:15.000Z</time>
      </trkpt>
      <trkpt lat="45.14803" lon="2.64799">
        <ele>1086</ele>
        <time>2021-09-10T14:07:31.000Z</time>
      </trkpt>
      <trkpt lat="45.14809" lon="2.64795">
        <ele>1085.9</ele>
        <time>2021-09-10T14:07:37.000Z</time>
      </trkpt>
      <trkpt lat="45.14805" lon="2.64783">
        <ele>1083.5</ele>
        <time>2021-09-10T14:08:49.000Z</time>
      </trkpt>
      <trkpt lat="45.14806" lon="2.64774">
        <ele>1082.1</ele>
        <time>2021-09-10T14:09:22.000Z</time>
      </trkpt>
      <trkpt lat="45.14809" lon="2.64764">
        <ele>1080.7</ele>
        <time>2021-09-10T14:09:27.000Z</time>
      </trkpt>
      <trkpt lat="45.1481" lon="2.64754">
        <ele>1079.1</ele>
        <time>2021-09-10T14:09:33.000Z</time>
      </trkpt>
      <trkpt lat="45.14812" lon="2.64744">
        <ele>1077.5</ele>
        <time>2021-09-10T14:09:39.000Z</time>
      </trkpt>
      <trkpt lat="45.14816" lon="2.64733">
        <ele>1075.8</ele>
        <time>2021-09-10T14:09:45.000Z</time>
      </trkpt>
      <trkpt lat="45.14819" lon="2.64724">
        <ele>1074.4</ele>
        <time>2021-09-10T14:09:51.000Z</time>
      </trkpt>
      <trkpt lat="45.14819" lon="2.64715">
        <ele>1072.7</ele>
        <time>2021-09-10T14:10:01.000Z</time>
      </trkpt>
      <trkpt lat="45.14819" lon="2.64705">
        <ele>1070.7</ele>
        <time>2021-09-10T14:10:14.000Z</time>
      </trkpt>
      <trkpt lat="45.1482" lon="2.64696">
        <ele>1069.1</ele>
        <time>2021-09-10T14:10:32.000Z</time>
      </trkpt>
      <trkpt lat="45.14827" lon="2.6469">
        <ele>1068.7</ele>
        <time>2021-09-10T14:10:39.000Z</time>
      </trkpt>
      <trkpt lat="45.14834" lon="2.64688">
        <ele>1069.2</ele>
        <time>2021-09-10T14:10:45.000Z</time>
      </trkpt>
      <trkpt lat="45.14842" lon="2.64687">
        <ele>1070.3</ele>
        <time>2021-09-10T14:10:51.000Z</time>
      </trkpt>
      <trkpt lat="45.14848" lon="2.64685">
        <ele>1070.9</ele>
        <time>2021-09-10T14:10:58.000Z</time>
      </trkpt>
      <trkpt lat="45.14855" lon="2.64682">
        <ele>1071.6</ele>
        <time>2021-09-10T14:11:54.000Z</time>
      </trkpt>
      <trkpt lat="45.14861" lon="2.64676">
        <ele>1071.5</ele>
        <time>2021-09-10T14:12:00.000Z</time>
      </trkpt>
      <trkpt lat="45.14866" lon="2.6467">
        <ele>1071.4</ele>
        <time>2021-09-10T14:12:04.000Z</time>
      </trkpt>
      <trkpt lat="45.14871" lon="2.6466">
        <ele>1070.9</ele>
        <time>2021-09-10T14:12:09.000Z</time>
      </trkpt>
      <trkpt lat="45.14879" lon="2.64652">
        <ele>1071.2</ele>
        <time>2021-09-10T14:12:15.000Z</time>
      </trkpt>
      <trkpt lat="45.14886" lon="2.64648">
        <ele>1071.9</ele>
        <time>2021-09-10T14:12:21.000Z</time>
      </trkpt>
      <trkpt lat="45.14895" lon="2.64643">
        <ele>1072.9</ele>
        <time>2021-09-10T14:12:27.000Z</time>
      </trkpt>
      <trkpt lat="45.14899" lon="2.64635">
        <ele>1072.6</ele>
        <time>2021-09-10T14:12:47.000Z</time>
      </trkpt>
      <trkpt lat="45.14905" lon="2.64629">
        <ele>1072.9</ele>
        <time>2021-09-10T14:12:52.000Z</time>
      </trkpt>
      <trkpt lat="45.14912" lon="2.64624">
        <ele>1073.5</ele>
        <time>2021-09-10T14:12:57.000Z</time>
      </trkpt>
      <trkpt lat="45.14919" lon="2.64615">
        <ele>1073.4</ele>
        <time>2021-09-10T14:13:03.000Z</time>
      </trkpt>
      <trkpt lat="45.14926" lon="2.64605">
        <ele>1072.7</ele>
        <time>2021-09-10T14:13:09.000Z</time>
      </trkpt>
      <trkpt lat="45.14931" lon="2.64595">
        <ele>1071.9</ele>
        <time>2021-09-10T14:13:15.000Z</time>
      </trkpt>
      <trkpt lat="45.14933" lon="2.64583">
        <ele>1070.5</ele>
        <time>2021-09-10T14:13:21.000Z</time>
      </trkpt>
      <trkpt lat="45.14934" lon="2.64573">
        <ele>1069.6</ele>
        <time>2021-09-10T14:13:27.000Z</time>
      </trkpt>
      <trkpt lat="45.14935" lon="2.64561">
        <ele>1068.4</ele>
        <time>2021-09-10T14:13:33.000Z</time>
      </trkpt>
      <trkpt lat="45.14937" lon="2.64548">
        <ele>1067.2</ele>
        <time>2021-09-10T14:13:39.000Z</time>
      </trkpt>
      <trkpt lat="45.14937" lon="2.64535">
        <ele>1065.9</ele>
        <time>2021-09-10T14:13:45.000Z</time>
      </trkpt>
      <trkpt lat="45.14938" lon="2.64524">
        <ele>1064.8</ele>
        <time>2021-09-10T14:13:51.000Z</time>
      </trkpt>
      <trkpt lat="45.14942" lon="2.64513">
        <ele>1064.1</ele>
        <time>2021-09-10T14:13:57.000Z</time>
      </trkpt>
      <trkpt lat="45.14946" lon="2.645">
        <ele>1063.2</ele>
        <time>2021-09-10T14:14:03.000Z</time>
      </trkpt>
      <trkpt lat="45.14951" lon="2.64493">
        <ele>1062.6</ele>
        <time>2021-09-10T14:14:16.000Z</time>
      </trkpt>
      <trkpt lat="45.14956" lon="2.64488">
        <ele>1062.4</ele>
        <time>2021-09-10T14:16:10.000Z</time>
      </trkpt>
      <trkpt lat="45.14958" lon="2.64478">
        <ele>1061.2</ele>
        <time>2021-09-10T14:16:16.000Z</time>
      </trkpt>
      <trkpt lat="45.14961" lon="2.64471">
        <ele>1060.5</ele>
        <time>2021-09-10T14:16:21.000Z</time>
      </trkpt>
      <trkpt lat="45.14965" lon="2.64458">
        <ele>1059</ele>
        <time>2021-09-10T14:16:27.000Z</time>
      </trkpt>
      <trkpt lat="45.14968" lon="2.64447">
        <ele>1057.8</ele>
        <time>2021-09-10T14:16:33.000Z</time>
      </trkpt>
      <trkpt lat="45.14967" lon="2.64437">
        <ele>1056.2</ele>
        <time>2021-09-10T14:16:39.000Z</time>
      </trkpt>
      <trkpt lat="45.14965" lon="2.64426">
        <ele>1054.3</ele>
        <time>2021-09-10T14:16:45.000Z</time>
      </trkpt>
      <trkpt lat="45.14965" lon="2.64413">
        <ele>1052.5</ele>
        <time>2021-09-10T14:16:51.000Z</time>
      </trkpt>
      <trkpt lat="45.14966" lon="2.64398">
        <ele>1050.6</ele>
        <time>2021-09-10T14:16:57.000Z</time>
      </trkpt>
      <trkpt lat="45.14966" lon="2.64388">
        <ele>1049.3</ele>
        <time>2021-09-10T14:17:04.000Z</time>
      </trkpt>
      <trkpt lat="45.14968" lon="2.64379">
        <ele>1048.5</ele>
        <time>2021-09-10T14:17:16.000Z</time>
      </trkpt>
      <trkpt lat="45.14969" lon="2.64369">
        <ele>1047.3</ele>
        <time>2021-09-10T14:17:25.000Z</time>
      </trkpt>
      <trkpt lat="45.14971" lon="2.6436">
        <ele>1046.5</ele>
        <time>2021-09-10T14:17:34.000Z</time>
      </trkpt>
      <trkpt lat="45.14972" lon="2.6435">
        <ele>1045.4</ele>
        <time>2021-09-10T14:17:39.000Z</time>
      </trkpt>
      <trkpt lat="45.1497" lon="2.64337">
        <ele>1043.4</ele>
        <time>2021-09-10T14:17:45.000Z</time>
      </trkpt>
      <trkpt lat="45.14969" lon="2.64324">
        <ele>1042</ele>
        <time>2021-09-10T14:18:20.000Z</time>
      </trkpt>
      <trkpt lat="45.14966" lon="2.64316">
        <ele>1040.8</ele>
        <time>2021-09-10T14:18:38.000Z</time>
      </trkpt>
      <trkpt lat="45.14965" lon="2.64306">
        <ele>1039.8</ele>
        <time>2021-09-10T14:18:49.000Z</time>
      </trkpt>
      <trkpt lat="45.14963" lon="2.64297">
        <ele>1038.7</ele>
        <time>2021-09-10T14:18:54.000Z</time>
      </trkpt>
      <trkpt lat="45.14962" lon="2.64288">
        <ele>1037.8</ele>
        <time>2021-09-10T14:19:01.000Z</time>
      </trkpt>
      <trkpt lat="45.1496" lon="2.64275">
        <ele>1036.3</ele>
        <time>2021-09-10T14:19:09.000Z</time>
      </trkpt>
      <trkpt lat="45.1496" lon="2.64257">
        <ele>1034.9</ele>
        <time>2021-09-10T14:19:15.000Z</time>
      </trkpt>
      <trkpt lat="45.14961" lon="2.64246">
        <ele>1034.3</ele>
        <time>2021-09-10T14:19:21.000Z</time>
      </trkpt>
      <trkpt lat="45.1496" lon="2.64232">
        <ele>1033</ele>
        <time>2021-09-10T14:19:27.000Z</time>
      </trkpt>
      <trkpt lat="45.14959" lon="2.64219">
        <ele>1031.7</ele>
        <time>2021-09-10T14:19:33.000Z</time>
      </trkpt>
      <trkpt lat="45.14959" lon="2.64201">
        <ele>1030.3</ele>
        <time>2021-09-10T14:20:16.000Z</time>
      </trkpt>
      <trkpt lat="45.14954" lon="2.64193">
        <ele>1028.5</ele>
        <time>2021-09-10T14:20:45.000Z</time>
      </trkpt>
      <trkpt lat="45.14948" lon="2.64176">
        <ele>1025.6</ele>
        <time>2021-09-10T14:20:51.000Z</time>
      </trkpt>
      <trkpt lat="45.1494" lon="2.64176">
        <ele>1023.6</ele>
        <time>2021-09-10T14:20:58.000Z</time>
      </trkpt>
      <trkpt lat="45.14935" lon="2.64183">
        <ele>1022.9</ele>
        <time>2021-09-10T14:21:04.000Z</time>
      </trkpt>
      <trkpt lat="45.14932" lon="2.64191">
        <ele>1022.9</ele>
        <time>2021-09-10T14:21:14.000Z</time>
      </trkpt>
      <trkpt lat="45.14928" lon="2.642">
        <ele>1022.6</ele>
        <time>2021-09-10T14:21:21.000Z</time>
      </trkpt>
      <trkpt lat="45.14922" lon="2.64206">
        <ele>1021.6</ele>
        <time>2021-09-10T14:21:29.000Z</time>
      </trkpt>
      <trkpt lat="45.14918" lon="2.64218">
        <ele>1021.6</ele>
        <time>2021-09-10T14:21:56.000Z</time>
      </trkpt>
      <trkpt lat="45.14913" lon="2.64224">
        <ele>1021</ele>
        <time>2021-09-10T14:22:05.000Z</time>
      </trkpt>
      <trkpt lat="45.1491" lon="2.64233">
        <ele>1021.1</ele>
        <time>2021-09-10T14:22:10.000Z</time>
      </trkpt>
      <trkpt lat="45.14907" lon="2.64242">
        <ele>1021.2</ele>
        <time>2021-09-10T14:22:16.000Z</time>
      </trkpt>
      <trkpt lat="45.14902" lon="2.64251">
        <ele>1020.9</ele>
        <time>2021-09-10T14:22:21.000Z</time>
      </trkpt>
      <trkpt lat="45.14897" lon="2.64262">
        <ele>1021</ele>
        <time>2021-09-10T14:22:27.000Z</time>
      </trkpt>
      <trkpt lat="45.14889" lon="2.64272">
        <ele>1020.4</ele>
        <time>2021-09-10T14:22:33.000Z</time>
      </trkpt>
      <trkpt lat="45.14883" lon="2.64281">
        <ele>1020.2</ele>
        <time>2021-09-10T14:22:39.000Z</time>
      </trkpt>
      <trkpt lat="45.14879" lon="2.64293">
        <ele>1020.7</ele>
        <time>2021-09-10T14:22:45.000Z</time>
      </trkpt>
      <trkpt lat="45.14874" lon="2.64307">
        <ele>1021.3</ele>
        <time>2021-09-10T14:22:51.000Z</time>
      </trkpt>
      <trkpt lat="45.14868" lon="2.64319">
        <ele>1021.6</ele>
        <time>2021-09-10T14:22:57.000Z</time>
      </trkpt>
      <trkpt lat="45.14859" lon="2.6432">
        <ele>1020</ele>
        <time>2021-09-10T14:23:03.000Z</time>
      </trkpt>
      <trkpt lat="45.14851" lon="2.6432">
        <ele>1018.5</ele>
        <time>2021-09-10T14:23:10.000Z</time>
      </trkpt>
      <trkpt lat="45.14842" lon="2.64322">
        <ele>1017.1</ele>
        <time>2021-09-10T14:23:15.000Z</time>
      </trkpt>
      <trkpt lat="45.14831" lon="2.64324">
        <ele>1015.4</ele>
        <time>2021-09-10T14:23:21.000Z</time>
      </trkpt>
      <trkpt lat="45.14821" lon="2.64325">
        <ele>1014</ele>
        <time>2021-09-10T14:23:27.000Z</time>
      </trkpt>
      <trkpt lat="45.1481" lon="2.64327">
        <ele>1012.5</ele>
        <time>2021-09-10T14:23:33.000Z</time>
      </trkpt>
      <trkpt lat="45.14802" lon="2.6433">
        <ele>1011.7</ele>
        <time>2021-09-10T14:23:39.000Z</time>
      </trkpt>
      <trkpt lat="45.14793" lon="2.64334">
        <ele>1010.8</ele>
        <time>2021-09-10T14:23:45.000Z</time>
      </trkpt>
      <trkpt lat="45.14786" lon="2.6434">
        <ele>1010.5</ele>
        <time>2021-09-10T14:23:51.000Z</time>
      </trkpt>
      <trkpt lat="45.14781" lon="2.64345">
        <ele>1010.4</ele>
        <time>2021-09-10T14:24:09.000Z</time>
      </trkpt>
      <trkpt lat="45.14775" lon="2.6435">
        <ele>1010.1</ele>
        <time>2021-09-10T14:24:15.000Z</time>
      </trkpt>
      <trkpt lat="45.14769" lon="2.64354">
        <ele>1009.7</ele>
        <time>2021-09-10T14:24:21.000Z</time>
      </trkpt>
      <trkpt lat="45.14761" lon="2.6436">
        <ele>1009.2</ele>
        <time>2021-09-10T14:24:27.000Z</time>
      </trkpt>
      <trkpt lat="45.1475" lon="2.64369">
        <ele>1008.7</ele>
        <time>2021-09-10T14:24:33.000Z</time>
      </trkpt>
      <trkpt lat="45.14742" lon="2.64376">
        <ele>1008.5</ele>
        <time>2021-09-10T14:24:39.000Z</time>
      </trkpt>
      <trkpt lat="45.14734" lon="2.64382">
        <ele>1008.2</ele>
        <time>2021-09-10T14:24:45.000Z</time>
      </trkpt>
      <trkpt lat="45.14726" lon="2.6439">
        <ele>1008.1</ele>
        <time>2021-09-10T14:24:51.000Z</time>
      </trkpt>
      <trkpt lat="45.1472" lon="2.64395">
        <ele>1008</ele>
        <time>2021-09-10T14:24:57.000Z</time>
      </trkpt>
      <trkpt lat="45.14715" lon="2.64402">
        <ele>1008.3</ele>
        <time>2021-09-10T14:25:04.000Z</time>
      </trkpt>
      <trkpt lat="45.14708" lon="2.6441">
        <ele>1008.5</ele>
        <time>2021-09-10T14:25:09.000Z</time>
      </trkpt>
      <trkpt lat="45.14702" lon="2.64421">
        <ele>1009.1</ele>
        <time>2021-09-10T14:25:15.000Z</time>
      </trkpt>
      <trkpt lat="45.14695" lon="2.6443">
        <ele>1009</ele>
        <time>2021-09-10T14:25:21.000Z</time>
      </trkpt>
      <trkpt lat="45.14688" lon="2.64434">
        <ele>1008.4</ele>
        <time>2021-09-10T14:25:34.000Z</time>
      </trkpt>
      <trkpt lat="45.14684" lon="2.64443">
        <ele>1008.6</ele>
        <time>2021-09-10T14:25:39.000Z</time>
      </trkpt>
      <trkpt lat="45.14678" lon="2.64452">
        <ele>1008.6</ele>
        <time>2021-09-10T14:25:45.000Z</time>
      </trkpt>
      <trkpt lat="45.14673" lon="2.64461">
        <ele>1008.6</ele>
        <time>2021-09-10T14:25:51.000Z</time>
      </trkpt>
      <trkpt lat="45.14669" lon="2.6447">
        <ele>1008.8</ele>
        <time>2021-09-10T14:25:57.000Z</time>
      </trkpt>
      <trkpt lat="45.14662" lon="2.64476">
        <ele>1008.4</ele>
        <time>2021-09-10T14:26:03.000Z</time>
      </trkpt>
      <trkpt lat="45.14656" lon="2.64481">
        <ele>1008.1</ele>
        <time>2021-09-10T14:26:25.000Z</time>
      </trkpt>
      <trkpt lat="45.14648" lon="2.64482">
        <ele>1007.2</ele>
        <time>2021-09-10T14:26:31.000Z</time>
      </trkpt>
      <trkpt lat="45.14642" lon="2.64486">
        <ele>1006.9</ele>
        <time>2021-09-10T14:26:36.000Z</time>
      </trkpt>
      <trkpt lat="45.14636" lon="2.64489">
        <ele>1006.5</ele>
        <time>2021-09-10T14:26:41.000Z</time>
      </trkpt>
      <trkpt lat="45.14629" lon="2.64492">
        <ele>1006</ele>
        <time>2021-09-10T14:26:46.000Z</time>
      </trkpt>
      <trkpt lat="45.14623" lon="2.64495">
        <ele>1005.7</ele>
        <time>2021-09-10T14:27:05.000Z</time>
      </trkpt>
      <trkpt lat="45.14615" lon="2.64498">
        <ele>1005.2</ele>
        <time>2021-09-10T14:27:11.000Z</time>
      </trkpt>
      <trkpt lat="45.14609" lon="2.64503">
        <ele>1005.1</ele>
        <time>2021-09-10T14:27:16.000Z</time>
      </trkpt>
      <trkpt lat="45.14604" lon="2.6451">
        <ele>1005.4</ele>
        <time>2021-09-10T14:27:24.000Z</time>
      </trkpt>
      <trkpt lat="45.14597" lon="2.64514">
        <ele>1005.1</ele>
        <time>2021-09-10T14:27:29.000Z</time>
      </trkpt>
      <trkpt lat="45.14591" lon="2.64519">
        <ele>1004.9</ele>
        <time>2021-09-10T14:27:33.000Z</time>
      </trkpt>
      <trkpt lat="45.1458" lon="2.64526">
        <ele>1004.3</ele>
        <time>2021-09-10T14:27:39.000Z</time>
      </trkpt>
      <trkpt lat="45.14571" lon="2.64531">
        <ele>1003.6</ele>
        <time>2021-09-10T14:27:45.000Z</time>
      </trkpt>
      <trkpt lat="45.14564" lon="2.64532">
        <ele>1002.7</ele>
        <time>2021-09-10T14:27:51.000Z</time>
      </trkpt>
      <trkpt lat="45.14558" lon="2.64535">
        <ele>1002.2</ele>
        <time>2021-09-10T14:27:59.000Z</time>
      </trkpt>
      <trkpt lat="45.14551" lon="2.64534">
        <ele>1001.1</ele>
        <time>2021-09-10T14:28:04.000Z</time>
      </trkpt>
      <trkpt lat="45.14544" lon="2.64533">
        <ele>1000</ele>
        <time>2021-09-10T14:28:09.000Z</time>
      </trkpt>
      <trkpt lat="45.14535" lon="2.64529">
        <ele>998.2</ele>
        <time>2021-09-10T14:28:15.000Z</time>
      </trkpt>
      <trkpt lat="45.14526" lon="2.64523">
        <ele>996.1</ele>
        <time>2021-09-10T14:28:21.000Z</time>
      </trkpt>
      <trkpt lat="45.14514" lon="2.6452">
        <ele>993.9</ele>
        <time>2021-09-10T14:28:27.000Z</time>
      </trkpt>
      <trkpt lat="45.14503" lon="2.64514">
        <ele>991.5</ele>
        <time>2021-09-10T14:28:33.000Z</time>
      </trkpt>
      <trkpt lat="45.14493" lon="2.6451">
        <ele>988.9</ele>
        <time>2021-09-10T14:28:39.000Z</time>
      </trkpt>
      <trkpt lat="45.14483" lon="2.64509">
        <ele>986.6</ele>
        <time>2021-09-10T14:28:45.000Z</time>
      </trkpt>
      <trkpt lat="45.14473" lon="2.64508">
        <ele>984.2</ele>
        <time>2021-09-10T14:28:51.000Z</time>
      </trkpt>
      <trkpt lat="45.14462" lon="2.64507">
        <ele>981.6</ele>
        <time>2021-09-10T14:28:57.000Z</time>
      </trkpt>
      <trkpt lat="45.14453" lon="2.64511">
        <ele>980.3</ele>
        <time>2021-09-10T14:29:03.000Z</time>
      </trkpt>
      <trkpt lat="45.14444" lon="2.64513">
        <ele>978.7</ele>
        <time>2021-09-10T14:29:09.000Z</time>
      </trkpt>
      <trkpt lat="45.14435" lon="2.64519">
        <ele>978</ele>
        <time>2021-09-10T14:29:15.000Z</time>
      </trkpt>
      <trkpt lat="45.14426" lon="2.6452">
        <ele>976.3</ele>
        <time>2021-09-10T14:29:21.000Z</time>
      </trkpt>
      <trkpt lat="45.14419" lon="2.64523">
        <ele>975.5</ele>
        <time>2021-09-10T14:29:27.000Z</time>
      </trkpt>
      <trkpt lat="45.14413" lon="2.64525">
        <ele>975</ele>
        <time>2021-09-10T14:29:33.000Z</time>
      </trkpt>
      <trkpt lat="45.14405" lon="2.64531">
        <ele>975.4</ele>
        <time>2021-09-10T14:29:39.000Z</time>
      </trkpt>
      <trkpt lat="45.14399" lon="2.64535">
        <ele>975.6</ele>
        <time>2021-09-10T14:29:45.000Z</time>
      </trkpt>
      <trkpt lat="45.14393" lon="2.64538">
        <ele>975.5</ele>
        <time>2021-09-10T14:29:52.000Z</time>
      </trkpt>
      <trkpt lat="45.14381" lon="2.64536">
        <ele>973.7</ele>
        <time>2021-09-10T14:29:57.000Z</time>
      </trkpt>
      <trkpt lat="45.14368" lon="2.64531">
        <ele>971.5</ele>
        <time>2021-09-10T14:30:03.000Z</time>
      </trkpt>
      <trkpt lat="45.14361" lon="2.64536">
        <ele>971.5</ele>
        <time>2021-09-10T14:30:09.000Z</time>
      </trkpt>
      <trkpt lat="45.14356" lon="2.64543">
        <ele>971.9</ele>
        <time>2021-09-10T14:30:15.000Z</time>
      </trkpt>
      <trkpt lat="45.14352" lon="2.6455">
        <ele>972.4</ele>
        <time>2021-09-10T14:30:21.000Z</time>
      </trkpt>
      <trkpt lat="45.14345" lon="2.64557">
        <ele>972.4</ele>
        <time>2021-09-10T14:30:27.000Z</time>
      </trkpt>
      <trkpt lat="45.14339" lon="2.64556">
        <ele>971.5</ele>
        <time>2021-09-10T14:30:34.000Z</time>
      </trkpt>
      <trkpt lat="45.14332" lon="2.64558">
        <ele>970.9</ele>
        <time>2021-09-10T14:30:40.000Z</time>
      </trkpt>
      <trkpt lat="45.14325" lon="2.64561">
        <ele>970.9</ele>
        <time>2021-09-10T14:30:51.000Z</time>
      </trkpt>
      <trkpt lat="45.14317" lon="2.64558">
        <ele>970.1</ele>
        <time>2021-09-10T14:30:57.000Z</time>
      </trkpt>
      <trkpt lat="45.1431" lon="2.64559">
        <ele>969.8</ele>
        <time>2021-09-10T14:31:03.000Z</time>
      </trkpt>
      <trkpt lat="45.143" lon="2.64562">
        <ele>969.6</ele>
        <time>2021-09-10T14:31:09.000Z</time>
      </trkpt>
      <trkpt lat="45.14291" lon="2.64565">
        <ele>969.3</ele>
        <time>2021-09-10T14:31:15.000Z</time>
      </trkpt>
      <trkpt lat="45.14282" lon="2.64571">
        <ele>969.3</ele>
        <time>2021-09-10T14:31:21.000Z</time>
      </trkpt>
      <trkpt lat="45.14274" lon="2.64575">
        <ele>969.1</ele>
        <time>2021-09-10T14:31:27.000Z</time>
      </trkpt>
      <trkpt lat="45.14266" lon="2.64577">
        <ele>968.7</ele>
        <time>2021-09-10T14:31:33.000Z</time>
      </trkpt>
      <trkpt lat="45.14258" lon="2.64579">
        <ele>968.3</ele>
        <time>2021-09-10T14:31:39.000Z</time>
      </trkpt>
      <trkpt lat="45.14251" lon="2.64579">
        <ele>967.8</ele>
        <time>2021-09-10T14:31:45.000Z</time>
      </trkpt>
      <trkpt lat="45.14244" lon="2.64578">
        <ele>967.4</ele>
        <time>2021-09-10T14:31:51.000Z</time>
      </trkpt>
      <trkpt lat="45.14237" lon="2.64574">
        <ele>966.8</ele>
        <time>2021-09-10T14:31:57.000Z</time>
      </trkpt>
      <trkpt lat="45.1423" lon="2.6457">
        <ele>966.2</ele>
        <time>2021-09-10T14:32:03.000Z</time>
      </trkpt>
      <trkpt lat="45.14223" lon="2.64566">
        <ele>965.5</ele>
        <time>2021-09-10T14:32:11.000Z</time>
      </trkpt>
      <trkpt lat="45.14218" lon="2.64558">
        <ele>964.7</ele>
        <time>2021-09-10T14:32:20.000Z</time>
      </trkpt>
      <trkpt lat="45.14214" lon="2.6455">
        <ele>963.9</ele>
        <time>2021-09-10T14:32:30.000Z</time>
      </trkpt>
      <trkpt lat="45.14208" lon="2.64547">
        <ele>963.4</ele>
        <time>2021-09-10T14:32:42.000Z</time>
      </trkpt>
      <trkpt lat="45.1421" lon="2.64538">
        <ele>962.8</ele>
        <time>2021-09-10T14:33:01.000Z</time>
      </trkpt>
      <trkpt lat="45.14204" lon="2.64544">
        <ele>962.9</ele>
        <time>2021-09-10T14:33:42.000Z</time>
      </trkpt>
      <trkpt lat="45.14197" lon="2.6455">
        <ele>962.9</ele>
        <time>2021-09-10T14:33:48.000Z</time>
      </trkpt>
      <trkpt lat="45.14191" lon="2.64556">
        <ele>963.1</ele>
        <time>2021-09-10T14:34:05.000Z</time>
      </trkpt>
      <trkpt lat="45.14188" lon="2.64565">
        <ele>963.6</ele>
        <time>2021-09-10T14:34:12.000Z</time>
      </trkpt>
      <trkpt lat="45.14185" lon="2.64574">
        <ele>964.1</ele>
        <time>2021-09-10T14:34:19.000Z</time>
      </trkpt>
      <trkpt lat="45.14181" lon="2.64583">
        <ele>964.7</ele>
        <time>2021-09-10T14:34:26.000Z</time>
      </trkpt>
      <trkpt lat="45.14176" lon="2.64591">
        <ele>965.2</ele>
        <time>2021-09-10T14:34:31.000Z</time>
      </trkpt>
      <trkpt lat="45.14172" lon="2.64599">
        <ele>965.6</ele>
        <time>2021-09-10T14:34:37.000Z</time>
      </trkpt>
      <trkpt lat="45.14168" lon="2.64607">
        <ele>966.1</ele>
        <time>2021-09-10T14:34:46.000Z</time>
      </trkpt>
      <trkpt lat="45.1417" lon="2.64618">
        <ele>967.2</ele>
        <time>2021-09-10T14:34:51.000Z</time>
      </trkpt>
      <trkpt lat="45.14171" lon="2.64628">
        <ele>968.1</ele>
        <time>2021-09-10T14:34:58.000Z</time>
      </trkpt>
      <trkpt lat="45.14176" lon="2.64633">
        <ele>969</ele>
        <time>2021-09-10T14:35:05.000Z</time>
      </trkpt>
      <trkpt lat="45.14183" lon="2.64636">
        <ele>970</ele>
        <time>2021-09-10T14:35:14.000Z</time>
      </trkpt>
      <trkpt lat="45.14188" lon="2.64642">
        <ele>971</ele>
        <time>2021-09-10T14:35:22.000Z</time>
      </trkpt>
      <trkpt lat="45.14195" lon="2.64644">
        <ele>971.9</ele>
        <time>2021-09-10T14:35:32.000Z</time>
      </trkpt>
      <trkpt lat="45.14199" lon="2.64652">
        <ele>973.2</ele>
        <time>2021-09-10T14:35:44.000Z</time>
      </trkpt>
      <trkpt lat="45.14193" lon="2.64658">
        <ele>973.2</ele>
        <time>2021-09-10T14:36:03.000Z</time>
      </trkpt>
      <trkpt lat="45.14189" lon="2.64666">
        <ele>973.6</ele>
        <time>2021-09-10T14:36:10.000Z</time>
      </trkpt>
      <trkpt lat="45.14183" lon="2.64669">
        <ele>973.3</ele>
        <time>2021-09-10T14:36:21.000Z</time>
      </trkpt>
      <trkpt lat="45.1418" lon="2.64678">
        <ele>974.2</ele>
        <time>2021-09-10T14:36:30.000Z</time>
      </trkpt>
      <trkpt lat="45.14177" lon="2.64687">
        <ele>975</ele>
        <time>2021-09-10T14:36:43.000Z</time>
      </trkpt>
      <trkpt lat="45.14174" lon="2.64696">
        <ele>975.8</ele>
        <time>2021-09-10T14:36:50.000Z</time>
      </trkpt>
      <trkpt lat="45.14173" lon="2.64707">
        <ele>977.2</ele>
        <time>2021-09-10T14:36:57.000Z</time>
      </trkpt>
      <trkpt lat="45.14168" lon="2.64723">
        <ele>978.6</ele>
        <time>2021-09-10T14:37:03.000Z</time>
      </trkpt>
      <trkpt lat="45.14163" lon="2.6473">
        <ele>979.1</ele>
        <time>2021-09-10T14:37:12.000Z</time>
      </trkpt>
      <trkpt lat="45.14159" lon="2.64738">
        <ele>979.9</ele>
        <time>2021-09-10T14:37:22.000Z</time>
      </trkpt>
      <trkpt lat="45.14152" lon="2.64745">
        <ele>980.3</ele>
        <time>2021-09-10T14:37:32.000Z</time>
      </trkpt>
      <trkpt lat="45.14146" lon="2.64747">
        <ele>980.1</ele>
        <time>2021-09-10T14:37:39.000Z</time>
      </trkpt>
      <trkpt lat="45.14139" lon="2.64752">
        <ele>980.3</ele>
        <time>2021-09-10T14:37:45.000Z</time>
      </trkpt>
      <trkpt lat="45.14131" lon="2.64758">
        <ele>980.5</ele>
        <time>2021-09-10T14:37:52.000Z</time>
      </trkpt>
      <trkpt lat="45.14124" lon="2.64762">
        <ele>980.4</ele>
        <time>2021-09-10T14:37:57.000Z</time>
      </trkpt>
      <trkpt lat="45.14119" lon="2.64769">
        <ele>980.9</ele>
        <time>2021-09-10T14:38:03.000Z</time>
      </trkpt>
      <trkpt lat="45.14112" lon="2.64776">
        <ele>981.2</ele>
        <time>2021-09-10T14:38:09.000Z</time>
      </trkpt>
      <trkpt lat="45.14105" lon="2.64783">
        <ele>981.4</ele>
        <time>2021-09-10T14:38:15.000Z</time>
      </trkpt>
      <trkpt lat="45.14105" lon="2.64792">
        <ele>982.5</ele>
        <time>2021-09-10T14:38:22.000Z</time>
      </trkpt>
      <trkpt lat="45.14105" lon="2.64804">
        <ele>983.9</ele>
        <time>2021-09-10T14:38:27.000Z</time>
      </trkpt>
      <trkpt lat="45.14106" lon="2.64815">
        <ele>985.3</ele>
        <time>2021-09-10T14:38:33.000Z</time>
      </trkpt>
      <trkpt lat="45.14108" lon="2.64824">
        <ele>986.6</ele>
        <time>2021-09-10T14:38:49.000Z</time>
      </trkpt>
      <trkpt lat="45.14109" lon="2.64834">
        <ele>987.9</ele>
        <time>2021-09-10T14:38:53.000Z</time>
      </trkpt>
      <trkpt lat="45.14109" lon="2.64843">
        <ele>989.4</ele>
        <time>2021-09-10T14:39:01.000Z</time>
      </trkpt>
      <trkpt lat="45.1411" lon="2.64853">
        <ele>991.3</ele>
        <time>2021-09-10T14:39:10.000Z</time>
      </trkpt>
      <trkpt lat="45.14108" lon="2.64862">
        <ele>992.6</ele>
        <time>2021-09-10T14:39:19.000Z</time>
      </trkpt>
      <trkpt lat="45.14115" lon="2.64874">
        <ele>995.4</ele>
        <time>2021-09-10T14:40:09.000Z</time>
      </trkpt>
      <trkpt lat="45.14118" lon="2.64883">
        <ele>997.2</ele>
        <time>2021-09-10T14:40:22.000Z</time>
      </trkpt>
      <trkpt lat="45.1412" lon="2.64893">
        <ele>999.1</ele>
        <time>2021-09-10T14:40:31.000Z</time>
      </trkpt>
      <trkpt lat="45.14123" lon="2.64902">
        <ele>1000.9</ele>
        <time>2021-09-10T14:40:38.000Z</time>
      </trkpt>
      <trkpt lat="45.14123" lon="2.64912">
        <ele>1002.5</ele>
        <time>2021-09-10T14:40:42.000Z</time>
      </trkpt>
      <trkpt lat="45.14128" lon="2.64918">
        <ele>1004</ele>
        <time>2021-09-10T14:40:50.000Z</time>
      </trkpt>
      <trkpt lat="45.14131" lon="2.64929">
        <ele>1006.5</ele>
        <time>2021-09-10T14:41:04.000Z</time>
      </trkpt>
      <trkpt lat="45.14124" lon="2.64932">
        <ele>1006.4</ele>
        <time>2021-09-10T14:41:19.000Z</time>
      </trkpt>
      <trkpt lat="45.14118" lon="2.64936">
        <ele>1006.7</ele>
        <time>2021-09-10T14:41:28.000Z</time>
      </trkpt>
      <trkpt lat="45.14129" lon="2.64938">
        <ele>1008.1</ele>
        <time>2021-09-10T14:41:33.000Z</time>
      </trkpt>
      <trkpt lat="45.14132" lon="2.64948">
        <ele>1010.3</ele>
        <time>2021-09-10T14:41:40.000Z</time>
      </trkpt>
      <trkpt lat="45.14128" lon="2.64957">
        <ele>1011.8</ele>
        <time>2021-09-10T14:41:55.000Z</time>
      </trkpt>
      <trkpt lat="45.14123" lon="2.64973">
        <ele>1014.5</ele>
        <time>2021-09-10T14:42:11.000Z</time>
      </trkpt>
      <trkpt lat="45.14129" lon="2.64978">
        <ele>1016</ele>
        <time>2021-09-10T14:42:15.000Z</time>
      </trkpt>
      <trkpt lat="45.14136" lon="2.64982">
        <ele>1017.5</ele>
        <time>2021-09-10T14:42:21.000Z</time>
      </trkpt>
      <trkpt lat="45.14138" lon="2.64994">
        <ele>1020</ele>
        <time>2021-09-10T14:42:27.000Z</time>
      </trkpt>
      <trkpt lat="45.14138" lon="2.65008">
        <ele>1023.7</ele>
        <time>2021-09-10T14:42:33.000Z</time>
      </trkpt>
      <trkpt lat="45.14144" lon="2.65013">
        <ele>1025.9</ele>
        <time>2021-09-10T14:42:40.000Z</time>
      </trkpt>
      <trkpt lat="45.14135" lon="2.65017">
        <ele>1026.2</ele>
        <time>2021-09-10T14:42:46.000Z</time>
      </trkpt>
      <trkpt lat="45.14131" lon="2.65026">
        <ele>1028.5</ele>
        <time>2021-09-10T14:42:52.000Z</time>
      </trkpt>
      <trkpt lat="45.14125" lon="2.6503">
        <ele>1029</ele>
        <time>2021-09-10T14:42:58.000Z</time>
      </trkpt>
      <trkpt lat="45.14127" lon="2.65039">
        <ele>1032</ele>
        <time>2021-09-10T14:43:08.000Z</time>
      </trkpt>
      <trkpt lat="45.14134" lon="2.65044">
        <ele>1034.4</ele>
        <time>2021-09-10T14:43:16.000Z</time>
      </trkpt>
      <trkpt lat="45.14136" lon="2.65053">
        <ele>1037.5</ele>
        <time>2021-09-10T14:43:21.000Z</time>
      </trkpt>
      <trkpt lat="45.14146" lon="2.65062">
        <ele>1041.7</ele>
        <time>2021-09-10T14:43:27.000Z</time>
      </trkpt>
      <trkpt lat="45.14153" lon="2.65071">
        <ele>1045.7</ele>
        <time>2021-09-10T14:43:33.000Z</time>
      </trkpt>
      <trkpt lat="45.14158" lon="2.65079">
        <ele>1049.1</ele>
        <time>2021-09-10T14:43:39.000Z</time>
      </trkpt>
      <trkpt lat="45.14163" lon="2.65085">
        <ele>1051.8</ele>
        <time>2021-09-10T14:43:47.000Z</time>
      </trkpt>
      <trkpt lat="45.14166" lon="2.65093">
        <ele>1054.2</ele>
        <time>2021-09-10T14:43:56.000Z</time>
      </trkpt>
      <trkpt lat="45.14171" lon="2.65099">
        <ele>1055.7</ele>
        <time>2021-09-10T14:44:21.000Z</time>
      </trkpt>
      <trkpt lat="45.1418" lon="2.651">
        <ele>1055.7</ele>
        <time>2021-09-10T14:44:27.000Z</time>
      </trkpt>
      <trkpt lat="45.14172" lon="2.65101">
        <ele>1056.1</ele>
        <time>2021-09-10T14:44:36.000Z</time>
      </trkpt>
      <trkpt lat="45.14163" lon="2.65101">
        <ele>1055.7</ele>
        <time>2021-09-10T14:44:39.000Z</time>
      </trkpt>
      <trkpt lat="45.14145" lon="2.65094">
        <ele>1051.2</ele>
        <time>2021-09-10T14:44:45.000Z</time>
      </trkpt>
      <trkpt lat="45.14137" lon="2.65089">
        <ele>1048.5</ele>
        <time>2021-09-10T14:44:51.000Z</time>
      </trkpt>
      <trkpt lat="45.14149" lon="2.65106">
        <ele>1054.9</ele>
        <time>2021-09-10T14:44:57.000Z</time>
      </trkpt>
      <trkpt lat="45.14164" lon="2.65121">
        <ele>1060.7</ele>
        <time>2021-09-10T14:45:03.000Z</time>
      </trkpt>
      <trkpt lat="45.14169" lon="2.65129">
        <ele>1063</ele>
        <time>2021-09-10T14:45:09.000Z</time>
      </trkpt>
      <trkpt lat="45.14175" lon="2.65135">
        <ele>1064.4</ele>
        <time>2021-09-10T14:45:19.000Z</time>
      </trkpt>
      <trkpt lat="45.14186" lon="2.65135">
        <ele>1064.4</ele>
        <time>2021-09-10T14:45:24.000Z</time>
      </trkpt>
      <trkpt lat="45.14196" lon="2.65131">
        <ele>1063.4</ele>
        <time>2021-09-10T14:45:27.000Z</time>
      </trkpt>
      <trkpt lat="45.14195" lon="2.65141">
        <ele>1066</ele>
        <time>2021-09-10T14:45:37.000Z</time>
      </trkpt>
      <trkpt lat="45.14188" lon="2.65144">
        <ele>1066.7</ele>
        <time>2021-09-10T14:45:39.000Z</time>
      </trkpt>
      <trkpt lat="45.14191" lon="2.65134">
        <ele>1064.2</ele>
        <time>2021-09-10T14:45:46.000Z</time>
      </trkpt>
      <trkpt lat="45.14199" lon="2.65129">
        <ele>1062.9</ele>
        <time>2021-09-10T14:45:59.000Z</time>
      </trkpt>
      <trkpt lat="45.14196" lon="2.6512">
        <ele>1060.5</ele>
        <time>2021-09-10T14:46:19.000Z</time>
      </trkpt>
      <trkpt lat="45.14189" lon="2.65117">
        <ele>1059.8</ele>
        <time>2021-09-10T14:46:25.000Z</time>
      </trkpt>
      <trkpt lat="45.14184" lon="2.6511">
        <ele>1058.1</ele>
        <time>2021-09-10T14:46:32.000Z</time>
      </trkpt>
      <trkpt lat="45.14181" lon="2.65102">
        <ele>1056.2</ele>
        <time>2021-09-10T14:46:40.000Z</time>
      </trkpt>
      <trkpt lat="45.14175" lon="2.65096">
        <ele>1054.8</ele>
        <time>2021-09-10T14:46:49.000Z</time>
      </trkpt>
      <trkpt lat="45.1417" lon="2.65089">
        <ele>1053.3</ele>
        <time>2021-09-10T14:46:55.000Z</time>
      </trkpt>
      <trkpt lat="45.14165" lon="2.65082">
        <ele>1051.3</ele>
        <time>2021-09-10T14:47:03.000Z</time>
      </trkpt>
      <trkpt lat="45.14163" lon="2.65072">
        <ele>1047.6</ele>
        <time>2021-09-10T14:47:10.000Z</time>
      </trkpt>
      <trkpt lat="45.14159" lon="2.65064">
        <ele>1044.3</ele>
        <time>2021-09-10T14:47:33.000Z</time>
      </trkpt>
      <trkpt lat="45.14157" lon="2.65055">
        <ele>1041.1</ele>
        <time>2021-09-10T14:47:41.000Z</time>
      </trkpt>
      <trkpt lat="45.14154" lon="2.65045">
        <ele>1037.4</ele>
        <time>2021-09-10T14:47:45.000Z</time>
      </trkpt>
      <trkpt lat="45.14149" lon="2.65029">
        <ele>1031.6</ele>
        <time>2021-09-10T14:47:51.000Z</time>
      </trkpt>
      <trkpt lat="45.14144" lon="2.65016">
        <ele>1026.9</ele>
        <time>2021-09-10T14:47:57.000Z</time>
      </trkpt>
      <trkpt lat="45.14141" lon="2.65006">
        <ele>1023.4</ele>
        <time>2021-09-10T14:48:03.000Z</time>
      </trkpt>
      <trkpt lat="45.14138" lon="2.64994">
        <ele>1020</ele>
        <time>2021-09-10T14:48:09.000Z</time>
      </trkpt>
      <trkpt lat="45.14137" lon="2.64983">
        <ele>1017.8</ele>
        <time>2021-09-10T14:48:15.000Z</time>
      </trkpt>
      <trkpt lat="45.14138" lon="2.64973">
        <ele>1015.9</ele>
        <time>2021-09-10T14:48:31.000Z</time>
      </trkpt>
      <trkpt lat="45.1414" lon="2.64963">
        <ele>1014</ele>
        <time>2021-09-10T14:48:45.000Z</time>
      </trkpt>
      <trkpt lat="45.14141" lon="2.64951">
        <ele>1011.7</ele>
        <time>2021-09-10T14:48:51.000Z</time>
      </trkpt>
      <trkpt lat="45.14138" lon="2.64942">
        <ele>1009.7</ele>
        <time>2021-09-10T14:48:57.000Z</time>
      </trkpt>
      <trkpt lat="45.14135" lon="2.64934">
        <ele>1007.8</ele>
        <time>2021-09-10T14:49:04.000Z</time>
      </trkpt>
      <trkpt lat="45.1413" lon="2.64922">
        <ele>1005</ele>
        <time>2021-09-10T14:49:29.000Z</time>
      </trkpt>
      <trkpt lat="45.14127" lon="2.64913">
        <ele>1003.1</ele>
        <time>2021-09-10T14:49:35.000Z</time>
      </trkpt>
      <trkpt lat="45.14127" lon="2.64904">
        <ele>1001.5</ele>
        <time>2021-09-10T14:49:43.000Z</time>
      </trkpt>
      <trkpt lat="45.14129" lon="2.64894">
        <ele>1000.1</ele>
        <time>2021-09-10T14:50:00.000Z</time>
      </trkpt>
      <trkpt lat="45.14124" lon="2.64887">
        <ele>998.4</ele>
        <time>2021-09-10T14:50:14.000Z</time>
      </trkpt>
      <trkpt lat="45.14118" lon="2.6488">
        <ele>996.7</ele>
        <time>2021-09-10T14:50:20.000Z</time>
      </trkpt>
      <trkpt lat="45.14117" lon="2.6487">
        <ele>994.9</ele>
        <time>2021-09-10T14:50:29.000Z</time>
      </trkpt>
      <trkpt lat="45.14114" lon="2.64861">
        <ele>993</ele>
        <time>2021-09-10T14:50:34.000Z</time>
      </trkpt>
      <trkpt lat="45.14109" lon="2.64854">
        <ele>991.3</ele>
        <time>2021-09-10T14:50:40.000Z</time>
      </trkpt>
      <trkpt lat="45.14104" lon="2.64845">
        <ele>989.3</ele>
        <time>2021-09-10T14:50:46.000Z</time>
      </trkpt>
      <trkpt lat="45.14103" lon="2.64836">
        <ele>987.6</ele>
        <time>2021-09-10T14:51:20.000Z</time>
      </trkpt>
      <trkpt lat="45.14104" lon="2.64825">
        <ele>986.3</ele>
        <time>2021-09-10T14:51:29.000Z</time>
      </trkpt>
      <trkpt lat="45.14105" lon="2.64814">
        <ele>985.1</ele>
        <time>2021-09-10T14:51:34.000Z</time>
      </trkpt>
      <trkpt lat="45.14108" lon="2.64804">
        <ele>984.2</ele>
        <time>2021-09-10T14:51:39.000Z</time>
      </trkpt>
      <trkpt lat="45.14111" lon="2.64794">
        <ele>983.3</ele>
        <time>2021-09-10T14:51:44.000Z</time>
      </trkpt>
      <trkpt lat="45.14115" lon="2.64786">
        <ele>982.7</ele>
        <time>2021-09-10T14:51:50.000Z</time>
      </trkpt>
      <trkpt lat="45.1412" lon="2.64777">
        <ele>982</ele>
        <time>2021-09-10T14:51:56.000Z</time>
      </trkpt>
      <trkpt lat="45.14127" lon="2.64769">
        <ele>981.6</ele>
        <time>2021-09-10T14:52:02.000Z</time>
      </trkpt>
      <trkpt lat="45.14132" lon="2.64763">
        <ele>981.2</ele>
        <time>2021-09-10T14:52:08.000Z</time>
      </trkpt>
      <trkpt lat="45.14137" lon="2.64757">
        <ele>980.8</ele>
        <time>2021-09-10T14:52:14.000Z</time>
      </trkpt>
      <trkpt lat="45.14144" lon="2.64752">
        <ele>980.6</ele>
        <time>2021-09-10T14:52:20.000Z</time>
      </trkpt>
      <trkpt lat="45.14153" lon="2.64747">
        <ele>980.6</ele>
        <time>2021-09-10T14:52:26.000Z</time>
      </trkpt>
      <trkpt lat="45.1416" lon="2.64745">
        <ele>980.9</ele>
        <time>2021-09-10T14:52:32.000Z</time>
      </trkpt>
      <trkpt lat="45.14167" lon="2.6474">
        <ele>980.7</ele>
        <time>2021-09-10T14:52:39.000Z</time>
      </trkpt>
      <trkpt lat="45.14177" lon="2.64741">
        <ele>982.4</ele>
        <time>2021-09-10T14:52:44.000Z</time>
      </trkpt>
      <trkpt lat="45.14186" lon="2.64741">
        <ele>983.8</ele>
        <time>2021-09-10T14:52:50.000Z</time>
      </trkpt>
      <trkpt lat="45.14192" lon="2.64744">
        <ele>985.1</ele>
        <time>2021-09-10T14:52:56.000Z</time>
      </trkpt>
      <trkpt lat="45.14201" lon="2.64743">
        <ele>986.3</ele>
        <time>2021-09-10T14:53:04.000Z</time>
      </trkpt>
      <trkpt lat="45.14209" lon="2.64743">
        <ele>987.6</ele>
        <time>2021-09-10T14:53:08.000Z</time>
      </trkpt>
      <trkpt lat="45.14219" lon="2.64743">
        <ele>989.1</ele>
        <time>2021-09-10T14:53:14.000Z</time>
      </trkpt>
      <trkpt lat="45.14215" lon="2.64733">
        <ele>986.9</ele>
        <time>2021-09-10T14:53:31.000Z</time>
      </trkpt>
      <trkpt lat="45.1421" lon="2.64727">
        <ele>985.3</ele>
        <time>2021-09-10T14:53:36.000Z</time>
      </trkpt>
      <trkpt lat="45.14206" lon="2.6472">
        <ele>983.7</ele>
        <time>2021-09-10T14:53:41.000Z</time>
      </trkpt>
      <trkpt lat="45.14202" lon="2.64711">
        <ele>981.8</ele>
        <time>2021-09-10T14:53:46.000Z</time>
      </trkpt>
      <trkpt lat="45.142" lon="2.64701">
        <ele>980</ele>
        <time>2021-09-10T14:53:51.000Z</time>
      </trkpt>
      <trkpt lat="45.14193" lon="2.64686">
        <ele>976.9</ele>
        <time>2021-09-10T14:53:56.000Z</time>
      </trkpt>
      <trkpt lat="45.14186" lon="2.64678">
        <ele>974.9</ele>
        <time>2021-09-10T14:54:02.000Z</time>
      </trkpt>
      <trkpt lat="45.14169" lon="2.64666">
        <ele>971.2</ele>
        <time>2021-09-10T14:54:08.000Z</time>
      </trkpt>
      <trkpt lat="45.14157" lon="2.64653">
        <ele>969.5</ele>
        <time>2021-09-10T14:54:14.000Z</time>
      </trkpt>
      <trkpt lat="45.14157" lon="2.64641">
        <ele>968.5</ele>
        <time>2021-09-10T14:54:20.000Z</time>
      </trkpt>
      <trkpt lat="45.14159" lon="2.64627">
        <ele>967.4</ele>
        <time>2021-09-10T14:54:26.000Z</time>
      </trkpt>
      <trkpt lat="45.14162" lon="2.64615">
        <ele>966.5</ele>
        <time>2021-09-10T14:54:32.000Z</time>
      </trkpt>
      <trkpt lat="45.14161" lon="2.64605">
        <ele>965.6</ele>
        <time>2021-09-10T14:54:38.000Z</time>
      </trkpt>
      <trkpt lat="45.14154" lon="2.646">
        <ele>964.9</ele>
        <time>2021-09-10T14:54:43.000Z</time>
      </trkpt>
      <trkpt lat="45.14146" lon="2.64597">
        <ele>964.4</ele>
        <time>2021-09-10T14:54:49.000Z</time>
      </trkpt>
      <trkpt lat="45.14138" lon="2.64594">
        <ele>963.9</ele>
        <time>2021-09-10T14:54:55.000Z</time>
      </trkpt>
      <trkpt lat="45.14129" lon="2.64594">
        <ele>963.5</ele>
        <time>2021-09-10T14:55:01.000Z</time>
      </trkpt>
      <trkpt lat="45.14121" lon="2.64595">
        <ele>963.3</ele>
        <time>2021-09-10T14:55:07.000Z</time>
      </trkpt>
      <trkpt lat="45.14113" lon="2.64595">
        <ele>963</ele>
        <time>2021-09-10T14:55:13.000Z</time>
      </trkpt>
      <trkpt lat="45.14105" lon="2.64593">
        <ele>962.6</ele>
        <time>2021-09-10T14:55:19.000Z</time>
      </trkpt>
      <trkpt lat="45.14098" lon="2.6459">
        <ele>962.1</ele>
        <time>2021-09-10T14:55:36.000Z</time>
      </trkpt>
      <trkpt lat="45.14092" lon="2.64595">
        <ele>962.3</ele>
        <time>2021-09-10T14:55:44.000Z</time>
      </trkpt>
      <trkpt lat="45.14085" lon="2.64597">
        <ele>962.2</ele>
        <time>2021-09-10T14:55:52.000Z</time>
      </trkpt>
      <trkpt lat="45.14079" lon="2.64599">
        <ele>962.3</ele>
        <time>2021-09-10T14:56:01.000Z</time>
      </trkpt>
      <trkpt lat="45.14073" lon="2.64606">
        <ele>962.9</ele>
        <time>2021-09-10T14:56:08.000Z</time>
      </trkpt>
      <trkpt lat="45.1407" lon="2.64615">
        <ele>963.6</ele>
        <time>2021-09-10T14:56:14.000Z</time>
      </trkpt>
      <trkpt lat="45.14065" lon="2.64621">
        <ele>964.1</ele>
        <time>2021-09-10T14:56:20.000Z</time>
      </trkpt>
      <trkpt lat="45.14058" lon="2.64624">
        <ele>964.3</ele>
        <time>2021-09-10T14:56:28.000Z</time>
      </trkpt>
      <trkpt lat="45.1405" lon="2.64628">
        <ele>964.5</ele>
        <time>2021-09-10T14:56:32.000Z</time>
      </trkpt>
      <trkpt lat="45.14043" lon="2.64628">
        <ele>964.5</ele>
        <time>2021-09-10T14:56:36.000Z</time>
      </trkpt>
      <trkpt lat="45.14032" lon="2.64627">
        <ele>964.3</ele>
        <time>2021-09-10T14:56:42.000Z</time>
      </trkpt>
      <trkpt lat="45.14026" lon="2.64627">
        <ele>964.3</ele>
        <time>2021-09-10T14:56:48.000Z</time>
      </trkpt>
      <trkpt lat="45.14019" lon="2.64624">
        <ele>964</ele>
        <time>2021-09-10T14:56:59.000Z</time>
      </trkpt>
      <trkpt lat="45.14012" lon="2.64621">
        <ele>963.8</ele>
        <time>2021-09-10T14:57:06.000Z</time>
      </trkpt>
      <trkpt lat="45.14004" lon="2.64618">
        <ele>963.5</ele>
        <time>2021-09-10T14:57:11.000Z</time>
      </trkpt>
      <trkpt lat="45.13996" lon="2.64618">
        <ele>963.6</ele>
        <time>2021-09-10T14:57:17.000Z</time>
      </trkpt>
      <trkpt lat="45.13989" lon="2.64616">
        <ele>963.7</ele>
        <time>2021-09-10T14:57:23.000Z</time>
      </trkpt>
      <trkpt lat="45.13983" lon="2.64614">
        <ele>963.7</ele>
        <time>2021-09-10T14:57:29.000Z</time>
      </trkpt>
      <trkpt lat="45.13976" lon="2.64615">
        <ele>964</ele>
        <time>2021-09-10T14:57:35.000Z</time>
      </trkpt>
      <trkpt lat="45.1397" lon="2.64612">
        <ele>964</ele>
        <time>2021-09-10T14:57:45.000Z</time>
      </trkpt>
      <trkpt lat="45.13962" lon="2.6461">
        <ele>964.2</ele>
        <time>2021-09-10T14:58:03.000Z</time>
      </trkpt>
      <trkpt lat="45.13956" lon="2.6461">
        <ele>964.4</ele>
        <time>2021-09-10T14:58:10.000Z</time>
      </trkpt>
      <trkpt lat="45.13949" lon="2.64612">
        <ele>964.7</ele>
        <time>2021-09-10T14:58:17.000Z</time>
      </trkpt>
      <trkpt lat="45.13942" lon="2.64612">
        <ele>964.9</ele>
        <time>2021-09-10T14:58:22.000Z</time>
      </trkpt>
      <trkpt lat="45.13934" lon="2.64611">
        <ele>965.1</ele>
        <time>2021-09-10T14:58:28.000Z</time>
      </trkpt>
      <trkpt lat="45.13928" lon="2.64609">
        <ele>965.2</ele>
        <time>2021-09-10T14:58:35.000Z</time>
      </trkpt>
      <trkpt lat="45.13921" lon="2.6461">
        <ele>965.5</ele>
        <time>2021-09-10T14:58:45.000Z</time>
      </trkpt>
      <trkpt lat="45.13915" lon="2.64605">
        <ele>965.5</ele>
        <time>2021-09-10T14:59:09.000Z</time>
      </trkpt>
      <trkpt lat="45.13908" lon="2.64603">
        <ele>965.1</ele>
        <time>2021-09-10T14:59:16.000Z</time>
      </trkpt>
      <trkpt lat="45.13901" lon="2.64601">
        <ele>964.8</ele>
        <time>2021-09-10T14:59:23.000Z</time>
      </trkpt>
      <trkpt lat="45.13893" lon="2.64595">
        <ele>964.3</ele>
        <time>2021-09-10T14:59:27.000Z</time>
      </trkpt>
      <trkpt lat="45.13885" lon="2.64597">
        <ele>964</ele>
        <time>2021-09-10T14:59:33.000Z</time>
      </trkpt>
      <trkpt lat="45.13878" lon="2.64593">
        <ele>963.5</ele>
        <time>2021-09-10T14:59:39.000Z</time>
      </trkpt>
      <trkpt lat="45.1387" lon="2.64589">
        <ele>963</ele>
        <time>2021-09-10T14:59:45.000Z</time>
      </trkpt>
      <trkpt lat="45.13862" lon="2.64587">
        <ele>962.6</ele>
        <time>2021-09-10T14:59:51.000Z</time>
      </trkpt>
      <trkpt lat="45.13855" lon="2.64585">
        <ele>962.1</ele>
        <time>2021-09-10T14:59:59.000Z</time>
      </trkpt>
      <trkpt lat="45.13849" lon="2.64584">
        <ele>961.8</ele>
        <time>2021-09-10T15:00:05.000Z</time>
      </trkpt>
      <trkpt lat="45.13842" lon="2.64584">
        <ele>961.5</ele>
        <time>2021-09-10T15:00:10.000Z</time>
      </trkpt>
      <trkpt lat="45.13835" lon="2.64581">
        <ele>961.1</ele>
        <time>2021-09-10T15:00:16.000Z</time>
      </trkpt>
      <trkpt lat="45.13828" lon="2.64584">
        <ele>961.5</ele>
        <time>2021-09-10T15:00:23.000Z</time>
      </trkpt>
      <trkpt lat="45.13821" lon="2.64587">
        <ele>962.2</ele>
        <time>2021-09-10T15:00:28.000Z</time>
      </trkpt>
      <trkpt lat="45.13814" lon="2.64591">
        <ele>963</ele>
        <time>2021-09-10T15:00:32.000Z</time>
      </trkpt>
      <trkpt lat="45.13806" lon="2.64595">
        <ele>963.8</ele>
        <time>2021-09-10T15:00:38.000Z</time>
      </trkpt>
      <trkpt lat="45.13799" lon="2.64599">
        <ele>964.4</ele>
        <time>2021-09-10T15:00:44.000Z</time>
      </trkpt>
      <trkpt lat="45.13793" lon="2.64598">
        <ele>964.8</ele>
        <time>2021-09-10T15:00:50.000Z</time>
      </trkpt>
      <trkpt lat="45.13786" lon="2.64594">
        <ele>965.3</ele>
        <time>2021-09-10T15:00:56.000Z</time>
      </trkpt>
      <trkpt lat="45.13779" lon="2.64594">
        <ele>965.8</ele>
        <time>2021-09-10T15:01:02.000Z</time>
      </trkpt>
      <trkpt lat="45.13772" lon="2.64597">
        <ele>966.4</ele>
        <time>2021-09-10T15:01:13.000Z</time>
      </trkpt>
      <trkpt lat="45.13767" lon="2.64604">
        <ele>966.8</ele>
        <time>2021-09-10T15:01:17.000Z</time>
      </trkpt>
      <trkpt lat="45.13762" lon="2.64611">
        <ele>967.2</ele>
        <time>2021-09-10T15:01:20.000Z</time>
      </trkpt>
      <trkpt lat="45.13757" lon="2.64618">
        <ele>967.6</ele>
        <time>2021-09-10T15:01:36.000Z</time>
      </trkpt>
      <trkpt lat="45.13753" lon="2.64625">
        <ele>967.8</ele>
        <time>2021-09-10T15:01:47.000Z</time>
      </trkpt>
      <trkpt lat="45.13747" lon="2.64629">
        <ele>968.3</ele>
        <time>2021-09-10T15:01:53.000Z</time>
      </trkpt>
      <trkpt lat="45.1374" lon="2.64633">
        <ele>968.9</ele>
        <time>2021-09-10T15:01:58.000Z</time>
      </trkpt>
      <trkpt lat="45.13733" lon="2.64635">
        <ele>969.6</ele>
        <time>2021-09-10T15:02:05.000Z</time>
      </trkpt>
      <trkpt lat="45.13728" lon="2.64642">
        <ele>970</ele>
        <time>2021-09-10T15:02:11.000Z</time>
      </trkpt>
      <trkpt lat="45.13725" lon="2.6465">
        <ele>970.2</ele>
        <time>2021-09-10T15:02:15.000Z</time>
      </trkpt>
      <trkpt lat="45.13721" lon="2.64659">
        <ele>970.5</ele>
        <time>2021-09-10T15:02:24.000Z</time>
      </trkpt>
      <trkpt lat="45.13715" lon="2.64664">
        <ele>971</ele>
        <time>2021-09-10T15:02:38.000Z</time>
      </trkpt>
      <trkpt lat="45.13709" lon="2.64668">
        <ele>971.5</ele>
        <time>2021-09-10T15:02:52.000Z</time>
      </trkpt>
      <trkpt lat="45.13702" lon="2.64668">
        <ele>972.1</ele>
        <time>2021-09-10T15:02:58.000Z</time>
      </trkpt>
      <trkpt lat="45.13697" lon="2.64674">
        <ele>972.8</ele>
        <time>2021-09-10T15:03:03.000Z</time>
      </trkpt>
      <trkpt lat="45.13691" lon="2.64679">
        <ele>973.5</ele>
        <time>2021-09-10T15:03:08.000Z</time>
      </trkpt>
      <trkpt lat="45.13685" lon="2.64684">
        <ele>974.2</ele>
        <time>2021-09-10T15:03:12.000Z</time>
      </trkpt>
      <trkpt lat="45.13678" lon="2.6468">
        <ele>974.6</ele>
        <time>2021-09-10T15:03:19.000Z</time>
      </trkpt>
      <trkpt lat="45.13672" lon="2.64678">
        <ele>975</ele>
        <time>2021-09-10T15:03:27.000Z</time>
      </trkpt>
      <trkpt lat="45.13665" lon="2.6468">
        <ele>975.6</ele>
        <time>2021-09-10T15:03:33.000Z</time>
      </trkpt>
      <trkpt lat="45.13658" lon="2.64683">
        <ele>976.2</ele>
        <time>2021-09-10T15:03:39.000Z</time>
      </trkpt>
      <trkpt lat="45.13652" lon="2.64687">
        <ele>976.8</ele>
        <time>2021-09-10T15:03:45.000Z</time>
      </trkpt>
      <trkpt lat="45.13647" lon="2.64692">
        <ele>977.4</ele>
        <time>2021-09-10T15:03:51.000Z</time>
      </trkpt>
      <trkpt lat="45.1364" lon="2.64694">
        <ele>978</ele>
        <time>2021-09-10T15:04:01.000Z</time>
      </trkpt>
      <trkpt lat="45.13634" lon="2.64691">
        <ele>978.3</ele>
        <time>2021-09-10T15:04:12.000Z</time>
      </trkpt>
      <trkpt lat="45.13631" lon="2.64701">
        <ele>979</ele>
        <time>2021-09-10T15:04:43.000Z</time>
      </trkpt>
      <trkpt lat="45.13624" lon="2.647">
        <ele>979.5</ele>
        <time>2021-09-10T15:04:58.000Z</time>
      </trkpt>
      <trkpt lat="45.13612" lon="2.64698">
        <ele>980.3</ele>
        <time>2021-09-10T15:05:13.000Z</time>
      </trkpt>
      <trkpt lat="45.13605" lon="2.64697">
        <ele>980.8</ele>
        <time>2021-09-10T15:05:21.000Z</time>
      </trkpt>
      <trkpt lat="45.13598" lon="2.64695">
        <ele>981.2</ele>
        <time>2021-09-10T15:05:29.000Z</time>
      </trkpt>
      <trkpt lat="45.13592" lon="2.64697">
        <ele>981.8</ele>
        <time>2021-09-10T15:05:35.000Z</time>
      </trkpt>
      <trkpt lat="45.13585" lon="2.64698">
        <ele>982.4</ele>
        <time>2021-09-10T15:05:41.000Z</time>
      </trkpt>
      <trkpt lat="45.13578" lon="2.647">
        <ele>983.1</ele>
        <time>2021-09-10T15:05:47.000Z</time>
      </trkpt>
      <trkpt lat="45.13571" lon="2.647">
        <ele>983.7</ele>
        <time>2021-09-10T15:05:52.000Z</time>
      </trkpt>
      <trkpt lat="45.13564" lon="2.64698">
        <ele>984.3</ele>
        <time>2021-09-10T15:05:58.000Z</time>
      </trkpt>
      <trkpt lat="45.13558" lon="2.64702">
        <ele>985</ele>
        <time>2021-09-10T15:06:04.000Z</time>
      </trkpt>
      <trkpt lat="45.13551" lon="2.64706">
        <ele>985.7</ele>
        <time>2021-09-10T15:06:11.000Z</time>
      </trkpt>
      <trkpt lat="45.13545" lon="2.6471">
        <ele>986.2</ele>
        <time>2021-09-10T15:06:15.000Z</time>
      </trkpt>
      <trkpt lat="45.1354" lon="2.64718">
        <ele>986.7</ele>
        <time>2021-09-10T15:06:21.000Z</time>
      </trkpt>
      <trkpt lat="45.13532" lon="2.64719">
        <ele>987.4</ele>
        <time>2021-09-10T15:06:25.000Z</time>
      </trkpt>
      <trkpt lat="45.13525" lon="2.64725">
        <ele>987.9</ele>
        <time>2021-09-10T15:06:30.000Z</time>
      </trkpt>
      <trkpt lat="45.13513" lon="2.64738">
        <ele>988.5</ele>
        <time>2021-09-10T15:06:36.000Z</time>
      </trkpt>
      <trkpt lat="45.13507" lon="2.64738">
        <ele>988.9</ele>
        <time>2021-09-10T15:06:43.000Z</time>
      </trkpt>
      <trkpt lat="45.13501" lon="2.64732">
        <ele>989.4</ele>
        <time>2021-09-10T15:07:13.000Z</time>
      </trkpt>
      <trkpt lat="45.13494" lon="2.64727">
        <ele>989.9</ele>
        <time>2021-09-10T15:07:17.000Z</time>
      </trkpt>
      <trkpt lat="45.13487" lon="2.64725">
        <ele>990.4</ele>
        <time>2021-09-10T15:07:25.000Z</time>
      </trkpt>
      <trkpt lat="45.13481" lon="2.64725">
        <ele>990.8</ele>
        <time>2021-09-10T15:07:41.000Z</time>
      </trkpt>
      <trkpt lat="45.13474" lon="2.64725">
        <ele>991.3</ele>
        <time>2021-09-10T15:07:49.000Z</time>
      </trkpt>
      <trkpt lat="45.13467" lon="2.64727">
        <ele>991.6</ele>
        <time>2021-09-10T15:07:53.000Z</time>
      </trkpt>
      <trkpt lat="45.1346" lon="2.64727">
        <ele>992.1</ele>
        <time>2021-09-10T15:07:57.000Z</time>
      </trkpt>
      <trkpt lat="45.13451" lon="2.64724">
        <ele>992.7</ele>
        <time>2021-09-10T15:08:03.000Z</time>
      </trkpt>
      <trkpt lat="45.13447" lon="2.64717">
        <ele>993.2</ele>
        <time>2021-09-10T15:08:09.000Z</time>
      </trkpt>
      <trkpt lat="45.13442" lon="2.6471">
        <ele>993.8</ele>
        <time>2021-09-10T15:08:15.000Z</time>
      </trkpt>
      <trkpt lat="45.13439" lon="2.64702">
        <ele>994.2</ele>
        <time>2021-09-10T15:08:24.000Z</time>
      </trkpt>
      <trkpt lat="45.13434" lon="2.64694">
        <ele>994.8</ele>
        <time>2021-09-10T15:08:37.000Z</time>
      </trkpt>
      <trkpt lat="45.13428" lon="2.64687">
        <ele>995.5</ele>
        <time>2021-09-10T15:08:44.000Z</time>
      </trkpt>
      <trkpt lat="45.13422" lon="2.64682">
        <ele>996.1</ele>
        <time>2021-09-10T15:08:51.000Z</time>
      </trkpt>
      <trkpt lat="45.13417" lon="2.64675">
        <ele>996.7</ele>
        <time>2021-09-10T15:08:59.000Z</time>
      </trkpt>
      <trkpt lat="45.1341" lon="2.64665">
        <ele>997.7</ele>
        <time>2021-09-10T15:09:22.000Z</time>
      </trkpt>
      <trkpt lat="45.13409" lon="2.64655">
        <ele>998.8</ele>
        <time>2021-09-10T15:09:32.000Z</time>
      </trkpt>
      <trkpt lat="45.13406" lon="2.64645">
        <ele>1000.1</ele>
        <time>2021-09-10T15:09:38.000Z</time>
      </trkpt>
      <trkpt lat="45.13404" lon="2.64635">
        <ele>1001.3</ele>
        <time>2021-09-10T15:09:44.000Z</time>
      </trkpt>
      <trkpt lat="45.13403" lon="2.64625">
        <ele>1002.5</ele>
        <time>2021-09-10T15:09:48.000Z</time>
      </trkpt>
      <trkpt lat="45.13399" lon="2.64617">
        <ele>1003.6</ele>
        <time>2021-09-10T15:09:56.000Z</time>
      </trkpt>
      <trkpt lat="45.13397" lon="2.64609">
        <ele>1004.6</ele>
        <time>2021-09-10T15:10:13.000Z</time>
      </trkpt>
      <trkpt lat="45.13395" lon="2.64599">
        <ele>1005.9</ele>
        <time>2021-09-10T15:10:19.000Z</time>
      </trkpt>
      <trkpt lat="45.13394" lon="2.64589">
        <ele>1007</ele>
        <time>2021-09-10T15:10:25.000Z</time>
      </trkpt>
      <trkpt lat="45.13391" lon="2.64581">
        <ele>1008.1</ele>
        <time>2021-09-10T15:10:29.000Z</time>
      </trkpt>
      <trkpt lat="45.13386" lon="2.64574">
        <ele>1009.1</ele>
        <time>2021-09-10T15:10:35.000Z</time>
      </trkpt>
      <trkpt lat="45.13382" lon="2.64566">
        <ele>1010.2</ele>
        <time>2021-09-10T15:10:40.000Z</time>
      </trkpt>
      <trkpt lat="45.1338" lon="2.64556">
        <ele>1011.4</ele>
        <time>2021-09-10T15:10:47.000Z</time>
      </trkpt>
      <trkpt lat="45.13376" lon="2.64547">
        <ele>1012.6</ele>
        <time>2021-09-10T15:10:52.000Z</time>
      </trkpt>
      <trkpt lat="45.1337" lon="2.64537">
        <ele>1014.1</ele>
        <time>2021-09-10T15:11:10.000Z</time>
      </trkpt>
      <trkpt lat="45.13361" lon="2.64531">
        <ele>1015.5</ele>
        <time>2021-09-10T15:11:19.000Z</time>
      </trkpt>
      <trkpt lat="45.13354" lon="2.64532">
        <ele>1015.9</ele>
        <time>2021-09-10T15:11:24.000Z</time>
      </trkpt>
      <trkpt lat="45.13346" lon="2.64538">
        <ele>1015.9</ele>
        <time>2021-09-10T15:11:37.000Z</time>
      </trkpt>
      <trkpt lat="45.13352" lon="2.64543">
        <ele>1014.9</ele>
        <time>2021-09-10T15:11:49.000Z</time>
      </trkpt>
      <trkpt lat="45.13351" lon="2.64521">
        <ele>1017.3</ele>
        <time>2021-09-10T15:12:06.000Z</time>
      </trkpt>
      <trkpt lat="45.13347" lon="2.64533">
        <ele>1016.4</ele>
        <time>2021-09-10T15:12:15.000Z</time>
      </trkpt>
      <trkpt lat="45.13347" lon="2.64544">
        <ele>1015.2</ele>
        <time>2021-09-10T15:12:22.000Z</time>
      </trkpt>
      <trkpt lat="45.13358" lon="2.64537">
        <ele>1015.1</ele>
        <time>2021-09-10T15:12:55.000Z</time>
      </trkpt>
      <trkpt lat="45.13352" lon="2.64535">
        <ele>1015.7</ele>
        <time>2021-09-10T15:13:16.000Z</time>
      </trkpt>
      <trkpt lat="45.13348" lon="2.64544">
        <ele>1015.1</ele>
        <time>2021-09-10T15:13:25.000Z</time>
      </trkpt>
      <trkpt lat="45.1334" lon="2.64548">
        <ele>1015.3</ele>
        <time>2021-09-10T15:13:29.000Z</time>
      </trkpt>
      <trkpt lat="45.13331" lon="2.64549">
        <ele>1016.1</ele>
        <time>2021-09-10T15:13:33.000Z</time>
      </trkpt>
      <trkpt lat="45.13322" lon="2.64548">
        <ele>1017.5</ele>
        <time>2021-09-10T15:13:39.000Z</time>
      </trkpt>
      <trkpt lat="45.13316" lon="2.64544">
        <ele>1018.8</ele>
        <time>2021-09-10T15:14:00.000Z</time>
      </trkpt>
      <trkpt lat="45.13315" lon="2.64535">
        <ele>1019.8</ele>
        <time>2021-09-10T15:14:12.000Z</time>
      </trkpt>
      <trkpt lat="45.1332" lon="2.64527">
        <ele>1019.9</ele>
        <time>2021-09-10T15:14:21.000Z</time>
      </trkpt>
      <trkpt lat="45.13314" lon="2.64526">
        <ele>1020.8</ele>
        <time>2021-09-10T15:14:35.000Z</time>
      </trkpt>
      <trkpt lat="45.13307" lon="2.64522">
        <ele>1022.1</ele>
        <time>2021-09-10T15:14:45.000Z</time>
      </trkpt>
      <trkpt lat="45.133" lon="2.64523">
        <ele>1023</ele>
        <time>2021-09-10T15:14:52.000Z</time>
      </trkpt>
      <trkpt lat="45.13293" lon="2.64522">
        <ele>1024</ele>
        <time>2021-09-10T15:15:06.000Z</time>
      </trkpt>
      <trkpt lat="45.13289" lon="2.64515">
        <ele>1025.1</ele>
        <time>2021-09-10T15:15:17.000Z</time>
      </trkpt>
      <trkpt lat="45.13283" lon="2.64508">
        <ele>1026.4</ele>
        <time>2021-09-10T15:15:28.000Z</time>
      </trkpt>
      <trkpt lat="45.13277" lon="2.645">
        <ele>1027.8</ele>
        <time>2021-09-10T15:15:37.000Z</time>
      </trkpt>
      <trkpt lat="45.13266" lon="2.64502">
        <ele>1028.9</ele>
        <time>2021-09-10T15:15:50.000Z</time>
      </trkpt>
      <trkpt lat="45.13273" lon="2.64505">
        <ele>1027.9</ele>
        <time>2021-09-10T15:16:48.000Z</time>
      </trkpt>
      <trkpt lat="45.13266" lon="2.64505">
        <ele>1028.7</ele>
        <time>2021-09-10T15:17:29.000Z</time>
      </trkpt>
      <trkpt lat="45.13258" lon="2.64505">
        <ele>1029.7</ele>
        <time>2021-09-10T15:18:11.000Z</time>
      </trkpt>
      <trkpt lat="45.13244" lon="2.64507">
        <ele>1032.7</ele>
        <time>2021-09-10T15:19:17.000Z</time>
      </trkpt>
      <trkpt lat="45.13237" lon="2.64506">
        <ele>1035.3</ele>
        <time>2021-09-10T15:19:26.000Z</time>
      </trkpt>
      <trkpt lat="45.1323" lon="2.64501">
        <ele>1038.1</ele>
        <time>2021-09-10T15:19:36.000Z</time>
      </trkpt>
      <trkpt lat="45.13224" lon="2.64499">
        <ele>1040.4</ele>
        <time>2021-09-10T15:19:42.000Z</time>
      </trkpt>
      <trkpt lat="45.13217" lon="2.64496">
        <ele>1043.2</ele>
        <time>2021-09-10T15:19:47.000Z</time>
      </trkpt>
      <trkpt lat="45.13211" lon="2.64498">
        <ele>1045.2</ele>
        <time>2021-09-10T15:19:54.000Z</time>
      </trkpt>
      <trkpt lat="45.13205" lon="2.64492">
        <ele>1047.9</ele>
        <time>2021-09-10T15:19:59.000Z</time>
      </trkpt>
      <trkpt lat="45.13198" lon="2.64488">
        <ele>1050.9</ele>
        <time>2021-09-10T15:20:06.000Z</time>
      </trkpt>
      <trkpt lat="45.13191" lon="2.64488">
        <ele>1053.5</ele>
        <time>2021-09-10T15:20:13.000Z</time>
      </trkpt>
      <trkpt lat="45.13187" lon="2.6448">
        <ele>1055.8</ele>
        <time>2021-09-10T15:20:24.000Z</time>
      </trkpt>
      <trkpt lat="45.13183" lon="2.64473">
        <ele>1058</ele>
        <time>2021-09-10T15:20:29.000Z</time>
      </trkpt>
      <trkpt lat="45.1317" lon="2.64467">
        <ele>1063.7</ele>
        <time>2021-09-10T15:21:09.000Z</time>
      </trkpt>
      <trkpt lat="45.13162" lon="2.6446">
        <ele>1067.9</ele>
        <time>2021-09-10T15:21:19.000Z</time>
      </trkpt>
      <trkpt lat="45.13157" lon="2.64453">
        <ele>1070.8</ele>
        <time>2021-09-10T15:21:26.000Z</time>
      </trkpt>
      <trkpt lat="45.1315" lon="2.64454">
        <ele>1073.7</ele>
        <time>2021-09-10T15:21:36.000Z</time>
      </trkpt>
      <trkpt lat="45.13143" lon="2.64452">
        <ele>1076.8</ele>
        <time>2021-09-10T15:21:59.000Z</time>
      </trkpt>
      <trkpt lat="45.13138" lon="2.64447">
        <ele>1079.3</ele>
        <time>2021-09-10T15:22:16.000Z</time>
      </trkpt>
      <trkpt lat="45.13133" lon="2.64428">
        <ele>1082.5</ele>
        <time>2021-09-10T15:22:51.000Z</time>
      </trkpt>
      <trkpt lat="45.13128" lon="2.64422">
        <ele>1084.7</ele>
        <time>2021-09-10T15:22:57.000Z</time>
      </trkpt>
      <trkpt lat="45.13121" lon="2.64413">
        <ele>1087.6</ele>
        <time>2021-09-10T15:23:03.000Z</time>
      </trkpt>
      <trkpt lat="45.13122" lon="2.64403">
        <ele>1087.7</ele>
        <time>2021-09-10T15:23:13.000Z</time>
      </trkpt>
      <trkpt lat="45.1313" lon="2.64399">
        <ele>1085.2</ele>
        <time>2021-09-10T15:23:19.000Z</time>
      </trkpt>
      <trkpt lat="45.13137" lon="2.64394">
        <ele>1083.3</ele>
        <time>2021-09-10T15:23:32.000Z</time>
      </trkpt>
      <trkpt lat="45.13131" lon="2.6439">
        <ele>1085.4</ele>
        <time>2021-09-10T15:23:54.000Z</time>
      </trkpt>
      <trkpt lat="45.13123" lon="2.64389">
        <ele>1087.9</ele>
        <time>2021-09-10T15:24:40.000Z</time>
      </trkpt>
      <trkpt lat="45.13117" lon="2.64384">
        <ele>1089.9</ele>
        <time>2021-09-10T15:24:45.000Z</time>
      </trkpt>
      <trkpt lat="45.1311" lon="2.64382">
        <ele>1092</ele>
        <time>2021-09-10T15:25:00.000Z</time>
      </trkpt>
      <trkpt lat="45.13117" lon="2.64382">
        <ele>1090</ele>
        <time>2021-09-10T15:25:05.000Z</time>
      </trkpt>
      <trkpt lat="45.13123" lon="2.6437">
        <ele>1088.8</ele>
        <time>2021-09-10T15:25:09.000Z</time>
      </trkpt>
      <trkpt lat="45.13115" lon="2.64367">
        <ele>1091</ele>
        <time>2021-09-10T15:25:15.000Z</time>
      </trkpt>
      <trkpt lat="45.13108" lon="2.64375">
        <ele>1092.7</ele>
        <time>2021-09-10T15:25:31.000Z</time>
      </trkpt>
      <trkpt lat="45.13117" lon="2.64365">
        <ele>1090.5</ele>
        <time>2021-09-10T15:25:54.000Z</time>
      </trkpt>
      <trkpt lat="45.13121" lon="2.64358">
        <ele>1089.8</ele>
        <time>2021-09-10T15:25:57.000Z</time>
      </trkpt>
      <trkpt lat="45.13131" lon="2.6434">
        <ele>1088.4</ele>
        <time>2021-09-10T15:26:03.000Z</time>
      </trkpt>
      <trkpt lat="45.13121" lon="2.64349">
        <ele>1090.1</ele>
        <time>2021-09-10T15:26:09.000Z</time>
      </trkpt>
      <trkpt lat="45.1311" lon="2.64351">
        <ele>1092.6</ele>
        <time>2021-09-10T15:26:15.000Z</time>
      </trkpt>
      <trkpt lat="45.13112" lon="2.64333">
        <ele>1092.5</ele>
        <time>2021-09-10T15:26:30.000Z</time>
      </trkpt>
      <trkpt lat="45.13118" lon="2.64328">
        <ele>1092.1</ele>
        <time>2021-09-10T15:26:33.000Z</time>
      </trkpt>
      <trkpt lat="45.13114" lon="2.64343">
        <ele>1091.9</ele>
        <time>2021-09-10T15:26:39.000Z</time>
      </trkpt>
      <trkpt lat="45.13123" lon="2.64338">
        <ele>1090.2</ele>
        <time>2021-09-10T15:26:50.000Z</time>
      </trkpt>
      <trkpt lat="45.13128" lon="2.64331">
        <ele>1089.8</ele>
        <time>2021-09-10T15:26:55.000Z</time>
      </trkpt>
      <trkpt lat="45.13135" lon="2.64331">
        <ele>1088.5</ele>
        <time>2021-09-10T15:27:03.000Z</time>
      </trkpt>
      <trkpt lat="45.1312" lon="2.64342">
        <ele>1090.6</ele>
        <time>2021-09-10T15:27:09.000Z</time>
      </trkpt>
      <trkpt lat="45.13115" lon="2.6435">
        <ele>1091.5</ele>
        <time>2021-09-10T15:27:25.000Z</time>
      </trkpt>
      <trkpt lat="45.13121" lon="2.64358">
        <ele>1089.8</ele>
        <time>2021-09-10T15:28:04.000Z</time>
      </trkpt>
      <trkpt lat="45.13131" lon="2.64367">
        <ele>1086.8</ele>
        <time>2021-09-10T15:28:09.000Z</time>
      </trkpt>
      <trkpt lat="45.13139" lon="2.6437">
        <ele>1084.5</ele>
        <time>2021-09-10T15:28:15.000Z</time>
      </trkpt>
      <trkpt lat="45.13132" lon="2.64367">
        <ele>1086.6</ele>
        <time>2021-09-10T15:28:22.000Z</time>
      </trkpt>
      <trkpt lat="45.13126" lon="2.6437">
        <ele>1088</ele>
        <time>2021-09-10T15:28:34.000Z</time>
      </trkpt>
      <trkpt lat="45.1312" lon="2.64377">
        <ele>1089.3</ele>
        <time>2021-09-10T15:28:44.000Z</time>
      </trkpt>
      <trkpt lat="45.1311" lon="2.64384">
        <ele>1092</ele>
        <time>2021-09-10T15:28:51.000Z</time>
      </trkpt>
      <trkpt lat="45.13107" lon="2.64393">
        <ele>1092.8</ele>
        <time>2021-09-10T15:29:09.000Z</time>
      </trkpt>
      <trkpt lat="45.13092" lon="2.644">
        <ele>1097.6</ele>
        <time>2021-09-10T15:29:15.000Z</time>
      </trkpt>
      <trkpt lat="45.13084" lon="2.64409">
        <ele>1100.5</ele>
        <time>2021-09-10T15:29:21.000Z</time>
      </trkpt>
      <trkpt lat="45.13079" lon="2.64428">
        <ele>1102.4</ele>
        <time>2021-09-10T15:29:27.000Z</time>
      </trkpt>
      <trkpt lat="45.13096" lon="2.64428">
        <ele>1096.6</ele>
        <time>2021-09-10T15:29:33.000Z</time>
      </trkpt>
      <trkpt lat="45.13102" lon="2.64422">
        <ele>1094.3</ele>
        <time>2021-09-10T15:29:50.000Z</time>
      </trkpt>
      <trkpt lat="45.13107" lon="2.64415">
        <ele>1092.5</ele>
        <time>2021-09-10T15:29:56.000Z</time>
      </trkpt>
      <trkpt lat="45.13121" lon="2.64412">
        <ele>1087.6</ele>
        <time>2021-09-10T15:30:10.000Z</time>
      </trkpt>
      <trkpt lat="45.13119" lon="2.64421">
        <ele>1088</ele>
        <time>2021-09-10T15:30:50.000Z</time>
      </trkpt>
      <trkpt lat="45.13121" lon="2.64433">
        <ele>1086.9</ele>
        <time>2021-09-10T15:31:25.000Z</time>
      </trkpt>
      <trkpt lat="45.13125" lon="2.64441">
        <ele>1085</ele>
        <time>2021-09-10T15:31:31.000Z</time>
      </trkpt>
      <trkpt lat="45.13127" lon="2.6445">
        <ele>1083.8</ele>
        <time>2021-09-10T15:31:43.000Z</time>
      </trkpt>
      <trkpt lat="45.13134" lon="2.64452">
        <ele>1080.7</ele>
        <time>2021-09-10T15:31:51.000Z</time>
      </trkpt>
      <trkpt lat="45.13153" lon="2.64452">
        <ele>1072.6</ele>
        <time>2021-09-10T15:31:57.000Z</time>
      </trkpt>
      <trkpt lat="45.13164" lon="2.64452">
        <ele>1067.9</ele>
        <time>2021-09-10T15:32:04.000Z</time>
      </trkpt>
      <trkpt lat="45.1317" lon="2.64457">
        <ele>1064.9</ele>
        <time>2021-09-10T15:32:14.000Z</time>
      </trkpt>
      <trkpt lat="45.1317" lon="2.64466">
        <ele>1063.8</ele>
        <time>2021-09-10T15:32:28.000Z</time>
      </trkpt>
      <trkpt lat="45.13165" lon="2.64481">
        <ele>1064.1</ele>
        <time>2021-09-10T15:33:24.000Z</time>
      </trkpt>
      <trkpt lat="45.13157" lon="2.64488">
        <ele>1067.2</ele>
        <time>2021-09-10T15:33:51.000Z</time>
      </trkpt>
      <trkpt lat="45.1315" lon="2.64487">
        <ele>1070.8</ele>
        <time>2021-09-10T15:34:02.000Z</time>
      </trkpt>
      <trkpt lat="45.13144" lon="2.64481">
        <ele>1074.2</ele>
        <time>2021-09-10T15:34:08.000Z</time>
      </trkpt>
      <trkpt lat="45.13139" lon="2.64475">
        <ele>1077</ele>
        <time>2021-09-10T15:34:13.000Z</time>
      </trkpt>
      <trkpt lat="45.13135" lon="2.64466">
        <ele>1079.4</ele>
        <time>2021-09-10T15:34:20.000Z</time>
      </trkpt>
      <trkpt lat="45.13132" lon="2.64475">
        <ele>1080.3</ele>
        <time>2021-09-10T15:34:31.000Z</time>
      </trkpt>
      <trkpt lat="45.13126" lon="2.64476">
        <ele>1083</ele>
        <time>2021-09-10T15:34:50.000Z</time>
      </trkpt>
      <trkpt lat="45.13119" lon="2.64474">
        <ele>1086.4</ele>
        <time>2021-09-10T15:35:04.000Z</time>
      </trkpt>
      <trkpt lat="45.13112" lon="2.64473">
        <ele>1089.7</ele>
        <time>2021-09-10T15:35:16.000Z</time>
      </trkpt>
      <trkpt lat="45.13108" lon="2.64462">
        <ele>1091.7</ele>
        <time>2021-09-10T15:35:35.000Z</time>
      </trkpt>
      <trkpt lat="45.13101" lon="2.64465">
        <ele>1094.8</ele>
        <time>2021-09-10T15:35:53.000Z</time>
      </trkpt>
      <trkpt lat="45.131" lon="2.64455">
        <ele>1095.2</ele>
        <time>2021-09-10T15:36:09.000Z</time>
      </trkpt>
      <trkpt lat="45.13091" lon="2.64447">
        <ele>1098.9</ele>
        <time>2021-09-10T15:36:24.000Z</time>
      </trkpt>
      <trkpt lat="45.13091" lon="2.64437">
        <ele>1098.7</ele>
        <time>2021-09-10T15:36:43.000Z</time>
      </trkpt>
      <trkpt lat="45.13088" lon="2.64427">
        <ele>1099.6</ele>
        <time>2021-09-10T15:37:13.000Z</time>
      </trkpt>
      <trkpt lat="45.1309" lon="2.64418">
        <ele>1098.6</ele>
        <time>2021-09-10T15:37:27.000Z</time>
      </trkpt>
      <trkpt lat="45.1309" lon="2.64408">
        <ele>1098.4</ele>
        <time>2021-09-10T15:37:33.000Z</time>
      </trkpt>
      <trkpt lat="45.13091" lon="2.64399">
        <ele>1097.9</ele>
        <time>2021-09-10T15:37:45.000Z</time>
      </trkpt>
      <trkpt lat="45.13087" lon="2.64392">
        <ele>1099</ele>
        <time>2021-09-10T15:37:55.000Z</time>
      </trkpt>
      <trkpt lat="45.13082" lon="2.6438">
        <ele>1099.9</ele>
        <time>2021-09-10T15:38:42.000Z</time>
      </trkpt>
      <trkpt lat="45.13086" lon="2.64372">
        <ele>1098.7</ele>
        <time>2021-09-10T15:40:00.000Z</time>
      </trkpt>
      <trkpt lat="45.13076" lon="2.64362">
        <ele>1099.7</ele>
        <time>2021-09-10T15:40:51.000Z</time>
      </trkpt>
      <trkpt lat="45.13067" lon="2.6436">
        <ele>1100.5</ele>
        <time>2021-09-10T15:40:57.000Z</time>
      </trkpt>
      <trkpt lat="45.1306" lon="2.64359">
        <ele>1101.1</ele>
        <time>2021-09-10T15:41:15.000Z</time>
      </trkpt>
      <trkpt lat="45.13059" lon="2.64369">
        <ele>1102</ele>
        <time>2021-09-10T15:41:42.000Z</time>
      </trkpt>
      <trkpt lat="45.13061" lon="2.64359">
        <ele>1101</ele>
        <time>2021-09-10T15:41:54.000Z</time>
      </trkpt>
      <trkpt lat="45.13062" lon="2.64349">
        <ele>1100.2</ele>
        <time>2021-09-10T15:42:04.000Z</time>
      </trkpt>
      <trkpt lat="45.13062" lon="2.64339">
        <ele>1099.4</ele>
        <time>2021-09-10T15:42:14.000Z</time>
      </trkpt>
      <trkpt lat="45.13054" lon="2.64338">
        <ele>1099.8</ele>
        <time>2021-09-10T15:42:46.000Z</time>
      </trkpt>
      <trkpt lat="45.13047" lon="2.64338">
        <ele>1100.2</ele>
        <time>2021-09-10T15:42:53.000Z</time>
      </trkpt>
      <trkpt lat="45.1304" lon="2.64335">
        <ele>1100.3</ele>
        <time>2021-09-10T15:43:00.000Z</time>
      </trkpt>
      <trkpt lat="45.13047" lon="2.64331">
        <ele>1099.9</ele>
        <time>2021-09-10T15:43:28.000Z</time>
      </trkpt>
      <trkpt lat="45.13043" lon="2.64319">
        <ele>1100.8</ele>
        <time>2021-09-10T15:43:54.000Z</time>
      </trkpt>
      <trkpt lat="45.13049" lon="2.64327">
        <ele>1100</ele>
        <time>2021-09-10T15:44:00.000Z</time>
      </trkpt>
      <trkpt lat="45.13048" lon="2.64336">
        <ele>1100</ele>
        <time>2021-09-10T15:44:19.000Z</time>
      </trkpt>
      <trkpt lat="45.1304" lon="2.64347">
        <ele>1101.6</ele>
        <time>2021-09-10T15:45:23.000Z</time>
      </trkpt>
      <trkpt lat="45.13034" lon="2.64355">
        <ele>1103</ele>
        <time>2021-09-10T15:45:40.000Z</time>
      </trkpt>
      <trkpt lat="45.13033" lon="2.64366">
        <ele>1104.4</ele>
        <time>2021-09-10T15:46:05.000Z</time>
      </trkpt>
      <trkpt lat="45.13039" lon="2.64368">
        <ele>1104</ele>
        <time>2021-09-10T15:46:10.000Z</time>
      </trkpt>
      <trkpt lat="45.13034" lon="2.64376">
        <ele>1105.5</ele>
        <time>2021-09-10T15:46:22.000Z</time>
      </trkpt>
      <trkpt lat="45.13029" lon="2.64381">
        <ele>1106.8</ele>
        <time>2021-09-10T15:46:28.000Z</time>
      </trkpt>
      <trkpt lat="45.13029" lon="2.64391">
        <ele>1108.1</ele>
        <time>2021-09-10T15:46:47.000Z</time>
      </trkpt>
      <trkpt lat="45.13036" lon="2.64396">
        <ele>1107.7</ele>
        <time>2021-09-10T15:46:54.000Z</time>
      </trkpt>
      <trkpt lat="45.13044" lon="2.64393">
        <ele>1106.1</ele>
        <time>2021-09-10T15:46:57.000Z</time>
      </trkpt>
      <trkpt lat="45.1305" lon="2.64387">
        <ele>1104.6</ele>
        <time>2021-09-10T15:47:04.000Z</time>
      </trkpt>
      <trkpt lat="45.13046" lon="2.6438">
        <ele>1104.5</ele>
        <time>2021-09-10T15:47:33.000Z</time>
      </trkpt>
      <trkpt lat="45.13044" lon="2.64391">
        <ele>1105.9</ele>
        <time>2021-09-10T15:47:54.000Z</time>
      </trkpt>
      <trkpt lat="45.13046" lon="2.64377">
        <ele>1104.2</ele>
        <time>2021-09-10T15:48:28.000Z</time>
      </trkpt>
      <trkpt lat="45.13044" lon="2.64367">
        <ele>1103.4</ele>
        <time>2021-09-10T15:48:34.000Z</time>
      </trkpt>
      <trkpt lat="45.13051" lon="2.64365">
        <ele>1102.5</ele>
        <time>2021-09-10T15:48:39.000Z</time>
      </trkpt>
      <trkpt lat="45.13049" lon="2.64351">
        <ele>1101.3</ele>
        <time>2021-09-10T15:49:01.000Z</time>
      </trkpt>
      <trkpt lat="45.13046" lon="2.64337">
        <ele>1100.2</ele>
        <time>2021-09-10T15:49:22.000Z</time>
      </trkpt>
    </trkseg>
  </trk>
</gpx>